<?xml version="1.0" encoding="UTF-8" standalone="no" ?>
<gpx xmlns="http://www.topografix.com/GPX/1/1" xmlns:xsi="http://www.w3.org/2001/XMLSchema-instance" xsi:schemaLocation="http://www.topografix.com/GPX/1/1 http://www.topografix.com/GPX/1/1/gpx.xsd" version="1.1" creator="VisuGPX - https://www.visugpx.com">
  <metadata>
    <name>Petite balade fun.</name>
    <desc><![CDATA[Petite balade découverte faite avec ma fille. La 1ere montée est un peu dure (raide et peu etre boueuse) sinon le reste est bien fun]]></desc>
  </metadata>
  <trk>
    <name><![CDATA[Boucle avec Yaelle. Easy loop with my daughter]]></name>
    <trkseg>
      <trkpt lat="45.43815" lon="5.77416">
        <ele>411</ele>
        <time>2019-04-17T12:30:34Z</time>
      </trkpt>
      <trkpt lat="45.43818" lon="5.77417">
        <ele>411</ele>
        <time>2019-04-17T12:31:13Z</time>
      </trkpt>
      <trkpt lat="45.43822" lon="5.7742">
        <ele>411</ele>
        <time>2019-04-17T12:31:15Z</time>
      </trkpt>
      <trkpt lat="45.43825" lon="5.77419">
        <ele>410.9</ele>
        <time>2019-04-17T12:31:17Z</time>
      </trkpt>
      <trkpt lat="45.4383" lon="5.77417">
        <ele>410.9</ele>
        <time>2019-04-17T12:31:19Z</time>
      </trkpt>
      <trkpt lat="45.43833" lon="5.77416">
        <ele>410.8</ele>
        <time>2019-04-17T12:31:21Z</time>
      </trkpt>
      <trkpt lat="45.43837" lon="5.77418">
        <ele>410.8</ele>
        <time>2019-04-17T12:31:23Z</time>
      </trkpt>
      <trkpt lat="45.4384" lon="5.7742">
        <ele>410.8</ele>
        <time>2019-04-17T12:31:24Z</time>
      </trkpt>
      <trkpt lat="45.43843" lon="5.77423">
        <ele>410.7</ele>
        <time>2019-04-17T12:31:25Z</time>
      </trkpt>
      <trkpt lat="45.43854" lon="5.77434">
        <ele>410.6</ele>
        <time>2019-04-17T12:31:26Z</time>
      </trkpt>
      <trkpt lat="45.43858" lon="5.7743">
        <ele>410.5</ele>
        <time>2019-04-17T12:31:28Z</time>
      </trkpt>
      <trkpt lat="45.4386" lon="5.77426">
        <ele>410.5</ele>
        <time>2019-04-17T12:31:31Z</time>
      </trkpt>
      <trkpt lat="45.4386" lon="5.7742">
        <ele>410.2</ele>
        <time>2019-04-17T12:31:33Z</time>
      </trkpt>
      <trkpt lat="45.4386" lon="5.77415">
        <ele>410.1</ele>
        <time>2019-04-17T12:31:34Z</time>
      </trkpt>
      <trkpt lat="45.43861" lon="5.77411">
        <ele>410</ele>
        <time>2019-04-17T12:31:35Z</time>
      </trkpt>
      <trkpt lat="45.43863" lon="5.77407">
        <ele>409.9</ele>
        <time>2019-04-17T12:31:37Z</time>
      </trkpt>
      <trkpt lat="45.43866" lon="5.77402">
        <ele>409.8</ele>
        <time>2019-04-17T12:31:39Z</time>
      </trkpt>
      <trkpt lat="45.4387" lon="5.77397">
        <ele>409.7</ele>
        <time>2019-04-17T12:31:41Z</time>
      </trkpt>
      <trkpt lat="45.43875" lon="5.77392">
        <ele>409.5</ele>
        <time>2019-04-17T12:31:43Z</time>
      </trkpt>
      <trkpt lat="45.43878" lon="5.77385">
        <ele>409.3</ele>
        <time>2019-04-17T12:31:44Z</time>
      </trkpt>
      <trkpt lat="45.43881" lon="5.77377">
        <ele>408.9</ele>
        <time>2019-04-17T12:31:45Z</time>
      </trkpt>
      <trkpt lat="45.43883" lon="5.77369">
        <ele>408.9</ele>
        <time>2019-04-17T12:31:46Z</time>
      </trkpt>
      <trkpt lat="45.43886" lon="5.77356">
        <ele>408.5</ele>
        <time>2019-04-17T12:31:47Z</time>
      </trkpt>
      <trkpt lat="45.43887" lon="5.77338">
        <ele>407.8</ele>
        <time>2019-04-17T12:31:48Z</time>
      </trkpt>
      <trkpt lat="45.43886" lon="5.77332">
        <ele>407.4</ele>
        <time>2019-04-17T12:31:49Z</time>
      </trkpt>
      <trkpt lat="45.43884" lon="5.77326">
        <ele>407.3</ele>
        <time>2019-04-17T12:31:50Z</time>
      </trkpt>
      <trkpt lat="45.43883" lon="5.77321">
        <ele>407.3</ele>
        <time>2019-04-17T12:31:51Z</time>
      </trkpt>
      <trkpt lat="45.4388" lon="5.77316">
        <ele>407.3</ele>
        <time>2019-04-17T12:31:52Z</time>
      </trkpt>
      <trkpt lat="45.43878" lon="5.77313">
        <ele>407.3</ele>
        <time>2019-04-17T12:31:53Z</time>
      </trkpt>
      <trkpt lat="45.43873" lon="5.77311">
        <ele>407.3</ele>
        <time>2019-04-17T12:31:54Z</time>
      </trkpt>
      <trkpt lat="45.4387" lon="5.77307">
        <ele>407.3</ele>
        <time>2019-04-17T12:31:55Z</time>
      </trkpt>
      <trkpt lat="45.43866" lon="5.77306">
        <ele>407.3</ele>
        <time>2019-04-17T12:31:56Z</time>
      </trkpt>
      <trkpt lat="45.43862" lon="5.77304">
        <ele>407.4</ele>
        <time>2019-04-17T12:31:58Z</time>
      </trkpt>
      <trkpt lat="45.43859" lon="5.77303">
        <ele>407.4</ele>
        <time>2019-04-17T12:31:59Z</time>
      </trkpt>
      <trkpt lat="45.43851" lon="5.77297">
        <ele>407.4</ele>
        <time>2019-04-17T12:32:00Z</time>
      </trkpt>
      <trkpt lat="45.43847" lon="5.77295">
        <ele>407.3</ele>
        <time>2019-04-17T12:32:01Z</time>
      </trkpt>
      <trkpt lat="45.43844" lon="5.77293">
        <ele>407.3</ele>
        <time>2019-04-17T12:32:02Z</time>
      </trkpt>
      <trkpt lat="45.43839" lon="5.77293">
        <ele>407.3</ele>
        <time>2019-04-17T12:32:03Z</time>
      </trkpt>
      <trkpt lat="45.43835" lon="5.77291">
        <ele>407.4</ele>
        <time>2019-04-17T12:32:04Z</time>
      </trkpt>
      <trkpt lat="45.43831" lon="5.77291">
        <ele>407.4</ele>
        <time>2019-04-17T12:32:05Z</time>
      </trkpt>
      <trkpt lat="45.43827" lon="5.77292">
        <ele>407.4</ele>
        <time>2019-04-17T12:32:06Z</time>
      </trkpt>
      <trkpt lat="45.43824" lon="5.7729">
        <ele>407.4</ele>
        <time>2019-04-17T12:32:08Z</time>
      </trkpt>
      <trkpt lat="45.4382" lon="5.77289">
        <ele>407.4</ele>
        <time>2019-04-17T12:32:10Z</time>
      </trkpt>
      <trkpt lat="45.43816" lon="5.77287">
        <ele>407.4</ele>
        <time>2019-04-17T12:32:11Z</time>
      </trkpt>
      <trkpt lat="45.43811" lon="5.77285">
        <ele>407.4</ele>
        <time>2019-04-17T12:32:12Z</time>
      </trkpt>
      <trkpt lat="45.438" lon="5.77288">
        <ele>407.3</ele>
        <time>2019-04-17T12:32:13Z</time>
      </trkpt>
      <trkpt lat="45.43796" lon="5.77287">
        <ele>407.2</ele>
        <time>2019-04-17T12:32:14Z</time>
      </trkpt>
      <trkpt lat="45.43791" lon="5.77287">
        <ele>407.2</ele>
        <time>2019-04-17T12:32:15Z</time>
      </trkpt>
      <trkpt lat="45.43786" lon="5.77286">
        <ele>407.2</ele>
        <time>2019-04-17T12:32:16Z</time>
      </trkpt>
      <trkpt lat="45.43781" lon="5.77286">
        <ele>407.1</ele>
        <time>2019-04-17T12:32:17Z</time>
      </trkpt>
      <trkpt lat="45.43777" lon="5.77285">
        <ele>407.1</ele>
        <time>2019-04-17T12:32:18Z</time>
      </trkpt>
      <trkpt lat="45.43771" lon="5.77284">
        <ele>407</ele>
        <time>2019-04-17T12:32:19Z</time>
      </trkpt>
      <trkpt lat="45.43767" lon="5.77285">
        <ele>407</ele>
        <time>2019-04-17T12:32:20Z</time>
      </trkpt>
      <trkpt lat="45.43762" lon="5.77285">
        <ele>407</ele>
        <time>2019-04-17T12:32:21Z</time>
      </trkpt>
      <trkpt lat="45.43758" lon="5.77283">
        <ele>407</ele>
        <time>2019-04-17T12:32:22Z</time>
      </trkpt>
      <trkpt lat="45.43752" lon="5.77283">
        <ele>406.9</ele>
        <time>2019-04-17T12:32:23Z</time>
      </trkpt>
      <trkpt lat="45.43747" lon="5.77283">
        <ele>406.9</ele>
        <time>2019-04-17T12:32:24Z</time>
      </trkpt>
      <trkpt lat="45.43742" lon="5.77282">
        <ele>406.9</ele>
        <time>2019-04-17T12:32:25Z</time>
      </trkpt>
      <trkpt lat="45.43737" lon="5.77282">
        <ele>406.9</ele>
        <time>2019-04-17T12:32:26Z</time>
      </trkpt>
      <trkpt lat="45.43733" lon="5.77282">
        <ele>406.9</ele>
        <time>2019-04-17T12:32:27Z</time>
      </trkpt>
      <trkpt lat="45.43727" lon="5.77282">
        <ele>406.9</ele>
        <time>2019-04-17T12:32:28Z</time>
      </trkpt>
      <trkpt lat="45.43723" lon="5.77283">
        <ele>406.9</ele>
        <time>2019-04-17T12:32:29Z</time>
      </trkpt>
      <trkpt lat="45.43718" lon="5.77283">
        <ele>407</ele>
        <time>2019-04-17T12:32:30Z</time>
      </trkpt>
      <trkpt lat="45.43714" lon="5.77282">
        <ele>407</ele>
        <time>2019-04-17T12:32:31Z</time>
      </trkpt>
      <trkpt lat="45.4371" lon="5.77282">
        <ele>407</ele>
        <time>2019-04-17T12:32:32Z</time>
      </trkpt>
      <trkpt lat="45.43705" lon="5.77282">
        <ele>407.1</ele>
        <time>2019-04-17T12:32:33Z</time>
      </trkpt>
      <trkpt lat="45.43701" lon="5.77282">
        <ele>407.1</ele>
        <time>2019-04-17T12:32:34Z</time>
      </trkpt>
      <trkpt lat="45.43696" lon="5.77281">
        <ele>407.1</ele>
        <time>2019-04-17T12:32:35Z</time>
      </trkpt>
      <trkpt lat="45.43692" lon="5.77281">
        <ele>407.2</ele>
        <time>2019-04-17T12:32:36Z</time>
      </trkpt>
      <trkpt lat="45.43687" lon="5.77281">
        <ele>407.2</ele>
        <time>2019-04-17T12:32:37Z</time>
      </trkpt>
      <trkpt lat="45.43682" lon="5.7728">
        <ele>407.2</ele>
        <time>2019-04-17T12:32:38Z</time>
      </trkpt>
      <trkpt lat="45.43677" lon="5.77279">
        <ele>407.3</ele>
        <time>2019-04-17T12:32:39Z</time>
      </trkpt>
      <trkpt lat="45.43674" lon="5.77277">
        <ele>407.3</ele>
        <time>2019-04-17T12:32:40Z</time>
      </trkpt>
      <trkpt lat="45.4367" lon="5.77275">
        <ele>407.3</ele>
        <time>2019-04-17T12:32:41Z</time>
      </trkpt>
      <trkpt lat="45.43666" lon="5.77271">
        <ele>407.3</ele>
        <time>2019-04-17T12:32:42Z</time>
      </trkpt>
      <trkpt lat="45.43663" lon="5.77268">
        <ele>407.3</ele>
        <time>2019-04-17T12:32:43Z</time>
      </trkpt>
      <trkpt lat="45.4366" lon="5.77264">
        <ele>407.3</ele>
        <time>2019-04-17T12:32:44Z</time>
      </trkpt>
      <trkpt lat="45.43656" lon="5.77258">
        <ele>407.3</ele>
        <time>2019-04-17T12:32:46Z</time>
      </trkpt>
      <trkpt lat="45.43653" lon="5.77253">
        <ele>407.3</ele>
        <time>2019-04-17T12:32:47Z</time>
      </trkpt>
      <trkpt lat="45.4365" lon="5.77248">
        <ele>407.3</ele>
        <time>2019-04-17T12:32:48Z</time>
      </trkpt>
      <trkpt lat="45.43647" lon="5.77243">
        <ele>407.3</ele>
        <time>2019-04-17T12:32:49Z</time>
      </trkpt>
      <trkpt lat="45.43642" lon="5.77238">
        <ele>407.3</ele>
        <time>2019-04-17T12:32:50Z</time>
      </trkpt>
      <trkpt lat="45.43639" lon="5.77233">
        <ele>407.2</ele>
        <time>2019-04-17T12:32:51Z</time>
      </trkpt>
      <trkpt lat="45.43635" lon="5.77227">
        <ele>407.2</ele>
        <time>2019-04-17T12:32:52Z</time>
      </trkpt>
      <trkpt lat="45.43632" lon="5.77222">
        <ele>407.2</ele>
        <time>2019-04-17T12:32:53Z</time>
      </trkpt>
      <trkpt lat="45.43629" lon="5.77216">
        <ele>407.1</ele>
        <time>2019-04-17T12:32:54Z</time>
      </trkpt>
      <trkpt lat="45.43625" lon="5.77213">
        <ele>407.1</ele>
        <time>2019-04-17T12:32:55Z</time>
      </trkpt>
      <trkpt lat="45.43622" lon="5.77208">
        <ele>407</ele>
        <time>2019-04-17T12:32:56Z</time>
      </trkpt>
      <trkpt lat="45.43619" lon="5.77203">
        <ele>407</ele>
        <time>2019-04-17T12:32:57Z</time>
      </trkpt>
      <trkpt lat="45.43616" lon="5.77198">
        <ele>406.9</ele>
        <time>2019-04-17T12:32:58Z</time>
      </trkpt>
      <trkpt lat="45.43613" lon="5.77194">
        <ele>406.9</ele>
        <time>2019-04-17T12:32:59Z</time>
      </trkpt>
      <trkpt lat="45.4361" lon="5.77189">
        <ele>406.8</ele>
        <time>2019-04-17T12:33:00Z</time>
      </trkpt>
      <trkpt lat="45.43607" lon="5.77184">
        <ele>406.7</ele>
        <time>2019-04-17T12:33:01Z</time>
      </trkpt>
      <trkpt lat="45.43604" lon="5.77178">
        <ele>406.7</ele>
        <time>2019-04-17T12:33:02Z</time>
      </trkpt>
      <trkpt lat="45.43602" lon="5.77174">
        <ele>406.6</ele>
        <time>2019-04-17T12:33:03Z</time>
      </trkpt>
      <trkpt lat="45.436" lon="5.77171">
        <ele>406.5</ele>
        <time>2019-04-17T12:33:04Z</time>
      </trkpt>
      <trkpt lat="45.43596" lon="5.77165">
        <ele>406.5</ele>
        <time>2019-04-17T12:33:05Z</time>
      </trkpt>
      <trkpt lat="45.43593" lon="5.7716">
        <ele>406.4</ele>
        <time>2019-04-17T12:33:06Z</time>
      </trkpt>
      <trkpt lat="45.43589" lon="5.77155">
        <ele>406.3</ele>
        <time>2019-04-17T12:33:07Z</time>
      </trkpt>
      <trkpt lat="45.43586" lon="5.77147">
        <ele>406.2</ele>
        <time>2019-04-17T12:33:08Z</time>
      </trkpt>
      <trkpt lat="45.43582" lon="5.77143">
        <ele>406.1</ele>
        <time>2019-04-17T12:33:09Z</time>
      </trkpt>
      <trkpt lat="45.43579" lon="5.77139">
        <ele>406</ele>
        <time>2019-04-17T12:33:10Z</time>
      </trkpt>
      <trkpt lat="45.43575" lon="5.77134">
        <ele>406</ele>
        <time>2019-04-17T12:33:11Z</time>
      </trkpt>
      <trkpt lat="45.43572" lon="5.77128">
        <ele>405.9</ele>
        <time>2019-04-17T12:33:12Z</time>
      </trkpt>
      <trkpt lat="45.43568" lon="5.77123">
        <ele>405.8</ele>
        <time>2019-04-17T12:33:13Z</time>
      </trkpt>
      <trkpt lat="45.43564" lon="5.77119">
        <ele>405.7</ele>
        <time>2019-04-17T12:33:14Z</time>
      </trkpt>
      <trkpt lat="45.4356" lon="5.77113">
        <ele>405.7</ele>
        <time>2019-04-17T12:33:15Z</time>
      </trkpt>
      <trkpt lat="45.43555" lon="5.77108">
        <ele>405.6</ele>
        <time>2019-04-17T12:33:16Z</time>
      </trkpt>
      <trkpt lat="45.43551" lon="5.77103">
        <ele>405.5</ele>
        <time>2019-04-17T12:33:17Z</time>
      </trkpt>
      <trkpt lat="45.43547" lon="5.77098">
        <ele>405.5</ele>
        <time>2019-04-17T12:33:18Z</time>
      </trkpt>
      <trkpt lat="45.43544" lon="5.77092">
        <ele>405.4</ele>
        <time>2019-04-17T12:33:19Z</time>
      </trkpt>
      <trkpt lat="45.4354" lon="5.77088">
        <ele>405.3</ele>
        <time>2019-04-17T12:33:20Z</time>
      </trkpt>
      <trkpt lat="45.43536" lon="5.77083">
        <ele>405.3</ele>
        <time>2019-04-17T12:33:21Z</time>
      </trkpt>
      <trkpt lat="45.43532" lon="5.77079">
        <ele>405.2</ele>
        <time>2019-04-17T12:33:22Z</time>
      </trkpt>
      <trkpt lat="45.43527" lon="5.77074">
        <ele>405.1</ele>
        <time>2019-04-17T12:33:23Z</time>
      </trkpt>
      <trkpt lat="45.43524" lon="5.77068">
        <ele>405.1</ele>
        <time>2019-04-17T12:33:24Z</time>
      </trkpt>
      <trkpt lat="45.43521" lon="5.77062">
        <ele>405</ele>
        <time>2019-04-17T12:33:25Z</time>
      </trkpt>
      <trkpt lat="45.43515" lon="5.77058">
        <ele>404.9</ele>
        <time>2019-04-17T12:33:26Z</time>
      </trkpt>
      <trkpt lat="45.43511" lon="5.77054">
        <ele>404.8</ele>
        <time>2019-04-17T12:33:27Z</time>
      </trkpt>
      <trkpt lat="45.43506" lon="5.77049">
        <ele>404.7</ele>
        <time>2019-04-17T12:33:28Z</time>
      </trkpt>
      <trkpt lat="45.43502" lon="5.77044">
        <ele>404.6</ele>
        <time>2019-04-17T12:33:29Z</time>
      </trkpt>
      <trkpt lat="45.43497" lon="5.77039">
        <ele>404.5</ele>
        <time>2019-04-17T12:33:30Z</time>
      </trkpt>
      <trkpt lat="45.43493" lon="5.77034">
        <ele>404.5</ele>
        <time>2019-04-17T12:33:31Z</time>
      </trkpt>
      <trkpt lat="45.43489" lon="5.77029">
        <ele>404.4</ele>
        <time>2019-04-17T12:33:32Z</time>
      </trkpt>
      <trkpt lat="45.43485" lon="5.77024">
        <ele>404.3</ele>
        <time>2019-04-17T12:33:33Z</time>
      </trkpt>
      <trkpt lat="45.43481" lon="5.77019">
        <ele>404.2</ele>
        <time>2019-04-17T12:33:34Z</time>
      </trkpt>
      <trkpt lat="45.43477" lon="5.77012">
        <ele>404.1</ele>
        <time>2019-04-17T12:33:35Z</time>
      </trkpt>
      <trkpt lat="45.43473" lon="5.77006">
        <ele>404.1</ele>
        <time>2019-04-17T12:33:36Z</time>
      </trkpt>
      <trkpt lat="45.43469" lon="5.77">
        <ele>404</ele>
        <time>2019-04-17T12:33:37Z</time>
      </trkpt>
      <trkpt lat="45.43465" lon="5.76992">
        <ele>403.9</ele>
        <time>2019-04-17T12:33:38Z</time>
      </trkpt>
      <trkpt lat="45.4346" lon="5.76986">
        <ele>403.8</ele>
        <time>2019-04-17T12:33:39Z</time>
      </trkpt>
      <trkpt lat="45.43455" lon="5.7698">
        <ele>403.8</ele>
        <time>2019-04-17T12:33:40Z</time>
      </trkpt>
      <trkpt lat="45.43451" lon="5.76973">
        <ele>403.7</ele>
        <time>2019-04-17T12:33:41Z</time>
      </trkpt>
      <trkpt lat="45.43447" lon="5.76967">
        <ele>403.6</ele>
        <time>2019-04-17T12:33:42Z</time>
      </trkpt>
      <trkpt lat="45.43443" lon="5.76959">
        <ele>403.5</ele>
        <time>2019-04-17T12:33:43Z</time>
      </trkpt>
      <trkpt lat="45.43439" lon="5.76953">
        <ele>403.5</ele>
        <time>2019-04-17T12:33:44Z</time>
      </trkpt>
      <trkpt lat="45.43435" lon="5.76946">
        <ele>403.4</ele>
        <time>2019-04-17T12:33:45Z</time>
      </trkpt>
      <trkpt lat="45.4343" lon="5.7694">
        <ele>403.3</ele>
        <time>2019-04-17T12:33:46Z</time>
      </trkpt>
      <trkpt lat="45.43425" lon="5.76933">
        <ele>403.3</ele>
        <time>2019-04-17T12:33:47Z</time>
      </trkpt>
      <trkpt lat="45.4342" lon="5.76926">
        <ele>403.2</ele>
        <time>2019-04-17T12:33:48Z</time>
      </trkpt>
      <trkpt lat="45.43416" lon="5.7692">
        <ele>403.2</ele>
        <time>2019-04-17T12:33:49Z</time>
      </trkpt>
      <trkpt lat="45.43411" lon="5.76914">
        <ele>403.1</ele>
        <time>2019-04-17T12:33:50Z</time>
      </trkpt>
      <trkpt lat="45.43406" lon="5.76908">
        <ele>403</ele>
        <time>2019-04-17T12:33:51Z</time>
      </trkpt>
      <trkpt lat="45.43402" lon="5.76902">
        <ele>403</ele>
        <time>2019-04-17T12:33:52Z</time>
      </trkpt>
      <trkpt lat="45.43397" lon="5.76896">
        <ele>402.9</ele>
        <time>2019-04-17T12:33:53Z</time>
      </trkpt>
      <trkpt lat="45.43393" lon="5.76889">
        <ele>402.9</ele>
        <time>2019-04-17T12:33:54Z</time>
      </trkpt>
      <trkpt lat="45.43389" lon="5.76883">
        <ele>402.8</ele>
        <time>2019-04-17T12:33:55Z</time>
      </trkpt>
      <trkpt lat="45.43384" lon="5.76876">
        <ele>402.8</ele>
        <time>2019-04-17T12:33:56Z</time>
      </trkpt>
      <trkpt lat="45.4338" lon="5.76869">
        <ele>402.7</ele>
        <time>2019-04-17T12:33:57Z</time>
      </trkpt>
      <trkpt lat="45.43376" lon="5.76862">
        <ele>402.7</ele>
        <time>2019-04-17T12:33:58Z</time>
      </trkpt>
      <trkpt lat="45.43372" lon="5.76856">
        <ele>402.6</ele>
        <time>2019-04-17T12:33:59Z</time>
      </trkpt>
      <trkpt lat="45.43368" lon="5.7685">
        <ele>402.6</ele>
        <time>2019-04-17T12:34:00Z</time>
      </trkpt>
      <trkpt lat="45.43364" lon="5.76843">
        <ele>402.5</ele>
        <time>2019-04-17T12:34:01Z</time>
      </trkpt>
      <trkpt lat="45.4336" lon="5.76838">
        <ele>402.5</ele>
        <time>2019-04-17T12:34:02Z</time>
      </trkpt>
      <trkpt lat="45.43356" lon="5.76834">
        <ele>402.5</ele>
        <time>2019-04-17T12:34:03Z</time>
      </trkpt>
      <trkpt lat="45.43353" lon="5.76829">
        <ele>402.4</ele>
        <time>2019-04-17T12:34:04Z</time>
      </trkpt>
      <trkpt lat="45.43349" lon="5.76824">
        <ele>402.4</ele>
        <time>2019-04-17T12:34:05Z</time>
      </trkpt>
      <trkpt lat="45.43345" lon="5.76819">
        <ele>402.4</ele>
        <time>2019-04-17T12:34:06Z</time>
      </trkpt>
      <trkpt lat="45.43341" lon="5.76814">
        <ele>402.3</ele>
        <time>2019-04-17T12:34:07Z</time>
      </trkpt>
      <trkpt lat="45.43337" lon="5.76808">
        <ele>402.3</ele>
        <time>2019-04-17T12:34:08Z</time>
      </trkpt>
      <trkpt lat="45.43332" lon="5.76805">
        <ele>402.2</ele>
        <time>2019-04-17T12:34:09Z</time>
      </trkpt>
      <trkpt lat="45.43329" lon="5.76799">
        <ele>402.2</ele>
        <time>2019-04-17T12:34:10Z</time>
      </trkpt>
      <trkpt lat="45.43324" lon="5.76798">
        <ele>402.1</ele>
        <time>2019-04-17T12:34:11Z</time>
      </trkpt>
      <trkpt lat="45.4332" lon="5.76794">
        <ele>402.1</ele>
        <time>2019-04-17T12:34:12Z</time>
      </trkpt>
      <trkpt lat="45.43316" lon="5.7679">
        <ele>402</ele>
        <time>2019-04-17T12:34:13Z</time>
      </trkpt>
      <trkpt lat="45.4331" lon="5.76785">
        <ele>401.9</ele>
        <time>2019-04-17T12:34:14Z</time>
      </trkpt>
      <trkpt lat="45.43306" lon="5.76781">
        <ele>401.8</ele>
        <time>2019-04-17T12:34:15Z</time>
      </trkpt>
      <trkpt lat="45.433" lon="5.76777">
        <ele>401.8</ele>
        <time>2019-04-17T12:34:16Z</time>
      </trkpt>
      <trkpt lat="45.43295" lon="5.76773">
        <ele>401.7</ele>
        <time>2019-04-17T12:34:17Z</time>
      </trkpt>
      <trkpt lat="45.43291" lon="5.76769">
        <ele>401.6</ele>
        <time>2019-04-17T12:34:18Z</time>
      </trkpt>
      <trkpt lat="45.43286" lon="5.76764">
        <ele>401.5</ele>
        <time>2019-04-17T12:34:19Z</time>
      </trkpt>
      <trkpt lat="45.43281" lon="5.76759">
        <ele>401.4</ele>
        <time>2019-04-17T12:34:20Z</time>
      </trkpt>
      <trkpt lat="45.43276" lon="5.76754">
        <ele>401.3</ele>
        <time>2019-04-17T12:34:21Z</time>
      </trkpt>
      <trkpt lat="45.43272" lon="5.7675">
        <ele>401.1</ele>
        <time>2019-04-17T12:34:22Z</time>
      </trkpt>
      <trkpt lat="45.43266" lon="5.76744">
        <ele>401</ele>
        <time>2019-04-17T12:34:23Z</time>
      </trkpt>
      <trkpt lat="45.43262" lon="5.7674">
        <ele>400.9</ele>
        <time>2019-04-17T12:34:24Z</time>
      </trkpt>
      <trkpt lat="45.43257" lon="5.76736">
        <ele>400.8</ele>
        <time>2019-04-17T12:34:25Z</time>
      </trkpt>
      <trkpt lat="45.43253" lon="5.76731">
        <ele>400.7</ele>
        <time>2019-04-17T12:34:26Z</time>
      </trkpt>
      <trkpt lat="45.43248" lon="5.76727">
        <ele>400.6</ele>
        <time>2019-04-17T12:34:27Z</time>
      </trkpt>
      <trkpt lat="45.43243" lon="5.76724">
        <ele>400.6</ele>
        <time>2019-04-17T12:34:28Z</time>
      </trkpt>
      <trkpt lat="45.43238" lon="5.7672">
        <ele>400.5</ele>
        <time>2019-04-17T12:34:29Z</time>
      </trkpt>
      <trkpt lat="45.43232" lon="5.76716">
        <ele>400.4</ele>
        <time>2019-04-17T12:34:30Z</time>
      </trkpt>
      <trkpt lat="45.43227" lon="5.76714">
        <ele>400.3</ele>
        <time>2019-04-17T12:34:31Z</time>
      </trkpt>
      <trkpt lat="45.43223" lon="5.76714">
        <ele>400.3</ele>
        <time>2019-04-17T12:34:32Z</time>
      </trkpt>
      <trkpt lat="45.4322" lon="5.76713">
        <ele>400.2</ele>
        <time>2019-04-17T12:34:33Z</time>
      </trkpt>
      <trkpt lat="45.43216" lon="5.76719">
        <ele>400.2</ele>
        <time>2019-04-17T12:34:35Z</time>
      </trkpt>
      <trkpt lat="45.43215" lon="5.76723">
        <ele>400.2</ele>
        <time>2019-04-17T12:34:36Z</time>
      </trkpt>
      <trkpt lat="45.43215" lon="5.76728">
        <ele>400.3</ele>
        <time>2019-04-17T12:34:37Z</time>
      </trkpt>
      <trkpt lat="45.43214" lon="5.76732">
        <ele>400.3</ele>
        <time>2019-04-17T12:34:38Z</time>
      </trkpt>
      <trkpt lat="45.43213" lon="5.76737">
        <ele>400.3</ele>
        <time>2019-04-17T12:34:39Z</time>
      </trkpt>
      <trkpt lat="45.43211" lon="5.76741">
        <ele>400.3</ele>
        <time>2019-04-17T12:34:40Z</time>
      </trkpt>
      <trkpt lat="45.4321" lon="5.76747">
        <ele>400.4</ele>
        <time>2019-04-17T12:34:41Z</time>
      </trkpt>
      <trkpt lat="45.43208" lon="5.76752">
        <ele>400.4</ele>
        <time>2019-04-17T12:34:42Z</time>
      </trkpt>
      <trkpt lat="45.43206" lon="5.76758">
        <ele>400.5</ele>
        <time>2019-04-17T12:34:43Z</time>
      </trkpt>
      <trkpt lat="45.43204" lon="5.76764">
        <ele>400.5</ele>
        <time>2019-04-17T12:34:44Z</time>
      </trkpt>
      <trkpt lat="45.43203" lon="5.7677">
        <ele>400.6</ele>
        <time>2019-04-17T12:34:45Z</time>
      </trkpt>
      <trkpt lat="45.43201" lon="5.76776">
        <ele>400.6</ele>
        <time>2019-04-17T12:34:46Z</time>
      </trkpt>
      <trkpt lat="45.43199" lon="5.76782">
        <ele>400.6</ele>
        <time>2019-04-17T12:34:47Z</time>
      </trkpt>
      <trkpt lat="45.43197" lon="5.76789">
        <ele>400.6</ele>
        <time>2019-04-17T12:34:48Z</time>
      </trkpt>
      <trkpt lat="45.43195" lon="5.76795">
        <ele>400.6</ele>
        <time>2019-04-17T12:34:49Z</time>
      </trkpt>
      <trkpt lat="45.43193" lon="5.768">
        <ele>400.6</ele>
        <time>2019-04-17T12:34:50Z</time>
      </trkpt>
      <trkpt lat="45.43191" lon="5.76806">
        <ele>400.6</ele>
        <time>2019-04-17T12:34:51Z</time>
      </trkpt>
      <trkpt lat="45.4319" lon="5.76811">
        <ele>400.6</ele>
        <time>2019-04-17T12:34:52Z</time>
      </trkpt>
      <trkpt lat="45.43188" lon="5.76816">
        <ele>400.6</ele>
        <time>2019-04-17T12:34:53Z</time>
      </trkpt>
      <trkpt lat="45.43186" lon="5.76821">
        <ele>400.6</ele>
        <time>2019-04-17T12:34:54Z</time>
      </trkpt>
      <trkpt lat="45.43184" lon="5.76827">
        <ele>400.6</ele>
        <time>2019-04-17T12:34:55Z</time>
      </trkpt>
      <trkpt lat="45.43182" lon="5.76833">
        <ele>400.6</ele>
        <time>2019-04-17T12:34:56Z</time>
      </trkpt>
      <trkpt lat="45.43181" lon="5.7684">
        <ele>400.6</ele>
        <time>2019-04-17T12:34:57Z</time>
      </trkpt>
      <trkpt lat="45.43179" lon="5.76847">
        <ele>400.6</ele>
        <time>2019-04-17T12:34:58Z</time>
      </trkpt>
      <trkpt lat="45.43178" lon="5.76853">
        <ele>400.6</ele>
        <time>2019-04-17T12:34:59Z</time>
      </trkpt>
      <trkpt lat="45.43176" lon="5.7686">
        <ele>400.6</ele>
        <time>2019-04-17T12:35:00Z</time>
      </trkpt>
      <trkpt lat="45.43174" lon="5.76866">
        <ele>400.6</ele>
        <time>2019-04-17T12:35:01Z</time>
      </trkpt>
      <trkpt lat="45.43173" lon="5.76872">
        <ele>400.6</ele>
        <time>2019-04-17T12:35:02Z</time>
      </trkpt>
      <trkpt lat="45.43171" lon="5.76878">
        <ele>400.6</ele>
        <time>2019-04-17T12:35:03Z</time>
      </trkpt>
      <trkpt lat="45.43169" lon="5.76883">
        <ele>400.6</ele>
        <time>2019-04-17T12:35:04Z</time>
      </trkpt>
      <trkpt lat="45.43167" lon="5.76887">
        <ele>400.6</ele>
        <time>2019-04-17T12:35:05Z</time>
      </trkpt>
      <trkpt lat="45.43164" lon="5.7689">
        <ele>400.6</ele>
        <time>2019-04-17T12:35:06Z</time>
      </trkpt>
      <trkpt lat="45.43161" lon="5.76892">
        <ele>400.6</ele>
        <time>2019-04-17T12:35:07Z</time>
      </trkpt>
      <trkpt lat="45.43157" lon="5.76894">
        <ele>400.6</ele>
        <time>2019-04-17T12:35:08Z</time>
      </trkpt>
      <trkpt lat="45.43154" lon="5.76894">
        <ele>400.6</ele>
        <time>2019-04-17T12:35:09Z</time>
      </trkpt>
      <trkpt lat="45.43151" lon="5.76893">
        <ele>400.5</ele>
        <time>2019-04-17T12:35:10Z</time>
      </trkpt>
      <trkpt lat="45.43148" lon="5.76892">
        <ele>400.5</ele>
        <time>2019-04-17T12:35:11Z</time>
      </trkpt>
      <trkpt lat="45.43145" lon="5.76891">
        <ele>400.5</ele>
        <time>2019-04-17T12:35:28Z</time>
      </trkpt>
      <trkpt lat="45.43143" lon="5.76888">
        <ele>400.5</ele>
        <time>2019-04-17T12:35:30Z</time>
      </trkpt>
      <trkpt lat="45.4314" lon="5.76885">
        <ele>400.5</ele>
        <time>2019-04-17T12:35:32Z</time>
      </trkpt>
      <trkpt lat="45.43136" lon="5.76882">
        <ele>400.5</ele>
        <time>2019-04-17T12:35:34Z</time>
      </trkpt>
      <trkpt lat="45.43131" lon="5.76878">
        <ele>400.5</ele>
        <time>2019-04-17T12:35:36Z</time>
      </trkpt>
      <trkpt lat="45.43127" lon="5.76874">
        <ele>400.5</ele>
        <time>2019-04-17T12:35:38Z</time>
      </trkpt>
      <trkpt lat="45.43124" lon="5.76872">
        <ele>400.5</ele>
        <time>2019-04-17T12:35:39Z</time>
      </trkpt>
      <trkpt lat="45.43121" lon="5.7687">
        <ele>400.5</ele>
        <time>2019-04-17T12:35:40Z</time>
      </trkpt>
      <trkpt lat="45.43118" lon="5.76868">
        <ele>400.5</ele>
        <time>2019-04-17T12:35:41Z</time>
      </trkpt>
      <trkpt lat="45.43115" lon="5.76866">
        <ele>400.4</ele>
        <time>2019-04-17T12:35:42Z</time>
      </trkpt>
      <trkpt lat="45.43112" lon="5.76864">
        <ele>400.4</ele>
        <time>2019-04-17T12:35:43Z</time>
      </trkpt>
      <trkpt lat="45.43109" lon="5.76863">
        <ele>400.4</ele>
        <time>2019-04-17T12:35:44Z</time>
      </trkpt>
      <trkpt lat="45.43105" lon="5.76862">
        <ele>400.4</ele>
        <time>2019-04-17T12:35:46Z</time>
      </trkpt>
      <trkpt lat="45.43102" lon="5.76861">
        <ele>400.4</ele>
        <time>2019-04-17T12:35:59Z</time>
      </trkpt>
      <trkpt lat="45.43099" lon="5.76859">
        <ele>400.4</ele>
        <time>2019-04-17T12:38:45Z</time>
      </trkpt>
      <trkpt lat="45.43095" lon="5.76857">
        <ele>400.4</ele>
        <time>2019-04-17T12:38:47Z</time>
      </trkpt>
      <trkpt lat="45.43091" lon="5.76856">
        <ele>400.4</ele>
        <time>2019-04-17T12:38:49Z</time>
      </trkpt>
      <trkpt lat="45.43086" lon="5.76854">
        <ele>400.4</ele>
        <time>2019-04-17T12:38:51Z</time>
      </trkpt>
      <trkpt lat="45.43083" lon="5.76853">
        <ele>400.4</ele>
        <time>2019-04-17T12:38:52Z</time>
      </trkpt>
      <trkpt lat="45.4308" lon="5.76852">
        <ele>400.4</ele>
        <time>2019-04-17T12:38:53Z</time>
      </trkpt>
      <trkpt lat="45.43076" lon="5.76851">
        <ele>400.4</ele>
        <time>2019-04-17T12:38:54Z</time>
      </trkpt>
      <trkpt lat="45.43073" lon="5.76849">
        <ele>400.4</ele>
        <time>2019-04-17T12:38:55Z</time>
      </trkpt>
      <trkpt lat="45.4307" lon="5.76848">
        <ele>400.4</ele>
        <time>2019-04-17T12:38:56Z</time>
      </trkpt>
      <trkpt lat="45.43068" lon="5.76846">
        <ele>400.4</ele>
        <time>2019-04-17T12:38:57Z</time>
      </trkpt>
      <trkpt lat="45.43065" lon="5.76844">
        <ele>400.4</ele>
        <time>2019-04-17T12:38:58Z</time>
      </trkpt>
      <trkpt lat="45.43062" lon="5.76843">
        <ele>400.4</ele>
        <time>2019-04-17T12:38:59Z</time>
      </trkpt>
      <trkpt lat="45.43058" lon="5.7684">
        <ele>400.3</ele>
        <time>2019-04-17T12:39:01Z</time>
      </trkpt>
      <trkpt lat="45.43055" lon="5.76838">
        <ele>400.3</ele>
        <time>2019-04-17T12:39:03Z</time>
      </trkpt>
      <trkpt lat="45.43052" lon="5.76836">
        <ele>400.3</ele>
        <time>2019-04-17T12:39:05Z</time>
      </trkpt>
      <trkpt lat="45.43047" lon="5.76833">
        <ele>400.3</ele>
        <time>2019-04-17T12:39:07Z</time>
      </trkpt>
      <trkpt lat="45.43044" lon="5.76832">
        <ele>400.3</ele>
        <time>2019-04-17T12:39:08Z</time>
      </trkpt>
      <trkpt lat="45.43042" lon="5.76831">
        <ele>400.3</ele>
        <time>2019-04-17T12:39:09Z</time>
      </trkpt>
      <trkpt lat="45.43039" lon="5.76828">
        <ele>400.3</ele>
        <time>2019-04-17T12:39:17Z</time>
      </trkpt>
      <trkpt lat="45.43036" lon="5.76825">
        <ele>400.3</ele>
        <time>2019-04-17T12:39:19Z</time>
      </trkpt>
      <trkpt lat="45.43033" lon="5.76822">
        <ele>400.3</ele>
        <time>2019-04-17T12:39:22Z</time>
      </trkpt>
      <trkpt lat="45.4303" lon="5.7682">
        <ele>400.3</ele>
        <time>2019-04-17T12:39:24Z</time>
      </trkpt>
      <trkpt lat="45.43028" lon="5.76818">
        <ele>400.3</ele>
        <time>2019-04-17T12:39:27Z</time>
      </trkpt>
      <trkpt lat="45.43025" lon="5.76817">
        <ele>400.3</ele>
        <time>2019-04-17T12:39:30Z</time>
      </trkpt>
      <trkpt lat="45.43021" lon="5.76815">
        <ele>400.3</ele>
        <time>2019-04-17T12:39:32Z</time>
      </trkpt>
      <trkpt lat="45.43017" lon="5.76813">
        <ele>400.2</ele>
        <time>2019-04-17T12:39:34Z</time>
      </trkpt>
      <trkpt lat="45.43013" lon="5.7681">
        <ele>400.2</ele>
        <time>2019-04-17T12:39:36Z</time>
      </trkpt>
      <trkpt lat="45.43009" lon="5.76808">
        <ele>400.2</ele>
        <time>2019-04-17T12:39:37Z</time>
      </trkpt>
      <trkpt lat="45.43006" lon="5.76806">
        <ele>400.2</ele>
        <time>2019-04-17T12:39:38Z</time>
      </trkpt>
      <trkpt lat="45.42998" lon="5.76802">
        <ele>400.2</ele>
        <time>2019-04-17T12:39:39Z</time>
      </trkpt>
      <trkpt lat="45.42995" lon="5.768">
        <ele>400.1</ele>
        <time>2019-04-17T12:39:40Z</time>
      </trkpt>
      <trkpt lat="45.42992" lon="5.76798">
        <ele>400.1</ele>
        <time>2019-04-17T12:39:41Z</time>
      </trkpt>
      <trkpt lat="45.42989" lon="5.76797">
        <ele>400.1</ele>
        <time>2019-04-17T12:39:42Z</time>
      </trkpt>
      <trkpt lat="45.42985" lon="5.76796">
        <ele>400.1</ele>
        <time>2019-04-17T12:39:43Z</time>
      </trkpt>
      <trkpt lat="45.4298" lon="5.76794">
        <ele>400.1</ele>
        <time>2019-04-17T12:39:45Z</time>
      </trkpt>
      <trkpt lat="45.42977" lon="5.76792">
        <ele>400.1</ele>
        <time>2019-04-17T12:39:46Z</time>
      </trkpt>
      <trkpt lat="45.42974" lon="5.76791">
        <ele>400</ele>
        <time>2019-04-17T12:39:47Z</time>
      </trkpt>
      <trkpt lat="45.4297" lon="5.7679">
        <ele>400</ele>
        <time>2019-04-17T12:39:48Z</time>
      </trkpt>
      <trkpt lat="45.42965" lon="5.76789">
        <ele>400</ele>
        <time>2019-04-17T12:39:50Z</time>
      </trkpt>
      <trkpt lat="45.42962" lon="5.76787">
        <ele>400</ele>
        <time>2019-04-17T12:39:51Z</time>
      </trkpt>
      <trkpt lat="45.42959" lon="5.76785">
        <ele>399.9</ele>
        <time>2019-04-17T12:39:52Z</time>
      </trkpt>
      <trkpt lat="45.42956" lon="5.76783">
        <ele>399.9</ele>
        <time>2019-04-17T12:39:53Z</time>
      </trkpt>
      <trkpt lat="45.42952" lon="5.76782">
        <ele>399.9</ele>
        <time>2019-04-17T12:39:55Z</time>
      </trkpt>
      <trkpt lat="45.42949" lon="5.76781">
        <ele>399.9</ele>
        <time>2019-04-17T12:39:56Z</time>
      </trkpt>
      <trkpt lat="45.42943" lon="5.76778">
        <ele>399.8</ele>
        <time>2019-04-17T12:39:58Z</time>
      </trkpt>
      <trkpt lat="45.42938" lon="5.76776">
        <ele>399.7</ele>
        <time>2019-04-17T12:39:59Z</time>
      </trkpt>
      <trkpt lat="45.42932" lon="5.76774">
        <ele>399.6</ele>
        <time>2019-04-17T12:40:00Z</time>
      </trkpt>
      <trkpt lat="45.42928" lon="5.76772">
        <ele>399.5</ele>
        <time>2019-04-17T12:40:01Z</time>
      </trkpt>
      <trkpt lat="45.42925" lon="5.7677">
        <ele>399.5</ele>
        <time>2019-04-17T12:40:02Z</time>
      </trkpt>
      <trkpt lat="45.42922" lon="5.76767">
        <ele>399.4</ele>
        <time>2019-04-17T12:40:03Z</time>
      </trkpt>
      <trkpt lat="45.42918" lon="5.76766">
        <ele>399.3</ele>
        <time>2019-04-17T12:40:04Z</time>
      </trkpt>
      <trkpt lat="45.42915" lon="5.76764">
        <ele>399.3</ele>
        <time>2019-04-17T12:40:05Z</time>
      </trkpt>
      <trkpt lat="45.42911" lon="5.76762">
        <ele>399.2</ele>
        <time>2019-04-17T12:40:06Z</time>
      </trkpt>
      <trkpt lat="45.42908" lon="5.76761">
        <ele>399.2</ele>
        <time>2019-04-17T12:40:07Z</time>
      </trkpt>
      <trkpt lat="45.42904" lon="5.76759">
        <ele>399.1</ele>
        <time>2019-04-17T12:40:08Z</time>
      </trkpt>
      <trkpt lat="45.42901" lon="5.76757">
        <ele>399.1</ele>
        <time>2019-04-17T12:40:09Z</time>
      </trkpt>
      <trkpt lat="45.42897" lon="5.76756">
        <ele>399</ele>
        <time>2019-04-17T12:40:10Z</time>
      </trkpt>
      <trkpt lat="45.42894" lon="5.76755">
        <ele>399</ele>
        <time>2019-04-17T12:40:11Z</time>
      </trkpt>
      <trkpt lat="45.4289" lon="5.76753">
        <ele>398.9</ele>
        <time>2019-04-17T12:40:12Z</time>
      </trkpt>
      <trkpt lat="45.42886" lon="5.76752">
        <ele>398.9</ele>
        <time>2019-04-17T12:40:13Z</time>
      </trkpt>
      <trkpt lat="45.42883" lon="5.7675">
        <ele>398.8</ele>
        <time>2019-04-17T12:40:14Z</time>
      </trkpt>
      <trkpt lat="45.42879" lon="5.76749">
        <ele>398.8</ele>
        <time>2019-04-17T12:40:15Z</time>
      </trkpt>
      <trkpt lat="45.42876" lon="5.76747">
        <ele>398.7</ele>
        <time>2019-04-17T12:40:16Z</time>
      </trkpt>
      <trkpt lat="45.42872" lon="5.76746">
        <ele>398.7</ele>
        <time>2019-04-17T12:40:17Z</time>
      </trkpt>
      <trkpt lat="45.42868" lon="5.76744">
        <ele>398.6</ele>
        <time>2019-04-17T12:40:18Z</time>
      </trkpt>
      <trkpt lat="45.42865" lon="5.76743">
        <ele>398.6</ele>
        <time>2019-04-17T12:40:19Z</time>
      </trkpt>
      <trkpt lat="45.42861" lon="5.76742">
        <ele>398.5</ele>
        <time>2019-04-17T12:40:20Z</time>
      </trkpt>
      <trkpt lat="45.42858" lon="5.76741">
        <ele>398.5</ele>
        <time>2019-04-17T12:40:21Z</time>
      </trkpt>
      <trkpt lat="45.42855" lon="5.7674">
        <ele>398.4</ele>
        <time>2019-04-17T12:40:22Z</time>
      </trkpt>
      <trkpt lat="45.42851" lon="5.76739">
        <ele>398.4</ele>
        <time>2019-04-17T12:40:23Z</time>
      </trkpt>
      <trkpt lat="45.42848" lon="5.76738">
        <ele>398.4</ele>
        <time>2019-04-17T12:40:24Z</time>
      </trkpt>
      <trkpt lat="45.42845" lon="5.76736">
        <ele>398.3</ele>
        <time>2019-04-17T12:40:25Z</time>
      </trkpt>
      <trkpt lat="45.42841" lon="5.76735">
        <ele>398.3</ele>
        <time>2019-04-17T12:40:26Z</time>
      </trkpt>
      <trkpt lat="45.42838" lon="5.76733">
        <ele>398.3</ele>
        <time>2019-04-17T12:40:27Z</time>
      </trkpt>
      <trkpt lat="45.42835" lon="5.76732">
        <ele>398.2</ele>
        <time>2019-04-17T12:40:28Z</time>
      </trkpt>
      <trkpt lat="45.42832" lon="5.76732">
        <ele>398.2</ele>
        <time>2019-04-17T12:40:29Z</time>
      </trkpt>
      <trkpt lat="45.42829" lon="5.76731">
        <ele>398.2</ele>
        <time>2019-04-17T12:40:30Z</time>
      </trkpt>
      <trkpt lat="45.42826" lon="5.7673">
        <ele>398.1</ele>
        <time>2019-04-17T12:40:31Z</time>
      </trkpt>
      <trkpt lat="45.42824" lon="5.76729">
        <ele>398.1</ele>
        <time>2019-04-17T12:40:32Z</time>
      </trkpt>
      <trkpt lat="45.4282" lon="5.76728">
        <ele>398</ele>
        <time>2019-04-17T12:40:34Z</time>
      </trkpt>
      <trkpt lat="45.42815" lon="5.76727">
        <ele>398</ele>
        <time>2019-04-17T12:40:36Z</time>
      </trkpt>
      <trkpt lat="45.42811" lon="5.76726">
        <ele>397.9</ele>
        <time>2019-04-17T12:40:37Z</time>
      </trkpt>
      <trkpt lat="45.42806" lon="5.76723">
        <ele>397.9</ele>
        <time>2019-04-17T12:40:39Z</time>
      </trkpt>
      <trkpt lat="45.42802" lon="5.76722">
        <ele>397.8</ele>
        <time>2019-04-17T12:40:40Z</time>
      </trkpt>
      <trkpt lat="45.42798" lon="5.76721">
        <ele>397.8</ele>
        <time>2019-04-17T12:40:41Z</time>
      </trkpt>
      <trkpt lat="45.42795" lon="5.7672">
        <ele>397.8</ele>
        <time>2019-04-17T12:40:42Z</time>
      </trkpt>
      <trkpt lat="45.4279" lon="5.76719">
        <ele>397.7</ele>
        <time>2019-04-17T12:40:45Z</time>
      </trkpt>
      <trkpt lat="45.42786" lon="5.76719">
        <ele>397.7</ele>
        <time>2019-04-17T12:40:46Z</time>
      </trkpt>
      <trkpt lat="45.42782" lon="5.76718">
        <ele>397.6</ele>
        <time>2019-04-17T12:40:47Z</time>
      </trkpt>
      <trkpt lat="45.42778" lon="5.76717">
        <ele>397.6</ele>
        <time>2019-04-17T12:40:48Z</time>
      </trkpt>
      <trkpt lat="45.42773" lon="5.76715">
        <ele>397.5</ele>
        <time>2019-04-17T12:40:49Z</time>
      </trkpt>
      <trkpt lat="45.42769" lon="5.76713">
        <ele>397.4</ele>
        <time>2019-04-17T12:40:50Z</time>
      </trkpt>
      <trkpt lat="45.42765" lon="5.76712">
        <ele>397.4</ele>
        <time>2019-04-17T12:40:51Z</time>
      </trkpt>
      <trkpt lat="45.42761" lon="5.76711">
        <ele>397.4</ele>
        <time>2019-04-17T12:40:52Z</time>
      </trkpt>
      <trkpt lat="45.42758" lon="5.76709">
        <ele>397.3</ele>
        <time>2019-04-17T12:40:53Z</time>
      </trkpt>
      <trkpt lat="45.42755" lon="5.76707">
        <ele>397.3</ele>
        <time>2019-04-17T12:40:54Z</time>
      </trkpt>
      <trkpt lat="45.42752" lon="5.76705">
        <ele>397.2</ele>
        <time>2019-04-17T12:40:55Z</time>
      </trkpt>
      <trkpt lat="45.42749" lon="5.76704">
        <ele>397.2</ele>
        <time>2019-04-17T12:40:56Z</time>
      </trkpt>
      <trkpt lat="45.42745" lon="5.76702">
        <ele>397.1</ele>
        <time>2019-04-17T12:40:57Z</time>
      </trkpt>
      <trkpt lat="45.42742" lon="5.767">
        <ele>397.1</ele>
        <time>2019-04-17T12:40:58Z</time>
      </trkpt>
      <trkpt lat="45.42738" lon="5.76699">
        <ele>397</ele>
        <time>2019-04-17T12:40:59Z</time>
      </trkpt>
      <trkpt lat="45.42735" lon="5.76697">
        <ele>397</ele>
        <time>2019-04-17T12:41:00Z</time>
      </trkpt>
      <trkpt lat="45.42732" lon="5.76696">
        <ele>397</ele>
        <time>2019-04-17T12:41:01Z</time>
      </trkpt>
      <trkpt lat="45.42728" lon="5.76694">
        <ele>396.9</ele>
        <time>2019-04-17T12:41:02Z</time>
      </trkpt>
      <trkpt lat="45.42724" lon="5.76692">
        <ele>396.8</ele>
        <time>2019-04-17T12:41:04Z</time>
      </trkpt>
      <trkpt lat="45.42721" lon="5.7669">
        <ele>396.8</ele>
        <time>2019-04-17T12:41:05Z</time>
      </trkpt>
      <trkpt lat="45.42719" lon="5.76689">
        <ele>396.8</ele>
        <time>2019-04-17T12:41:06Z</time>
      </trkpt>
      <trkpt lat="45.42716" lon="5.76687">
        <ele>396.7</ele>
        <time>2019-04-17T12:41:07Z</time>
      </trkpt>
      <trkpt lat="45.42713" lon="5.76686">
        <ele>396.6</ele>
        <time>2019-04-17T12:41:08Z</time>
      </trkpt>
      <trkpt lat="45.42709" lon="5.76684">
        <ele>396.6</ele>
        <time>2019-04-17T12:41:09Z</time>
      </trkpt>
      <trkpt lat="45.42705" lon="5.76681">
        <ele>396.4</ele>
        <time>2019-04-17T12:41:10Z</time>
      </trkpt>
      <trkpt lat="45.42702" lon="5.76679">
        <ele>396.3</ele>
        <time>2019-04-17T12:41:11Z</time>
      </trkpt>
      <trkpt lat="45.42698" lon="5.76677">
        <ele>396.3</ele>
        <time>2019-04-17T12:41:12Z</time>
      </trkpt>
      <trkpt lat="45.42694" lon="5.76675">
        <ele>396.2</ele>
        <time>2019-04-17T12:41:13Z</time>
      </trkpt>
      <trkpt lat="45.4269" lon="5.76673">
        <ele>396.1</ele>
        <time>2019-04-17T12:41:14Z</time>
      </trkpt>
      <trkpt lat="45.42687" lon="5.76671">
        <ele>396</ele>
        <time>2019-04-17T12:41:15Z</time>
      </trkpt>
      <trkpt lat="45.42684" lon="5.76669">
        <ele>396</ele>
        <time>2019-04-17T12:41:16Z</time>
      </trkpt>
      <trkpt lat="45.42681" lon="5.76668">
        <ele>395.9</ele>
        <time>2019-04-17T12:41:17Z</time>
      </trkpt>
      <trkpt lat="45.42678" lon="5.76667">
        <ele>395.8</ele>
        <time>2019-04-17T12:41:18Z</time>
      </trkpt>
      <trkpt lat="45.42672" lon="5.76665">
        <ele>395.6</ele>
        <time>2019-04-17T12:41:20Z</time>
      </trkpt>
      <trkpt lat="45.42667" lon="5.76663">
        <ele>395.5</ele>
        <time>2019-04-17T12:41:22Z</time>
      </trkpt>
      <trkpt lat="45.42664" lon="5.76662">
        <ele>395.4</ele>
        <time>2019-04-17T12:41:23Z</time>
      </trkpt>
      <trkpt lat="45.42661" lon="5.7666">
        <ele>395.3</ele>
        <time>2019-04-17T12:41:24Z</time>
      </trkpt>
      <trkpt lat="45.42657" lon="5.76658">
        <ele>395.3</ele>
        <time>2019-04-17T12:41:25Z</time>
      </trkpt>
      <trkpt lat="45.42654" lon="5.76656">
        <ele>395.2</ele>
        <time>2019-04-17T12:41:26Z</time>
      </trkpt>
      <trkpt lat="45.42651" lon="5.76654">
        <ele>395.2</ele>
        <time>2019-04-17T12:41:27Z</time>
      </trkpt>
      <trkpt lat="45.42649" lon="5.76652">
        <ele>395.2</ele>
        <time>2019-04-17T12:41:28Z</time>
      </trkpt>
      <trkpt lat="45.42646" lon="5.76651">
        <ele>395.1</ele>
        <time>2019-04-17T12:41:29Z</time>
      </trkpt>
      <trkpt lat="45.42644" lon="5.76648">
        <ele>395.1</ele>
        <time>2019-04-17T12:41:31Z</time>
      </trkpt>
      <trkpt lat="45.4264" lon="5.76645">
        <ele>395</ele>
        <time>2019-04-17T12:41:32Z</time>
      </trkpt>
      <trkpt lat="45.42637" lon="5.76643">
        <ele>395</ele>
        <time>2019-04-17T12:41:33Z</time>
      </trkpt>
      <trkpt lat="45.42634" lon="5.7664">
        <ele>395</ele>
        <time>2019-04-17T12:41:34Z</time>
      </trkpt>
      <trkpt lat="45.42631" lon="5.76639">
        <ele>394.9</ele>
        <time>2019-04-17T12:41:35Z</time>
      </trkpt>
      <trkpt lat="45.42628" lon="5.76635">
        <ele>394.9</ele>
        <time>2019-04-17T12:41:36Z</time>
      </trkpt>
      <trkpt lat="45.42624" lon="5.76632">
        <ele>394.9</ele>
        <time>2019-04-17T12:41:37Z</time>
      </trkpt>
      <trkpt lat="45.42622" lon="5.76628">
        <ele>394.8</ele>
        <time>2019-04-17T12:41:38Z</time>
      </trkpt>
      <trkpt lat="45.42618" lon="5.76627">
        <ele>394.8</ele>
        <time>2019-04-17T12:41:39Z</time>
      </trkpt>
      <trkpt lat="45.42616" lon="5.76623">
        <ele>394.8</ele>
        <time>2019-04-17T12:41:40Z</time>
      </trkpt>
      <trkpt lat="45.42613" lon="5.7662">
        <ele>394.8</ele>
        <time>2019-04-17T12:41:41Z</time>
      </trkpt>
      <trkpt lat="45.4261" lon="5.76619">
        <ele>394.8</ele>
        <time>2019-04-17T12:41:42Z</time>
      </trkpt>
      <trkpt lat="45.42607" lon="5.76616">
        <ele>394.7</ele>
        <time>2019-04-17T12:41:43Z</time>
      </trkpt>
      <trkpt lat="45.42604" lon="5.76613">
        <ele>394.7</ele>
        <time>2019-04-17T12:41:44Z</time>
      </trkpt>
      <trkpt lat="45.42601" lon="5.7661">
        <ele>394.7</ele>
        <time>2019-04-17T12:41:45Z</time>
      </trkpt>
      <trkpt lat="45.42598" lon="5.76608">
        <ele>394.7</ele>
        <time>2019-04-17T12:41:46Z</time>
      </trkpt>
      <trkpt lat="45.42595" lon="5.76605">
        <ele>394.7</ele>
        <time>2019-04-17T12:41:47Z</time>
      </trkpt>
      <trkpt lat="45.42592" lon="5.76603">
        <ele>394.6</ele>
        <time>2019-04-17T12:41:48Z</time>
      </trkpt>
      <trkpt lat="45.42589" lon="5.76601">
        <ele>394.6</ele>
        <time>2019-04-17T12:41:49Z</time>
      </trkpt>
      <trkpt lat="45.42585" lon="5.76598">
        <ele>394.6</ele>
        <time>2019-04-17T12:41:50Z</time>
      </trkpt>
      <trkpt lat="45.42582" lon="5.76596">
        <ele>394.6</ele>
        <time>2019-04-17T12:41:51Z</time>
      </trkpt>
      <trkpt lat="45.42579" lon="5.76593">
        <ele>394.6</ele>
        <time>2019-04-17T12:41:52Z</time>
      </trkpt>
      <trkpt lat="45.42575" lon="5.76591">
        <ele>394.5</ele>
        <time>2019-04-17T12:41:53Z</time>
      </trkpt>
      <trkpt lat="45.42572" lon="5.76588">
        <ele>394.5</ele>
        <time>2019-04-17T12:41:54Z</time>
      </trkpt>
      <trkpt lat="45.42568" lon="5.76585">
        <ele>394.5</ele>
        <time>2019-04-17T12:41:55Z</time>
      </trkpt>
      <trkpt lat="45.42565" lon="5.76581">
        <ele>394.4</ele>
        <time>2019-04-17T12:41:57Z</time>
      </trkpt>
      <trkpt lat="45.42562" lon="5.76578">
        <ele>394.4</ele>
        <time>2019-04-17T12:41:58Z</time>
      </trkpt>
      <trkpt lat="45.42558" lon="5.76574">
        <ele>394.3</ele>
        <time>2019-04-17T12:41:59Z</time>
      </trkpt>
      <trkpt lat="45.42555" lon="5.7657">
        <ele>394.3</ele>
        <time>2019-04-17T12:42:00Z</time>
      </trkpt>
      <trkpt lat="45.42552" lon="5.76567">
        <ele>394.3</ele>
        <time>2019-04-17T12:42:01Z</time>
      </trkpt>
      <trkpt lat="45.42549" lon="5.76564">
        <ele>394.2</ele>
        <time>2019-04-17T12:42:02Z</time>
      </trkpt>
      <trkpt lat="45.42546" lon="5.76561">
        <ele>394.2</ele>
        <time>2019-04-17T12:42:03Z</time>
      </trkpt>
      <trkpt lat="45.42542" lon="5.76557">
        <ele>394.1</ele>
        <time>2019-04-17T12:42:04Z</time>
      </trkpt>
      <trkpt lat="45.42539" lon="5.76553">
        <ele>394.1</ele>
        <time>2019-04-17T12:42:05Z</time>
      </trkpt>
      <trkpt lat="45.42536" lon="5.76549">
        <ele>394</ele>
        <time>2019-04-17T12:42:06Z</time>
      </trkpt>
      <trkpt lat="45.42533" lon="5.76545">
        <ele>394</ele>
        <time>2019-04-17T12:42:07Z</time>
      </trkpt>
      <trkpt lat="45.4253" lon="5.76542">
        <ele>393.9</ele>
        <time>2019-04-17T12:42:08Z</time>
      </trkpt>
      <trkpt lat="45.42527" lon="5.76539">
        <ele>393.9</ele>
        <time>2019-04-17T12:42:09Z</time>
      </trkpt>
      <trkpt lat="45.42524" lon="5.76536">
        <ele>393.8</ele>
        <time>2019-04-17T12:42:10Z</time>
      </trkpt>
      <trkpt lat="45.42521" lon="5.76532">
        <ele>393.8</ele>
        <time>2019-04-17T12:42:11Z</time>
      </trkpt>
      <trkpt lat="45.42518" lon="5.76529">
        <ele>393.7</ele>
        <time>2019-04-17T12:42:12Z</time>
      </trkpt>
      <trkpt lat="45.42515" lon="5.76525">
        <ele>393.7</ele>
        <time>2019-04-17T12:42:13Z</time>
      </trkpt>
      <trkpt lat="45.42513" lon="5.76521">
        <ele>393.6</ele>
        <time>2019-04-17T12:42:14Z</time>
      </trkpt>
      <trkpt lat="45.4251" lon="5.76518">
        <ele>393.6</ele>
        <time>2019-04-17T12:42:16Z</time>
      </trkpt>
      <trkpt lat="45.42507" lon="5.76514">
        <ele>393.5</ele>
        <time>2019-04-17T12:42:18Z</time>
      </trkpt>
      <trkpt lat="45.42505" lon="5.76512">
        <ele>393.5</ele>
        <time>2019-04-17T12:42:19Z</time>
      </trkpt>
      <trkpt lat="45.42502" lon="5.76509">
        <ele>393.4</ele>
        <time>2019-04-17T12:42:20Z</time>
      </trkpt>
      <trkpt lat="45.42499" lon="5.76505">
        <ele>393.3</ele>
        <time>2019-04-17T12:42:21Z</time>
      </trkpt>
      <trkpt lat="45.42495" lon="5.76502">
        <ele>393.2</ele>
        <time>2019-04-17T12:42:22Z</time>
      </trkpt>
      <trkpt lat="45.42483" lon="5.76491">
        <ele>392.9</ele>
        <time>2019-04-17T12:42:25Z</time>
      </trkpt>
      <trkpt lat="45.42479" lon="5.76487">
        <ele>392.8</ele>
        <time>2019-04-17T12:42:26Z</time>
      </trkpt>
      <trkpt lat="45.42475" lon="5.76483">
        <ele>392.7</ele>
        <time>2019-04-17T12:42:27Z</time>
      </trkpt>
      <trkpt lat="45.4247" lon="5.76479">
        <ele>392.6</ele>
        <time>2019-04-17T12:42:28Z</time>
      </trkpt>
      <trkpt lat="45.42467" lon="5.76476">
        <ele>392.5</ele>
        <time>2019-04-17T12:42:29Z</time>
      </trkpt>
      <trkpt lat="45.42462" lon="5.76472">
        <ele>392.4</ele>
        <time>2019-04-17T12:42:30Z</time>
      </trkpt>
      <trkpt lat="45.42457" lon="5.76462">
        <ele>392.2</ele>
        <time>2019-04-17T12:42:31Z</time>
      </trkpt>
      <trkpt lat="45.42454" lon="5.7646">
        <ele>392.1</ele>
        <time>2019-04-17T12:42:32Z</time>
      </trkpt>
      <trkpt lat="45.42451" lon="5.76457">
        <ele>392.1</ele>
        <time>2019-04-17T12:42:33Z</time>
      </trkpt>
      <trkpt lat="45.42448" lon="5.76454">
        <ele>392</ele>
        <time>2019-04-17T12:42:34Z</time>
      </trkpt>
      <trkpt lat="45.42445" lon="5.76453">
        <ele>392</ele>
        <time>2019-04-17T12:42:35Z</time>
      </trkpt>
      <trkpt lat="45.42441" lon="5.76451">
        <ele>391.9</ele>
        <time>2019-04-17T12:42:36Z</time>
      </trkpt>
      <trkpt lat="45.42439" lon="5.76448">
        <ele>391.9</ele>
        <time>2019-04-17T12:42:37Z</time>
      </trkpt>
      <trkpt lat="45.42435" lon="5.76446">
        <ele>391.9</ele>
        <time>2019-04-17T12:42:38Z</time>
      </trkpt>
      <trkpt lat="45.42432" lon="5.76444">
        <ele>391.8</ele>
        <time>2019-04-17T12:42:39Z</time>
      </trkpt>
      <trkpt lat="45.42428" lon="5.76441">
        <ele>391.8</ele>
        <time>2019-04-17T12:42:40Z</time>
      </trkpt>
      <trkpt lat="45.42425" lon="5.76439">
        <ele>391.8</ele>
        <time>2019-04-17T12:42:41Z</time>
      </trkpt>
      <trkpt lat="45.42421" lon="5.76437">
        <ele>391.8</ele>
        <time>2019-04-17T12:42:42Z</time>
      </trkpt>
      <trkpt lat="45.42418" lon="5.76435">
        <ele>391.7</ele>
        <time>2019-04-17T12:42:43Z</time>
      </trkpt>
      <trkpt lat="45.42414" lon="5.76433">
        <ele>391.7</ele>
        <time>2019-04-17T12:42:44Z</time>
      </trkpt>
      <trkpt lat="45.42411" lon="5.76432">
        <ele>391.7</ele>
        <time>2019-04-17T12:42:45Z</time>
      </trkpt>
      <trkpt lat="45.42407" lon="5.7643">
        <ele>391.6</ele>
        <time>2019-04-17T12:42:46Z</time>
      </trkpt>
      <trkpt lat="45.42404" lon="5.76429">
        <ele>391.6</ele>
        <time>2019-04-17T12:42:47Z</time>
      </trkpt>
      <trkpt lat="45.42401" lon="5.76428">
        <ele>391.5</ele>
        <time>2019-04-17T12:42:48Z</time>
      </trkpt>
      <trkpt lat="45.42398" lon="5.76425">
        <ele>391.5</ele>
        <time>2019-04-17T12:42:49Z</time>
      </trkpt>
      <trkpt lat="45.42395" lon="5.76423">
        <ele>391.5</ele>
        <time>2019-04-17T12:42:51Z</time>
      </trkpt>
      <trkpt lat="45.42388" lon="5.76418">
        <ele>391.4</ele>
        <time>2019-04-17T12:42:53Z</time>
      </trkpt>
      <trkpt lat="45.4238" lon="5.76415">
        <ele>391.3</ele>
        <time>2019-04-17T12:42:54Z</time>
      </trkpt>
      <trkpt lat="45.42373" lon="5.76412">
        <ele>391.1</ele>
        <time>2019-04-17T12:42:55Z</time>
      </trkpt>
      <trkpt lat="45.42367" lon="5.7641">
        <ele>391</ele>
        <time>2019-04-17T12:42:56Z</time>
      </trkpt>
      <trkpt lat="45.42362" lon="5.76409">
        <ele>391</ele>
        <time>2019-04-17T12:42:57Z</time>
      </trkpt>
      <trkpt lat="45.42357" lon="5.76407">
        <ele>390.9</ele>
        <time>2019-04-17T12:42:58Z</time>
      </trkpt>
      <trkpt lat="45.42352" lon="5.76406">
        <ele>390.8</ele>
        <time>2019-04-17T12:42:59Z</time>
      </trkpt>
      <trkpt lat="45.42348" lon="5.76404">
        <ele>390.8</ele>
        <time>2019-04-17T12:43:00Z</time>
      </trkpt>
      <trkpt lat="45.42345" lon="5.76403">
        <ele>390.7</ele>
        <time>2019-04-17T12:43:01Z</time>
      </trkpt>
      <trkpt lat="45.4234" lon="5.76399">
        <ele>390.7</ele>
        <time>2019-04-17T12:43:03Z</time>
      </trkpt>
      <trkpt lat="45.42337" lon="5.76399">
        <ele>390.6</ele>
        <time>2019-04-17T12:43:04Z</time>
      </trkpt>
      <trkpt lat="45.42332" lon="5.764">
        <ele>390.6</ele>
        <time>2019-04-17T12:43:05Z</time>
      </trkpt>
      <trkpt lat="45.42329" lon="5.76399">
        <ele>390.6</ele>
        <time>2019-04-17T12:43:06Z</time>
      </trkpt>
      <trkpt lat="45.42325" lon="5.76399">
        <ele>390.5</ele>
        <time>2019-04-17T12:43:07Z</time>
      </trkpt>
      <trkpt lat="45.42321" lon="5.76398">
        <ele>390.5</ele>
        <time>2019-04-17T12:43:08Z</time>
      </trkpt>
      <trkpt lat="45.42317" lon="5.76398">
        <ele>390.5</ele>
        <time>2019-04-17T12:43:09Z</time>
      </trkpt>
      <trkpt lat="45.42313" lon="5.76397">
        <ele>390.5</ele>
        <time>2019-04-17T12:43:10Z</time>
      </trkpt>
      <trkpt lat="45.42309" lon="5.76397">
        <ele>390.5</ele>
        <time>2019-04-17T12:43:11Z</time>
      </trkpt>
      <trkpt lat="45.42305" lon="5.76395">
        <ele>390.5</ele>
        <time>2019-04-17T12:43:12Z</time>
      </trkpt>
      <trkpt lat="45.42302" lon="5.76394">
        <ele>390.5</ele>
        <time>2019-04-17T12:43:13Z</time>
      </trkpt>
      <trkpt lat="45.42298" lon="5.76391">
        <ele>390.5</ele>
        <time>2019-04-17T12:43:14Z</time>
      </trkpt>
      <trkpt lat="45.42295" lon="5.76389">
        <ele>390.5</ele>
        <time>2019-04-17T12:43:15Z</time>
      </trkpt>
      <trkpt lat="45.42291" lon="5.76386">
        <ele>390.5</ele>
        <time>2019-04-17T12:43:16Z</time>
      </trkpt>
      <trkpt lat="45.42288" lon="5.76382">
        <ele>390.4</ele>
        <time>2019-04-17T12:43:17Z</time>
      </trkpt>
      <trkpt lat="45.42284" lon="5.76379">
        <ele>390.4</ele>
        <time>2019-04-17T12:43:18Z</time>
      </trkpt>
      <trkpt lat="45.42281" lon="5.76375">
        <ele>390.4</ele>
        <time>2019-04-17T12:43:19Z</time>
      </trkpt>
      <trkpt lat="45.42278" lon="5.76372">
        <ele>390.4</ele>
        <time>2019-04-17T12:43:20Z</time>
      </trkpt>
      <trkpt lat="45.42275" lon="5.76368">
        <ele>390.4</ele>
        <time>2019-04-17T12:43:21Z</time>
      </trkpt>
      <trkpt lat="45.42272" lon="5.76365">
        <ele>390.4</ele>
        <time>2019-04-17T12:43:22Z</time>
      </trkpt>
      <trkpt lat="45.42269" lon="5.76361">
        <ele>390.4</ele>
        <time>2019-04-17T12:43:23Z</time>
      </trkpt>
      <trkpt lat="45.42267" lon="5.76356">
        <ele>390.3</ele>
        <time>2019-04-17T12:43:24Z</time>
      </trkpt>
      <trkpt lat="45.42264" lon="5.76353">
        <ele>390.3</ele>
        <time>2019-04-17T12:43:25Z</time>
      </trkpt>
      <trkpt lat="45.42262" lon="5.7635">
        <ele>390.3</ele>
        <time>2019-04-17T12:43:26Z</time>
      </trkpt>
      <trkpt lat="45.42259" lon="5.76347">
        <ele>390.3</ele>
        <time>2019-04-17T12:43:27Z</time>
      </trkpt>
      <trkpt lat="45.42256" lon="5.76345">
        <ele>390.3</ele>
        <time>2019-04-17T12:43:28Z</time>
      </trkpt>
      <trkpt lat="45.42253" lon="5.76342">
        <ele>390.2</ele>
        <time>2019-04-17T12:43:29Z</time>
      </trkpt>
      <trkpt lat="45.4225" lon="5.76339">
        <ele>390.2</ele>
        <time>2019-04-17T12:43:30Z</time>
      </trkpt>
      <trkpt lat="45.42247" lon="5.76335">
        <ele>390.2</ele>
        <time>2019-04-17T12:43:31Z</time>
      </trkpt>
      <trkpt lat="45.42243" lon="5.76331">
        <ele>390.1</ele>
        <time>2019-04-17T12:43:33Z</time>
      </trkpt>
      <trkpt lat="45.42239" lon="5.76327">
        <ele>390.1</ele>
        <time>2019-04-17T12:43:34Z</time>
      </trkpt>
      <trkpt lat="45.42232" lon="5.76322">
        <ele>390</ele>
        <time>2019-04-17T12:43:35Z</time>
      </trkpt>
      <trkpt lat="45.42229" lon="5.76318">
        <ele>390</ele>
        <time>2019-04-17T12:43:36Z</time>
      </trkpt>
      <trkpt lat="45.42226" lon="5.76314">
        <ele>390</ele>
        <time>2019-04-17T12:43:37Z</time>
      </trkpt>
      <trkpt lat="45.42223" lon="5.7631">
        <ele>389.9</ele>
        <time>2019-04-17T12:43:38Z</time>
      </trkpt>
      <trkpt lat="45.42219" lon="5.76307">
        <ele>389.9</ele>
        <time>2019-04-17T12:43:39Z</time>
      </trkpt>
      <trkpt lat="45.42215" lon="5.76304">
        <ele>389.8</ele>
        <time>2019-04-17T12:43:40Z</time>
      </trkpt>
      <trkpt lat="45.42212" lon="5.76301">
        <ele>389.8</ele>
        <time>2019-04-17T12:43:41Z</time>
      </trkpt>
      <trkpt lat="45.42209" lon="5.76297">
        <ele>389.7</ele>
        <time>2019-04-17T12:43:42Z</time>
      </trkpt>
      <trkpt lat="45.42206" lon="5.76294">
        <ele>389.7</ele>
        <time>2019-04-17T12:43:43Z</time>
      </trkpt>
      <trkpt lat="45.42203" lon="5.76291">
        <ele>389.7</ele>
        <time>2019-04-17T12:43:44Z</time>
      </trkpt>
      <trkpt lat="45.422" lon="5.76289">
        <ele>389.7</ele>
        <time>2019-04-17T12:43:45Z</time>
      </trkpt>
      <trkpt lat="45.42197" lon="5.76285">
        <ele>389.6</ele>
        <time>2019-04-17T12:43:46Z</time>
      </trkpt>
      <trkpt lat="45.42194" lon="5.76282">
        <ele>389.6</ele>
        <time>2019-04-17T12:43:47Z</time>
      </trkpt>
      <trkpt lat="45.4219" lon="5.76279">
        <ele>389.6</ele>
        <time>2019-04-17T12:43:48Z</time>
      </trkpt>
      <trkpt lat="45.42187" lon="5.76275">
        <ele>389.5</ele>
        <time>2019-04-17T12:43:49Z</time>
      </trkpt>
      <trkpt lat="45.42184" lon="5.76272">
        <ele>389.5</ele>
        <time>2019-04-17T12:43:50Z</time>
      </trkpt>
      <trkpt lat="45.42181" lon="5.7627">
        <ele>389.5</ele>
        <time>2019-04-17T12:43:51Z</time>
      </trkpt>
      <trkpt lat="45.42178" lon="5.76267">
        <ele>389.4</ele>
        <time>2019-04-17T12:43:52Z</time>
      </trkpt>
      <trkpt lat="45.42175" lon="5.76264">
        <ele>389.4</ele>
        <time>2019-04-17T12:43:53Z</time>
      </trkpt>
      <trkpt lat="45.42172" lon="5.76261">
        <ele>389.4</ele>
        <time>2019-04-17T12:43:54Z</time>
      </trkpt>
      <trkpt lat="45.4217" lon="5.76259">
        <ele>389.3</ele>
        <time>2019-04-17T12:43:55Z</time>
      </trkpt>
      <trkpt lat="45.42166" lon="5.76255">
        <ele>389.2</ele>
        <time>2019-04-17T12:43:56Z</time>
      </trkpt>
      <trkpt lat="45.42162" lon="5.76252">
        <ele>389.4</ele>
        <time>2019-04-17T12:43:57Z</time>
      </trkpt>
      <trkpt lat="45.42159" lon="5.76248">
        <ele>389.6</ele>
        <time>2019-04-17T12:43:58Z</time>
      </trkpt>
      <trkpt lat="45.42156" lon="5.76244">
        <ele>389.7</ele>
        <time>2019-04-17T12:43:59Z</time>
      </trkpt>
      <trkpt lat="45.42154" lon="5.76241">
        <ele>389.8</ele>
        <time>2019-04-17T12:44:00Z</time>
      </trkpt>
      <trkpt lat="45.42151" lon="5.76237">
        <ele>390</ele>
        <time>2019-04-17T12:44:01Z</time>
      </trkpt>
      <trkpt lat="45.42148" lon="5.76234">
        <ele>390</ele>
        <time>2019-04-17T12:44:02Z</time>
      </trkpt>
      <trkpt lat="45.42145" lon="5.7623">
        <ele>390.1</ele>
        <time>2019-04-17T12:44:03Z</time>
      </trkpt>
      <trkpt lat="45.42142" lon="5.76227">
        <ele>390.1</ele>
        <time>2019-04-17T12:44:04Z</time>
      </trkpt>
      <trkpt lat="45.4214" lon="5.76224">
        <ele>390.1</ele>
        <time>2019-04-17T12:44:05Z</time>
      </trkpt>
      <trkpt lat="45.42138" lon="5.76221">
        <ele>390.2</ele>
        <time>2019-04-17T12:44:06Z</time>
      </trkpt>
      <trkpt lat="45.42135" lon="5.76218">
        <ele>390.2</ele>
        <time>2019-04-17T12:44:07Z</time>
      </trkpt>
      <trkpt lat="45.42132" lon="5.76215">
        <ele>390.2</ele>
        <time>2019-04-17T12:44:08Z</time>
      </trkpt>
      <trkpt lat="45.42128" lon="5.76212">
        <ele>390.2</ele>
        <time>2019-04-17T12:44:09Z</time>
      </trkpt>
      <trkpt lat="45.42125" lon="5.76209">
        <ele>390.2</ele>
        <time>2019-04-17T12:44:10Z</time>
      </trkpt>
      <trkpt lat="45.42123" lon="5.76207">
        <ele>390.2</ele>
        <time>2019-04-17T12:44:11Z</time>
      </trkpt>
      <trkpt lat="45.4212" lon="5.76204">
        <ele>390.2</ele>
        <time>2019-04-17T12:44:12Z</time>
      </trkpt>
      <trkpt lat="45.42118" lon="5.762">
        <ele>390.2</ele>
        <time>2019-04-17T12:44:13Z</time>
      </trkpt>
      <trkpt lat="45.42115" lon="5.76197">
        <ele>390.2</ele>
        <time>2019-04-17T12:44:14Z</time>
      </trkpt>
      <trkpt lat="45.42111" lon="5.76194">
        <ele>390.2</ele>
        <time>2019-04-17T12:44:15Z</time>
      </trkpt>
      <trkpt lat="45.42109" lon="5.76191">
        <ele>390.2</ele>
        <time>2019-04-17T12:44:16Z</time>
      </trkpt>
      <trkpt lat="45.42106" lon="5.76188">
        <ele>390.1</ele>
        <time>2019-04-17T12:44:18Z</time>
      </trkpt>
      <trkpt lat="45.42103" lon="5.76186">
        <ele>390.1</ele>
        <time>2019-04-17T12:44:19Z</time>
      </trkpt>
      <trkpt lat="45.42099" lon="5.76182">
        <ele>390.1</ele>
        <time>2019-04-17T12:44:20Z</time>
      </trkpt>
      <trkpt lat="45.42094" lon="5.76177">
        <ele>390.1</ele>
        <time>2019-04-17T12:44:21Z</time>
      </trkpt>
      <trkpt lat="45.42091" lon="5.76174">
        <ele>390.1</ele>
        <time>2019-04-17T12:44:22Z</time>
      </trkpt>
      <trkpt lat="45.42089" lon="5.76171">
        <ele>390</ele>
        <time>2019-04-17T12:44:23Z</time>
      </trkpt>
      <trkpt lat="45.42086" lon="5.76168">
        <ele>390</ele>
        <time>2019-04-17T12:44:24Z</time>
      </trkpt>
      <trkpt lat="45.42082" lon="5.76163">
        <ele>389.9</ele>
        <time>2019-04-17T12:44:26Z</time>
      </trkpt>
      <trkpt lat="45.4208" lon="5.7616">
        <ele>389.8</ele>
        <time>2019-04-17T12:44:27Z</time>
      </trkpt>
      <trkpt lat="45.42078" lon="5.76158">
        <ele>389.7</ele>
        <time>2019-04-17T12:44:28Z</time>
      </trkpt>
      <trkpt lat="45.42074" lon="5.76154">
        <ele>389.6</ele>
        <time>2019-04-17T12:44:29Z</time>
      </trkpt>
      <trkpt lat="45.42071" lon="5.76151">
        <ele>389.5</ele>
        <time>2019-04-17T12:44:30Z</time>
      </trkpt>
      <trkpt lat="45.42067" lon="5.76148">
        <ele>389.4</ele>
        <time>2019-04-17T12:44:31Z</time>
      </trkpt>
      <trkpt lat="45.42064" lon="5.76144">
        <ele>389.3</ele>
        <time>2019-04-17T12:44:32Z</time>
      </trkpt>
      <trkpt lat="45.42061" lon="5.76141">
        <ele>389.2</ele>
        <time>2019-04-17T12:44:33Z</time>
      </trkpt>
      <trkpt lat="45.42058" lon="5.76137">
        <ele>389.2</ele>
        <time>2019-04-17T12:44:35Z</time>
      </trkpt>
      <trkpt lat="45.42054" lon="5.76133">
        <ele>389.1</ele>
        <time>2019-04-17T12:44:36Z</time>
      </trkpt>
      <trkpt lat="45.42051" lon="5.7613">
        <ele>389.1</ele>
        <time>2019-04-17T12:44:37Z</time>
      </trkpt>
      <trkpt lat="45.42048" lon="5.76128">
        <ele>389.1</ele>
        <time>2019-04-17T12:44:38Z</time>
      </trkpt>
      <trkpt lat="45.42044" lon="5.76124">
        <ele>389.1</ele>
        <time>2019-04-17T12:44:40Z</time>
      </trkpt>
      <trkpt lat="45.42041" lon="5.76119">
        <ele>389.1</ele>
        <time>2019-04-17T12:46:21Z</time>
      </trkpt>
      <trkpt lat="45.42038" lon="5.76117">
        <ele>389.1</ele>
        <time>2019-04-17T12:46:23Z</time>
      </trkpt>
      <trkpt lat="45.42035" lon="5.76116">
        <ele>389.1</ele>
        <time>2019-04-17T12:46:25Z</time>
      </trkpt>
      <trkpt lat="45.42032" lon="5.76114">
        <ele>389.1</ele>
        <time>2019-04-17T12:46:26Z</time>
      </trkpt>
      <trkpt lat="45.42029" lon="5.7611">
        <ele>389.1</ele>
        <time>2019-04-17T12:46:28Z</time>
      </trkpt>
      <trkpt lat="45.42026" lon="5.76106">
        <ele>389.1</ele>
        <time>2019-04-17T12:46:30Z</time>
      </trkpt>
      <trkpt lat="45.42021" lon="5.76101">
        <ele>389.1</ele>
        <time>2019-04-17T12:46:32Z</time>
      </trkpt>
      <trkpt lat="45.42019" lon="5.76098">
        <ele>389.1</ele>
        <time>2019-04-17T12:46:33Z</time>
      </trkpt>
      <trkpt lat="45.42016" lon="5.76095">
        <ele>389</ele>
        <time>2019-04-17T12:46:34Z</time>
      </trkpt>
      <trkpt lat="45.42014" lon="5.76092">
        <ele>389</ele>
        <time>2019-04-17T12:46:35Z</time>
      </trkpt>
      <trkpt lat="45.42011" lon="5.76088">
        <ele>389</ele>
        <time>2019-04-17T12:46:36Z</time>
      </trkpt>
      <trkpt lat="45.42007" lon="5.76084">
        <ele>389</ele>
        <time>2019-04-17T12:46:37Z</time>
      </trkpt>
      <trkpt lat="45.42004" lon="5.76079">
        <ele>389</ele>
        <time>2019-04-17T12:46:38Z</time>
      </trkpt>
      <trkpt lat="45.42001" lon="5.76075">
        <ele>389</ele>
        <time>2019-04-17T12:46:39Z</time>
      </trkpt>
      <trkpt lat="45.41998" lon="5.76073">
        <ele>389</ele>
        <time>2019-04-17T12:46:40Z</time>
      </trkpt>
      <trkpt lat="45.41996" lon="5.7607">
        <ele>389</ele>
        <time>2019-04-17T12:46:41Z</time>
      </trkpt>
      <trkpt lat="45.41994" lon="5.76068">
        <ele>389</ele>
        <time>2019-04-17T12:46:42Z</time>
      </trkpt>
      <trkpt lat="45.41991" lon="5.76065">
        <ele>389</ele>
        <time>2019-04-17T12:46:43Z</time>
      </trkpt>
      <trkpt lat="45.41989" lon="5.76063">
        <ele>389</ele>
        <time>2019-04-17T12:46:44Z</time>
      </trkpt>
      <trkpt lat="45.41984" lon="5.76059">
        <ele>389</ele>
        <time>2019-04-17T12:46:46Z</time>
      </trkpt>
      <trkpt lat="45.41981" lon="5.76056">
        <ele>389</ele>
        <time>2019-04-17T12:46:47Z</time>
      </trkpt>
      <trkpt lat="45.41978" lon="5.76053">
        <ele>389</ele>
        <time>2019-04-17T12:46:48Z</time>
      </trkpt>
      <trkpt lat="45.41975" lon="5.76051">
        <ele>389</ele>
        <time>2019-04-17T12:46:49Z</time>
      </trkpt>
      <trkpt lat="45.41973" lon="5.76048">
        <ele>389</ele>
        <time>2019-04-17T12:46:50Z</time>
      </trkpt>
      <trkpt lat="45.4197" lon="5.76045">
        <ele>389</ele>
        <time>2019-04-17T12:46:51Z</time>
      </trkpt>
      <trkpt lat="45.41968" lon="5.76042">
        <ele>389</ele>
        <time>2019-04-17T12:46:52Z</time>
      </trkpt>
      <trkpt lat="45.41964" lon="5.76038">
        <ele>389</ele>
        <time>2019-04-17T12:46:53Z</time>
      </trkpt>
      <trkpt lat="45.41961" lon="5.76035">
        <ele>389</ele>
        <time>2019-04-17T12:46:54Z</time>
      </trkpt>
      <trkpt lat="45.41958" lon="5.76032">
        <ele>389</ele>
        <time>2019-04-17T12:46:55Z</time>
      </trkpt>
      <trkpt lat="45.41955" lon="5.76029">
        <ele>389</ele>
        <time>2019-04-17T12:46:56Z</time>
      </trkpt>
      <trkpt lat="45.41952" lon="5.76026">
        <ele>389</ele>
        <time>2019-04-17T12:46:57Z</time>
      </trkpt>
      <trkpt lat="45.4195" lon="5.76023">
        <ele>388.9</ele>
        <time>2019-04-17T12:46:58Z</time>
      </trkpt>
      <trkpt lat="45.41947" lon="5.76021">
        <ele>388.9</ele>
        <time>2019-04-17T12:46:59Z</time>
      </trkpt>
      <trkpt lat="45.41945" lon="5.76018">
        <ele>388.9</ele>
        <time>2019-04-17T12:47:00Z</time>
      </trkpt>
      <trkpt lat="45.41942" lon="5.76015">
        <ele>388.8</ele>
        <time>2019-04-17T12:47:01Z</time>
      </trkpt>
      <trkpt lat="45.41939" lon="5.76013">
        <ele>388.8</ele>
        <time>2019-04-17T12:47:02Z</time>
      </trkpt>
      <trkpt lat="45.41936" lon="5.76009">
        <ele>388.7</ele>
        <time>2019-04-17T12:47:03Z</time>
      </trkpt>
      <trkpt lat="45.41933" lon="5.76006">
        <ele>388.7</ele>
        <time>2019-04-17T12:47:04Z</time>
      </trkpt>
      <trkpt lat="45.4193" lon="5.76003">
        <ele>388.6</ele>
        <time>2019-04-17T12:47:05Z</time>
      </trkpt>
      <trkpt lat="45.41928" lon="5.76001">
        <ele>388.5</ele>
        <time>2019-04-17T12:47:06Z</time>
      </trkpt>
      <trkpt lat="45.41925" lon="5.75998">
        <ele>388.5</ele>
        <time>2019-04-17T12:47:07Z</time>
      </trkpt>
      <trkpt lat="45.41922" lon="5.75995">
        <ele>388.4</ele>
        <time>2019-04-17T12:47:08Z</time>
      </trkpt>
      <trkpt lat="45.41919" lon="5.75993">
        <ele>388.4</ele>
        <time>2019-04-17T12:47:09Z</time>
      </trkpt>
      <trkpt lat="45.41917" lon="5.7599">
        <ele>388.3</ele>
        <time>2019-04-17T12:47:10Z</time>
      </trkpt>
      <trkpt lat="45.41914" lon="5.75987">
        <ele>388.3</ele>
        <time>2019-04-17T12:47:11Z</time>
      </trkpt>
      <trkpt lat="45.41911" lon="5.75984">
        <ele>388.3</ele>
        <time>2019-04-17T12:47:12Z</time>
      </trkpt>
      <trkpt lat="45.41908" lon="5.75981">
        <ele>388.3</ele>
        <time>2019-04-17T12:47:13Z</time>
      </trkpt>
      <trkpt lat="45.41905" lon="5.75978">
        <ele>388.3</ele>
        <time>2019-04-17T12:47:14Z</time>
      </trkpt>
      <trkpt lat="45.41902" lon="5.75975">
        <ele>388.3</ele>
        <time>2019-04-17T12:47:15Z</time>
      </trkpt>
      <trkpt lat="45.41899" lon="5.75973">
        <ele>388.3</ele>
        <time>2019-04-17T12:47:16Z</time>
      </trkpt>
      <trkpt lat="45.41896" lon="5.7597">
        <ele>388.3</ele>
        <time>2019-04-17T12:47:17Z</time>
      </trkpt>
      <trkpt lat="45.41893" lon="5.75967">
        <ele>388.3</ele>
        <time>2019-04-17T12:47:18Z</time>
      </trkpt>
      <trkpt lat="45.41891" lon="5.75964">
        <ele>388.3</ele>
        <time>2019-04-17T12:47:19Z</time>
      </trkpt>
      <trkpt lat="45.41888" lon="5.75961">
        <ele>388.3</ele>
        <time>2019-04-17T12:47:20Z</time>
      </trkpt>
      <trkpt lat="45.41884" lon="5.75958">
        <ele>388.3</ele>
        <time>2019-04-17T12:47:21Z</time>
      </trkpt>
      <trkpt lat="45.41881" lon="5.75954">
        <ele>388.3</ele>
        <time>2019-04-17T12:47:22Z</time>
      </trkpt>
      <trkpt lat="45.41878" lon="5.75951">
        <ele>388.4</ele>
        <time>2019-04-17T12:47:23Z</time>
      </trkpt>
      <trkpt lat="45.41875" lon="5.75948">
        <ele>388.4</ele>
        <time>2019-04-17T12:47:24Z</time>
      </trkpt>
      <trkpt lat="45.41872" lon="5.75945">
        <ele>388.4</ele>
        <time>2019-04-17T12:47:25Z</time>
      </trkpt>
      <trkpt lat="45.4187" lon="5.75942">
        <ele>388.4</ele>
        <time>2019-04-17T12:47:26Z</time>
      </trkpt>
      <trkpt lat="45.41866" lon="5.75939">
        <ele>388.4</ele>
        <time>2019-04-17T12:47:27Z</time>
      </trkpt>
      <trkpt lat="45.41863" lon="5.75937">
        <ele>388.4</ele>
        <time>2019-04-17T12:47:28Z</time>
      </trkpt>
      <trkpt lat="45.4186" lon="5.75935">
        <ele>388.5</ele>
        <time>2019-04-17T12:47:29Z</time>
      </trkpt>
      <trkpt lat="45.41857" lon="5.75933">
        <ele>388.7</ele>
        <time>2019-04-17T12:47:30Z</time>
      </trkpt>
      <trkpt lat="45.41854" lon="5.7593">
        <ele>388.9</ele>
        <time>2019-04-17T12:47:31Z</time>
      </trkpt>
      <trkpt lat="45.41851" lon="5.75927">
        <ele>389.1</ele>
        <time>2019-04-17T12:47:32Z</time>
      </trkpt>
      <trkpt lat="45.41848" lon="5.75924">
        <ele>389.2</ele>
        <time>2019-04-17T12:47:33Z</time>
      </trkpt>
      <trkpt lat="45.41845" lon="5.7592">
        <ele>389.3</ele>
        <time>2019-04-17T12:47:34Z</time>
      </trkpt>
      <trkpt lat="45.41842" lon="5.75917">
        <ele>389.5</ele>
        <time>2019-04-17T12:47:35Z</time>
      </trkpt>
      <trkpt lat="45.41841" lon="5.75912">
        <ele>389.6</ele>
        <time>2019-04-17T12:47:36Z</time>
      </trkpt>
      <trkpt lat="45.41838" lon="5.75909">
        <ele>389.8</ele>
        <time>2019-04-17T12:47:37Z</time>
      </trkpt>
      <trkpt lat="45.41836" lon="5.75906">
        <ele>389.9</ele>
        <time>2019-04-17T12:47:38Z</time>
      </trkpt>
      <trkpt lat="45.41833" lon="5.759">
        <ele>390.1</ele>
        <time>2019-04-17T12:47:40Z</time>
      </trkpt>
      <trkpt lat="45.4183" lon="5.75897">
        <ele>390.2</ele>
        <time>2019-04-17T12:47:41Z</time>
      </trkpt>
      <trkpt lat="45.41828" lon="5.75895">
        <ele>390.3</ele>
        <time>2019-04-17T12:47:42Z</time>
      </trkpt>
      <trkpt lat="45.41826" lon="5.75892">
        <ele>390.4</ele>
        <time>2019-04-17T12:47:43Z</time>
      </trkpt>
      <trkpt lat="45.41823" lon="5.75889">
        <ele>390.5</ele>
        <time>2019-04-17T12:47:44Z</time>
      </trkpt>
      <trkpt lat="45.41821" lon="5.75886">
        <ele>390.6</ele>
        <time>2019-04-17T12:47:45Z</time>
      </trkpt>
      <trkpt lat="45.41818" lon="5.75884">
        <ele>390.7</ele>
        <time>2019-04-17T12:47:46Z</time>
      </trkpt>
      <trkpt lat="45.41816" lon="5.75881">
        <ele>390.8</ele>
        <time>2019-04-17T12:47:47Z</time>
      </trkpt>
      <trkpt lat="45.41813" lon="5.75879">
        <ele>391</ele>
        <time>2019-04-17T12:47:48Z</time>
      </trkpt>
      <trkpt lat="45.41811" lon="5.75876">
        <ele>391.1</ele>
        <time>2019-04-17T12:47:49Z</time>
      </trkpt>
      <trkpt lat="45.41809" lon="5.75874">
        <ele>391.2</ele>
        <time>2019-04-17T12:47:50Z</time>
      </trkpt>
      <trkpt lat="45.41804" lon="5.75869">
        <ele>391.4</ele>
        <time>2019-04-17T12:47:52Z</time>
      </trkpt>
      <trkpt lat="45.41801" lon="5.75867">
        <ele>391.5</ele>
        <time>2019-04-17T12:47:53Z</time>
      </trkpt>
      <trkpt lat="45.41799" lon="5.75864">
        <ele>391.7</ele>
        <time>2019-04-17T12:47:54Z</time>
      </trkpt>
      <trkpt lat="45.41797" lon="5.75862">
        <ele>391.8</ele>
        <time>2019-04-17T12:47:55Z</time>
      </trkpt>
      <trkpt lat="45.41794" lon="5.7586">
        <ele>391.9</ele>
        <time>2019-04-17T12:47:56Z</time>
      </trkpt>
      <trkpt lat="45.41791" lon="5.75859">
        <ele>392</ele>
        <time>2019-04-17T12:47:57Z</time>
      </trkpt>
      <trkpt lat="45.41788" lon="5.75856">
        <ele>392.1</ele>
        <time>2019-04-17T12:47:58Z</time>
      </trkpt>
      <trkpt lat="45.41785" lon="5.75852">
        <ele>392.2</ele>
        <time>2019-04-17T12:47:59Z</time>
      </trkpt>
      <trkpt lat="45.41782" lon="5.7585">
        <ele>392.4</ele>
        <time>2019-04-17T12:48:00Z</time>
      </trkpt>
      <trkpt lat="45.41779" lon="5.75847">
        <ele>392.5</ele>
        <time>2019-04-17T12:48:01Z</time>
      </trkpt>
      <trkpt lat="45.41777" lon="5.75844">
        <ele>392.6</ele>
        <time>2019-04-17T12:48:02Z</time>
      </trkpt>
      <trkpt lat="45.41774" lon="5.75841">
        <ele>392.7</ele>
        <time>2019-04-17T12:48:03Z</time>
      </trkpt>
      <trkpt lat="45.41772" lon="5.75838">
        <ele>392.7</ele>
        <time>2019-04-17T12:48:04Z</time>
      </trkpt>
      <trkpt lat="45.41769" lon="5.75835">
        <ele>392.8</ele>
        <time>2019-04-17T12:48:05Z</time>
      </trkpt>
      <trkpt lat="45.41767" lon="5.75833">
        <ele>392.9</ele>
        <time>2019-04-17T12:48:06Z</time>
      </trkpt>
      <trkpt lat="45.41764" lon="5.7583">
        <ele>393</ele>
        <time>2019-04-17T12:48:07Z</time>
      </trkpt>
      <trkpt lat="45.41762" lon="5.75826">
        <ele>393.1</ele>
        <time>2019-04-17T12:48:08Z</time>
      </trkpt>
      <trkpt lat="45.41759" lon="5.75822">
        <ele>393.2</ele>
        <time>2019-04-17T12:48:09Z</time>
      </trkpt>
      <trkpt lat="45.41757" lon="5.75819">
        <ele>393.3</ele>
        <time>2019-04-17T12:48:10Z</time>
      </trkpt>
      <trkpt lat="45.41755" lon="5.75815">
        <ele>393.4</ele>
        <time>2019-04-17T12:48:11Z</time>
      </trkpt>
      <trkpt lat="45.41753" lon="5.75812">
        <ele>393.5</ele>
        <time>2019-04-17T12:48:12Z</time>
      </trkpt>
      <trkpt lat="45.4175" lon="5.75807">
        <ele>393.6</ele>
        <time>2019-04-17T12:48:14Z</time>
      </trkpt>
      <trkpt lat="45.41747" lon="5.75803">
        <ele>393.7</ele>
        <time>2019-04-17T12:48:15Z</time>
      </trkpt>
      <trkpt lat="45.41741" lon="5.75796">
        <ele>394</ele>
        <time>2019-04-17T12:48:16Z</time>
      </trkpt>
      <trkpt lat="45.41736" lon="5.75791">
        <ele>394.1</ele>
        <time>2019-04-17T12:48:17Z</time>
      </trkpt>
      <trkpt lat="45.41732" lon="5.75786">
        <ele>394.2</ele>
        <time>2019-04-17T12:48:18Z</time>
      </trkpt>
      <trkpt lat="45.41728" lon="5.75782">
        <ele>394.2</ele>
        <time>2019-04-17T12:48:19Z</time>
      </trkpt>
      <trkpt lat="45.41724" lon="5.75778">
        <ele>394.3</ele>
        <time>2019-04-17T12:48:20Z</time>
      </trkpt>
      <trkpt lat="45.41721" lon="5.75776">
        <ele>394.3</ele>
        <time>2019-04-17T12:48:21Z</time>
      </trkpt>
      <trkpt lat="45.41717" lon="5.75773">
        <ele>394.3</ele>
        <time>2019-04-17T12:48:22Z</time>
      </trkpt>
      <trkpt lat="45.41714" lon="5.75772">
        <ele>394.3</ele>
        <time>2019-04-17T12:48:23Z</time>
      </trkpt>
      <trkpt lat="45.41711" lon="5.7577">
        <ele>394.4</ele>
        <time>2019-04-17T12:48:24Z</time>
      </trkpt>
      <trkpt lat="45.41706" lon="5.7577">
        <ele>394.3</ele>
        <time>2019-04-17T12:48:26Z</time>
      </trkpt>
      <trkpt lat="45.41703" lon="5.75772">
        <ele>394.2</ele>
        <time>2019-04-17T12:48:27Z</time>
      </trkpt>
      <trkpt lat="45.41702" lon="5.75776">
        <ele>394.1</ele>
        <time>2019-04-17T12:48:28Z</time>
      </trkpt>
      <trkpt lat="45.41703" lon="5.75783">
        <ele>394</ele>
        <time>2019-04-17T12:48:30Z</time>
      </trkpt>
      <trkpt lat="45.41705" lon="5.75789">
        <ele>393.8</ele>
        <time>2019-04-17T12:48:32Z</time>
      </trkpt>
      <trkpt lat="45.41705" lon="5.75793">
        <ele>393.7</ele>
        <time>2019-04-17T12:48:34Z</time>
      </trkpt>
      <trkpt lat="45.41705" lon="5.75799">
        <ele>393.6</ele>
        <time>2019-04-17T12:48:36Z</time>
      </trkpt>
      <trkpt lat="45.41704" lon="5.75806">
        <ele>393.4</ele>
        <time>2019-04-17T12:48:38Z</time>
      </trkpt>
      <trkpt lat="45.41704" lon="5.75814">
        <ele>393.1</ele>
        <time>2019-04-17T12:48:40Z</time>
      </trkpt>
      <trkpt lat="45.41703" lon="5.75819">
        <ele>393</ele>
        <time>2019-04-17T12:48:41Z</time>
      </trkpt>
      <trkpt lat="45.41703" lon="5.75824">
        <ele>392.9</ele>
        <time>2019-04-17T12:48:42Z</time>
      </trkpt>
      <trkpt lat="45.41703" lon="5.7583">
        <ele>392.7</ele>
        <time>2019-04-17T12:48:43Z</time>
      </trkpt>
      <trkpt lat="45.41702" lon="5.75835">
        <ele>392.6</ele>
        <time>2019-04-17T12:48:44Z</time>
      </trkpt>
      <trkpt lat="45.41702" lon="5.7584">
        <ele>392.5</ele>
        <time>2019-04-17T12:48:45Z</time>
      </trkpt>
      <trkpt lat="45.41702" lon="5.75846">
        <ele>392.5</ele>
        <time>2019-04-17T12:48:46Z</time>
      </trkpt>
      <trkpt lat="45.41702" lon="5.75851">
        <ele>392.4</ele>
        <time>2019-04-17T12:48:47Z</time>
      </trkpt>
      <trkpt lat="45.41702" lon="5.75857">
        <ele>392.3</ele>
        <time>2019-04-17T12:48:48Z</time>
      </trkpt>
      <trkpt lat="45.41702" lon="5.75862">
        <ele>392.2</ele>
        <time>2019-04-17T12:48:49Z</time>
      </trkpt>
      <trkpt lat="45.41702" lon="5.75868">
        <ele>392.1</ele>
        <time>2019-04-17T12:48:50Z</time>
      </trkpt>
      <trkpt lat="45.41702" lon="5.75874">
        <ele>392</ele>
        <time>2019-04-17T12:48:51Z</time>
      </trkpt>
      <trkpt lat="45.41702" lon="5.7588">
        <ele>391.8</ele>
        <time>2019-04-17T12:48:52Z</time>
      </trkpt>
      <trkpt lat="45.41702" lon="5.75885">
        <ele>391.7</ele>
        <time>2019-04-17T12:48:53Z</time>
      </trkpt>
      <trkpt lat="45.41701" lon="5.7589">
        <ele>391.6</ele>
        <time>2019-04-17T12:48:54Z</time>
      </trkpt>
      <trkpt lat="45.417" lon="5.75896">
        <ele>391.6</ele>
        <time>2019-04-17T12:48:55Z</time>
      </trkpt>
      <trkpt lat="45.41699" lon="5.75901">
        <ele>391.5</ele>
        <time>2019-04-17T12:48:56Z</time>
      </trkpt>
      <trkpt lat="45.41698" lon="5.75906">
        <ele>391.4</ele>
        <time>2019-04-17T12:48:57Z</time>
      </trkpt>
      <trkpt lat="45.41696" lon="5.75911">
        <ele>391.3</ele>
        <time>2019-04-17T12:48:58Z</time>
      </trkpt>
      <trkpt lat="45.41693" lon="5.75916">
        <ele>391.2</ele>
        <time>2019-04-17T12:48:59Z</time>
      </trkpt>
      <trkpt lat="45.41691" lon="5.7592">
        <ele>391.1</ele>
        <time>2019-04-17T12:49:00Z</time>
      </trkpt>
      <trkpt lat="45.41689" lon="5.75924">
        <ele>391</ele>
        <time>2019-04-17T12:49:01Z</time>
      </trkpt>
      <trkpt lat="45.41684" lon="5.75929">
        <ele>390.9</ele>
        <time>2019-04-17T12:49:03Z</time>
      </trkpt>
      <trkpt lat="45.41682" lon="5.75931">
        <ele>390.8</ele>
        <time>2019-04-17T12:49:04Z</time>
      </trkpt>
      <trkpt lat="45.41679" lon="5.75933">
        <ele>391.2</ele>
        <time>2019-04-17T12:49:05Z</time>
      </trkpt>
      <trkpt lat="45.41676" lon="5.75935">
        <ele>391.4</ele>
        <time>2019-04-17T12:49:06Z</time>
      </trkpt>
      <trkpt lat="45.41674" lon="5.75937">
        <ele>391.7</ele>
        <time>2019-04-17T12:49:07Z</time>
      </trkpt>
      <trkpt lat="45.41671" lon="5.75938">
        <ele>392</ele>
        <time>2019-04-17T12:49:08Z</time>
      </trkpt>
      <trkpt lat="45.41668" lon="5.7594">
        <ele>392.3</ele>
        <time>2019-04-17T12:49:10Z</time>
      </trkpt>
      <trkpt lat="45.41671" lon="5.75939">
        <ele>392</ele>
        <time>2019-04-17T12:49:13Z</time>
      </trkpt>
      <trkpt lat="45.41668" lon="5.75939">
        <ele>392.6</ele>
        <time>2019-04-17T12:49:16Z</time>
      </trkpt>
      <trkpt lat="45.41665" lon="5.7594">
        <ele>393</ele>
        <time>2019-04-17T12:49:31Z</time>
      </trkpt>
      <trkpt lat="45.41662" lon="5.75943">
        <ele>393.4</ele>
        <time>2019-04-17T12:49:34Z</time>
      </trkpt>
      <trkpt lat="45.41659" lon="5.75944">
        <ele>393.7</ele>
        <time>2019-04-17T12:49:36Z</time>
      </trkpt>
      <trkpt lat="45.41656" lon="5.75945">
        <ele>394</ele>
        <time>2019-04-17T12:49:44Z</time>
      </trkpt>
      <trkpt lat="45.41654" lon="5.75947">
        <ele>394.7</ele>
        <time>2019-04-17T12:49:46Z</time>
      </trkpt>
      <trkpt lat="45.41651" lon="5.7595">
        <ele>395.4</ele>
        <time>2019-04-17T12:49:49Z</time>
      </trkpt>
      <trkpt lat="45.41648" lon="5.75953">
        <ele>395.7</ele>
        <time>2019-04-17T12:49:52Z</time>
      </trkpt>
      <trkpt lat="45.41645" lon="5.75956">
        <ele>396.4</ele>
        <time>2019-04-17T12:49:54Z</time>
      </trkpt>
      <trkpt lat="45.41642" lon="5.75958">
        <ele>396.8</ele>
        <time>2019-04-17T12:49:56Z</time>
      </trkpt>
      <trkpt lat="45.41639" lon="5.75961">
        <ele>397.5</ele>
        <time>2019-04-17T12:49:58Z</time>
      </trkpt>
      <trkpt lat="45.41636" lon="5.75964">
        <ele>398.3</ele>
        <time>2019-04-17T12:50:00Z</time>
      </trkpt>
      <trkpt lat="45.41633" lon="5.75965">
        <ele>398.7</ele>
        <time>2019-04-17T12:50:02Z</time>
      </trkpt>
      <trkpt lat="45.4163" lon="5.75967">
        <ele>399.5</ele>
        <time>2019-04-17T12:50:04Z</time>
      </trkpt>
      <trkpt lat="45.41627" lon="5.7597">
        <ele>399.9</ele>
        <time>2019-04-17T12:50:07Z</time>
      </trkpt>
      <trkpt lat="45.41624" lon="5.75972">
        <ele>400.8</ele>
        <time>2019-04-17T12:50:09Z</time>
      </trkpt>
      <trkpt lat="45.41621" lon="5.75974">
        <ele>401.3</ele>
        <time>2019-04-17T12:50:11Z</time>
      </trkpt>
      <trkpt lat="45.41618" lon="5.75976">
        <ele>402.4</ele>
        <time>2019-04-17T12:50:13Z</time>
      </trkpt>
      <trkpt lat="45.41615" lon="5.75978">
        <ele>403.1</ele>
        <time>2019-04-17T12:50:15Z</time>
      </trkpt>
      <trkpt lat="45.41611" lon="5.7598">
        <ele>403.7</ele>
        <time>2019-04-17T12:50:18Z</time>
      </trkpt>
      <trkpt lat="45.41608" lon="5.7598">
        <ele>405</ele>
        <time>2019-04-17T12:50:20Z</time>
      </trkpt>
      <trkpt lat="45.41605" lon="5.7598">
        <ele>405.8</ele>
        <time>2019-04-17T12:50:22Z</time>
      </trkpt>
      <trkpt lat="45.41602" lon="5.75979">
        <ele>405.8</ele>
        <time>2019-04-17T12:50:24Z</time>
      </trkpt>
      <trkpt lat="45.41599" lon="5.75978">
        <ele>406.5</ele>
        <time>2019-04-17T12:50:26Z</time>
      </trkpt>
      <trkpt lat="45.41596" lon="5.75979">
        <ele>407.2</ele>
        <time>2019-04-17T12:50:28Z</time>
      </trkpt>
      <trkpt lat="45.41594" lon="5.75979">
        <ele>407.9</ele>
        <time>2019-04-17T12:50:30Z</time>
      </trkpt>
      <trkpt lat="45.4159" lon="5.7598">
        <ele>408.6</ele>
        <time>2019-04-17T12:50:32Z</time>
      </trkpt>
      <trkpt lat="45.41587" lon="5.7598">
        <ele>410.1</ele>
        <time>2019-04-17T12:50:34Z</time>
      </trkpt>
      <trkpt lat="45.41584" lon="5.75979">
        <ele>410</ele>
        <time>2019-04-17T12:50:57Z</time>
      </trkpt>
      <trkpt lat="45.41581" lon="5.75978">
        <ele>410.8</ele>
        <time>2019-04-17T12:50:59Z</time>
      </trkpt>
      <trkpt lat="45.41578" lon="5.75977">
        <ele>411.7</ele>
        <time>2019-04-17T12:51:01Z</time>
      </trkpt>
      <trkpt lat="45.41575" lon="5.75975">
        <ele>411.7</ele>
        <time>2019-04-17T12:51:04Z</time>
      </trkpt>
      <trkpt lat="45.41572" lon="5.75973">
        <ele>412.4</ele>
        <time>2019-04-17T12:51:06Z</time>
      </trkpt>
      <trkpt lat="45.4157" lon="5.75971">
        <ele>413.1</ele>
        <time>2019-04-17T12:51:08Z</time>
      </trkpt>
      <trkpt lat="45.41566" lon="5.75968">
        <ele>413</ele>
        <time>2019-04-17T12:51:11Z</time>
      </trkpt>
      <trkpt lat="45.41563" lon="5.75966">
        <ele>413</ele>
        <time>2019-04-17T12:51:13Z</time>
      </trkpt>
      <trkpt lat="45.4156" lon="5.75963">
        <ele>413.8</ele>
        <time>2019-04-17T12:51:15Z</time>
      </trkpt>
      <trkpt lat="45.41558" lon="5.7596">
        <ele>414</ele>
        <time>2019-04-17T12:51:16Z</time>
      </trkpt>
      <trkpt lat="45.41555" lon="5.75956">
        <ele>414.2</ele>
        <time>2019-04-17T12:51:18Z</time>
      </trkpt>
      <trkpt lat="45.41552" lon="5.75951">
        <ele>414.5</ele>
        <time>2019-04-17T12:51:20Z</time>
      </trkpt>
      <trkpt lat="45.41549" lon="5.75946">
        <ele>414.7</ele>
        <time>2019-04-17T12:51:22Z</time>
      </trkpt>
      <trkpt lat="45.41547" lon="5.75942">
        <ele>414.9</ele>
        <time>2019-04-17T12:51:24Z</time>
      </trkpt>
      <trkpt lat="45.41545" lon="5.75939">
        <ele>414.2</ele>
        <time>2019-04-17T12:51:26Z</time>
      </trkpt>
      <trkpt lat="45.41543" lon="5.75935">
        <ele>414.4</ele>
        <time>2019-04-17T12:51:40Z</time>
      </trkpt>
      <trkpt lat="45.41541" lon="5.75933">
        <ele>415.2</ele>
        <time>2019-04-17T12:51:42Z</time>
      </trkpt>
      <trkpt lat="45.41542" lon="5.75929">
        <ele>413.8</ele>
        <time>2019-04-17T12:51:51Z</time>
      </trkpt>
      <trkpt lat="45.41542" lon="5.75925">
        <ele>413.3</ele>
        <time>2019-04-17T12:52:02Z</time>
      </trkpt>
      <trkpt lat="45.41539" lon="5.75922">
        <ele>413.6</ele>
        <time>2019-04-17T12:52:14Z</time>
      </trkpt>
      <trkpt lat="45.41537" lon="5.75918">
        <ele>413.9</ele>
        <time>2019-04-17T12:52:18Z</time>
      </trkpt>
      <trkpt lat="45.41535" lon="5.75915">
        <ele>414.2</ele>
        <time>2019-04-17T12:52:21Z</time>
      </trkpt>
      <trkpt lat="45.41533" lon="5.75914">
        <ele>414.2</ele>
        <time>2019-04-17T12:52:32Z</time>
      </trkpt>
      <trkpt lat="45.4153" lon="5.75911">
        <ele>415.1</ele>
        <time>2019-04-17T12:52:35Z</time>
      </trkpt>
      <trkpt lat="45.41527" lon="5.75909">
        <ele>415.4</ele>
        <time>2019-04-17T12:52:45Z</time>
      </trkpt>
      <trkpt lat="45.41524" lon="5.75908">
        <ele>416.2</ele>
        <time>2019-04-17T12:52:49Z</time>
      </trkpt>
      <trkpt lat="45.41519" lon="5.75901">
        <ele>416.6</ele>
        <time>2019-04-17T12:53:25Z</time>
      </trkpt>
      <trkpt lat="45.41516" lon="5.75899">
        <ele>417.3</ele>
        <time>2019-04-17T12:53:28Z</time>
      </trkpt>
      <trkpt lat="45.41513" lon="5.75897">
        <ele>417.4</ele>
        <time>2019-04-17T12:53:32Z</time>
      </trkpt>
      <trkpt lat="45.41511" lon="5.75893">
        <ele>417.4</ele>
        <time>2019-04-17T12:53:35Z</time>
      </trkpt>
      <trkpt lat="45.41508" lon="5.75891">
        <ele>418</ele>
        <time>2019-04-17T12:53:40Z</time>
      </trkpt>
      <trkpt lat="45.41505" lon="5.7589">
        <ele>418</ele>
        <time>2019-04-17T12:53:44Z</time>
      </trkpt>
      <trkpt lat="45.41502" lon="5.75891">
        <ele>419.3</ele>
        <time>2019-04-17T12:53:49Z</time>
      </trkpt>
      <trkpt lat="45.41499" lon="5.75891">
        <ele>420</ele>
        <time>2019-04-17T12:53:52Z</time>
      </trkpt>
      <trkpt lat="45.41496" lon="5.75892">
        <ele>420.7</ele>
        <time>2019-04-17T12:53:56Z</time>
      </trkpt>
      <trkpt lat="45.41493" lon="5.75893">
        <ele>421.3</ele>
        <time>2019-04-17T12:54:00Z</time>
      </trkpt>
      <trkpt lat="45.41491" lon="5.75895">
        <ele>421.9</ele>
        <time>2019-04-17T12:54:05Z</time>
      </trkpt>
      <trkpt lat="45.41488" lon="5.75897">
        <ele>422.4</ele>
        <time>2019-04-17T12:54:08Z</time>
      </trkpt>
      <trkpt lat="45.41484" lon="5.75897">
        <ele>423</ele>
        <time>2019-04-17T12:54:11Z</time>
      </trkpt>
      <trkpt lat="45.41482" lon="5.75899">
        <ele>424</ele>
        <time>2019-04-17T12:54:15Z</time>
      </trkpt>
      <trkpt lat="45.41479" lon="5.75901">
        <ele>424.5</ele>
        <time>2019-04-17T12:54:19Z</time>
      </trkpt>
      <trkpt lat="45.41479" lon="5.75905">
        <ele>425</ele>
        <time>2019-04-17T12:54:23Z</time>
      </trkpt>
      <trkpt lat="45.41477" lon="5.7591">
        <ele>426</ele>
        <time>2019-04-17T12:54:27Z</time>
      </trkpt>
      <trkpt lat="45.41475" lon="5.75914">
        <ele>427</ele>
        <time>2019-04-17T12:54:30Z</time>
      </trkpt>
      <trkpt lat="45.41474" lon="5.75917">
        <ele>427.4</ele>
        <time>2019-04-17T12:54:34Z</time>
      </trkpt>
      <trkpt lat="45.41471" lon="5.75921">
        <ele>428.4</ele>
        <time>2019-04-17T12:54:39Z</time>
      </trkpt>
      <trkpt lat="45.41469" lon="5.75924">
        <ele>428.4</ele>
        <time>2019-04-17T12:54:44Z</time>
      </trkpt>
      <trkpt lat="45.4147" lon="5.75929">
        <ele>429.3</ele>
        <time>2019-04-17T12:54:48Z</time>
      </trkpt>
      <trkpt lat="45.41471" lon="5.75933">
        <ele>429.7</ele>
        <time>2019-04-17T12:54:50Z</time>
      </trkpt>
      <trkpt lat="45.4147" lon="5.75937">
        <ele>430.2</ele>
        <time>2019-04-17T12:54:53Z</time>
      </trkpt>
      <trkpt lat="45.41467" lon="5.75941">
        <ele>430.6</ele>
        <time>2019-04-17T12:54:56Z</time>
      </trkpt>
      <trkpt lat="45.41466" lon="5.75946">
        <ele>431.7</ele>
        <time>2019-04-17T12:55:00Z</time>
      </trkpt>
      <trkpt lat="45.41465" lon="5.75949">
        <ele>431.7</ele>
        <time>2019-04-17T12:55:02Z</time>
      </trkpt>
      <trkpt lat="45.41464" lon="5.75954">
        <ele>432.1</ele>
        <time>2019-04-17T12:55:05Z</time>
      </trkpt>
      <trkpt lat="45.41463" lon="5.75959">
        <ele>433.1</ele>
        <time>2019-04-17T12:55:08Z</time>
      </trkpt>
      <trkpt lat="45.41462" lon="5.75963">
        <ele>433.5</ele>
        <time>2019-04-17T12:55:11Z</time>
      </trkpt>
      <trkpt lat="45.41462" lon="5.75967">
        <ele>434</ele>
        <time>2019-04-17T12:55:22Z</time>
      </trkpt>
      <trkpt lat="45.41465" lon="5.75969">
        <ele>433.9</ele>
        <time>2019-04-17T12:55:30Z</time>
      </trkpt>
      <trkpt lat="45.41461" lon="5.7597">
        <ele>434</ele>
        <time>2019-04-17T12:57:34Z</time>
      </trkpt>
      <trkpt lat="45.41459" lon="5.75966">
        <ele>433.7</ele>
        <time>2019-04-17T12:57:39Z</time>
      </trkpt>
      <trkpt lat="45.4146" lon="5.75962">
        <ele>433.2</ele>
        <time>2019-04-17T12:57:45Z</time>
      </trkpt>
      <trkpt lat="45.41459" lon="5.75958">
        <ele>433.2</ele>
        <time>2019-04-17T12:57:55Z</time>
      </trkpt>
      <trkpt lat="45.41464" lon="5.75955">
        <ele>432.5</ele>
        <time>2019-04-17T12:58:16Z</time>
      </trkpt>
      <trkpt lat="45.41462" lon="5.75962">
        <ele>433.1</ele>
        <time>2019-04-17T12:59:39Z</time>
      </trkpt>
      <trkpt lat="45.41462" lon="5.75967">
        <ele>433.5</ele>
        <time>2019-04-17T12:59:42Z</time>
      </trkpt>
      <trkpt lat="45.41463" lon="5.75972">
        <ele>434.5</ele>
        <time>2019-04-17T12:59:54Z</time>
      </trkpt>
      <trkpt lat="45.41463" lon="5.75976">
        <ele>435</ele>
        <time>2019-04-17T12:59:57Z</time>
      </trkpt>
      <trkpt lat="45.41464" lon="5.75981">
        <ele>435.6</ele>
        <time>2019-04-17T13:00:00Z</time>
      </trkpt>
      <trkpt lat="45.41466" lon="5.75984">
        <ele>435.4</ele>
        <time>2019-04-17T13:00:02Z</time>
      </trkpt>
      <trkpt lat="45.41467" lon="5.75987">
        <ele>436</ele>
        <time>2019-04-17T13:00:05Z</time>
      </trkpt>
      <trkpt lat="45.41464" lon="5.75986">
        <ele>436.1</ele>
        <time>2019-04-17T13:00:09Z</time>
      </trkpt>
      <trkpt lat="45.41464" lon="5.7598">
        <ele>435.6</ele>
        <time>2019-04-17T13:00:12Z</time>
      </trkpt>
      <trkpt lat="45.41464" lon="5.75976">
        <ele>435</ele>
        <time>2019-04-17T13:00:14Z</time>
      </trkpt>
      <trkpt lat="45.41463" lon="5.75972">
        <ele>434.4</ele>
        <time>2019-04-17T13:00:17Z</time>
      </trkpt>
      <trkpt lat="45.4146" lon="5.75973">
        <ele>434.6</ele>
        <time>2019-04-17T13:00:32Z</time>
      </trkpt>
      <trkpt lat="45.4146" lon="5.75977">
        <ele>435.2</ele>
        <time>2019-04-17T13:00:36Z</time>
      </trkpt>
      <trkpt lat="45.4146" lon="5.75982">
        <ele>435.7</ele>
        <time>2019-04-17T13:00:42Z</time>
      </trkpt>
      <trkpt lat="45.4146" lon="5.75986">
        <ele>436.2</ele>
        <time>2019-04-17T13:00:46Z</time>
      </trkpt>
      <trkpt lat="45.41458" lon="5.7599">
        <ele>436.8</ele>
        <time>2019-04-17T13:01:04Z</time>
      </trkpt>
      <trkpt lat="45.41456" lon="5.75995">
        <ele>437.2</ele>
        <time>2019-04-17T13:01:08Z</time>
      </trkpt>
      <trkpt lat="45.41455" lon="5.75998">
        <ele>437.7</ele>
        <time>2019-04-17T13:01:15Z</time>
      </trkpt>
      <trkpt lat="45.41457" lon="5.75995">
        <ele>437.2</ele>
        <time>2019-04-17T13:01:18Z</time>
      </trkpt>
      <trkpt lat="45.41459" lon="5.75992">
        <ele>436.8</ele>
        <time>2019-04-17T13:01:20Z</time>
      </trkpt>
      <trkpt lat="45.41461" lon="5.75988">
        <ele>436.2</ele>
        <time>2019-04-17T13:01:23Z</time>
      </trkpt>
      <trkpt lat="45.41458" lon="5.7599">
        <ele>436.8</ele>
        <time>2019-04-17T13:01:41Z</time>
      </trkpt>
      <trkpt lat="45.41456" lon="5.75995">
        <ele>437.2</ele>
        <time>2019-04-17T13:01:45Z</time>
      </trkpt>
      <trkpt lat="45.41454" lon="5.75996">
        <ele>437.2</ele>
        <time>2019-04-17T13:01:55Z</time>
      </trkpt>
      <trkpt lat="45.41452" lon="5.76">
        <ele>437.6</ele>
        <time>2019-04-17T13:02:03Z</time>
      </trkpt>
      <trkpt lat="45.41451" lon="5.76003">
        <ele>437.9</ele>
        <time>2019-04-17T13:02:07Z</time>
      </trkpt>
      <trkpt lat="45.41452" lon="5.76008">
        <ele>438.5</ele>
        <time>2019-04-17T13:02:11Z</time>
      </trkpt>
      <trkpt lat="45.4145" lon="5.76013">
        <ele>438.8</ele>
        <time>2019-04-17T13:02:15Z</time>
      </trkpt>
      <trkpt lat="45.41449" lon="5.76018">
        <ele>439.3</ele>
        <time>2019-04-17T13:02:18Z</time>
      </trkpt>
      <trkpt lat="45.41448" lon="5.76022">
        <ele>439.9</ele>
        <time>2019-04-17T13:02:20Z</time>
      </trkpt>
      <trkpt lat="45.41447" lon="5.76027">
        <ele>440.2</ele>
        <time>2019-04-17T13:02:22Z</time>
      </trkpt>
      <trkpt lat="45.41446" lon="5.76031">
        <ele>440.8</ele>
        <time>2019-04-17T13:02:24Z</time>
      </trkpt>
      <trkpt lat="45.41448" lon="5.76034">
        <ele>441.4</ele>
        <time>2019-04-17T13:02:37Z</time>
      </trkpt>
      <trkpt lat="45.41447" lon="5.76039">
        <ele>442.1</ele>
        <time>2019-04-17T13:02:41Z</time>
      </trkpt>
      <trkpt lat="45.41446" lon="5.76043">
        <ele>442.8</ele>
        <time>2019-04-17T13:02:44Z</time>
      </trkpt>
      <trkpt lat="45.41444" lon="5.76048">
        <ele>443.2</ele>
        <time>2019-04-17T13:02:47Z</time>
      </trkpt>
      <trkpt lat="45.41443" lon="5.76052">
        <ele>444</ele>
        <time>2019-04-17T13:02:49Z</time>
      </trkpt>
      <trkpt lat="45.41441" lon="5.76057">
        <ele>444.5</ele>
        <time>2019-04-17T13:02:52Z</time>
      </trkpt>
      <trkpt lat="45.4144" lon="5.76061">
        <ele>445.3</ele>
        <time>2019-04-17T13:02:55Z</time>
      </trkpt>
      <trkpt lat="45.41438" lon="5.76065">
        <ele>445.8</ele>
        <time>2019-04-17T13:02:58Z</time>
      </trkpt>
      <trkpt lat="45.41436" lon="5.76069">
        <ele>446.3</ele>
        <time>2019-04-17T13:03:00Z</time>
      </trkpt>
      <trkpt lat="45.41433" lon="5.76072">
        <ele>447.2</ele>
        <time>2019-04-17T13:03:02Z</time>
      </trkpt>
      <trkpt lat="45.41431" lon="5.76076">
        <ele>447.6</ele>
        <time>2019-04-17T13:03:04Z</time>
      </trkpt>
      <trkpt lat="45.41428" lon="5.76079">
        <ele>448</ele>
        <time>2019-04-17T13:03:06Z</time>
      </trkpt>
      <trkpt lat="45.41425" lon="5.76083">
        <ele>448.3</ele>
        <time>2019-04-17T13:03:08Z</time>
      </trkpt>
      <trkpt lat="45.41422" lon="5.76086">
        <ele>447.8</ele>
        <time>2019-04-17T13:03:10Z</time>
      </trkpt>
      <trkpt lat="45.41421" lon="5.7609">
        <ele>448.1</ele>
        <time>2019-04-17T13:03:12Z</time>
      </trkpt>
      <trkpt lat="45.41417" lon="5.76091">
        <ele>447.5</ele>
        <time>2019-04-17T13:03:22Z</time>
      </trkpt>
      <trkpt lat="45.41415" lon="5.76096">
        <ele>449.1</ele>
        <time>2019-04-17T13:03:25Z</time>
      </trkpt>
      <trkpt lat="45.41412" lon="5.761">
        <ele>448</ele>
        <time>2019-04-17T13:03:27Z</time>
      </trkpt>
      <trkpt lat="45.41408" lon="5.76103">
        <ele>448.3</ele>
        <time>2019-04-17T13:03:29Z</time>
      </trkpt>
      <trkpt lat="45.41409" lon="5.76106">
        <ele>449.7</ele>
        <time>2019-04-17T13:03:31Z</time>
      </trkpt>
      <trkpt lat="45.41412" lon="5.76106">
        <ele>449.7</ele>
        <time>2019-04-17T13:03:32Z</time>
      </trkpt>
      <trkpt lat="45.4141" lon="5.7611">
        <ele>450.7</ele>
        <time>2019-04-17T13:03:37Z</time>
      </trkpt>
      <trkpt lat="45.41409" lon="5.76115">
        <ele>451.7</ele>
        <time>2019-04-17T13:03:41Z</time>
      </trkpt>
      <trkpt lat="45.41409" lon="5.76119">
        <ele>452.7</ele>
        <time>2019-04-17T13:03:43Z</time>
      </trkpt>
      <trkpt lat="45.41407" lon="5.76121">
        <ele>452.1</ele>
        <time>2019-04-17T13:03:45Z</time>
      </trkpt>
      <trkpt lat="45.41404" lon="5.76119">
        <ele>451.5</ele>
        <time>2019-04-17T13:03:50Z</time>
      </trkpt>
      <trkpt lat="45.41401" lon="5.76116">
        <ele>450.1</ele>
        <time>2019-04-17T13:03:58Z</time>
      </trkpt>
      <trkpt lat="45.41401" lon="5.76113">
        <ele>449.1</ele>
        <time>2019-04-17T13:04:04Z</time>
      </trkpt>
      <trkpt lat="45.41403" lon="5.76111">
        <ele>449.6</ele>
        <time>2019-04-17T13:04:53Z</time>
      </trkpt>
      <trkpt lat="45.41401" lon="5.76112">
        <ele>449.1</ele>
        <time>2019-04-17T13:05:30Z</time>
      </trkpt>
      <trkpt lat="45.41402" lon="5.76115">
        <ele>450.1</ele>
        <time>2019-04-17T13:05:51Z</time>
      </trkpt>
      <trkpt lat="45.41401" lon="5.76121">
        <ele>451</ele>
        <time>2019-04-17T13:05:54Z</time>
      </trkpt>
      <trkpt lat="45.41401" lon="5.76126">
        <ele>452.9</ele>
        <time>2019-04-17T13:05:56Z</time>
      </trkpt>
      <trkpt lat="45.41401" lon="5.76131">
        <ele>453.7</ele>
        <time>2019-04-17T13:05:58Z</time>
      </trkpt>
      <trkpt lat="45.41399" lon="5.76138">
        <ele>454</ele>
        <time>2019-04-17T13:06:00Z</time>
      </trkpt>
      <trkpt lat="45.41397" lon="5.76143">
        <ele>455.1</ele>
        <time>2019-04-17T13:06:02Z</time>
      </trkpt>
      <trkpt lat="45.41394" lon="5.76147">
        <ele>455.1</ele>
        <time>2019-04-17T13:06:03Z</time>
      </trkpt>
      <trkpt lat="45.41392" lon="5.76152">
        <ele>456</ele>
        <time>2019-04-17T13:06:04Z</time>
      </trkpt>
      <trkpt lat="45.41391" lon="5.76157">
        <ele>456.7</ele>
        <time>2019-04-17T13:06:05Z</time>
      </trkpt>
      <trkpt lat="45.41391" lon="5.76161">
        <ele>457.5</ele>
        <time>2019-04-17T13:06:06Z</time>
      </trkpt>
      <trkpt lat="45.41391" lon="5.76166">
        <ele>458.2</ele>
        <time>2019-04-17T13:06:07Z</time>
      </trkpt>
      <trkpt lat="45.41391" lon="5.7617">
        <ele>458.2</ele>
        <time>2019-04-17T13:06:08Z</time>
      </trkpt>
      <trkpt lat="45.41388" lon="5.76171">
        <ele>457</ele>
        <time>2019-04-17T13:06:11Z</time>
      </trkpt>
      <trkpt lat="45.41386" lon="5.76175">
        <ele>457.7</ele>
        <time>2019-04-17T13:06:22Z</time>
      </trkpt>
      <trkpt lat="45.41385" lon="5.76178">
        <ele>457.6</ele>
        <time>2019-04-17T13:06:29Z</time>
      </trkpt>
      <trkpt lat="45.41383" lon="5.76182">
        <ele>458.2</ele>
        <time>2019-04-17T13:06:33Z</time>
      </trkpt>
      <trkpt lat="45.41384" lon="5.76187">
        <ele>458.8</ele>
        <time>2019-04-17T13:06:36Z</time>
      </trkpt>
      <trkpt lat="45.41382" lon="5.76186">
        <ele>457.5</ele>
        <time>2019-04-17T13:06:51Z</time>
      </trkpt>
      <trkpt lat="45.41383" lon="5.76193">
        <ele>459.4</ele>
        <time>2019-04-17T13:07:53Z</time>
      </trkpt>
      <trkpt lat="45.41384" lon="5.76197">
        <ele>460.1</ele>
        <time>2019-04-17T13:07:55Z</time>
      </trkpt>
      <trkpt lat="45.41385" lon="5.76202">
        <ele>460.7</ele>
        <time>2019-04-17T13:07:57Z</time>
      </trkpt>
      <trkpt lat="45.41386" lon="5.76207">
        <ele>462</ele>
        <time>2019-04-17T13:07:59Z</time>
      </trkpt>
      <trkpt lat="45.41388" lon="5.7621">
        <ele>463.8</ele>
        <time>2019-04-17T13:08:01Z</time>
      </trkpt>
      <trkpt lat="45.41391" lon="5.76213">
        <ele>465</ele>
        <time>2019-04-17T13:08:03Z</time>
      </trkpt>
      <trkpt lat="45.41394" lon="5.76216">
        <ele>466.1</ele>
        <time>2019-04-17T13:08:05Z</time>
      </trkpt>
      <trkpt lat="45.41396" lon="5.7622">
        <ele>466.1</ele>
        <time>2019-04-17T13:08:07Z</time>
      </trkpt>
      <trkpt lat="45.41398" lon="5.76223">
        <ele>467</ele>
        <time>2019-04-17T13:08:08Z</time>
      </trkpt>
      <trkpt lat="45.41399" lon="5.76228">
        <ele>467.4</ele>
        <time>2019-04-17T13:08:10Z</time>
      </trkpt>
      <trkpt lat="45.414" lon="5.76232">
        <ele>468.2</ele>
        <time>2019-04-17T13:08:11Z</time>
      </trkpt>
      <trkpt lat="45.414" lon="5.76238">
        <ele>468.7</ele>
        <time>2019-04-17T13:08:13Z</time>
      </trkpt>
      <trkpt lat="45.414" lon="5.76243">
        <ele>469</ele>
        <time>2019-04-17T13:08:15Z</time>
      </trkpt>
      <trkpt lat="45.41401" lon="5.76248">
        <ele>469.2</ele>
        <time>2019-04-17T13:08:17Z</time>
      </trkpt>
      <trkpt lat="45.41404" lon="5.76253">
        <ele>469.9</ele>
        <time>2019-04-17T13:08:19Z</time>
      </trkpt>
      <trkpt lat="45.41405" lon="5.76259">
        <ele>470.2</ele>
        <time>2019-04-17T13:08:21Z</time>
      </trkpt>
      <trkpt lat="45.41407" lon="5.76265">
        <ele>471</ele>
        <time>2019-04-17T13:08:23Z</time>
      </trkpt>
      <trkpt lat="45.41409" lon="5.76271">
        <ele>471.1</ele>
        <time>2019-04-17T13:08:25Z</time>
      </trkpt>
      <trkpt lat="45.41409" lon="5.76277">
        <ele>472</ele>
        <time>2019-04-17T13:08:27Z</time>
      </trkpt>
      <trkpt lat="45.41409" lon="5.76284">
        <ele>471.4</ele>
        <time>2019-04-17T13:08:29Z</time>
      </trkpt>
      <trkpt lat="45.41407" lon="5.7629">
        <ele>471.7</ele>
        <time>2019-04-17T13:08:31Z</time>
      </trkpt>
      <trkpt lat="45.41406" lon="5.76297">
        <ele>471.8</ele>
        <time>2019-04-17T13:08:33Z</time>
      </trkpt>
      <trkpt lat="45.41406" lon="5.76303">
        <ele>471.4</ele>
        <time>2019-04-17T13:08:35Z</time>
      </trkpt>
      <trkpt lat="45.41408" lon="5.76308">
        <ele>472.2</ele>
        <time>2019-04-17T13:08:37Z</time>
      </trkpt>
      <trkpt lat="45.4141" lon="5.76311">
        <ele>473</ele>
        <time>2019-04-17T13:08:41Z</time>
      </trkpt>
      <trkpt lat="45.41407" lon="5.76314">
        <ele>472.3</ele>
        <time>2019-04-17T13:08:52Z</time>
      </trkpt>
      <trkpt lat="45.41402" lon="5.7631">
        <ele>470.9</ele>
        <time>2019-04-17T13:08:59Z</time>
      </trkpt>
      <trkpt lat="45.414" lon="5.76308">
        <ele>470.3</ele>
        <time>2019-04-17T13:09:07Z</time>
      </trkpt>
      <trkpt lat="45.41402" lon="5.76312">
        <ele>471</ele>
        <time>2019-04-17T13:09:27Z</time>
      </trkpt>
      <trkpt lat="45.41406" lon="5.76313">
        <ele>472.3</ele>
        <time>2019-04-17T13:09:29Z</time>
      </trkpt>
      <trkpt lat="45.41406" lon="5.76318">
        <ele>472.4</ele>
        <time>2019-04-17T13:09:58Z</time>
      </trkpt>
      <trkpt lat="45.41406" lon="5.76322">
        <ele>472.5</ele>
        <time>2019-04-17T13:10:00Z</time>
      </trkpt>
      <trkpt lat="45.41406" lon="5.76327">
        <ele>471.9</ele>
        <time>2019-04-17T13:10:02Z</time>
      </trkpt>
      <trkpt lat="45.41406" lon="5.76333">
        <ele>472.6</ele>
        <time>2019-04-17T13:10:04Z</time>
      </trkpt>
      <trkpt lat="45.41406" lon="5.7634">
        <ele>471.9</ele>
        <time>2019-04-17T13:10:05Z</time>
      </trkpt>
      <trkpt lat="45.41405" lon="5.76346">
        <ele>471.8</ele>
        <time>2019-04-17T13:10:06Z</time>
      </trkpt>
      <trkpt lat="45.41407" lon="5.76356">
        <ele>472.3</ele>
        <time>2019-04-17T13:10:07Z</time>
      </trkpt>
      <trkpt lat="45.41406" lon="5.7637">
        <ele>472.1</ele>
        <time>2019-04-17T13:10:08Z</time>
      </trkpt>
      <trkpt lat="45.41407" lon="5.76378">
        <ele>471.9</ele>
        <time>2019-04-17T13:10:09Z</time>
      </trkpt>
      <trkpt lat="45.41408" lon="5.76385">
        <ele>471.7</ele>
        <time>2019-04-17T13:10:10Z</time>
      </trkpt>
      <trkpt lat="45.41408" lon="5.7639">
        <ele>471.6</ele>
        <time>2019-04-17T13:10:11Z</time>
      </trkpt>
      <trkpt lat="45.41407" lon="5.76395">
        <ele>471.5</ele>
        <time>2019-04-17T13:10:12Z</time>
      </trkpt>
      <trkpt lat="45.41406" lon="5.764">
        <ele>471.4</ele>
        <time>2019-04-17T13:10:13Z</time>
      </trkpt>
      <trkpt lat="45.41405" lon="5.76408">
        <ele>470.6</ele>
        <time>2019-04-17T13:10:14Z</time>
      </trkpt>
      <trkpt lat="45.41406" lon="5.76415">
        <ele>470.3</ele>
        <time>2019-04-17T13:10:15Z</time>
      </trkpt>
      <trkpt lat="45.41407" lon="5.76418">
        <ele>470.6</ele>
        <time>2019-04-17T13:10:16Z</time>
      </trkpt>
      <trkpt lat="45.41407" lon="5.76425">
        <ele>470.4</ele>
        <time>2019-04-17T13:10:17Z</time>
      </trkpt>
      <trkpt lat="45.41408" lon="5.76429">
        <ele>470.2</ele>
        <time>2019-04-17T13:10:18Z</time>
      </trkpt>
      <trkpt lat="45.41409" lon="5.76433">
        <ele>470.4</ele>
        <time>2019-04-17T13:10:19Z</time>
      </trkpt>
      <trkpt lat="45.41409" lon="5.76439">
        <ele>469.9</ele>
        <time>2019-04-17T13:10:20Z</time>
      </trkpt>
      <trkpt lat="45.41409" lon="5.76447">
        <ele>469.6</ele>
        <time>2019-04-17T13:10:21Z</time>
      </trkpt>
      <trkpt lat="45.41413" lon="5.76455">
        <ele>469.4</ele>
        <time>2019-04-17T13:10:22Z</time>
      </trkpt>
      <trkpt lat="45.41415" lon="5.76463">
        <ele>469.1</ele>
        <time>2019-04-17T13:10:23Z</time>
      </trkpt>
      <trkpt lat="45.41417" lon="5.7647">
        <ele>468.5</ele>
        <time>2019-04-17T13:10:24Z</time>
      </trkpt>
      <trkpt lat="45.41416" lon="5.76478">
        <ele>468</ele>
        <time>2019-04-17T13:10:25Z</time>
      </trkpt>
      <trkpt lat="45.41416" lon="5.76483">
        <ele>467.8</ele>
        <time>2019-04-17T13:10:26Z</time>
      </trkpt>
      <trkpt lat="45.41415" lon="5.76488">
        <ele>467.6</ele>
        <time>2019-04-17T13:10:27Z</time>
      </trkpt>
      <trkpt lat="45.41416" lon="5.76493">
        <ele>467.4</ele>
        <time>2019-04-17T13:10:28Z</time>
      </trkpt>
      <trkpt lat="45.41415" lon="5.76497">
        <ele>467.2</ele>
        <time>2019-04-17T13:10:29Z</time>
      </trkpt>
      <trkpt lat="45.41414" lon="5.76502">
        <ele>466.9</ele>
        <time>2019-04-17T13:10:30Z</time>
      </trkpt>
      <trkpt lat="45.41414" lon="5.76505">
        <ele>466.7</ele>
        <time>2019-04-17T13:10:31Z</time>
      </trkpt>
      <trkpt lat="45.41415" lon="5.76513">
        <ele>466.5</ele>
        <time>2019-04-17T13:10:33Z</time>
      </trkpt>
      <trkpt lat="45.41413" lon="5.76517">
        <ele>466.3</ele>
        <time>2019-04-17T13:10:35Z</time>
      </trkpt>
      <trkpt lat="45.41415" lon="5.7652">
        <ele>466.6</ele>
        <time>2019-04-17T13:11:15Z</time>
      </trkpt>
      <trkpt lat="45.41415" lon="5.76524">
        <ele>466.4</ele>
        <time>2019-04-17T13:11:23Z</time>
      </trkpt>
      <trkpt lat="45.41412" lon="5.76528">
        <ele>466.1</ele>
        <time>2019-04-17T13:11:30Z</time>
      </trkpt>
      <trkpt lat="45.41409" lon="5.7653">
        <ele>465.7</ele>
        <time>2019-04-17T13:11:32Z</time>
      </trkpt>
      <trkpt lat="45.41404" lon="5.76529">
        <ele>465.2</ele>
        <time>2019-04-17T13:11:37Z</time>
      </trkpt>
      <trkpt lat="45.41401" lon="5.76528">
        <ele>465.1</ele>
        <time>2019-04-17T13:11:38Z</time>
      </trkpt>
      <trkpt lat="45.41399" lon="5.76525">
        <ele>464.8</ele>
        <time>2019-04-17T13:11:39Z</time>
      </trkpt>
      <trkpt lat="45.41393" lon="5.76522">
        <ele>464.4</ele>
        <time>2019-04-17T13:11:41Z</time>
      </trkpt>
      <trkpt lat="45.41388" lon="5.7652">
        <ele>464.2</ele>
        <time>2019-04-17T13:11:43Z</time>
      </trkpt>
      <trkpt lat="45.41385" lon="5.76518">
        <ele>463.5</ele>
        <time>2019-04-17T13:11:44Z</time>
      </trkpt>
      <trkpt lat="45.41382" lon="5.76516">
        <ele>463.3</ele>
        <time>2019-04-17T13:11:45Z</time>
      </trkpt>
      <trkpt lat="45.41377" lon="5.76511">
        <ele>462.9</ele>
        <time>2019-04-17T13:11:46Z</time>
      </trkpt>
      <trkpt lat="45.413" lon="5.76488">
        <ele>454.7</ele>
        <time>2019-04-17T13:11:49Z</time>
      </trkpt>
      <trkpt lat="45.4129" lon="5.76484">
        <ele>454.2</ele>
        <time>2019-04-17T13:11:50Z</time>
      </trkpt>
      <trkpt lat="45.4128" lon="5.7648">
        <ele>453.7</ele>
        <time>2019-04-17T13:11:51Z</time>
      </trkpt>
      <trkpt lat="45.41272" lon="5.76475">
        <ele>453.3</ele>
        <time>2019-04-17T13:11:52Z</time>
      </trkpt>
      <trkpt lat="45.41266" lon="5.76468">
        <ele>452.5</ele>
        <time>2019-04-17T13:11:53Z</time>
      </trkpt>
      <trkpt lat="45.41259" lon="5.76464">
        <ele>451.9</ele>
        <time>2019-04-17T13:11:54Z</time>
      </trkpt>
      <trkpt lat="45.41251" lon="5.7646">
        <ele>451.9</ele>
        <time>2019-04-17T13:11:55Z</time>
      </trkpt>
      <trkpt lat="45.41243" lon="5.76457">
        <ele>451.5</ele>
        <time>2019-04-17T13:11:56Z</time>
      </trkpt>
      <trkpt lat="45.41237" lon="5.76456">
        <ele>451.2</ele>
        <time>2019-04-17T13:11:57Z</time>
      </trkpt>
      <trkpt lat="45.41229" lon="5.76457">
        <ele>451.2</ele>
        <time>2019-04-17T13:11:58Z</time>
      </trkpt>
      <trkpt lat="45.41223" lon="5.76458">
        <ele>451.2</ele>
        <time>2019-04-17T13:11:59Z</time>
      </trkpt>
      <trkpt lat="45.41216" lon="5.76461">
        <ele>451.4</ele>
        <time>2019-04-17T13:12:00Z</time>
      </trkpt>
      <trkpt lat="45.41211" lon="5.76465">
        <ele>451.8</ele>
        <time>2019-04-17T13:12:01Z</time>
      </trkpt>
      <trkpt lat="45.41208" lon="5.76471">
        <ele>452.1</ele>
        <time>2019-04-17T13:12:02Z</time>
      </trkpt>
      <trkpt lat="45.41206" lon="5.76478">
        <ele>452.5</ele>
        <time>2019-04-17T13:12:03Z</time>
      </trkpt>
      <trkpt lat="45.41205" lon="5.76485">
        <ele>452.8</ele>
        <time>2019-04-17T13:12:04Z</time>
      </trkpt>
      <trkpt lat="45.41206" lon="5.76491">
        <ele>453.1</ele>
        <time>2019-04-17T13:12:05Z</time>
      </trkpt>
      <trkpt lat="45.41203" lon="5.765">
        <ele>453.5</ele>
        <time>2019-04-17T13:12:06Z</time>
      </trkpt>
      <trkpt lat="45.41203" lon="5.76507">
        <ele>453.8</ele>
        <time>2019-04-17T13:12:07Z</time>
      </trkpt>
      <trkpt lat="45.41198" lon="5.76518">
        <ele>454.2</ele>
        <time>2019-04-17T13:12:08Z</time>
      </trkpt>
      <trkpt lat="45.41196" lon="5.76526">
        <ele>454.8</ele>
        <time>2019-04-17T13:12:09Z</time>
      </trkpt>
      <trkpt lat="45.41193" lon="5.76533">
        <ele>455.4</ele>
        <time>2019-04-17T13:12:11Z</time>
      </trkpt>
      <trkpt lat="45.41192" lon="5.76538">
        <ele>455.7</ele>
        <time>2019-04-17T13:12:13Z</time>
      </trkpt>
      <trkpt lat="45.4119" lon="5.76542">
        <ele>456</ele>
        <time>2019-04-17T13:12:14Z</time>
      </trkpt>
      <trkpt lat="45.41189" lon="5.76548">
        <ele>456.4</ele>
        <time>2019-04-17T13:12:15Z</time>
      </trkpt>
      <trkpt lat="45.41186" lon="5.76554">
        <ele>457</ele>
        <time>2019-04-17T13:12:16Z</time>
      </trkpt>
      <trkpt lat="45.41184" lon="5.76558">
        <ele>457.3</ele>
        <time>2019-04-17T13:12:17Z</time>
      </trkpt>
      <trkpt lat="45.41182" lon="5.76561">
        <ele>457.6</ele>
        <time>2019-04-17T13:12:18Z</time>
      </trkpt>
      <trkpt lat="45.41178" lon="5.76562">
        <ele>458.1</ele>
        <time>2019-04-17T13:12:20Z</time>
      </trkpt>
      <trkpt lat="45.41172" lon="5.7656">
        <ele>458.2</ele>
        <time>2019-04-17T13:12:27Z</time>
      </trkpt>
      <trkpt lat="45.41169" lon="5.76557">
        <ele>457.7</ele>
        <time>2019-04-17T13:12:38Z</time>
      </trkpt>
      <trkpt lat="45.41165" lon="5.76554">
        <ele>457.2</ele>
        <time>2019-04-17T13:13:05Z</time>
      </trkpt>
      <trkpt lat="45.41162" lon="5.76551">
        <ele>456.8</ele>
        <time>2019-04-17T13:13:06Z</time>
      </trkpt>
      <trkpt lat="45.41159" lon="5.76548">
        <ele>456.3</ele>
        <time>2019-04-17T13:13:07Z</time>
      </trkpt>
      <trkpt lat="45.41155" lon="5.76544">
        <ele>455.8</ele>
        <time>2019-04-17T13:13:08Z</time>
      </trkpt>
      <trkpt lat="45.41151" lon="5.76538">
        <ele>455.1</ele>
        <time>2019-04-17T13:13:09Z</time>
      </trkpt>
      <trkpt lat="45.41147" lon="5.76533">
        <ele>454.6</ele>
        <time>2019-04-17T13:13:10Z</time>
      </trkpt>
      <trkpt lat="45.41142" lon="5.76528">
        <ele>454.1</ele>
        <time>2019-04-17T13:13:11Z</time>
      </trkpt>
      <trkpt lat="45.41138" lon="5.76523">
        <ele>453.5</ele>
        <time>2019-04-17T13:13:12Z</time>
      </trkpt>
      <trkpt lat="45.41135" lon="5.76518">
        <ele>453.3</ele>
        <time>2019-04-17T13:13:13Z</time>
      </trkpt>
      <trkpt lat="45.41131" lon="5.76511">
        <ele>452.9</ele>
        <time>2019-04-17T13:13:14Z</time>
      </trkpt>
      <trkpt lat="45.41128" lon="5.76504">
        <ele>452.5</ele>
        <time>2019-04-17T13:13:15Z</time>
      </trkpt>
      <trkpt lat="45.41124" lon="5.76497">
        <ele>452.2</ele>
        <time>2019-04-17T13:13:16Z</time>
      </trkpt>
      <trkpt lat="45.4112" lon="5.76491">
        <ele>451.8</ele>
        <time>2019-04-17T13:13:17Z</time>
      </trkpt>
      <trkpt lat="45.41115" lon="5.76487">
        <ele>451.3</ele>
        <time>2019-04-17T13:13:18Z</time>
      </trkpt>
      <trkpt lat="45.41109" lon="5.76481">
        <ele>450.6</ele>
        <time>2019-04-17T13:13:19Z</time>
      </trkpt>
      <trkpt lat="45.41101" lon="5.76476">
        <ele>449.7</ele>
        <time>2019-04-17T13:13:20Z</time>
      </trkpt>
      <trkpt lat="45.41097" lon="5.76469">
        <ele>449.1</ele>
        <time>2019-04-17T13:13:21Z</time>
      </trkpt>
      <trkpt lat="45.41092" lon="5.76462">
        <ele>448.5</ele>
        <time>2019-04-17T13:13:22Z</time>
      </trkpt>
      <trkpt lat="45.41088" lon="5.76455">
        <ele>447.9</ele>
        <time>2019-04-17T13:13:23Z</time>
      </trkpt>
      <trkpt lat="45.41083" lon="5.76448">
        <ele>447.2</ele>
        <time>2019-04-17T13:13:24Z</time>
      </trkpt>
      <trkpt lat="45.4108" lon="5.76442">
        <ele>446.7</ele>
        <time>2019-04-17T13:13:25Z</time>
      </trkpt>
      <trkpt lat="45.41075" lon="5.76437">
        <ele>446</ele>
        <time>2019-04-17T13:13:26Z</time>
      </trkpt>
      <trkpt lat="45.4107" lon="5.76432">
        <ele>445.4</ele>
        <time>2019-04-17T13:13:27Z</time>
      </trkpt>
      <trkpt lat="45.41067" lon="5.76427">
        <ele>444.9</ele>
        <time>2019-04-17T13:13:28Z</time>
      </trkpt>
      <trkpt lat="45.41066" lon="5.76423">
        <ele>444.6</ele>
        <time>2019-04-17T13:13:29Z</time>
      </trkpt>
      <trkpt lat="45.41065" lon="5.76419">
        <ele>444.3</ele>
        <time>2019-04-17T13:13:30Z</time>
      </trkpt>
      <trkpt lat="45.41064" lon="5.76415">
        <ele>444</ele>
        <time>2019-04-17T13:13:31Z</time>
      </trkpt>
      <trkpt lat="45.41061" lon="5.76414">
        <ele>443.7</ele>
        <time>2019-04-17T13:13:33Z</time>
      </trkpt>
      <trkpt lat="45.41064" lon="5.76412">
        <ele>443.3</ele>
        <time>2019-04-17T13:14:12Z</time>
      </trkpt>
      <trkpt lat="45.41066" lon="5.76409">
        <ele>443.3</ele>
        <time>2019-04-17T13:14:13Z</time>
      </trkpt>
      <trkpt lat="45.41068" lon="5.76405">
        <ele>442.8</ele>
        <time>2019-04-17T13:14:14Z</time>
      </trkpt>
      <trkpt lat="45.41073" lon="5.76401">
        <ele>442.4</ele>
        <time>2019-04-17T13:14:15Z</time>
      </trkpt>
      <trkpt lat="45.41078" lon="5.76396">
        <ele>442</ele>
        <time>2019-04-17T13:14:16Z</time>
      </trkpt>
      <trkpt lat="45.4108" lon="5.76392">
        <ele>441.5</ele>
        <time>2019-04-17T13:14:17Z</time>
      </trkpt>
      <trkpt lat="45.41081" lon="5.76388">
        <ele>441</ele>
        <time>2019-04-17T13:14:18Z</time>
      </trkpt>
      <trkpt lat="45.41084" lon="5.76385">
        <ele>440.5</ele>
        <time>2019-04-17T13:14:23Z</time>
      </trkpt>
      <trkpt lat="45.41083" lon="5.76381">
        <ele>439.9</ele>
        <time>2019-04-17T13:14:59Z</time>
      </trkpt>
      <trkpt lat="45.4108" lon="5.76385">
        <ele>440.4</ele>
        <time>2019-04-17T13:15:01Z</time>
      </trkpt>
      <trkpt lat="45.41078" lon="5.76388">
        <ele>440.9</ele>
        <time>2019-04-17T13:15:02Z</time>
      </trkpt>
      <trkpt lat="45.41076" lon="5.76392">
        <ele>441.4</ele>
        <time>2019-04-17T13:15:04Z</time>
      </trkpt>
      <trkpt lat="45.41074" lon="5.76395">
        <ele>441.3</ele>
        <time>2019-04-17T13:15:11Z</time>
      </trkpt>
      <trkpt lat="45.41072" lon="5.76399">
        <ele>441.7</ele>
        <time>2019-04-17T13:15:15Z</time>
      </trkpt>
      <trkpt lat="45.4107" lon="5.76402">
        <ele>442.2</ele>
        <time>2019-04-17T13:15:26Z</time>
      </trkpt>
      <trkpt lat="45.41071" lon="5.764">
        <ele>441.7</ele>
        <time>2019-04-17T13:16:50Z</time>
      </trkpt>
      <trkpt lat="45.41074" lon="5.76397">
        <ele>441.7</ele>
        <time>2019-04-17T13:16:53Z</time>
      </trkpt>
      <trkpt lat="45.41076" lon="5.76396">
        <ele>441.2</ele>
        <time>2019-04-17T13:16:58Z</time>
      </trkpt>
      <trkpt lat="45.41079" lon="5.76394">
        <ele>441.3</ele>
        <time>2019-04-17T13:17:01Z</time>
      </trkpt>
      <trkpt lat="45.4108" lon="5.7639">
        <ele>440.8</ele>
        <time>2019-04-17T13:17:05Z</time>
      </trkpt>
      <trkpt lat="45.41081" lon="5.76386">
        <ele>440.2</ele>
        <time>2019-04-17T13:17:09Z</time>
      </trkpt>
      <trkpt lat="45.41082" lon="5.76381">
        <ele>439.7</ele>
        <time>2019-04-17T13:17:12Z</time>
      </trkpt>
      <trkpt lat="45.41083" lon="5.76376">
        <ele>439.1</ele>
        <time>2019-04-17T13:17:15Z</time>
      </trkpt>
      <trkpt lat="45.41084" lon="5.7637">
        <ele>438.6</ele>
        <time>2019-04-17T13:17:18Z</time>
      </trkpt>
      <trkpt lat="45.41084" lon="5.76366">
        <ele>438</ele>
        <time>2019-04-17T13:17:21Z</time>
      </trkpt>
      <trkpt lat="45.41086" lon="5.76362">
        <ele>437</ele>
        <time>2019-04-17T13:17:24Z</time>
      </trkpt>
      <trkpt lat="45.41084" lon="5.76356">
        <ele>436.4</ele>
        <time>2019-04-17T13:17:28Z</time>
      </trkpt>
      <trkpt lat="45.41083" lon="5.7635">
        <ele>435.8</ele>
        <time>2019-04-17T13:17:30Z</time>
      </trkpt>
      <trkpt lat="45.41085" lon="5.76345">
        <ele>435.2</ele>
        <time>2019-04-17T13:17:31Z</time>
      </trkpt>
      <trkpt lat="45.41086" lon="5.76341">
        <ele>434.6</ele>
        <time>2019-04-17T13:17:32Z</time>
      </trkpt>
      <trkpt lat="45.41087" lon="5.76337">
        <ele>434</ele>
        <time>2019-04-17T13:17:33Z</time>
      </trkpt>
      <trkpt lat="45.41087" lon="5.76332">
        <ele>433.4</ele>
        <time>2019-04-17T13:17:34Z</time>
      </trkpt>
      <trkpt lat="45.41089" lon="5.76328">
        <ele>432.9</ele>
        <time>2019-04-17T13:17:35Z</time>
      </trkpt>
      <trkpt lat="45.41091" lon="5.76324">
        <ele>432.4</ele>
        <time>2019-04-17T13:17:36Z</time>
      </trkpt>
      <trkpt lat="45.41093" lon="5.7632">
        <ele>431.9</ele>
        <time>2019-04-17T13:17:37Z</time>
      </trkpt>
      <trkpt lat="45.41095" lon="5.76317">
        <ele>431.5</ele>
        <time>2019-04-17T13:17:38Z</time>
      </trkpt>
      <trkpt lat="45.41097" lon="5.76313">
        <ele>431</ele>
        <time>2019-04-17T13:17:39Z</time>
      </trkpt>
      <trkpt lat="45.411" lon="5.7631">
        <ele>430.6</ele>
        <time>2019-04-17T13:17:40Z</time>
      </trkpt>
      <trkpt lat="45.41102" lon="5.76306">
        <ele>430.2</ele>
        <time>2019-04-17T13:17:41Z</time>
      </trkpt>
      <trkpt lat="45.41103" lon="5.76301">
        <ele>429.6</ele>
        <time>2019-04-17T13:17:42Z</time>
      </trkpt>
      <trkpt lat="45.41105" lon="5.76296">
        <ele>429.2</ele>
        <time>2019-04-17T13:17:43Z</time>
      </trkpt>
      <trkpt lat="45.41107" lon="5.76291">
        <ele>428.6</ele>
        <time>2019-04-17T13:17:44Z</time>
      </trkpt>
      <trkpt lat="45.41109" lon="5.76286">
        <ele>428.1</ele>
        <time>2019-04-17T13:17:45Z</time>
      </trkpt>
      <trkpt lat="45.41112" lon="5.7628">
        <ele>427.7</ele>
        <time>2019-04-17T13:17:46Z</time>
      </trkpt>
      <trkpt lat="45.41114" lon="5.76276">
        <ele>426.7</ele>
        <time>2019-04-17T13:17:47Z</time>
      </trkpt>
      <trkpt lat="45.41116" lon="5.76268">
        <ele>426.2</ele>
        <time>2019-04-17T13:17:48Z</time>
      </trkpt>
      <trkpt lat="45.41119" lon="5.76259">
        <ele>425.2</ele>
        <time>2019-04-17T13:17:49Z</time>
      </trkpt>
      <trkpt lat="45.41123" lon="5.7625">
        <ele>423.7</ele>
        <time>2019-04-17T13:17:50Z</time>
      </trkpt>
      <trkpt lat="45.41126" lon="5.7624">
        <ele>422.9</ele>
        <time>2019-04-17T13:17:51Z</time>
      </trkpt>
      <trkpt lat="45.41133" lon="5.76227">
        <ele>422.1</ele>
        <time>2019-04-17T13:17:52Z</time>
      </trkpt>
      <trkpt lat="45.41136" lon="5.7622">
        <ele>421.6</ele>
        <time>2019-04-17T13:17:53Z</time>
      </trkpt>
      <trkpt lat="45.41138" lon="5.76215">
        <ele>421.4</ele>
        <time>2019-04-17T13:17:54Z</time>
      </trkpt>
      <trkpt lat="45.4114" lon="5.76209">
        <ele>421.1</ele>
        <time>2019-04-17T13:17:55Z</time>
      </trkpt>
      <trkpt lat="45.41144" lon="5.76202">
        <ele>420.7</ele>
        <time>2019-04-17T13:17:56Z</time>
      </trkpt>
      <trkpt lat="45.41146" lon="5.76199">
        <ele>420.7</ele>
        <time>2019-04-17T13:17:57Z</time>
      </trkpt>
      <trkpt lat="45.41147" lon="5.76194">
        <ele>420.5</ele>
        <time>2019-04-17T13:17:59Z</time>
      </trkpt>
      <trkpt lat="45.41147" lon="5.7619">
        <ele>420.2</ele>
        <time>2019-04-17T13:18:09Z</time>
      </trkpt>
      <trkpt lat="45.41149" lon="5.76188">
        <ele>419.9</ele>
        <time>2019-04-17T13:18:14Z</time>
      </trkpt>
      <trkpt lat="45.41152" lon="5.76189">
        <ele>420</ele>
        <time>2019-04-17T13:18:35Z</time>
      </trkpt>
      <trkpt lat="45.41155" lon="5.76189">
        <ele>420.2</ele>
        <time>2019-04-17T13:18:41Z</time>
      </trkpt>
      <trkpt lat="45.41158" lon="5.76191">
        <ele>420.5</ele>
        <time>2019-04-17T13:18:44Z</time>
      </trkpt>
      <trkpt lat="45.41155" lon="5.76189">
        <ele>420.1</ele>
        <time>2019-04-17T13:18:54Z</time>
      </trkpt>
      <trkpt lat="45.41152" lon="5.76188">
        <ele>419.9</ele>
        <time>2019-04-17T13:18:57Z</time>
      </trkpt>
      <trkpt lat="45.41151" lon="5.76184">
        <ele>419.7</ele>
        <time>2019-04-17T13:19:00Z</time>
      </trkpt>
      <trkpt lat="45.41151" lon="5.76179">
        <ele>419.4</ele>
        <time>2019-04-17T13:19:03Z</time>
      </trkpt>
      <trkpt lat="45.41152" lon="5.76174">
        <ele>419.1</ele>
        <time>2019-04-17T13:19:06Z</time>
      </trkpt>
      <trkpt lat="45.41155" lon="5.76171">
        <ele>419.1</ele>
        <time>2019-04-17T13:19:08Z</time>
      </trkpt>
      <trkpt lat="45.41156" lon="5.76167">
        <ele>419</ele>
        <time>2019-04-17T13:19:11Z</time>
      </trkpt>
      <trkpt lat="45.41157" lon="5.76163">
        <ele>418.7</ele>
        <time>2019-04-17T13:19:14Z</time>
      </trkpt>
      <trkpt lat="45.41158" lon="5.76159">
        <ele>418.5</ele>
        <time>2019-04-17T13:19:17Z</time>
      </trkpt>
      <trkpt lat="45.41159" lon="5.76155">
        <ele>418.6</ele>
        <time>2019-04-17T13:19:23Z</time>
      </trkpt>
      <trkpt lat="45.41156" lon="5.76156">
        <ele>418.5</ele>
        <time>2019-04-17T13:19:30Z</time>
      </trkpt>
      <trkpt lat="45.41156" lon="5.76153">
        <ele>418.3</ele>
        <time>2019-04-17T13:20:35Z</time>
      </trkpt>
      <trkpt lat="45.41155" lon="5.76148">
        <ele>417.8</ele>
        <time>2019-04-17T13:20:42Z</time>
      </trkpt>
      <trkpt lat="45.41155" lon="5.76143">
        <ele>417.7</ele>
        <time>2019-04-17T13:20:44Z</time>
      </trkpt>
      <trkpt lat="45.41155" lon="5.76138">
        <ele>417.6</ele>
        <time>2019-04-17T13:20:46Z</time>
      </trkpt>
      <trkpt lat="45.41155" lon="5.76133">
        <ele>417.4</ele>
        <time>2019-04-17T13:20:48Z</time>
      </trkpt>
      <trkpt lat="45.41155" lon="5.76128">
        <ele>417.3</ele>
        <time>2019-04-17T13:20:50Z</time>
      </trkpt>
      <trkpt lat="45.41155" lon="5.76121">
        <ele>417.2</ele>
        <time>2019-04-17T13:20:51Z</time>
      </trkpt>
      <trkpt lat="45.41155" lon="5.76111">
        <ele>417.2</ele>
        <time>2019-04-17T13:20:52Z</time>
      </trkpt>
      <trkpt lat="45.41154" lon="5.76097">
        <ele>417.3</ele>
        <time>2019-04-17T13:20:53Z</time>
      </trkpt>
      <trkpt lat="45.41152" lon="5.76083">
        <ele>417.4</ele>
        <time>2019-04-17T13:20:54Z</time>
      </trkpt>
      <trkpt lat="45.4115" lon="5.76071">
        <ele>417.4</ele>
        <time>2019-04-17T13:20:55Z</time>
      </trkpt>
      <trkpt lat="45.41139" lon="5.76015">
        <ele>415.6</ele>
        <time>2019-04-17T13:20:57Z</time>
      </trkpt>
      <trkpt lat="45.41136" lon="5.76009">
        <ele>414.8</ele>
        <time>2019-04-17T13:20:58Z</time>
      </trkpt>
      <trkpt lat="45.41128" lon="5.76003">
        <ele>413.5</ele>
        <time>2019-04-17T13:20:59Z</time>
      </trkpt>
      <trkpt lat="45.41123" lon="5.75995">
        <ele>412.4</ele>
        <time>2019-04-17T13:21:00Z</time>
      </trkpt>
      <trkpt lat="45.41117" lon="5.75985">
        <ele>411.6</ele>
        <time>2019-04-17T13:21:01Z</time>
      </trkpt>
      <trkpt lat="45.41113" lon="5.75976">
        <ele>411</ele>
        <time>2019-04-17T13:21:02Z</time>
      </trkpt>
      <trkpt lat="45.41111" lon="5.75966">
        <ele>410.8</ele>
        <time>2019-04-17T13:21:03Z</time>
      </trkpt>
      <trkpt lat="45.41107" lon="5.75957">
        <ele>410.6</ele>
        <time>2019-04-17T13:21:04Z</time>
      </trkpt>
      <trkpt lat="45.41106" lon="5.75949">
        <ele>410.2</ele>
        <time>2019-04-17T13:21:05Z</time>
      </trkpt>
      <trkpt lat="45.41102" lon="5.75943">
        <ele>410</ele>
        <time>2019-04-17T13:21:06Z</time>
      </trkpt>
      <trkpt lat="45.41101" lon="5.75938">
        <ele>409.8</ele>
        <time>2019-04-17T13:21:07Z</time>
      </trkpt>
      <trkpt lat="45.41101" lon="5.75933">
        <ele>409.3</ele>
        <time>2019-04-17T13:21:08Z</time>
      </trkpt>
      <trkpt lat="45.41102" lon="5.75929">
        <ele>409</ele>
        <time>2019-04-17T13:21:13Z</time>
      </trkpt>
      <trkpt lat="45.411" lon="5.75922">
        <ele>408.3</ele>
        <time>2019-04-17T13:21:15Z</time>
      </trkpt>
      <trkpt lat="45.41098" lon="5.75916">
        <ele>407.4</ele>
        <time>2019-04-17T13:21:16Z</time>
      </trkpt>
      <trkpt lat="45.41095" lon="5.75909">
        <ele>406.6</ele>
        <time>2019-04-17T13:21:17Z</time>
      </trkpt>
      <trkpt lat="45.41094" lon="5.75901">
        <ele>405.9</ele>
        <time>2019-04-17T13:21:18Z</time>
      </trkpt>
      <trkpt lat="45.41092" lon="5.75892">
        <ele>405.2</ele>
        <time>2019-04-17T13:21:19Z</time>
      </trkpt>
      <trkpt lat="45.41091" lon="5.75882">
        <ele>403.9</ele>
        <time>2019-04-17T13:21:20Z</time>
      </trkpt>
      <trkpt lat="45.4109" lon="5.75873">
        <ele>403.2</ele>
        <time>2019-04-17T13:21:21Z</time>
      </trkpt>
      <trkpt lat="45.41089" lon="5.75864">
        <ele>402.2</ele>
        <time>2019-04-17T13:21:22Z</time>
      </trkpt>
      <trkpt lat="45.41088" lon="5.75856">
        <ele>401.2</ele>
        <time>2019-04-17T13:21:23Z</time>
      </trkpt>
      <trkpt lat="45.41085" lon="5.75849">
        <ele>400.1</ele>
        <time>2019-04-17T13:21:24Z</time>
      </trkpt>
      <trkpt lat="45.41082" lon="5.75843">
        <ele>399.2</ele>
        <time>2019-04-17T13:21:25Z</time>
      </trkpt>
      <trkpt lat="45.41077" lon="5.7584">
        <ele>398.4</ele>
        <time>2019-04-17T13:21:26Z</time>
      </trkpt>
      <trkpt lat="45.41072" lon="5.75836">
        <ele>397.5</ele>
        <time>2019-04-17T13:21:27Z</time>
      </trkpt>
      <trkpt lat="45.41068" lon="5.75834">
        <ele>396.8</ele>
        <time>2019-04-17T13:21:28Z</time>
      </trkpt>
      <trkpt lat="45.41065" lon="5.75832">
        <ele>396.3</ele>
        <time>2019-04-17T13:21:29Z</time>
      </trkpt>
      <trkpt lat="45.41061" lon="5.75832">
        <ele>395.8</ele>
        <time>2019-04-17T13:21:31Z</time>
      </trkpt>
      <trkpt lat="45.41057" lon="5.75833">
        <ele>395.4</ele>
        <time>2019-04-17T13:21:34Z</time>
      </trkpt>
      <trkpt lat="45.41054" lon="5.75835">
        <ele>395.2</ele>
        <time>2019-04-17T13:21:37Z</time>
      </trkpt>
      <trkpt lat="45.41052" lon="5.75836">
        <ele>395.3</ele>
        <time>2019-04-17T13:21:41Z</time>
      </trkpt>
      <trkpt lat="45.41049" lon="5.75839">
        <ele>395.3</ele>
        <time>2019-04-17T13:21:50Z</time>
      </trkpt>
      <trkpt lat="45.41047" lon="5.75841">
        <ele>395.4</ele>
        <time>2019-04-17T13:21:51Z</time>
      </trkpt>
      <trkpt lat="45.41045" lon="5.75844">
        <ele>395.4</ele>
        <time>2019-04-17T13:21:52Z</time>
      </trkpt>
      <trkpt lat="45.4104" lon="5.75847">
        <ele>395.5</ele>
        <time>2019-04-17T13:21:54Z</time>
      </trkpt>
      <trkpt lat="45.41038" lon="5.75849">
        <ele>395.6</ele>
        <time>2019-04-17T13:21:55Z</time>
      </trkpt>
      <trkpt lat="45.41035" lon="5.75853">
        <ele>395.7</ele>
        <time>2019-04-17T13:21:56Z</time>
      </trkpt>
      <trkpt lat="45.41034" lon="5.75856">
        <ele>395.7</ele>
        <time>2019-04-17T13:21:57Z</time>
      </trkpt>
      <trkpt lat="45.41031" lon="5.75863">
        <ele>395.8</ele>
        <time>2019-04-17T13:21:59Z</time>
      </trkpt>
      <trkpt lat="45.4103" lon="5.75866">
        <ele>395.8</ele>
        <time>2019-04-17T13:22:00Z</time>
      </trkpt>
      <trkpt lat="45.41026" lon="5.75871">
        <ele>395.9</ele>
        <time>2019-04-17T13:22:02Z</time>
      </trkpt>
      <trkpt lat="45.41024" lon="5.75874">
        <ele>395.9</ele>
        <time>2019-04-17T13:22:03Z</time>
      </trkpt>
      <trkpt lat="45.41021" lon="5.75877">
        <ele>396</ele>
        <time>2019-04-17T13:22:04Z</time>
      </trkpt>
      <trkpt lat="45.41018" lon="5.75879">
        <ele>396</ele>
        <time>2019-04-17T13:22:05Z</time>
      </trkpt>
      <trkpt lat="45.41015" lon="5.75881">
        <ele>396.1</ele>
        <time>2019-04-17T13:22:06Z</time>
      </trkpt>
      <trkpt lat="45.41011" lon="5.75884">
        <ele>396.1</ele>
        <time>2019-04-17T13:22:08Z</time>
      </trkpt>
      <trkpt lat="45.41007" lon="5.75885">
        <ele>396.2</ele>
        <time>2019-04-17T13:22:11Z</time>
      </trkpt>
      <trkpt lat="45.41004" lon="5.75886">
        <ele>396.2</ele>
        <time>2019-04-17T13:22:12Z</time>
      </trkpt>
      <trkpt lat="45.41" lon="5.75886">
        <ele>396.2</ele>
        <time>2019-04-17T13:22:13Z</time>
      </trkpt>
      <trkpt lat="45.40996" lon="5.75886">
        <ele>396.3</ele>
        <time>2019-04-17T13:22:14Z</time>
      </trkpt>
      <trkpt lat="45.40991" lon="5.75886">
        <ele>396.3</ele>
        <time>2019-04-17T13:22:15Z</time>
      </trkpt>
      <trkpt lat="45.40986" lon="5.75886">
        <ele>396.4</ele>
        <time>2019-04-17T13:22:16Z</time>
      </trkpt>
      <trkpt lat="45.40982" lon="5.75886">
        <ele>396.4</ele>
        <time>2019-04-17T13:22:17Z</time>
      </trkpt>
      <trkpt lat="45.40978" lon="5.75886">
        <ele>396.4</ele>
        <time>2019-04-17T13:22:18Z</time>
      </trkpt>
      <trkpt lat="45.40974" lon="5.75886">
        <ele>396.5</ele>
        <time>2019-04-17T13:22:19Z</time>
      </trkpt>
      <trkpt lat="45.4097" lon="5.75886">
        <ele>396.5</ele>
        <time>2019-04-17T13:22:20Z</time>
      </trkpt>
      <trkpt lat="45.40967" lon="5.75887">
        <ele>396.5</ele>
        <time>2019-04-17T13:22:21Z</time>
      </trkpt>
      <trkpt lat="45.40964" lon="5.75887">
        <ele>396.5</ele>
        <time>2019-04-17T13:22:22Z</time>
      </trkpt>
      <trkpt lat="45.40961" lon="5.75887">
        <ele>396.6</ele>
        <time>2019-04-17T13:22:23Z</time>
      </trkpt>
      <trkpt lat="45.40958" lon="5.75887">
        <ele>396.6</ele>
        <time>2019-04-17T13:22:24Z</time>
      </trkpt>
      <trkpt lat="45.40953" lon="5.75887">
        <ele>396.7</ele>
        <time>2019-04-17T13:22:25Z</time>
      </trkpt>
      <trkpt lat="45.40947" lon="5.75886">
        <ele>396.7</ele>
        <time>2019-04-17T13:22:26Z</time>
      </trkpt>
      <trkpt lat="45.40942" lon="5.75886">
        <ele>396.8</ele>
        <time>2019-04-17T13:22:27Z</time>
      </trkpt>
      <trkpt lat="45.40937" lon="5.75885">
        <ele>396.8</ele>
        <time>2019-04-17T13:22:28Z</time>
      </trkpt>
      <trkpt lat="45.40933" lon="5.75884">
        <ele>396.9</ele>
        <time>2019-04-17T13:22:29Z</time>
      </trkpt>
      <trkpt lat="45.4093" lon="5.75884">
        <ele>396.9</ele>
        <time>2019-04-17T13:22:30Z</time>
      </trkpt>
      <trkpt lat="45.40926" lon="5.75884">
        <ele>397</ele>
        <time>2019-04-17T13:22:31Z</time>
      </trkpt>
      <trkpt lat="45.40922" lon="5.75883">
        <ele>397</ele>
        <time>2019-04-17T13:22:33Z</time>
      </trkpt>
      <trkpt lat="45.40919" lon="5.75883">
        <ele>397</ele>
        <time>2019-04-17T13:22:34Z</time>
      </trkpt>
      <trkpt lat="45.40915" lon="5.75884">
        <ele>397.1</ele>
        <time>2019-04-17T13:22:35Z</time>
      </trkpt>
      <trkpt lat="45.40911" lon="5.75884">
        <ele>397.1</ele>
        <time>2019-04-17T13:22:36Z</time>
      </trkpt>
      <trkpt lat="45.40906" lon="5.75883">
        <ele>397.2</ele>
        <time>2019-04-17T13:22:37Z</time>
      </trkpt>
      <trkpt lat="45.40903" lon="5.75883">
        <ele>397.2</ele>
        <time>2019-04-17T13:22:38Z</time>
      </trkpt>
      <trkpt lat="45.40899" lon="5.75887">
        <ele>397.3</ele>
        <time>2019-04-17T13:22:39Z</time>
      </trkpt>
      <trkpt lat="45.40896" lon="5.75887">
        <ele>397.3</ele>
        <time>2019-04-17T13:22:40Z</time>
      </trkpt>
      <trkpt lat="45.40892" lon="5.75887">
        <ele>397.3</ele>
        <time>2019-04-17T13:22:41Z</time>
      </trkpt>
      <trkpt lat="45.40889" lon="5.75886">
        <ele>397.4</ele>
        <time>2019-04-17T13:22:43Z</time>
      </trkpt>
      <trkpt lat="45.40883" lon="5.75886">
        <ele>397.4</ele>
        <time>2019-04-17T13:22:45Z</time>
      </trkpt>
      <trkpt lat="45.40878" lon="5.75886">
        <ele>397.5</ele>
        <time>2019-04-17T13:22:46Z</time>
      </trkpt>
      <trkpt lat="45.40873" lon="5.75886">
        <ele>397.5</ele>
        <time>2019-04-17T13:22:47Z</time>
      </trkpt>
      <trkpt lat="45.40868" lon="5.75887">
        <ele>397.5</ele>
        <time>2019-04-17T13:22:48Z</time>
      </trkpt>
      <trkpt lat="45.40866" lon="5.75887">
        <ele>397.6</ele>
        <time>2019-04-17T13:22:49Z</time>
      </trkpt>
      <trkpt lat="45.4086" lon="5.75887">
        <ele>397.6</ele>
        <time>2019-04-17T13:22:51Z</time>
      </trkpt>
      <trkpt lat="45.40857" lon="5.75888">
        <ele>397.7</ele>
        <time>2019-04-17T13:22:52Z</time>
      </trkpt>
      <trkpt lat="45.40854" lon="5.75888">
        <ele>397.7</ele>
        <time>2019-04-17T13:22:53Z</time>
      </trkpt>
      <trkpt lat="45.40849" lon="5.75887">
        <ele>397.8</ele>
        <time>2019-04-17T13:22:55Z</time>
      </trkpt>
      <trkpt lat="45.40846" lon="5.75887">
        <ele>397.8</ele>
        <time>2019-04-17T13:22:56Z</time>
      </trkpt>
      <trkpt lat="45.40843" lon="5.75887">
        <ele>397.8</ele>
        <time>2019-04-17T13:22:57Z</time>
      </trkpt>
      <trkpt lat="45.40839" lon="5.75887">
        <ele>397.9</ele>
        <time>2019-04-17T13:22:58Z</time>
      </trkpt>
      <trkpt lat="45.40835" lon="5.75888">
        <ele>397.9</ele>
        <time>2019-04-17T13:22:59Z</time>
      </trkpt>
      <trkpt lat="45.40832" lon="5.75891">
        <ele>398</ele>
        <time>2019-04-17T13:23:00Z</time>
      </trkpt>
      <trkpt lat="45.40829" lon="5.75895">
        <ele>398</ele>
        <time>2019-04-17T13:23:01Z</time>
      </trkpt>
      <trkpt lat="45.40826" lon="5.75898">
        <ele>398.1</ele>
        <time>2019-04-17T13:23:02Z</time>
      </trkpt>
      <trkpt lat="45.40822" lon="5.759">
        <ele>398.1</ele>
        <time>2019-04-17T13:23:03Z</time>
      </trkpt>
      <trkpt lat="45.40818" lon="5.75901">
        <ele>398.2</ele>
        <time>2019-04-17T13:23:04Z</time>
      </trkpt>
      <trkpt lat="45.40814" lon="5.759">
        <ele>398.2</ele>
        <time>2019-04-17T13:23:05Z</time>
      </trkpt>
      <trkpt lat="45.40809" lon="5.75898">
        <ele>398.3</ele>
        <time>2019-04-17T13:23:06Z</time>
      </trkpt>
      <trkpt lat="45.40805" lon="5.75896">
        <ele>398.4</ele>
        <time>2019-04-17T13:23:07Z</time>
      </trkpt>
      <trkpt lat="45.40801" lon="5.75894">
        <ele>398.5</ele>
        <time>2019-04-17T13:23:08Z</time>
      </trkpt>
      <trkpt lat="45.40796" lon="5.75893">
        <ele>398.5</ele>
        <time>2019-04-17T13:23:09Z</time>
      </trkpt>
      <trkpt lat="45.40792" lon="5.75893">
        <ele>398.6</ele>
        <time>2019-04-17T13:23:10Z</time>
      </trkpt>
      <trkpt lat="45.4079" lon="5.75888">
        <ele>398.7</ele>
        <time>2019-04-17T13:23:11Z</time>
      </trkpt>
      <trkpt lat="45.40786" lon="5.75888">
        <ele>398.7</ele>
        <time>2019-04-17T13:23:12Z</time>
      </trkpt>
      <trkpt lat="45.40782" lon="5.75888">
        <ele>398.7</ele>
        <time>2019-04-17T13:23:13Z</time>
      </trkpt>
      <trkpt lat="45.40779" lon="5.75888">
        <ele>398.8</ele>
        <time>2019-04-17T13:23:14Z</time>
      </trkpt>
      <trkpt lat="45.40776" lon="5.75888">
        <ele>398.8</ele>
        <time>2019-04-17T13:23:15Z</time>
      </trkpt>
      <trkpt lat="45.40772" lon="5.75888">
        <ele>398.9</ele>
        <time>2019-04-17T13:23:16Z</time>
      </trkpt>
      <trkpt lat="45.40769" lon="5.7589">
        <ele>398.9</ele>
        <time>2019-04-17T13:23:17Z</time>
      </trkpt>
      <trkpt lat="45.40765" lon="5.7589">
        <ele>399</ele>
        <time>2019-04-17T13:23:18Z</time>
      </trkpt>
      <trkpt lat="45.40762" lon="5.7589">
        <ele>399</ele>
        <time>2019-04-17T13:23:19Z</time>
      </trkpt>
      <trkpt lat="45.40759" lon="5.75891">
        <ele>399</ele>
        <time>2019-04-17T13:23:20Z</time>
      </trkpt>
      <trkpt lat="45.40756" lon="5.75891">
        <ele>399.1</ele>
        <time>2019-04-17T13:23:21Z</time>
      </trkpt>
      <trkpt lat="45.40752" lon="5.7589">
        <ele>399.1</ele>
        <time>2019-04-17T13:23:22Z</time>
      </trkpt>
      <trkpt lat="45.40749" lon="5.7589">
        <ele>399.2</ele>
        <time>2019-04-17T13:23:23Z</time>
      </trkpt>
      <trkpt lat="45.40745" lon="5.7589">
        <ele>399.2</ele>
        <time>2019-04-17T13:23:24Z</time>
      </trkpt>
      <trkpt lat="45.40741" lon="5.7589">
        <ele>399.3</ele>
        <time>2019-04-17T13:23:25Z</time>
      </trkpt>
      <trkpt lat="45.40738" lon="5.75889">
        <ele>399.3</ele>
        <time>2019-04-17T13:23:26Z</time>
      </trkpt>
      <trkpt lat="45.40735" lon="5.7589">
        <ele>399.3</ele>
        <time>2019-04-17T13:23:27Z</time>
      </trkpt>
      <trkpt lat="45.40731" lon="5.7589">
        <ele>399.4</ele>
        <time>2019-04-17T13:23:28Z</time>
      </trkpt>
      <trkpt lat="45.40728" lon="5.7589">
        <ele>399.4</ele>
        <time>2019-04-17T13:23:29Z</time>
      </trkpt>
      <trkpt lat="45.40725" lon="5.7589">
        <ele>399.5</ele>
        <time>2019-04-17T13:23:30Z</time>
      </trkpt>
      <trkpt lat="45.40722" lon="5.75889">
        <ele>399.5</ele>
        <time>2019-04-17T13:23:31Z</time>
      </trkpt>
      <trkpt lat="45.40718" lon="5.75884">
        <ele>399.6</ele>
        <time>2019-04-17T13:23:33Z</time>
      </trkpt>
      <trkpt lat="45.40718" lon="5.7588">
        <ele>399.8</ele>
        <time>2019-04-17T13:23:35Z</time>
      </trkpt>
      <trkpt lat="45.40714" lon="5.75873">
        <ele>400.2</ele>
        <time>2019-04-17T13:25:25Z</time>
      </trkpt>
      <trkpt lat="45.4071" lon="5.75869">
        <ele>400.4</ele>
        <time>2019-04-17T13:25:27Z</time>
      </trkpt>
      <trkpt lat="45.40707" lon="5.75866">
        <ele>400.7</ele>
        <time>2019-04-17T13:25:29Z</time>
      </trkpt>
      <trkpt lat="45.40704" lon="5.75862">
        <ele>400.9</ele>
        <time>2019-04-17T13:25:31Z</time>
      </trkpt>
      <trkpt lat="45.40701" lon="5.75858">
        <ele>401.1</ele>
        <time>2019-04-17T13:25:33Z</time>
      </trkpt>
      <trkpt lat="45.40698" lon="5.75853">
        <ele>401.3</ele>
        <time>2019-04-17T13:25:35Z</time>
      </trkpt>
      <trkpt lat="45.40695" lon="5.75849">
        <ele>401.5</ele>
        <time>2019-04-17T13:25:37Z</time>
      </trkpt>
      <trkpt lat="45.40692" lon="5.75846">
        <ele>401.6</ele>
        <time>2019-04-17T13:25:40Z</time>
      </trkpt>
      <trkpt lat="45.40688" lon="5.7584">
        <ele>401.8</ele>
        <time>2019-04-17T13:25:42Z</time>
      </trkpt>
      <trkpt lat="45.40686" lon="5.75837">
        <ele>401.9</ele>
        <time>2019-04-17T13:25:43Z</time>
      </trkpt>
      <trkpt lat="45.40683" lon="5.75833">
        <ele>402</ele>
        <time>2019-04-17T13:25:44Z</time>
      </trkpt>
      <trkpt lat="45.40681" lon="5.7583">
        <ele>402.1</ele>
        <time>2019-04-17T13:25:45Z</time>
      </trkpt>
      <trkpt lat="45.40677" lon="5.75824">
        <ele>402.4</ele>
        <time>2019-04-17T13:25:47Z</time>
      </trkpt>
      <trkpt lat="45.40675" lon="5.7582">
        <ele>402.5</ele>
        <time>2019-04-17T13:25:48Z</time>
      </trkpt>
      <trkpt lat="45.40673" lon="5.75817">
        <ele>402.6</ele>
        <time>2019-04-17T13:25:49Z</time>
      </trkpt>
      <trkpt lat="45.40669" lon="5.75812">
        <ele>402.8</ele>
        <time>2019-04-17T13:25:51Z</time>
      </trkpt>
      <trkpt lat="45.40666" lon="5.75807">
        <ele>402.9</ele>
        <time>2019-04-17T13:25:53Z</time>
      </trkpt>
      <trkpt lat="45.40664" lon="5.75802">
        <ele>403</ele>
        <time>2019-04-17T13:25:55Z</time>
      </trkpt>
      <trkpt lat="45.40661" lon="5.75796">
        <ele>403.2</ele>
        <time>2019-04-17T13:25:57Z</time>
      </trkpt>
      <trkpt lat="45.40658" lon="5.7579">
        <ele>403.4</ele>
        <time>2019-04-17T13:25:59Z</time>
      </trkpt>
      <trkpt lat="45.40654" lon="5.75785">
        <ele>403.6</ele>
        <time>2019-04-17T13:26:01Z</time>
      </trkpt>
      <trkpt lat="45.40652" lon="5.75781">
        <ele>403.7</ele>
        <time>2019-04-17T13:26:02Z</time>
      </trkpt>
      <trkpt lat="45.40651" lon="5.75778">
        <ele>403.8</ele>
        <time>2019-04-17T13:26:03Z</time>
      </trkpt>
      <trkpt lat="45.40648" lon="5.75773">
        <ele>404</ele>
        <time>2019-04-17T13:26:05Z</time>
      </trkpt>
      <trkpt lat="45.40644" lon="5.75768">
        <ele>404.2</ele>
        <time>2019-04-17T13:26:07Z</time>
      </trkpt>
      <trkpt lat="45.40641" lon="5.75763">
        <ele>404.4</ele>
        <time>2019-04-17T13:26:09Z</time>
      </trkpt>
      <trkpt lat="45.40638" lon="5.75757">
        <ele>404.5</ele>
        <time>2019-04-17T13:26:11Z</time>
      </trkpt>
      <trkpt lat="45.40636" lon="5.75754">
        <ele>404.6</ele>
        <time>2019-04-17T13:26:12Z</time>
      </trkpt>
      <trkpt lat="45.40634" lon="5.75751">
        <ele>404.7</ele>
        <time>2019-04-17T13:26:13Z</time>
      </trkpt>
      <trkpt lat="45.40633" lon="5.75748">
        <ele>404.8</ele>
        <time>2019-04-17T13:26:14Z</time>
      </trkpt>
      <trkpt lat="45.40629" lon="5.75742">
        <ele>404.9</ele>
        <time>2019-04-17T13:26:16Z</time>
      </trkpt>
      <trkpt lat="45.40627" lon="5.75738">
        <ele>405.1</ele>
        <time>2019-04-17T13:26:18Z</time>
      </trkpt>
      <trkpt lat="45.40624" lon="5.75733">
        <ele>405.2</ele>
        <time>2019-04-17T13:26:20Z</time>
      </trkpt>
      <trkpt lat="45.40621" lon="5.75729">
        <ele>405.3</ele>
        <time>2019-04-17T13:26:22Z</time>
      </trkpt>
      <trkpt lat="45.40618" lon="5.75725">
        <ele>405.4</ele>
        <time>2019-04-17T13:26:24Z</time>
      </trkpt>
      <trkpt lat="45.40614" lon="5.7572">
        <ele>405.5</ele>
        <time>2019-04-17T13:26:26Z</time>
      </trkpt>
      <trkpt lat="45.4061" lon="5.75717">
        <ele>405.5</ele>
        <time>2019-04-17T13:26:28Z</time>
      </trkpt>
      <trkpt lat="45.40606" lon="5.75714">
        <ele>405.6</ele>
        <time>2019-04-17T13:26:30Z</time>
      </trkpt>
      <trkpt lat="45.40603" lon="5.75711">
        <ele>405.6</ele>
        <time>2019-04-17T13:26:32Z</time>
      </trkpt>
      <trkpt lat="45.406" lon="5.75707">
        <ele>405.7</ele>
        <time>2019-04-17T13:26:34Z</time>
      </trkpt>
      <trkpt lat="45.40597" lon="5.75704">
        <ele>405.7</ele>
        <time>2019-04-17T13:26:36Z</time>
      </trkpt>
      <trkpt lat="45.40593" lon="5.757">
        <ele>405.8</ele>
        <time>2019-04-17T13:26:38Z</time>
      </trkpt>
      <trkpt lat="45.40589" lon="5.75697">
        <ele>405.8</ele>
        <time>2019-04-17T13:26:40Z</time>
      </trkpt>
      <trkpt lat="45.40586" lon="5.75694">
        <ele>405.8</ele>
        <time>2019-04-17T13:26:41Z</time>
      </trkpt>
      <trkpt lat="45.40582" lon="5.75692">
        <ele>405.8</ele>
        <time>2019-04-17T13:26:43Z</time>
      </trkpt>
      <trkpt lat="45.40578" lon="5.7569">
        <ele>405.9</ele>
        <time>2019-04-17T13:26:45Z</time>
      </trkpt>
      <trkpt lat="45.40573" lon="5.75688">
        <ele>405.9</ele>
        <time>2019-04-17T13:26:47Z</time>
      </trkpt>
      <trkpt lat="45.40569" lon="5.75686">
        <ele>405.8</ele>
        <time>2019-04-17T13:26:49Z</time>
      </trkpt>
      <trkpt lat="45.40564" lon="5.75683">
        <ele>405.7</ele>
        <time>2019-04-17T13:26:51Z</time>
      </trkpt>
      <trkpt lat="45.4056" lon="5.7568">
        <ele>405.7</ele>
        <time>2019-04-17T13:26:53Z</time>
      </trkpt>
      <trkpt lat="45.40557" lon="5.75678">
        <ele>405.6</ele>
        <time>2019-04-17T13:26:55Z</time>
      </trkpt>
      <trkpt lat="45.40554" lon="5.75675">
        <ele>405.6</ele>
        <time>2019-04-17T13:26:57Z</time>
      </trkpt>
      <trkpt lat="45.40551" lon="5.75672">
        <ele>405.5</ele>
        <time>2019-04-17T13:26:59Z</time>
      </trkpt>
      <trkpt lat="45.40548" lon="5.75668">
        <ele>405.5</ele>
        <time>2019-04-17T13:27:01Z</time>
      </trkpt>
      <trkpt lat="45.40545" lon="5.75664">
        <ele>405.4</ele>
        <time>2019-04-17T13:27:03Z</time>
      </trkpt>
      <trkpt lat="45.40542" lon="5.75661">
        <ele>405.4</ele>
        <time>2019-04-17T13:27:05Z</time>
      </trkpt>
      <trkpt lat="45.40539" lon="5.75656">
        <ele>405.3</ele>
        <time>2019-04-17T13:27:07Z</time>
      </trkpt>
      <trkpt lat="45.40536" lon="5.75652">
        <ele>405.3</ele>
        <time>2019-04-17T13:27:09Z</time>
      </trkpt>
      <trkpt lat="45.40532" lon="5.75647">
        <ele>405.2</ele>
        <time>2019-04-17T13:27:11Z</time>
      </trkpt>
      <trkpt lat="45.4053" lon="5.75644">
        <ele>405.2</ele>
        <time>2019-04-17T13:27:12Z</time>
      </trkpt>
      <trkpt lat="45.40526" lon="5.7564">
        <ele>405.1</ele>
        <time>2019-04-17T13:27:14Z</time>
      </trkpt>
      <trkpt lat="45.40523" lon="5.75636">
        <ele>405</ele>
        <time>2019-04-17T13:27:16Z</time>
      </trkpt>
      <trkpt lat="45.40519" lon="5.75632">
        <ele>404.9</ele>
        <time>2019-04-17T13:27:18Z</time>
      </trkpt>
      <trkpt lat="45.40515" lon="5.75627">
        <ele>404.8</ele>
        <time>2019-04-17T13:27:20Z</time>
      </trkpt>
      <trkpt lat="45.40513" lon="5.75625">
        <ele>404.7</ele>
        <time>2019-04-17T13:27:21Z</time>
      </trkpt>
      <trkpt lat="45.40511" lon="5.75622">
        <ele>404.7</ele>
        <time>2019-04-17T13:27:22Z</time>
      </trkpt>
      <trkpt lat="45.40508" lon="5.75619">
        <ele>404.6</ele>
        <time>2019-04-17T13:27:23Z</time>
      </trkpt>
      <trkpt lat="45.40505" lon="5.75617">
        <ele>404.5</ele>
        <time>2019-04-17T13:27:24Z</time>
      </trkpt>
      <trkpt lat="45.40501" lon="5.75612">
        <ele>404.3</ele>
        <time>2019-04-17T13:27:25Z</time>
      </trkpt>
      <trkpt lat="45.40498" lon="5.75608">
        <ele>404.1</ele>
        <time>2019-04-17T13:27:26Z</time>
      </trkpt>
      <trkpt lat="45.40496" lon="5.75604">
        <ele>403.9</ele>
        <time>2019-04-17T13:27:27Z</time>
      </trkpt>
      <trkpt lat="45.40497" lon="5.75599">
        <ele>403.8</ele>
        <time>2019-04-17T13:27:29Z</time>
      </trkpt>
      <trkpt lat="45.40495" lon="5.75595">
        <ele>403.7</ele>
        <time>2019-04-17T13:27:30Z</time>
      </trkpt>
      <trkpt lat="45.40493" lon="5.75591">
        <ele>403.5</ele>
        <time>2019-04-17T13:27:31Z</time>
      </trkpt>
      <trkpt lat="45.40492" lon="5.75587">
        <ele>403.4</ele>
        <time>2019-04-17T13:27:32Z</time>
      </trkpt>
      <trkpt lat="45.40491" lon="5.75583">
        <ele>403.3</ele>
        <time>2019-04-17T13:27:33Z</time>
      </trkpt>
      <trkpt lat="45.40489" lon="5.75581">
        <ele>403.1</ele>
        <time>2019-04-17T13:27:34Z</time>
      </trkpt>
      <trkpt lat="45.40486" lon="5.75576">
        <ele>403</ele>
        <time>2019-04-17T13:27:35Z</time>
      </trkpt>
      <trkpt lat="45.40484" lon="5.75573">
        <ele>402.8</ele>
        <time>2019-04-17T13:27:36Z</time>
      </trkpt>
      <trkpt lat="45.40482" lon="5.75568">
        <ele>402.7</ele>
        <time>2019-04-17T13:27:37Z</time>
      </trkpt>
      <trkpt lat="45.4048" lon="5.75564">
        <ele>402.5</ele>
        <time>2019-04-17T13:27:38Z</time>
      </trkpt>
      <trkpt lat="45.40479" lon="5.75559">
        <ele>402.4</ele>
        <time>2019-04-17T13:27:39Z</time>
      </trkpt>
      <trkpt lat="45.40477" lon="5.75555">
        <ele>402.3</ele>
        <time>2019-04-17T13:27:40Z</time>
      </trkpt>
      <trkpt lat="45.40476" lon="5.75552">
        <ele>402.2</ele>
        <time>2019-04-17T13:27:41Z</time>
      </trkpt>
      <trkpt lat="45.40474" lon="5.75548">
        <ele>402.1</ele>
        <time>2019-04-17T13:27:42Z</time>
      </trkpt>
      <trkpt lat="45.40473" lon="5.75544">
        <ele>402.1</ele>
        <time>2019-04-17T13:27:43Z</time>
      </trkpt>
      <trkpt lat="45.40472" lon="5.7554">
        <ele>402</ele>
        <time>2019-04-17T13:27:44Z</time>
      </trkpt>
      <trkpt lat="45.4047" lon="5.75536">
        <ele>401.9</ele>
        <time>2019-04-17T13:27:45Z</time>
      </trkpt>
      <trkpt lat="45.40468" lon="5.75532">
        <ele>401.9</ele>
        <time>2019-04-17T13:27:46Z</time>
      </trkpt>
      <trkpt lat="45.40466" lon="5.75528">
        <ele>401.8</ele>
        <time>2019-04-17T13:27:47Z</time>
      </trkpt>
      <trkpt lat="45.40465" lon="5.75524">
        <ele>401.7</ele>
        <time>2019-04-17T13:27:48Z</time>
      </trkpt>
      <trkpt lat="45.40463" lon="5.75521">
        <ele>401.7</ele>
        <time>2019-04-17T13:27:49Z</time>
      </trkpt>
      <trkpt lat="45.40462" lon="5.75517">
        <ele>401.6</ele>
        <time>2019-04-17T13:27:50Z</time>
      </trkpt>
      <trkpt lat="45.4046" lon="5.75513">
        <ele>401.6</ele>
        <time>2019-04-17T13:27:52Z</time>
      </trkpt>
      <trkpt lat="45.40457" lon="5.7551">
        <ele>401.5</ele>
        <time>2019-04-17T13:27:54Z</time>
      </trkpt>
      <trkpt lat="45.40453" lon="5.75508">
        <ele>401.4</ele>
        <time>2019-04-17T13:27:56Z</time>
      </trkpt>
      <trkpt lat="45.4045" lon="5.75505">
        <ele>401.3</ele>
        <time>2019-04-17T13:28:46Z</time>
      </trkpt>
      <trkpt lat="45.40447" lon="5.75502">
        <ele>401.2</ele>
        <time>2019-04-17T13:28:48Z</time>
      </trkpt>
      <trkpt lat="45.40447" lon="5.75498">
        <ele>401.1</ele>
        <time>2019-04-17T13:28:51Z</time>
      </trkpt>
      <trkpt lat="45.40449" lon="5.7549">
        <ele>400.9</ele>
        <time>2019-04-17T13:29:15Z</time>
      </trkpt>
      <trkpt lat="45.40448" lon="5.75485">
        <ele>400.8</ele>
        <time>2019-04-17T13:29:16Z</time>
      </trkpt>
      <trkpt lat="45.40447" lon="5.7548">
        <ele>400.7</ele>
        <time>2019-04-17T13:29:17Z</time>
      </trkpt>
      <trkpt lat="45.40446" lon="5.75475">
        <ele>400.5</ele>
        <time>2019-04-17T13:29:18Z</time>
      </trkpt>
      <trkpt lat="45.40445" lon="5.75471">
        <ele>400.4</ele>
        <time>2019-04-17T13:29:19Z</time>
      </trkpt>
      <trkpt lat="45.40444" lon="5.75466">
        <ele>400.2</ele>
        <time>2019-04-17T13:29:20Z</time>
      </trkpt>
      <trkpt lat="45.40444" lon="5.75461">
        <ele>400.1</ele>
        <time>2019-04-17T13:29:21Z</time>
      </trkpt>
      <trkpt lat="45.40443" lon="5.75455">
        <ele>399.9</ele>
        <time>2019-04-17T13:29:22Z</time>
      </trkpt>
      <trkpt lat="45.40442" lon="5.7545">
        <ele>399.8</ele>
        <time>2019-04-17T13:29:23Z</time>
      </trkpt>
      <trkpt lat="45.40441" lon="5.75444">
        <ele>399.6</ele>
        <time>2019-04-17T13:29:24Z</time>
      </trkpt>
      <trkpt lat="45.4044" lon="5.75438">
        <ele>399.5</ele>
        <time>2019-04-17T13:29:25Z</time>
      </trkpt>
      <trkpt lat="45.40438" lon="5.75432">
        <ele>399.3</ele>
        <time>2019-04-17T13:29:26Z</time>
      </trkpt>
      <trkpt lat="45.40436" lon="5.75427">
        <ele>399.2</ele>
        <time>2019-04-17T13:29:27Z</time>
      </trkpt>
      <trkpt lat="45.40435" lon="5.75424">
        <ele>399.1</ele>
        <time>2019-04-17T13:29:32Z</time>
      </trkpt>
      <trkpt lat="45.40433" lon="5.75421">
        <ele>399.1</ele>
        <time>2019-04-17T13:29:56Z</time>
      </trkpt>
      <trkpt lat="45.4043" lon="5.75413">
        <ele>398.9</ele>
        <time>2019-04-17T13:29:58Z</time>
      </trkpt>
      <trkpt lat="45.40427" lon="5.75404">
        <ele>398.7</ele>
        <time>2019-04-17T13:29:59Z</time>
      </trkpt>
      <trkpt lat="45.40425" lon="5.75399">
        <ele>398.5</ele>
        <time>2019-04-17T13:30:00Z</time>
      </trkpt>
      <trkpt lat="45.40422" lon="5.75392">
        <ele>398.4</ele>
        <time>2019-04-17T13:30:01Z</time>
      </trkpt>
      <trkpt lat="45.40417" lon="5.75385">
        <ele>398.3</ele>
        <time>2019-04-17T13:30:02Z</time>
      </trkpt>
      <trkpt lat="45.40413" lon="5.75377">
        <ele>398.2</ele>
        <time>2019-04-17T13:30:03Z</time>
      </trkpt>
      <trkpt lat="45.4041" lon="5.75369">
        <ele>398.1</ele>
        <time>2019-04-17T13:30:04Z</time>
      </trkpt>
      <trkpt lat="45.40406" lon="5.75361">
        <ele>398</ele>
        <time>2019-04-17T13:30:05Z</time>
      </trkpt>
      <trkpt lat="45.40402" lon="5.75353">
        <ele>397.9</ele>
        <time>2019-04-17T13:30:06Z</time>
      </trkpt>
      <trkpt lat="45.40397" lon="5.75344">
        <ele>397.6</ele>
        <time>2019-04-17T13:30:07Z</time>
      </trkpt>
      <trkpt lat="45.40392" lon="5.75335">
        <ele>397.3</ele>
        <time>2019-04-17T13:30:08Z</time>
      </trkpt>
      <trkpt lat="45.40387" lon="5.75325">
        <ele>396.9</ele>
        <time>2019-04-17T13:30:09Z</time>
      </trkpt>
      <trkpt lat="45.40382" lon="5.75315">
        <ele>396.5</ele>
        <time>2019-04-17T13:30:10Z</time>
      </trkpt>
      <trkpt lat="45.40377" lon="5.75304">
        <ele>396.1</ele>
        <time>2019-04-17T13:30:11Z</time>
      </trkpt>
      <trkpt lat="45.40374" lon="5.75293">
        <ele>395.7</ele>
        <time>2019-04-17T13:30:12Z</time>
      </trkpt>
      <trkpt lat="45.4037" lon="5.75281">
        <ele>395.4</ele>
        <time>2019-04-17T13:30:13Z</time>
      </trkpt>
      <trkpt lat="45.40367" lon="5.75268">
        <ele>395.1</ele>
        <time>2019-04-17T13:30:14Z</time>
      </trkpt>
      <trkpt lat="45.40364" lon="5.75254">
        <ele>394.8</ele>
        <time>2019-04-17T13:30:15Z</time>
      </trkpt>
      <trkpt lat="45.40361" lon="5.7524">
        <ele>394.6</ele>
        <time>2019-04-17T13:30:16Z</time>
      </trkpt>
      <trkpt lat="45.40358" lon="5.75227">
        <ele>394.4</ele>
        <time>2019-04-17T13:30:17Z</time>
      </trkpt>
      <trkpt lat="45.40355" lon="5.75214">
        <ele>394.3</ele>
        <time>2019-04-17T13:30:18Z</time>
      </trkpt>
      <trkpt lat="45.40353" lon="5.75201">
        <ele>394.3</ele>
        <time>2019-04-17T13:30:19Z</time>
      </trkpt>
      <trkpt lat="45.4035" lon="5.75189">
        <ele>394.2</ele>
        <time>2019-04-17T13:30:20Z</time>
      </trkpt>
      <trkpt lat="45.40347" lon="5.75179">
        <ele>394.2</ele>
        <time>2019-04-17T13:30:21Z</time>
      </trkpt>
      <trkpt lat="45.40342" lon="5.7517">
        <ele>394.3</ele>
        <time>2019-04-17T13:30:22Z</time>
      </trkpt>
      <trkpt lat="45.40337" lon="5.75161">
        <ele>394.3</ele>
        <time>2019-04-17T13:30:23Z</time>
      </trkpt>
      <trkpt lat="45.40332" lon="5.75154">
        <ele>394.4</ele>
        <time>2019-04-17T13:30:24Z</time>
      </trkpt>
      <trkpt lat="45.40326" lon="5.75148">
        <ele>394.4</ele>
        <time>2019-04-17T13:30:25Z</time>
      </trkpt>
      <trkpt lat="45.40321" lon="5.75141">
        <ele>394.5</ele>
        <time>2019-04-17T13:30:26Z</time>
      </trkpt>
      <trkpt lat="45.40316" lon="5.75134">
        <ele>394.6</ele>
        <time>2019-04-17T13:30:27Z</time>
      </trkpt>
      <trkpt lat="45.40312" lon="5.75128">
        <ele>394.7</ele>
        <time>2019-04-17T13:30:28Z</time>
      </trkpt>
      <trkpt lat="45.40308" lon="5.75122">
        <ele>394.8</ele>
        <time>2019-04-17T13:30:29Z</time>
      </trkpt>
      <trkpt lat="45.40303" lon="5.75115">
        <ele>394.9</ele>
        <time>2019-04-17T13:30:30Z</time>
      </trkpt>
      <trkpt lat="45.40299" lon="5.75109">
        <ele>395</ele>
        <time>2019-04-17T13:30:31Z</time>
      </trkpt>
      <trkpt lat="45.40296" lon="5.75102">
        <ele>395</ele>
        <time>2019-04-17T13:30:32Z</time>
      </trkpt>
      <trkpt lat="45.40292" lon="5.75096">
        <ele>395.1</ele>
        <time>2019-04-17T13:30:33Z</time>
      </trkpt>
      <trkpt lat="45.40289" lon="5.75089">
        <ele>395.1</ele>
        <time>2019-04-17T13:30:34Z</time>
      </trkpt>
      <trkpt lat="45.40285" lon="5.75083">
        <ele>395.1</ele>
        <time>2019-04-17T13:30:35Z</time>
      </trkpt>
      <trkpt lat="45.40282" lon="5.75077">
        <ele>395.1</ele>
        <time>2019-04-17T13:30:36Z</time>
      </trkpt>
      <trkpt lat="45.4028" lon="5.75071">
        <ele>395.1</ele>
        <time>2019-04-17T13:30:37Z</time>
      </trkpt>
      <trkpt lat="45.40278" lon="5.75066">
        <ele>395.1</ele>
        <time>2019-04-17T13:30:38Z</time>
      </trkpt>
      <trkpt lat="45.40276" lon="5.7506">
        <ele>395.1</ele>
        <time>2019-04-17T13:30:39Z</time>
      </trkpt>
      <trkpt lat="45.40274" lon="5.75055">
        <ele>395.1</ele>
        <time>2019-04-17T13:30:40Z</time>
      </trkpt>
      <trkpt lat="45.40273" lon="5.7505">
        <ele>395.1</ele>
        <time>2019-04-17T13:30:41Z</time>
      </trkpt>
      <trkpt lat="45.40271" lon="5.75045">
        <ele>395.1</ele>
        <time>2019-04-17T13:30:42Z</time>
      </trkpt>
      <trkpt lat="45.40269" lon="5.7504">
        <ele>395.1</ele>
        <time>2019-04-17T13:30:43Z</time>
      </trkpt>
      <trkpt lat="45.40268" lon="5.75034">
        <ele>395.1</ele>
        <time>2019-04-17T13:30:44Z</time>
      </trkpt>
      <trkpt lat="45.40268" lon="5.75029">
        <ele>395.1</ele>
        <time>2019-04-17T13:30:45Z</time>
      </trkpt>
      <trkpt lat="45.40268" lon="5.75024">
        <ele>395.1</ele>
        <time>2019-04-17T13:30:46Z</time>
      </trkpt>
      <trkpt lat="45.40267" lon="5.75019">
        <ele>395.1</ele>
        <time>2019-04-17T13:30:47Z</time>
      </trkpt>
      <trkpt lat="45.40265" lon="5.75014">
        <ele>395.1</ele>
        <time>2019-04-17T13:30:48Z</time>
      </trkpt>
      <trkpt lat="45.40263" lon="5.75009">
        <ele>395.1</ele>
        <time>2019-04-17T13:30:49Z</time>
      </trkpt>
      <trkpt lat="45.40262" lon="5.75005">
        <ele>395.1</ele>
        <time>2019-04-17T13:30:50Z</time>
      </trkpt>
      <trkpt lat="45.40261" lon="5.75">
        <ele>395.1</ele>
        <time>2019-04-17T13:30:51Z</time>
      </trkpt>
      <trkpt lat="45.4026" lon="5.74995">
        <ele>395.1</ele>
        <time>2019-04-17T13:30:52Z</time>
      </trkpt>
      <trkpt lat="45.40258" lon="5.74991">
        <ele>395.1</ele>
        <time>2019-04-17T13:30:53Z</time>
      </trkpt>
      <trkpt lat="45.40257" lon="5.74986">
        <ele>395.1</ele>
        <time>2019-04-17T13:30:54Z</time>
      </trkpt>
      <trkpt lat="45.40256" lon="5.74981">
        <ele>395.1</ele>
        <time>2019-04-17T13:30:55Z</time>
      </trkpt>
      <trkpt lat="45.40255" lon="5.74976">
        <ele>395.1</ele>
        <time>2019-04-17T13:30:56Z</time>
      </trkpt>
      <trkpt lat="45.40255" lon="5.7497">
        <ele>395.3</ele>
        <time>2019-04-17T13:30:57Z</time>
      </trkpt>
      <trkpt lat="45.40257" lon="5.74965">
        <ele>395.4</ele>
        <time>2019-04-17T13:30:58Z</time>
      </trkpt>
      <trkpt lat="45.4026" lon="5.74961">
        <ele>395.4</ele>
        <time>2019-04-17T13:30:59Z</time>
      </trkpt>
      <trkpt lat="45.40263" lon="5.74958">
        <ele>395.4</ele>
        <time>2019-04-17T13:31:00Z</time>
      </trkpt>
      <trkpt lat="45.40269" lon="5.74955">
        <ele>395.4</ele>
        <time>2019-04-17T13:31:01Z</time>
      </trkpt>
      <trkpt lat="45.40272" lon="5.74951">
        <ele>395.4</ele>
        <time>2019-04-17T13:31:02Z</time>
      </trkpt>
      <trkpt lat="45.40274" lon="5.74948">
        <ele>395.4</ele>
        <time>2019-04-17T13:31:03Z</time>
      </trkpt>
      <trkpt lat="45.40277" lon="5.74944">
        <ele>395.3</ele>
        <time>2019-04-17T13:31:04Z</time>
      </trkpt>
      <trkpt lat="45.4028" lon="5.74941">
        <ele>395.3</ele>
        <time>2019-04-17T13:31:05Z</time>
      </trkpt>
      <trkpt lat="45.40283" lon="5.74938">
        <ele>395.2</ele>
        <time>2019-04-17T13:31:06Z</time>
      </trkpt>
      <trkpt lat="45.40286" lon="5.74934">
        <ele>395.2</ele>
        <time>2019-04-17T13:31:07Z</time>
      </trkpt>
      <trkpt lat="45.40289" lon="5.7493">
        <ele>395.2</ele>
        <time>2019-04-17T13:31:08Z</time>
      </trkpt>
      <trkpt lat="45.40292" lon="5.74927">
        <ele>395.1</ele>
        <time>2019-04-17T13:31:09Z</time>
      </trkpt>
      <trkpt lat="45.40295" lon="5.74924">
        <ele>395.1</ele>
        <time>2019-04-17T13:31:10Z</time>
      </trkpt>
      <trkpt lat="45.40297" lon="5.74921">
        <ele>395</ele>
        <time>2019-04-17T13:31:11Z</time>
      </trkpt>
      <trkpt lat="45.403" lon="5.74918">
        <ele>395</ele>
        <time>2019-04-17T13:31:12Z</time>
      </trkpt>
      <trkpt lat="45.40302" lon="5.74915">
        <ele>395</ele>
        <time>2019-04-17T13:31:13Z</time>
      </trkpt>
      <trkpt lat="45.40305" lon="5.74911">
        <ele>394.9</ele>
        <time>2019-04-17T13:31:14Z</time>
      </trkpt>
      <trkpt lat="45.40307" lon="5.74907">
        <ele>394.9</ele>
        <time>2019-04-17T13:31:15Z</time>
      </trkpt>
      <trkpt lat="45.40309" lon="5.74904">
        <ele>394.9</ele>
        <time>2019-04-17T13:31:16Z</time>
      </trkpt>
      <trkpt lat="45.40313" lon="5.74899">
        <ele>394.9</ele>
        <time>2019-04-17T13:31:18Z</time>
      </trkpt>
      <trkpt lat="45.40315" lon="5.74896">
        <ele>394.9</ele>
        <time>2019-04-17T13:31:20Z</time>
      </trkpt>
      <trkpt lat="45.40317" lon="5.74899">
        <ele>394.9</ele>
        <time>2019-04-17T13:31:54Z</time>
      </trkpt>
      <trkpt lat="45.40319" lon="5.74897">
        <ele>394.9</ele>
        <time>2019-04-17T13:32:45Z</time>
      </trkpt>
      <trkpt lat="45.40319" lon="5.74892">
        <ele>394.9</ele>
        <time>2019-04-17T13:32:47Z</time>
      </trkpt>
      <trkpt lat="45.40319" lon="5.74888">
        <ele>394.9</ele>
        <time>2019-04-17T13:32:54Z</time>
      </trkpt>
      <trkpt lat="45.4032" lon="5.74885">
        <ele>394.9</ele>
        <time>2019-04-17T13:33:03Z</time>
      </trkpt>
      <trkpt lat="45.40323" lon="5.74881">
        <ele>394.9</ele>
        <time>2019-04-17T13:33:04Z</time>
      </trkpt>
      <trkpt lat="45.40325" lon="5.74878">
        <ele>395</ele>
        <time>2019-04-17T13:33:05Z</time>
      </trkpt>
      <trkpt lat="45.40327" lon="5.74876">
        <ele>395</ele>
        <time>2019-04-17T13:33:06Z</time>
      </trkpt>
      <trkpt lat="45.4033" lon="5.74873">
        <ele>395</ele>
        <time>2019-04-17T13:33:07Z</time>
      </trkpt>
      <trkpt lat="45.40333" lon="5.74869">
        <ele>395.1</ele>
        <time>2019-04-17T13:33:08Z</time>
      </trkpt>
      <trkpt lat="45.40336" lon="5.74865">
        <ele>395.2</ele>
        <time>2019-04-17T13:33:09Z</time>
      </trkpt>
      <trkpt lat="45.40339" lon="5.7486">
        <ele>395.2</ele>
        <time>2019-04-17T13:33:10Z</time>
      </trkpt>
      <trkpt lat="45.40341" lon="5.74857">
        <ele>395.3</ele>
        <time>2019-04-17T13:33:11Z</time>
      </trkpt>
      <trkpt lat="45.40344" lon="5.74853">
        <ele>395.4</ele>
        <time>2019-04-17T13:33:12Z</time>
      </trkpt>
      <trkpt lat="45.40346" lon="5.74849">
        <ele>395.4</ele>
        <time>2019-04-17T13:33:13Z</time>
      </trkpt>
      <trkpt lat="45.40348" lon="5.74846">
        <ele>395.4</ele>
        <time>2019-04-17T13:33:14Z</time>
      </trkpt>
      <trkpt lat="45.40351" lon="5.74841">
        <ele>395.5</ele>
        <time>2019-04-17T13:33:16Z</time>
      </trkpt>
      <trkpt lat="45.40353" lon="5.74838">
        <ele>395.6</ele>
        <time>2019-04-17T13:33:17Z</time>
      </trkpt>
      <trkpt lat="45.40356" lon="5.74834">
        <ele>395.7</ele>
        <time>2019-04-17T13:33:18Z</time>
      </trkpt>
      <trkpt lat="45.40358" lon="5.74831">
        <ele>395.8</ele>
        <time>2019-04-17T13:33:19Z</time>
      </trkpt>
      <trkpt lat="45.4036" lon="5.74827">
        <ele>395.8</ele>
        <time>2019-04-17T13:33:20Z</time>
      </trkpt>
      <trkpt lat="45.40362" lon="5.74823">
        <ele>395.8</ele>
        <time>2019-04-17T13:33:21Z</time>
      </trkpt>
      <trkpt lat="45.40364" lon="5.74819">
        <ele>395.9</ele>
        <time>2019-04-17T13:33:22Z</time>
      </trkpt>
      <trkpt lat="45.40366" lon="5.74814">
        <ele>395.9</ele>
        <time>2019-04-17T13:33:23Z</time>
      </trkpt>
      <trkpt lat="45.40368" lon="5.7481">
        <ele>396</ele>
        <time>2019-04-17T13:33:24Z</time>
      </trkpt>
      <trkpt lat="45.4037" lon="5.74806">
        <ele>396.1</ele>
        <time>2019-04-17T13:33:25Z</time>
      </trkpt>
      <trkpt lat="45.40371" lon="5.74802">
        <ele>396.1</ele>
        <time>2019-04-17T13:33:26Z</time>
      </trkpt>
      <trkpt lat="45.40373" lon="5.74799">
        <ele>396.2</ele>
        <time>2019-04-17T13:33:27Z</time>
      </trkpt>
      <trkpt lat="45.40375" lon="5.74792">
        <ele>396.2</ele>
        <time>2019-04-17T13:33:29Z</time>
      </trkpt>
      <trkpt lat="45.40375" lon="5.74788">
        <ele>396.3</ele>
        <time>2019-04-17T13:33:30Z</time>
      </trkpt>
      <trkpt lat="45.40377" lon="5.74782">
        <ele>396.2</ele>
        <time>2019-04-17T13:33:32Z</time>
      </trkpt>
      <trkpt lat="45.40379" lon="5.74774">
        <ele>396.3</ele>
        <time>2019-04-17T13:33:34Z</time>
      </trkpt>
      <trkpt lat="45.40379" lon="5.7477">
        <ele>396.2</ele>
        <time>2019-04-17T13:33:35Z</time>
      </trkpt>
      <trkpt lat="45.40379" lon="5.74766">
        <ele>396.2</ele>
        <time>2019-04-17T13:33:36Z</time>
      </trkpt>
      <trkpt lat="45.4038" lon="5.74761">
        <ele>396.2</ele>
        <time>2019-04-17T13:33:37Z</time>
      </trkpt>
      <trkpt lat="45.4038" lon="5.74756">
        <ele>396.2</ele>
        <time>2019-04-17T13:33:39Z</time>
      </trkpt>
      <trkpt lat="45.4038" lon="5.74749">
        <ele>396.2</ele>
        <time>2019-04-17T13:33:40Z</time>
      </trkpt>
      <trkpt lat="45.4038" lon="5.74742">
        <ele>396.3</ele>
        <time>2019-04-17T13:33:41Z</time>
      </trkpt>
      <trkpt lat="45.4038" lon="5.74737">
        <ele>396.3</ele>
        <time>2019-04-17T13:33:42Z</time>
      </trkpt>
      <trkpt lat="45.40381" lon="5.74731">
        <ele>396.4</ele>
        <time>2019-04-17T13:33:43Z</time>
      </trkpt>
      <trkpt lat="45.40381" lon="5.74726">
        <ele>396.4</ele>
        <time>2019-04-17T13:33:44Z</time>
      </trkpt>
      <trkpt lat="45.40382" lon="5.74721">
        <ele>396.5</ele>
        <time>2019-04-17T13:33:45Z</time>
      </trkpt>
      <trkpt lat="45.40382" lon="5.74718">
        <ele>396.5</ele>
        <time>2019-04-17T13:33:46Z</time>
      </trkpt>
      <trkpt lat="45.40382" lon="5.74711">
        <ele>396.5</ele>
        <time>2019-04-17T13:33:48Z</time>
      </trkpt>
      <trkpt lat="45.40382" lon="5.74704">
        <ele>396.6</ele>
        <time>2019-04-17T13:33:50Z</time>
      </trkpt>
      <trkpt lat="45.40382" lon="5.747">
        <ele>396.6</ele>
        <time>2019-04-17T13:33:51Z</time>
      </trkpt>
      <trkpt lat="45.40383" lon="5.74694">
        <ele>396.6</ele>
        <time>2019-04-17T13:33:52Z</time>
      </trkpt>
      <trkpt lat="45.40384" lon="5.74688">
        <ele>396.6</ele>
        <time>2019-04-17T13:33:53Z</time>
      </trkpt>
      <trkpt lat="45.40385" lon="5.74683">
        <ele>396.6</ele>
        <time>2019-04-17T13:33:54Z</time>
      </trkpt>
      <trkpt lat="45.40385" lon="5.74679">
        <ele>396.6</ele>
        <time>2019-04-17T13:33:55Z</time>
      </trkpt>
      <trkpt lat="45.40385" lon="5.74671">
        <ele>396.6</ele>
        <time>2019-04-17T13:33:57Z</time>
      </trkpt>
      <trkpt lat="45.40385" lon="5.74666">
        <ele>396.6</ele>
        <time>2019-04-17T13:33:58Z</time>
      </trkpt>
      <trkpt lat="45.40385" lon="5.74662">
        <ele>396.5</ele>
        <time>2019-04-17T13:33:59Z</time>
      </trkpt>
      <trkpt lat="45.40385" lon="5.74657">
        <ele>396.5</ele>
        <time>2019-04-17T13:34:00Z</time>
      </trkpt>
      <trkpt lat="45.40385" lon="5.74652">
        <ele>396.5</ele>
        <time>2019-04-17T13:34:01Z</time>
      </trkpt>
      <trkpt lat="45.40385" lon="5.74648">
        <ele>396.4</ele>
        <time>2019-04-17T13:34:02Z</time>
      </trkpt>
      <trkpt lat="45.40385" lon="5.74643">
        <ele>396.4</ele>
        <time>2019-04-17T13:34:03Z</time>
      </trkpt>
      <trkpt lat="45.40385" lon="5.74638">
        <ele>396.4</ele>
        <time>2019-04-17T13:34:04Z</time>
      </trkpt>
      <trkpt lat="45.40386" lon="5.74634">
        <ele>396.3</ele>
        <time>2019-04-17T13:34:05Z</time>
      </trkpt>
      <trkpt lat="45.40386" lon="5.7463">
        <ele>396.3</ele>
        <time>2019-04-17T13:34:06Z</time>
      </trkpt>
      <trkpt lat="45.40387" lon="5.74625">
        <ele>396.3</ele>
        <time>2019-04-17T13:34:07Z</time>
      </trkpt>
      <trkpt lat="45.40387" lon="5.74621">
        <ele>396.2</ele>
        <time>2019-04-17T13:34:08Z</time>
      </trkpt>
      <trkpt lat="45.40387" lon="5.74617">
        <ele>396.2</ele>
        <time>2019-04-17T13:34:09Z</time>
      </trkpt>
      <trkpt lat="45.40387" lon="5.74612">
        <ele>396.2</ele>
        <time>2019-04-17T13:34:10Z</time>
      </trkpt>
      <trkpt lat="45.40387" lon="5.74606">
        <ele>396.1</ele>
        <time>2019-04-17T13:34:13Z</time>
      </trkpt>
      <trkpt lat="45.40387" lon="5.74599">
        <ele>396.1</ele>
        <time>2019-04-17T13:34:15Z</time>
      </trkpt>
      <trkpt lat="45.40387" lon="5.74594">
        <ele>396.1</ele>
        <time>2019-04-17T13:34:16Z</time>
      </trkpt>
      <trkpt lat="45.40388" lon="5.74588">
        <ele>396</ele>
        <time>2019-04-17T13:34:17Z</time>
      </trkpt>
      <trkpt lat="45.40389" lon="5.74583">
        <ele>396</ele>
        <time>2019-04-17T13:34:18Z</time>
      </trkpt>
      <trkpt lat="45.40389" lon="5.74578">
        <ele>396</ele>
        <time>2019-04-17T13:34:19Z</time>
      </trkpt>
      <trkpt lat="45.40389" lon="5.74572">
        <ele>396</ele>
        <time>2019-04-17T13:34:20Z</time>
      </trkpt>
      <trkpt lat="45.40389" lon="5.74567">
        <ele>396</ele>
        <time>2019-04-17T13:34:21Z</time>
      </trkpt>
      <trkpt lat="45.40389" lon="5.74561">
        <ele>396</ele>
        <time>2019-04-17T13:34:22Z</time>
      </trkpt>
      <trkpt lat="45.40389" lon="5.74556">
        <ele>396</ele>
        <time>2019-04-17T13:34:23Z</time>
      </trkpt>
      <trkpt lat="45.40389" lon="5.7455">
        <ele>396</ele>
        <time>2019-04-17T13:34:24Z</time>
      </trkpt>
      <trkpt lat="45.40389" lon="5.74545">
        <ele>396</ele>
        <time>2019-04-17T13:34:25Z</time>
      </trkpt>
      <trkpt lat="45.40388" lon="5.7454">
        <ele>396</ele>
        <time>2019-04-17T13:34:26Z</time>
      </trkpt>
      <trkpt lat="45.40388" lon="5.74535">
        <ele>396</ele>
        <time>2019-04-17T13:34:27Z</time>
      </trkpt>
      <trkpt lat="45.40387" lon="5.7453">
        <ele>396.1</ele>
        <time>2019-04-17T13:34:28Z</time>
      </trkpt>
      <trkpt lat="45.40387" lon="5.74526">
        <ele>396.1</ele>
        <time>2019-04-17T13:34:29Z</time>
      </trkpt>
      <trkpt lat="45.40387" lon="5.74518">
        <ele>396.1</ele>
        <time>2019-04-17T13:34:31Z</time>
      </trkpt>
      <trkpt lat="45.40388" lon="5.74514">
        <ele>396.1</ele>
        <time>2019-04-17T13:34:33Z</time>
      </trkpt>
      <trkpt lat="45.40394" lon="5.74514">
        <ele>396.1</ele>
        <time>2019-04-17T13:35:07Z</time>
      </trkpt>
      <trkpt lat="45.40397" lon="5.74513">
        <ele>396</ele>
        <time>2019-04-17T13:35:08Z</time>
      </trkpt>
      <trkpt lat="45.40402" lon="5.74512">
        <ele>396</ele>
        <time>2019-04-17T13:35:11Z</time>
      </trkpt>
      <trkpt lat="45.40406" lon="5.74514">
        <ele>396</ele>
        <time>2019-04-17T13:35:13Z</time>
      </trkpt>
      <trkpt lat="45.40411" lon="5.74517">
        <ele>396</ele>
        <time>2019-04-17T13:35:15Z</time>
      </trkpt>
      <trkpt lat="45.40414" lon="5.7452">
        <ele>395.9</ele>
        <time>2019-04-17T13:35:17Z</time>
      </trkpt>
      <trkpt lat="45.40415" lon="5.74525">
        <ele>395.9</ele>
        <time>2019-04-17T13:35:21Z</time>
      </trkpt>
      <trkpt lat="45.40419" lon="5.74527">
        <ele>395.9</ele>
        <time>2019-04-17T13:35:35Z</time>
      </trkpt>
      <trkpt lat="45.40422" lon="5.74528">
        <ele>395.9</ele>
        <time>2019-04-17T13:35:36Z</time>
      </trkpt>
      <trkpt lat="45.40427" lon="5.7453">
        <ele>395.9</ele>
        <time>2019-04-17T13:35:38Z</time>
      </trkpt>
      <trkpt lat="45.40432" lon="5.74532">
        <ele>395.9</ele>
        <time>2019-04-17T13:35:40Z</time>
      </trkpt>
      <trkpt lat="45.40436" lon="5.74534">
        <ele>395.9</ele>
        <time>2019-04-17T13:35:41Z</time>
      </trkpt>
      <trkpt lat="45.4044" lon="5.74535">
        <ele>395.9</ele>
        <time>2019-04-17T13:35:42Z</time>
      </trkpt>
      <trkpt lat="45.40444" lon="5.74537">
        <ele>395.9</ele>
        <time>2019-04-17T13:35:43Z</time>
      </trkpt>
      <trkpt lat="45.40447" lon="5.74538">
        <ele>395.9</ele>
        <time>2019-04-17T13:35:44Z</time>
      </trkpt>
      <trkpt lat="45.40451" lon="5.74539">
        <ele>395.9</ele>
        <time>2019-04-17T13:35:45Z</time>
      </trkpt>
      <trkpt lat="45.40454" lon="5.74539">
        <ele>395.9</ele>
        <time>2019-04-17T13:35:46Z</time>
      </trkpt>
      <trkpt lat="45.40458" lon="5.7454">
        <ele>395.8</ele>
        <time>2019-04-17T13:35:47Z</time>
      </trkpt>
      <trkpt lat="45.40463" lon="5.74542">
        <ele>395.8</ele>
        <time>2019-04-17T13:35:48Z</time>
      </trkpt>
      <trkpt lat="45.40468" lon="5.74543">
        <ele>395.8</ele>
        <time>2019-04-17T13:35:49Z</time>
      </trkpt>
      <trkpt lat="45.40474" lon="5.74545">
        <ele>395.8</ele>
        <time>2019-04-17T13:35:50Z</time>
      </trkpt>
      <trkpt lat="45.40505" lon="5.74557">
        <ele>395.8</ele>
        <time>2019-04-17T13:35:52Z</time>
      </trkpt>
      <trkpt lat="45.40511" lon="5.7456">
        <ele>395.8</ele>
        <time>2019-04-17T13:35:53Z</time>
      </trkpt>
      <trkpt lat="45.40516" lon="5.74562">
        <ele>395.7</ele>
        <time>2019-04-17T13:35:54Z</time>
      </trkpt>
      <trkpt lat="45.40521" lon="5.74566">
        <ele>395.7</ele>
        <time>2019-04-17T13:35:55Z</time>
      </trkpt>
      <trkpt lat="45.40527" lon="5.74568">
        <ele>395.6</ele>
        <time>2019-04-17T13:35:56Z</time>
      </trkpt>
      <trkpt lat="45.40531" lon="5.7457">
        <ele>395.6</ele>
        <time>2019-04-17T13:35:57Z</time>
      </trkpt>
      <trkpt lat="45.40535" lon="5.74571">
        <ele>395.6</ele>
        <time>2019-04-17T13:35:58Z</time>
      </trkpt>
      <trkpt lat="45.40538" lon="5.74568">
        <ele>395.5</ele>
        <time>2019-04-17T13:35:59Z</time>
      </trkpt>
      <trkpt lat="45.4054" lon="5.74565">
        <ele>395.5</ele>
        <time>2019-04-17T13:36:00Z</time>
      </trkpt>
      <trkpt lat="45.40542" lon="5.74558">
        <ele>395.6</ele>
        <time>2019-04-17T13:36:02Z</time>
      </trkpt>
      <trkpt lat="45.40543" lon="5.74554">
        <ele>395.6</ele>
        <time>2019-04-17T13:36:03Z</time>
      </trkpt>
      <trkpt lat="45.40545" lon="5.7455">
        <ele>395.6</ele>
        <time>2019-04-17T13:36:04Z</time>
      </trkpt>
      <trkpt lat="45.40547" lon="5.74547">
        <ele>395.6</ele>
        <time>2019-04-17T13:36:05Z</time>
      </trkpt>
      <trkpt lat="45.40548" lon="5.74543">
        <ele>395.6</ele>
        <time>2019-04-17T13:36:06Z</time>
      </trkpt>
      <trkpt lat="45.4055" lon="5.74539">
        <ele>395.7</ele>
        <time>2019-04-17T13:36:07Z</time>
      </trkpt>
      <trkpt lat="45.40551" lon="5.74536">
        <ele>395.7</ele>
        <time>2019-04-17T13:36:08Z</time>
      </trkpt>
      <trkpt lat="45.40553" lon="5.74532">
        <ele>395.7</ele>
        <time>2019-04-17T13:36:09Z</time>
      </trkpt>
      <trkpt lat="45.40554" lon="5.74528">
        <ele>395.7</ele>
        <time>2019-04-17T13:36:10Z</time>
      </trkpt>
      <trkpt lat="45.40556" lon="5.74524">
        <ele>395.7</ele>
        <time>2019-04-17T13:36:11Z</time>
      </trkpt>
      <trkpt lat="45.40558" lon="5.74519">
        <ele>395.7</ele>
        <time>2019-04-17T13:36:12Z</time>
      </trkpt>
      <trkpt lat="45.4056" lon="5.74515">
        <ele>395.7</ele>
        <time>2019-04-17T13:36:13Z</time>
      </trkpt>
      <trkpt lat="45.40561" lon="5.74511">
        <ele>395.7</ele>
        <time>2019-04-17T13:36:14Z</time>
      </trkpt>
      <trkpt lat="45.40563" lon="5.74506">
        <ele>395.7</ele>
        <time>2019-04-17T13:36:15Z</time>
      </trkpt>
      <trkpt lat="45.40565" lon="5.74501">
        <ele>395.7</ele>
        <time>2019-04-17T13:36:16Z</time>
      </trkpt>
      <trkpt lat="45.40567" lon="5.74497">
        <ele>395.7</ele>
        <time>2019-04-17T13:36:17Z</time>
      </trkpt>
      <trkpt lat="45.40569" lon="5.74492">
        <ele>395.6</ele>
        <time>2019-04-17T13:36:19Z</time>
      </trkpt>
      <trkpt lat="45.40572" lon="5.74486">
        <ele>395.6</ele>
        <time>2019-04-17T13:36:21Z</time>
      </trkpt>
      <trkpt lat="45.40574" lon="5.74482">
        <ele>395.6</ele>
        <time>2019-04-17T13:36:22Z</time>
      </trkpt>
      <trkpt lat="45.40576" lon="5.74478">
        <ele>395.6</ele>
        <time>2019-04-17T13:36:23Z</time>
      </trkpt>
      <trkpt lat="45.40578" lon="5.74473">
        <ele>395.5</ele>
        <time>2019-04-17T13:36:24Z</time>
      </trkpt>
      <trkpt lat="45.40579" lon="5.74469">
        <ele>395.5</ele>
        <time>2019-04-17T13:36:25Z</time>
      </trkpt>
      <trkpt lat="45.4058" lon="5.74466">
        <ele>395.5</ele>
        <time>2019-04-17T13:36:26Z</time>
      </trkpt>
      <trkpt lat="45.40582" lon="5.74462">
        <ele>395.5</ele>
        <time>2019-04-17T13:36:27Z</time>
      </trkpt>
      <trkpt lat="45.40583" lon="5.74458">
        <ele>395.4</ele>
        <time>2019-04-17T13:36:28Z</time>
      </trkpt>
      <trkpt lat="45.40584" lon="5.74453">
        <ele>395.4</ele>
        <time>2019-04-17T13:36:29Z</time>
      </trkpt>
      <trkpt lat="45.40586" lon="5.74449">
        <ele>395.4</ele>
        <time>2019-04-17T13:36:30Z</time>
      </trkpt>
      <trkpt lat="45.40588" lon="5.74445">
        <ele>395.4</ele>
        <time>2019-04-17T13:36:31Z</time>
      </trkpt>
      <trkpt lat="45.40589" lon="5.74442">
        <ele>395.3</ele>
        <time>2019-04-17T13:36:32Z</time>
      </trkpt>
      <trkpt lat="45.40591" lon="5.74438">
        <ele>395.3</ele>
        <time>2019-04-17T13:36:34Z</time>
      </trkpt>
      <trkpt lat="45.40593" lon="5.74434">
        <ele>395.3</ele>
        <time>2019-04-17T13:36:36Z</time>
      </trkpt>
      <trkpt lat="45.40595" lon="5.74429">
        <ele>395.3</ele>
        <time>2019-04-17T13:36:38Z</time>
      </trkpt>
      <trkpt lat="45.40598" lon="5.74423">
        <ele>395.3</ele>
        <time>2019-04-17T13:36:40Z</time>
      </trkpt>
      <trkpt lat="45.406" lon="5.74419">
        <ele>395.3</ele>
        <time>2019-04-17T13:36:41Z</time>
      </trkpt>
      <trkpt lat="45.40602" lon="5.74415">
        <ele>395.3</ele>
        <time>2019-04-17T13:36:42Z</time>
      </trkpt>
      <trkpt lat="45.40604" lon="5.7441">
        <ele>395.3</ele>
        <time>2019-04-17T13:36:43Z</time>
      </trkpt>
      <trkpt lat="45.40607" lon="5.74403">
        <ele>395.3</ele>
        <time>2019-04-17T13:36:44Z</time>
      </trkpt>
      <trkpt lat="45.4061" lon="5.74396">
        <ele>395.3</ele>
        <time>2019-04-17T13:36:45Z</time>
      </trkpt>
      <trkpt lat="45.40613" lon="5.74389">
        <ele>395.2</ele>
        <time>2019-04-17T13:36:46Z</time>
      </trkpt>
      <trkpt lat="45.40615" lon="5.74384">
        <ele>395.2</ele>
        <time>2019-04-17T13:36:47Z</time>
      </trkpt>
      <trkpt lat="45.40618" lon="5.74378">
        <ele>395.1</ele>
        <time>2019-04-17T13:36:48Z</time>
      </trkpt>
      <trkpt lat="45.4062" lon="5.74373">
        <ele>395.1</ele>
        <time>2019-04-17T13:36:49Z</time>
      </trkpt>
      <trkpt lat="45.40622" lon="5.74368">
        <ele>395.1</ele>
        <time>2019-04-17T13:36:50Z</time>
      </trkpt>
      <trkpt lat="45.40625" lon="5.74362">
        <ele>395.1</ele>
        <time>2019-04-17T13:36:51Z</time>
      </trkpt>
      <trkpt lat="45.40627" lon="5.74357">
        <ele>395.1</ele>
        <time>2019-04-17T13:36:52Z</time>
      </trkpt>
      <trkpt lat="45.4063" lon="5.7435">
        <ele>395.1</ele>
        <time>2019-04-17T13:36:53Z</time>
      </trkpt>
      <trkpt lat="45.40633" lon="5.74342">
        <ele>395.1</ele>
        <time>2019-04-17T13:36:56Z</time>
      </trkpt>
      <trkpt lat="45.40636" lon="5.74337">
        <ele>395.2</ele>
        <time>2019-04-17T13:36:57Z</time>
      </trkpt>
      <trkpt lat="45.40638" lon="5.74333">
        <ele>395.2</ele>
        <time>2019-04-17T13:36:58Z</time>
      </trkpt>
      <trkpt lat="45.40641" lon="5.74329">
        <ele>395.2</ele>
        <time>2019-04-17T13:36:59Z</time>
      </trkpt>
      <trkpt lat="45.40643" lon="5.74326">
        <ele>395.3</ele>
        <time>2019-04-17T13:37:00Z</time>
      </trkpt>
      <trkpt lat="45.40646" lon="5.74323">
        <ele>395.4</ele>
        <time>2019-04-17T13:37:01Z</time>
      </trkpt>
      <trkpt lat="45.40649" lon="5.74319">
        <ele>395.3</ele>
        <time>2019-04-17T13:37:02Z</time>
      </trkpt>
      <trkpt lat="45.40651" lon="5.74315">
        <ele>395.4</ele>
        <time>2019-04-17T13:37:03Z</time>
      </trkpt>
      <trkpt lat="45.40652" lon="5.74311">
        <ele>395.5</ele>
        <time>2019-04-17T13:37:04Z</time>
      </trkpt>
      <trkpt lat="45.40655" lon="5.74305">
        <ele>395.7</ele>
        <time>2019-04-17T13:37:06Z</time>
      </trkpt>
      <trkpt lat="45.40658" lon="5.74299">
        <ele>395.8</ele>
        <time>2019-04-17T13:37:08Z</time>
      </trkpt>
      <trkpt lat="45.4066" lon="5.74294">
        <ele>395.9</ele>
        <time>2019-04-17T13:37:09Z</time>
      </trkpt>
      <trkpt lat="45.40661" lon="5.74289">
        <ele>396</ele>
        <time>2019-04-17T13:37:10Z</time>
      </trkpt>
      <trkpt lat="45.40663" lon="5.74285">
        <ele>396.1</ele>
        <time>2019-04-17T13:37:11Z</time>
      </trkpt>
      <trkpt lat="45.40665" lon="5.7428">
        <ele>396.2</ele>
        <time>2019-04-17T13:37:12Z</time>
      </trkpt>
      <trkpt lat="45.40666" lon="5.74276">
        <ele>396.2</ele>
        <time>2019-04-17T13:37:13Z</time>
      </trkpt>
      <trkpt lat="45.40668" lon="5.74272">
        <ele>396.3</ele>
        <time>2019-04-17T13:37:14Z</time>
      </trkpt>
      <trkpt lat="45.4067" lon="5.74268">
        <ele>396.4</ele>
        <time>2019-04-17T13:37:15Z</time>
      </trkpt>
      <trkpt lat="45.40672" lon="5.74265">
        <ele>396.5</ele>
        <time>2019-04-17T13:37:16Z</time>
      </trkpt>
      <trkpt lat="45.40675" lon="5.74261">
        <ele>396.6</ele>
        <time>2019-04-17T13:37:17Z</time>
      </trkpt>
      <trkpt lat="45.40677" lon="5.74258">
        <ele>396.6</ele>
        <time>2019-04-17T13:37:18Z</time>
      </trkpt>
      <trkpt lat="45.40679" lon="5.74255">
        <ele>396.7</ele>
        <time>2019-04-17T13:37:19Z</time>
      </trkpt>
      <trkpt lat="45.40682" lon="5.7425">
        <ele>396.7</ele>
        <time>2019-04-17T13:37:20Z</time>
      </trkpt>
      <trkpt lat="45.40684" lon="5.74246">
        <ele>396.8</ele>
        <time>2019-04-17T13:37:21Z</time>
      </trkpt>
      <trkpt lat="45.40688" lon="5.74241">
        <ele>397</ele>
        <time>2019-04-17T13:37:22Z</time>
      </trkpt>
      <trkpt lat="45.4069" lon="5.74237">
        <ele>397.1</ele>
        <time>2019-04-17T13:37:23Z</time>
      </trkpt>
      <trkpt lat="45.40693" lon="5.74233">
        <ele>397.1</ele>
        <time>2019-04-17T13:37:24Z</time>
      </trkpt>
      <trkpt lat="45.40696" lon="5.74229">
        <ele>397.1</ele>
        <time>2019-04-17T13:37:25Z</time>
      </trkpt>
      <trkpt lat="45.40699" lon="5.74225">
        <ele>397.2</ele>
        <time>2019-04-17T13:37:26Z</time>
      </trkpt>
      <trkpt lat="45.40701" lon="5.74221">
        <ele>397.3</ele>
        <time>2019-04-17T13:37:27Z</time>
      </trkpt>
      <trkpt lat="45.40703" lon="5.74217">
        <ele>397.4</ele>
        <time>2019-04-17T13:37:28Z</time>
      </trkpt>
      <trkpt lat="45.40704" lon="5.74214">
        <ele>397.5</ele>
        <time>2019-04-17T13:37:29Z</time>
      </trkpt>
      <trkpt lat="45.40706" lon="5.74211">
        <ele>397.5</ele>
        <time>2019-04-17T13:37:30Z</time>
      </trkpt>
      <trkpt lat="45.40708" lon="5.74208">
        <ele>397.5</ele>
        <time>2019-04-17T13:37:31Z</time>
      </trkpt>
      <trkpt lat="45.4071" lon="5.74205">
        <ele>397.6</ele>
        <time>2019-04-17T13:37:32Z</time>
      </trkpt>
      <trkpt lat="45.40712" lon="5.74202">
        <ele>397.7</ele>
        <time>2019-04-17T13:37:33Z</time>
      </trkpt>
      <trkpt lat="45.40714" lon="5.74199">
        <ele>397.7</ele>
        <time>2019-04-17T13:37:34Z</time>
      </trkpt>
      <trkpt lat="45.40717" lon="5.74194">
        <ele>397.8</ele>
        <time>2019-04-17T13:37:36Z</time>
      </trkpt>
      <trkpt lat="45.40719" lon="5.7419">
        <ele>397.8</ele>
        <time>2019-04-17T13:37:37Z</time>
      </trkpt>
      <trkpt lat="45.40717" lon="5.74194">
        <ele>397.8</ele>
        <time>2019-04-17T13:37:42Z</time>
      </trkpt>
      <trkpt lat="45.40717" lon="5.74199">
        <ele>397.7</ele>
        <time>2019-04-17T13:37:46Z</time>
      </trkpt>
      <trkpt lat="45.40715" lon="5.74203">
        <ele>397.6</ele>
        <time>2019-04-17T13:37:50Z</time>
      </trkpt>
      <trkpt lat="45.40717" lon="5.74208">
        <ele>397.5</ele>
        <time>2019-04-17T13:37:55Z</time>
      </trkpt>
      <trkpt lat="45.40715" lon="5.74205">
        <ele>397.5</ele>
        <time>2019-04-17T13:37:58Z</time>
      </trkpt>
      <trkpt lat="45.40717" lon="5.74205">
        <ele>397.5</ele>
        <time>2019-04-17T13:41:50Z</time>
      </trkpt>
      <trkpt lat="45.40717" lon="5.742">
        <ele>397.6</ele>
        <time>2019-04-17T13:42:13Z</time>
      </trkpt>
      <trkpt lat="45.40717" lon="5.74194">
        <ele>397.7</ele>
        <time>2019-04-17T13:42:15Z</time>
      </trkpt>
      <trkpt lat="45.40716" lon="5.74189">
        <ele>397.8</ele>
        <time>2019-04-17T13:42:17Z</time>
      </trkpt>
      <trkpt lat="45.40714" lon="5.74186">
        <ele>397.8</ele>
        <time>2019-04-17T13:42:19Z</time>
      </trkpt>
      <trkpt lat="45.40713" lon="5.74182">
        <ele>397.8</ele>
        <time>2019-04-17T13:42:21Z</time>
      </trkpt>
      <trkpt lat="45.40713" lon="5.74174">
        <ele>397.9</ele>
        <time>2019-04-17T13:42:25Z</time>
      </trkpt>
      <trkpt lat="45.40711" lon="5.74169">
        <ele>397.8</ele>
        <time>2019-04-17T13:42:35Z</time>
      </trkpt>
      <trkpt lat="45.4071" lon="5.74164">
        <ele>397.8</ele>
        <time>2019-04-17T13:42:37Z</time>
      </trkpt>
      <trkpt lat="45.40708" lon="5.74161">
        <ele>397.8</ele>
        <time>2019-04-17T13:42:40Z</time>
      </trkpt>
      <trkpt lat="45.40706" lon="5.74159">
        <ele>397.8</ele>
        <time>2019-04-17T13:42:43Z</time>
      </trkpt>
      <trkpt lat="45.40706" lon="5.74154">
        <ele>397.7</ele>
        <time>2019-04-17T13:42:46Z</time>
      </trkpt>
      <trkpt lat="45.40705" lon="5.7415">
        <ele>397.7</ele>
        <time>2019-04-17T13:42:48Z</time>
      </trkpt>
      <trkpt lat="45.40703" lon="5.74145">
        <ele>397.6</ele>
        <time>2019-04-17T13:42:51Z</time>
      </trkpt>
      <trkpt lat="45.40702" lon="5.74139">
        <ele>397.6</ele>
        <time>2019-04-17T13:42:54Z</time>
      </trkpt>
      <trkpt lat="45.40702" lon="5.74134">
        <ele>397.4</ele>
        <time>2019-04-17T13:42:56Z</time>
      </trkpt>
      <trkpt lat="45.40704" lon="5.74131">
        <ele>397.4</ele>
        <time>2019-04-17T13:42:58Z</time>
      </trkpt>
      <trkpt lat="45.40707" lon="5.7413">
        <ele>397.4</ele>
        <time>2019-04-17T13:43:00Z</time>
      </trkpt>
      <trkpt lat="45.40711" lon="5.74131">
        <ele>397.4</ele>
        <time>2019-04-17T13:43:02Z</time>
      </trkpt>
      <trkpt lat="45.40715" lon="5.74131">
        <ele>397.4</ele>
        <time>2019-04-17T13:43:04Z</time>
      </trkpt>
      <trkpt lat="45.40719" lon="5.7413">
        <ele>397.4</ele>
        <time>2019-04-17T13:43:06Z</time>
      </trkpt>
      <trkpt lat="45.40723" lon="5.74129">
        <ele>397.4</ele>
        <time>2019-04-17T13:43:08Z</time>
      </trkpt>
      <trkpt lat="45.40728" lon="5.74128">
        <ele>397.4</ele>
        <time>2019-04-17T13:43:10Z</time>
      </trkpt>
      <trkpt lat="45.40732" lon="5.74128">
        <ele>397.4</ele>
        <time>2019-04-17T13:43:12Z</time>
      </trkpt>
      <trkpt lat="45.40735" lon="5.74128">
        <ele>397.4</ele>
        <time>2019-04-17T13:43:13Z</time>
      </trkpt>
      <trkpt lat="45.40738" lon="5.74129">
        <ele>397.4</ele>
        <time>2019-04-17T13:43:14Z</time>
      </trkpt>
      <trkpt lat="45.40742" lon="5.7413">
        <ele>397.4</ele>
        <time>2019-04-17T13:43:15Z</time>
      </trkpt>
      <trkpt lat="45.40746" lon="5.7413">
        <ele>397.5</ele>
        <time>2019-04-17T13:43:16Z</time>
      </trkpt>
      <trkpt lat="45.4075" lon="5.74131">
        <ele>397.5</ele>
        <time>2019-04-17T13:43:17Z</time>
      </trkpt>
      <trkpt lat="45.40754" lon="5.74131">
        <ele>397.5</ele>
        <time>2019-04-17T13:43:18Z</time>
      </trkpt>
      <trkpt lat="45.40757" lon="5.74131">
        <ele>397.5</ele>
        <time>2019-04-17T13:43:19Z</time>
      </trkpt>
      <trkpt lat="45.40762" lon="5.74132">
        <ele>397.6</ele>
        <time>2019-04-17T13:43:21Z</time>
      </trkpt>
      <trkpt lat="45.40766" lon="5.74132">
        <ele>397.6</ele>
        <time>2019-04-17T13:43:23Z</time>
      </trkpt>
      <trkpt lat="45.4077" lon="5.74132">
        <ele>397.7</ele>
        <time>2019-04-17T13:43:25Z</time>
      </trkpt>
      <trkpt lat="45.40774" lon="5.74134">
        <ele>397.7</ele>
        <time>2019-04-17T13:43:27Z</time>
      </trkpt>
      <trkpt lat="45.40778" lon="5.74136">
        <ele>397.7</ele>
        <time>2019-04-17T13:43:29Z</time>
      </trkpt>
      <trkpt lat="45.40783" lon="5.74137">
        <ele>397.7</ele>
        <time>2019-04-17T13:43:31Z</time>
      </trkpt>
      <trkpt lat="45.40787" lon="5.74138">
        <ele>397.7</ele>
        <time>2019-04-17T13:43:33Z</time>
      </trkpt>
      <trkpt lat="45.40791" lon="5.74139">
        <ele>397.7</ele>
        <time>2019-04-17T13:43:36Z</time>
      </trkpt>
      <trkpt lat="45.40795" lon="5.74139">
        <ele>397.8</ele>
        <time>2019-04-17T13:43:38Z</time>
      </trkpt>
      <trkpt lat="45.40799" lon="5.74139">
        <ele>397.7</ele>
        <time>2019-04-17T13:43:40Z</time>
      </trkpt>
      <trkpt lat="45.40803" lon="5.7414">
        <ele>397.7</ele>
        <time>2019-04-17T13:43:42Z</time>
      </trkpt>
      <trkpt lat="45.40807" lon="5.74141">
        <ele>397.7</ele>
        <time>2019-04-17T13:43:44Z</time>
      </trkpt>
      <trkpt lat="45.40812" lon="5.74141">
        <ele>397.6</ele>
        <time>2019-04-17T13:43:46Z</time>
      </trkpt>
      <trkpt lat="45.40816" lon="5.74141">
        <ele>397.6</ele>
        <time>2019-04-17T13:43:48Z</time>
      </trkpt>
      <trkpt lat="45.40821" lon="5.74142">
        <ele>397.5</ele>
        <time>2019-04-17T13:43:50Z</time>
      </trkpt>
      <trkpt lat="45.40827" lon="5.74143">
        <ele>397.3</ele>
        <time>2019-04-17T13:43:52Z</time>
      </trkpt>
      <trkpt lat="45.4083" lon="5.74145">
        <ele>397.2</ele>
        <time>2019-04-17T13:43:53Z</time>
      </trkpt>
      <trkpt lat="45.40834" lon="5.74147">
        <ele>397</ele>
        <time>2019-04-17T13:43:54Z</time>
      </trkpt>
      <trkpt lat="45.40837" lon="5.74148">
        <ele>396.8</ele>
        <time>2019-04-17T13:43:55Z</time>
      </trkpt>
      <trkpt lat="45.40841" lon="5.7415">
        <ele>396.7</ele>
        <time>2019-04-17T13:43:56Z</time>
      </trkpt>
      <trkpt lat="45.40845" lon="5.74151">
        <ele>396.6</ele>
        <time>2019-04-17T13:43:57Z</time>
      </trkpt>
      <trkpt lat="45.40848" lon="5.74152">
        <ele>396.5</ele>
        <time>2019-04-17T13:43:58Z</time>
      </trkpt>
      <trkpt lat="45.40851" lon="5.74152">
        <ele>396.1</ele>
        <time>2019-04-17T13:43:59Z</time>
      </trkpt>
      <trkpt lat="45.40854" lon="5.74152">
        <ele>396</ele>
        <time>2019-04-17T13:44:00Z</time>
      </trkpt>
      <trkpt lat="45.40857" lon="5.74153">
        <ele>396</ele>
        <time>2019-04-17T13:44:01Z</time>
      </trkpt>
      <trkpt lat="45.40861" lon="5.74153">
        <ele>395.8</ele>
        <time>2019-04-17T13:44:02Z</time>
      </trkpt>
      <trkpt lat="45.40864" lon="5.74154">
        <ele>395.7</ele>
        <time>2019-04-17T13:44:03Z</time>
      </trkpt>
      <trkpt lat="45.40868" lon="5.74155">
        <ele>395.6</ele>
        <time>2019-04-17T13:44:04Z</time>
      </trkpt>
      <trkpt lat="45.40871" lon="5.74157">
        <ele>395.4</ele>
        <time>2019-04-17T13:44:05Z</time>
      </trkpt>
      <trkpt lat="45.40875" lon="5.74158">
        <ele>395.3</ele>
        <time>2019-04-17T13:44:06Z</time>
      </trkpt>
      <trkpt lat="45.40878" lon="5.74158">
        <ele>395.2</ele>
        <time>2019-04-17T13:44:07Z</time>
      </trkpt>
      <trkpt lat="45.40881" lon="5.74159">
        <ele>395.2</ele>
        <time>2019-04-17T13:44:08Z</time>
      </trkpt>
      <trkpt lat="45.40885" lon="5.7416">
        <ele>395</ele>
        <time>2019-04-17T13:44:09Z</time>
      </trkpt>
      <trkpt lat="45.40888" lon="5.7416">
        <ele>395</ele>
        <time>2019-04-17T13:44:10Z</time>
      </trkpt>
      <trkpt lat="45.40891" lon="5.74159">
        <ele>394.9</ele>
        <time>2019-04-17T13:44:11Z</time>
      </trkpt>
      <trkpt lat="45.40894" lon="5.74158">
        <ele>394.9</ele>
        <time>2019-04-17T13:44:12Z</time>
      </trkpt>
      <trkpt lat="45.40898" lon="5.74158">
        <ele>394.8</ele>
        <time>2019-04-17T13:44:13Z</time>
      </trkpt>
      <trkpt lat="45.40901" lon="5.74158">
        <ele>394.8</ele>
        <time>2019-04-17T13:44:14Z</time>
      </trkpt>
      <trkpt lat="45.40904" lon="5.74159">
        <ele>394.7</ele>
        <time>2019-04-17T13:44:15Z</time>
      </trkpt>
      <trkpt lat="45.40907" lon="5.74162">
        <ele>394.6</ele>
        <time>2019-04-17T13:44:16Z</time>
      </trkpt>
      <trkpt lat="45.40911" lon="5.74165">
        <ele>394.5</ele>
        <time>2019-04-17T13:44:17Z</time>
      </trkpt>
      <trkpt lat="45.40915" lon="5.74168">
        <ele>394.5</ele>
        <time>2019-04-17T13:44:18Z</time>
      </trkpt>
      <trkpt lat="45.40919" lon="5.74171">
        <ele>394.3</ele>
        <time>2019-04-17T13:44:19Z</time>
      </trkpt>
      <trkpt lat="45.40923" lon="5.74175">
        <ele>394.2</ele>
        <time>2019-04-17T13:44:20Z</time>
      </trkpt>
      <trkpt lat="45.40926" lon="5.74179">
        <ele>394</ele>
        <time>2019-04-17T13:44:21Z</time>
      </trkpt>
      <trkpt lat="45.4093" lon="5.74181">
        <ele>394</ele>
        <time>2019-04-17T13:44:22Z</time>
      </trkpt>
      <trkpt lat="45.40933" lon="5.74182">
        <ele>393.9</ele>
        <time>2019-04-17T13:44:23Z</time>
      </trkpt>
      <trkpt lat="45.40938" lon="5.74184">
        <ele>393.8</ele>
        <time>2019-04-17T13:44:24Z</time>
      </trkpt>
      <trkpt lat="45.40942" lon="5.74186">
        <ele>393.8</ele>
        <time>2019-04-17T13:44:25Z</time>
      </trkpt>
      <trkpt lat="45.40946" lon="5.7419">
        <ele>393.5</ele>
        <time>2019-04-17T13:44:26Z</time>
      </trkpt>
      <trkpt lat="45.40949" lon="5.74193">
        <ele>393.5</ele>
        <time>2019-04-17T13:44:27Z</time>
      </trkpt>
      <trkpt lat="45.40952" lon="5.74195">
        <ele>393.4</ele>
        <time>2019-04-17T13:44:28Z</time>
      </trkpt>
      <trkpt lat="45.40955" lon="5.74196">
        <ele>393.4</ele>
        <time>2019-04-17T13:44:29Z</time>
      </trkpt>
      <trkpt lat="45.40959" lon="5.74197">
        <ele>393.4</ele>
        <time>2019-04-17T13:44:30Z</time>
      </trkpt>
      <trkpt lat="45.40963" lon="5.74196">
        <ele>393.4</ele>
        <time>2019-04-17T13:44:31Z</time>
      </trkpt>
      <trkpt lat="45.40965" lon="5.74196">
        <ele>393.3</ele>
        <time>2019-04-17T13:44:32Z</time>
      </trkpt>
      <trkpt lat="45.40969" lon="5.74197">
        <ele>393.3</ele>
        <time>2019-04-17T13:44:33Z</time>
      </trkpt>
      <trkpt lat="45.40972" lon="5.74198">
        <ele>393.3</ele>
        <time>2019-04-17T13:44:34Z</time>
      </trkpt>
      <trkpt lat="45.40976" lon="5.74198">
        <ele>393.3</ele>
        <time>2019-04-17T13:44:35Z</time>
      </trkpt>
      <trkpt lat="45.40981" lon="5.742">
        <ele>393.2</ele>
        <time>2019-04-17T13:44:37Z</time>
      </trkpt>
      <trkpt lat="45.40984" lon="5.742">
        <ele>393.2</ele>
        <time>2019-04-17T13:44:38Z</time>
      </trkpt>
      <trkpt lat="45.40987" lon="5.74201">
        <ele>393.2</ele>
        <time>2019-04-17T13:44:39Z</time>
      </trkpt>
      <trkpt lat="45.40989" lon="5.742">
        <ele>393.2</ele>
        <time>2019-04-17T13:44:40Z</time>
      </trkpt>
      <trkpt lat="45.40992" lon="5.74199">
        <ele>393.3</ele>
        <time>2019-04-17T13:44:41Z</time>
      </trkpt>
      <trkpt lat="45.40994" lon="5.74198">
        <ele>393.3</ele>
        <time>2019-04-17T13:44:42Z</time>
      </trkpt>
      <trkpt lat="45.40998" lon="5.742">
        <ele>393.2</ele>
        <time>2019-04-17T13:44:44Z</time>
      </trkpt>
      <trkpt lat="45.41001" lon="5.74201">
        <ele>393.3</ele>
        <time>2019-04-17T13:44:45Z</time>
      </trkpt>
      <trkpt lat="45.41004" lon="5.74203">
        <ele>393.3</ele>
        <time>2019-04-17T13:44:46Z</time>
      </trkpt>
      <trkpt lat="45.41007" lon="5.74206">
        <ele>393.3</ele>
        <time>2019-04-17T13:44:47Z</time>
      </trkpt>
      <trkpt lat="45.41011" lon="5.74209">
        <ele>393.2</ele>
        <time>2019-04-17T13:44:48Z</time>
      </trkpt>
      <trkpt lat="45.41014" lon="5.74211">
        <ele>393.3</ele>
        <time>2019-04-17T13:44:49Z</time>
      </trkpt>
      <trkpt lat="45.41018" lon="5.74213">
        <ele>393.3</ele>
        <time>2019-04-17T13:44:51Z</time>
      </trkpt>
      <trkpt lat="45.4102" lon="5.74216">
        <ele>393.3</ele>
        <time>2019-04-17T13:44:53Z</time>
      </trkpt>
      <trkpt lat="45.41024" lon="5.74217">
        <ele>393.4</ele>
        <time>2019-04-17T13:44:55Z</time>
      </trkpt>
      <trkpt lat="45.41029" lon="5.74218">
        <ele>393.5</ele>
        <time>2019-04-17T13:44:57Z</time>
      </trkpt>
      <trkpt lat="45.41033" lon="5.74221">
        <ele>393.5</ele>
        <time>2019-04-17T13:44:59Z</time>
      </trkpt>
      <trkpt lat="45.41037" lon="5.74223">
        <ele>393.6</ele>
        <time>2019-04-17T13:45:01Z</time>
      </trkpt>
      <trkpt lat="45.41042" lon="5.74225">
        <ele>393.7</ele>
        <time>2019-04-17T13:45:03Z</time>
      </trkpt>
      <trkpt lat="45.41048" lon="5.74226">
        <ele>393.8</ele>
        <time>2019-04-17T13:45:05Z</time>
      </trkpt>
      <trkpt lat="45.41053" lon="5.74226">
        <ele>393.9</ele>
        <time>2019-04-17T13:45:07Z</time>
      </trkpt>
      <trkpt lat="45.41057" lon="5.74228">
        <ele>394</ele>
        <time>2019-04-17T13:45:09Z</time>
      </trkpt>
      <trkpt lat="45.41063" lon="5.74229">
        <ele>394</ele>
        <time>2019-04-17T13:45:11Z</time>
      </trkpt>
      <trkpt lat="45.41066" lon="5.74229">
        <ele>394</ele>
        <time>2019-04-17T13:45:12Z</time>
      </trkpt>
      <trkpt lat="45.41069" lon="5.74229">
        <ele>394</ele>
        <time>2019-04-17T13:45:13Z</time>
      </trkpt>
      <trkpt lat="45.41072" lon="5.7423">
        <ele>394</ele>
        <time>2019-04-17T13:45:14Z</time>
      </trkpt>
      <trkpt lat="45.41076" lon="5.7423">
        <ele>394</ele>
        <time>2019-04-17T13:45:15Z</time>
      </trkpt>
      <trkpt lat="45.4108" lon="5.74231">
        <ele>394</ele>
        <time>2019-04-17T13:45:16Z</time>
      </trkpt>
      <trkpt lat="45.41084" lon="5.74232">
        <ele>393.9</ele>
        <time>2019-04-17T13:45:17Z</time>
      </trkpt>
      <trkpt lat="45.41088" lon="5.74232">
        <ele>393.9</ele>
        <time>2019-04-17T13:45:18Z</time>
      </trkpt>
      <trkpt lat="45.41093" lon="5.74233">
        <ele>393.8</ele>
        <time>2019-04-17T13:45:19Z</time>
      </trkpt>
      <trkpt lat="45.41097" lon="5.74233">
        <ele>393.8</ele>
        <time>2019-04-17T13:45:20Z</time>
      </trkpt>
      <trkpt lat="45.41101" lon="5.74234">
        <ele>393.7</ele>
        <time>2019-04-17T13:45:21Z</time>
      </trkpt>
      <trkpt lat="45.41105" lon="5.74236">
        <ele>393.6</ele>
        <time>2019-04-17T13:45:22Z</time>
      </trkpt>
      <trkpt lat="45.41109" lon="5.74238">
        <ele>393.5</ele>
        <time>2019-04-17T13:45:23Z</time>
      </trkpt>
      <trkpt lat="45.41112" lon="5.74239">
        <ele>393.4</ele>
        <time>2019-04-17T13:45:24Z</time>
      </trkpt>
      <trkpt lat="45.41115" lon="5.7424">
        <ele>393.3</ele>
        <time>2019-04-17T13:45:25Z</time>
      </trkpt>
      <trkpt lat="45.41119" lon="5.74242">
        <ele>393.2</ele>
        <time>2019-04-17T13:45:27Z</time>
      </trkpt>
      <trkpt lat="45.41124" lon="5.74245">
        <ele>393.1</ele>
        <time>2019-04-17T13:45:29Z</time>
      </trkpt>
      <trkpt lat="45.41128" lon="5.74248">
        <ele>393</ele>
        <time>2019-04-17T13:45:31Z</time>
      </trkpt>
      <trkpt lat="45.41131" lon="5.74249">
        <ele>392.9</ele>
        <time>2019-04-17T13:45:32Z</time>
      </trkpt>
      <trkpt lat="45.41136" lon="5.7425">
        <ele>392.8</ele>
        <time>2019-04-17T13:45:34Z</time>
      </trkpt>
      <trkpt lat="45.41139" lon="5.74251">
        <ele>392.7</ele>
        <time>2019-04-17T13:45:35Z</time>
      </trkpt>
      <trkpt lat="45.41142" lon="5.74251">
        <ele>392.6</ele>
        <time>2019-04-17T13:45:36Z</time>
      </trkpt>
      <trkpt lat="45.41146" lon="5.74252">
        <ele>392.6</ele>
        <time>2019-04-17T13:45:37Z</time>
      </trkpt>
      <trkpt lat="45.41151" lon="5.74254">
        <ele>392.5</ele>
        <time>2019-04-17T13:45:38Z</time>
      </trkpt>
      <trkpt lat="45.41154" lon="5.74255">
        <ele>392.4</ele>
        <time>2019-04-17T13:45:39Z</time>
      </trkpt>
      <trkpt lat="45.41158" lon="5.74257">
        <ele>392.3</ele>
        <time>2019-04-17T13:45:40Z</time>
      </trkpt>
      <trkpt lat="45.41163" lon="5.7426">
        <ele>392.1</ele>
        <time>2019-04-17T13:45:41Z</time>
      </trkpt>
      <trkpt lat="45.41167" lon="5.74262">
        <ele>392.1</ele>
        <time>2019-04-17T13:45:42Z</time>
      </trkpt>
      <trkpt lat="45.41172" lon="5.74264">
        <ele>391.9</ele>
        <time>2019-04-17T13:45:43Z</time>
      </trkpt>
      <trkpt lat="45.41176" lon="5.74265">
        <ele>391.9</ele>
        <time>2019-04-17T13:45:44Z</time>
      </trkpt>
      <trkpt lat="45.41179" lon="5.74266">
        <ele>391.8</ele>
        <time>2019-04-17T13:45:45Z</time>
      </trkpt>
      <trkpt lat="45.41183" lon="5.74267">
        <ele>391.8</ele>
        <time>2019-04-17T13:45:46Z</time>
      </trkpt>
      <trkpt lat="45.41187" lon="5.74268">
        <ele>391.7</ele>
        <time>2019-04-17T13:45:47Z</time>
      </trkpt>
      <trkpt lat="45.41191" lon="5.74268">
        <ele>391.6</ele>
        <time>2019-04-17T13:45:48Z</time>
      </trkpt>
      <trkpt lat="45.41194" lon="5.74269">
        <ele>391.6</ele>
        <time>2019-04-17T13:45:49Z</time>
      </trkpt>
      <trkpt lat="45.41198" lon="5.74269">
        <ele>391.5</ele>
        <time>2019-04-17T13:45:50Z</time>
      </trkpt>
      <trkpt lat="45.41201" lon="5.7427">
        <ele>391.5</ele>
        <time>2019-04-17T13:45:51Z</time>
      </trkpt>
      <trkpt lat="45.41205" lon="5.74272">
        <ele>391.5</ele>
        <time>2019-04-17T13:45:52Z</time>
      </trkpt>
      <trkpt lat="45.41209" lon="5.74273">
        <ele>391.4</ele>
        <time>2019-04-17T13:45:53Z</time>
      </trkpt>
      <trkpt lat="45.41212" lon="5.74273">
        <ele>391.4</ele>
        <time>2019-04-17T13:45:54Z</time>
      </trkpt>
      <trkpt lat="45.41215" lon="5.74274">
        <ele>391.3</ele>
        <time>2019-04-17T13:45:55Z</time>
      </trkpt>
      <trkpt lat="45.41219" lon="5.74275">
        <ele>391.3</ele>
        <time>2019-04-17T13:45:56Z</time>
      </trkpt>
      <trkpt lat="45.41222" lon="5.74276">
        <ele>391.2</ele>
        <time>2019-04-17T13:45:57Z</time>
      </trkpt>
      <trkpt lat="45.41225" lon="5.74278">
        <ele>391.2</ele>
        <time>2019-04-17T13:45:58Z</time>
      </trkpt>
      <trkpt lat="45.41229" lon="5.74279">
        <ele>391.2</ele>
        <time>2019-04-17T13:45:59Z</time>
      </trkpt>
      <trkpt lat="45.41232" lon="5.74281">
        <ele>391.1</ele>
        <time>2019-04-17T13:46:00Z</time>
      </trkpt>
      <trkpt lat="45.41235" lon="5.74282">
        <ele>391.1</ele>
        <time>2019-04-17T13:46:01Z</time>
      </trkpt>
      <trkpt lat="45.41239" lon="5.74282">
        <ele>391.1</ele>
        <time>2019-04-17T13:46:02Z</time>
      </trkpt>
      <trkpt lat="45.41242" lon="5.74283">
        <ele>391</ele>
        <time>2019-04-17T13:46:03Z</time>
      </trkpt>
      <trkpt lat="45.41245" lon="5.74284">
        <ele>391</ele>
        <time>2019-04-17T13:46:04Z</time>
      </trkpt>
      <trkpt lat="45.41249" lon="5.74286">
        <ele>391</ele>
        <time>2019-04-17T13:46:05Z</time>
      </trkpt>
      <trkpt lat="45.41253" lon="5.74287">
        <ele>390.9</ele>
        <time>2019-04-17T13:46:06Z</time>
      </trkpt>
      <trkpt lat="45.41257" lon="5.74289">
        <ele>390.9</ele>
        <time>2019-04-17T13:46:07Z</time>
      </trkpt>
      <trkpt lat="45.41261" lon="5.74291">
        <ele>390.8</ele>
        <time>2019-04-17T13:46:08Z</time>
      </trkpt>
      <trkpt lat="45.41265" lon="5.74294">
        <ele>390.8</ele>
        <time>2019-04-17T13:46:09Z</time>
      </trkpt>
      <trkpt lat="45.41269" lon="5.74294">
        <ele>390.8</ele>
        <time>2019-04-17T13:46:10Z</time>
      </trkpt>
      <trkpt lat="45.41272" lon="5.74295">
        <ele>390.7</ele>
        <time>2019-04-17T13:46:11Z</time>
      </trkpt>
      <trkpt lat="45.41275" lon="5.74296">
        <ele>390.7</ele>
        <time>2019-04-17T13:46:12Z</time>
      </trkpt>
      <trkpt lat="45.41278" lon="5.74298">
        <ele>390.7</ele>
        <time>2019-04-17T13:46:13Z</time>
      </trkpt>
      <trkpt lat="45.41282" lon="5.743">
        <ele>390.7</ele>
        <time>2019-04-17T13:46:14Z</time>
      </trkpt>
      <trkpt lat="45.41286" lon="5.74302">
        <ele>390.6</ele>
        <time>2019-04-17T13:46:15Z</time>
      </trkpt>
      <trkpt lat="45.4129" lon="5.74302">
        <ele>390.6</ele>
        <time>2019-04-17T13:46:16Z</time>
      </trkpt>
      <trkpt lat="45.41294" lon="5.74302">
        <ele>390.6</ele>
        <time>2019-04-17T13:46:17Z</time>
      </trkpt>
      <trkpt lat="45.41297" lon="5.74302">
        <ele>390.6</ele>
        <time>2019-04-17T13:46:18Z</time>
      </trkpt>
      <trkpt lat="45.413" lon="5.74301">
        <ele>390.6</ele>
        <time>2019-04-17T13:46:19Z</time>
      </trkpt>
      <trkpt lat="45.41305" lon="5.74302">
        <ele>390.6</ele>
        <time>2019-04-17T13:46:20Z</time>
      </trkpt>
      <trkpt lat="45.41308" lon="5.74303">
        <ele>390.6</ele>
        <time>2019-04-17T13:46:21Z</time>
      </trkpt>
      <trkpt lat="45.41311" lon="5.74304">
        <ele>390.6</ele>
        <time>2019-04-17T13:46:22Z</time>
      </trkpt>
      <trkpt lat="45.41314" lon="5.74305">
        <ele>390.6</ele>
        <time>2019-04-17T13:46:23Z</time>
      </trkpt>
      <trkpt lat="45.41317" lon="5.74305">
        <ele>390.6</ele>
        <time>2019-04-17T13:46:24Z</time>
      </trkpt>
      <trkpt lat="45.41321" lon="5.74303">
        <ele>390.6</ele>
        <time>2019-04-17T13:46:26Z</time>
      </trkpt>
      <trkpt lat="45.41322" lon="5.74298">
        <ele>390.7</ele>
        <time>2019-04-17T13:46:28Z</time>
      </trkpt>
      <trkpt lat="45.41323" lon="5.74293">
        <ele>390.7</ele>
        <time>2019-04-17T13:46:30Z</time>
      </trkpt>
      <trkpt lat="45.41324" lon="5.74287">
        <ele>390.8</ele>
        <time>2019-04-17T13:46:33Z</time>
      </trkpt>
      <trkpt lat="45.41325" lon="5.7428">
        <ele>390.8</ele>
        <time>2019-04-17T13:46:35Z</time>
      </trkpt>
      <trkpt lat="45.41326" lon="5.74274">
        <ele>390.8</ele>
        <time>2019-04-17T13:46:37Z</time>
      </trkpt>
      <trkpt lat="45.41329" lon="5.74268">
        <ele>390.7</ele>
        <time>2019-04-17T13:46:39Z</time>
      </trkpt>
      <trkpt lat="45.41332" lon="5.74265">
        <ele>390.6</ele>
        <time>2019-04-17T13:46:41Z</time>
      </trkpt>
      <trkpt lat="45.41336" lon="5.74263">
        <ele>390.6</ele>
        <time>2019-04-17T13:46:44Z</time>
      </trkpt>
      <trkpt lat="45.41339" lon="5.7426">
        <ele>390.6</ele>
        <time>2019-04-17T13:46:51Z</time>
      </trkpt>
      <trkpt lat="45.41343" lon="5.74258">
        <ele>390.6</ele>
        <time>2019-04-17T13:46:53Z</time>
      </trkpt>
      <trkpt lat="45.41346" lon="5.74258">
        <ele>390.6</ele>
        <time>2019-04-17T13:46:54Z</time>
      </trkpt>
      <trkpt lat="45.4135" lon="5.74259">
        <ele>390.6</ele>
        <time>2019-04-17T13:46:56Z</time>
      </trkpt>
      <trkpt lat="45.41355" lon="5.74262">
        <ele>390.6</ele>
        <time>2019-04-17T13:46:58Z</time>
      </trkpt>
      <trkpt lat="45.41359" lon="5.74265">
        <ele>390.6</ele>
        <time>2019-04-17T13:47:00Z</time>
      </trkpt>
      <trkpt lat="45.41363" lon="5.74268">
        <ele>390.5</ele>
        <time>2019-04-17T13:47:02Z</time>
      </trkpt>
      <trkpt lat="45.41367" lon="5.7427">
        <ele>390.5</ele>
        <time>2019-04-17T13:47:04Z</time>
      </trkpt>
      <trkpt lat="45.41371" lon="5.74271">
        <ele>390.5</ele>
        <time>2019-04-17T13:47:06Z</time>
      </trkpt>
      <trkpt lat="45.41377" lon="5.7427">
        <ele>390.4</ele>
        <time>2019-04-17T13:47:08Z</time>
      </trkpt>
      <trkpt lat="45.4138" lon="5.74269">
        <ele>390.4</ele>
        <time>2019-04-17T13:47:09Z</time>
      </trkpt>
      <trkpt lat="45.41383" lon="5.74267">
        <ele>390.4</ele>
        <time>2019-04-17T13:47:10Z</time>
      </trkpt>
      <trkpt lat="45.41386" lon="5.74266">
        <ele>390.3</ele>
        <time>2019-04-17T13:47:11Z</time>
      </trkpt>
      <trkpt lat="45.4139" lon="5.74266">
        <ele>390.3</ele>
        <time>2019-04-17T13:47:13Z</time>
      </trkpt>
      <trkpt lat="45.41394" lon="5.74266">
        <ele>390.3</ele>
        <time>2019-04-17T13:47:15Z</time>
      </trkpt>
      <trkpt lat="45.41397" lon="5.74264">
        <ele>390.3</ele>
        <time>2019-04-17T13:47:17Z</time>
      </trkpt>
      <trkpt lat="45.41397" lon="5.74259">
        <ele>390.3</ele>
        <time>2019-04-17T13:47:20Z</time>
      </trkpt>
      <trkpt lat="45.41397" lon="5.74253">
        <ele>390.3</ele>
        <time>2019-04-17T13:47:22Z</time>
      </trkpt>
      <trkpt lat="45.41396" lon="5.74247">
        <ele>390.4</ele>
        <time>2019-04-17T13:47:24Z</time>
      </trkpt>
      <trkpt lat="45.41396" lon="5.74239">
        <ele>390.4</ele>
        <time>2019-04-17T13:47:26Z</time>
      </trkpt>
      <trkpt lat="45.41397" lon="5.74232">
        <ele>390.5</ele>
        <time>2019-04-17T13:47:28Z</time>
      </trkpt>
      <trkpt lat="45.41398" lon="5.74228">
        <ele>390.5</ele>
        <time>2019-04-17T13:47:29Z</time>
      </trkpt>
      <trkpt lat="45.41398" lon="5.74224">
        <ele>390.5</ele>
        <time>2019-04-17T13:47:30Z</time>
      </trkpt>
      <trkpt lat="45.41399" lon="5.7422">
        <ele>390.5</ele>
        <time>2019-04-17T13:47:31Z</time>
      </trkpt>
      <trkpt lat="45.414" lon="5.74215">
        <ele>390.5</ele>
        <time>2019-04-17T13:47:32Z</time>
      </trkpt>
      <trkpt lat="45.41401" lon="5.74211">
        <ele>390.5</ele>
        <time>2019-04-17T13:47:33Z</time>
      </trkpt>
      <trkpt lat="45.41402" lon="5.74206">
        <ele>390.5</ele>
        <time>2019-04-17T13:47:34Z</time>
      </trkpt>
      <trkpt lat="45.41403" lon="5.74201">
        <ele>390.5</ele>
        <time>2019-04-17T13:47:35Z</time>
      </trkpt>
      <trkpt lat="45.41404" lon="5.74196">
        <ele>390.6</ele>
        <time>2019-04-17T13:47:36Z</time>
      </trkpt>
      <trkpt lat="45.41404" lon="5.74191">
        <ele>390.6</ele>
        <time>2019-04-17T13:47:37Z</time>
      </trkpt>
      <trkpt lat="45.41405" lon="5.74186">
        <ele>390.7</ele>
        <time>2019-04-17T13:47:38Z</time>
      </trkpt>
      <trkpt lat="45.41406" lon="5.7418">
        <ele>390.8</ele>
        <time>2019-04-17T13:47:39Z</time>
      </trkpt>
      <trkpt lat="45.41406" lon="5.74174">
        <ele>390.9</ele>
        <time>2019-04-17T13:47:40Z</time>
      </trkpt>
      <trkpt lat="45.41407" lon="5.74169">
        <ele>391</ele>
        <time>2019-04-17T13:47:41Z</time>
      </trkpt>
      <trkpt lat="45.41407" lon="5.74164">
        <ele>391</ele>
        <time>2019-04-17T13:47:42Z</time>
      </trkpt>
      <trkpt lat="45.41407" lon="5.74159">
        <ele>391.1</ele>
        <time>2019-04-17T13:47:43Z</time>
      </trkpt>
      <trkpt lat="45.41406" lon="5.74155">
        <ele>391.1</ele>
        <time>2019-04-17T13:47:44Z</time>
      </trkpt>
      <trkpt lat="45.41403" lon="5.74151">
        <ele>391.2</ele>
        <time>2019-04-17T13:47:46Z</time>
      </trkpt>
      <trkpt lat="45.414" lon="5.74151">
        <ele>391.3</ele>
        <time>2019-04-17T13:47:48Z</time>
      </trkpt>
      <trkpt lat="45.41396" lon="5.74149">
        <ele>391.4</ele>
        <time>2019-04-17T13:47:50Z</time>
      </trkpt>
      <trkpt lat="45.41394" lon="5.74147">
        <ele>391.5</ele>
        <time>2019-04-17T13:47:52Z</time>
      </trkpt>
      <trkpt lat="45.41391" lon="5.74142">
        <ele>391.7</ele>
        <time>2019-04-17T13:47:54Z</time>
      </trkpt>
      <trkpt lat="45.41387" lon="5.74137">
        <ele>391.9</ele>
        <time>2019-04-17T13:47:56Z</time>
      </trkpt>
      <trkpt lat="45.41383" lon="5.74132">
        <ele>392</ele>
        <time>2019-04-17T13:47:58Z</time>
      </trkpt>
      <trkpt lat="45.4138" lon="5.74128">
        <ele>392.1</ele>
        <time>2019-04-17T13:48:00Z</time>
      </trkpt>
      <trkpt lat="45.41376" lon="5.74124">
        <ele>392.3</ele>
        <time>2019-04-17T13:48:02Z</time>
      </trkpt>
      <trkpt lat="45.41372" lon="5.7412">
        <ele>392.4</ele>
        <time>2019-04-17T13:48:04Z</time>
      </trkpt>
      <trkpt lat="45.41368" lon="5.74116">
        <ele>392.5</ele>
        <time>2019-04-17T13:48:06Z</time>
      </trkpt>
      <trkpt lat="45.41365" lon="5.74114">
        <ele>392.5</ele>
        <time>2019-04-17T13:48:07Z</time>
      </trkpt>
      <trkpt lat="45.41363" lon="5.74111">
        <ele>392.5</ele>
        <time>2019-04-17T13:48:08Z</time>
      </trkpt>
      <trkpt lat="45.4136" lon="5.74109">
        <ele>392.6</ele>
        <time>2019-04-17T13:48:09Z</time>
      </trkpt>
      <trkpt lat="45.41357" lon="5.74107">
        <ele>392.6</ele>
        <time>2019-04-17T13:48:10Z</time>
      </trkpt>
      <trkpt lat="45.41354" lon="5.74104">
        <ele>392.7</ele>
        <time>2019-04-17T13:48:11Z</time>
      </trkpt>
      <trkpt lat="45.41351" lon="5.74101">
        <ele>392.8</ele>
        <time>2019-04-17T13:48:12Z</time>
      </trkpt>
      <trkpt lat="45.41349" lon="5.74098">
        <ele>392.8</ele>
        <time>2019-04-17T13:48:13Z</time>
      </trkpt>
      <trkpt lat="45.41346" lon="5.74095">
        <ele>392.9</ele>
        <time>2019-04-17T13:48:14Z</time>
      </trkpt>
      <trkpt lat="45.41343" lon="5.74092">
        <ele>393</ele>
        <time>2019-04-17T13:48:15Z</time>
      </trkpt>
      <trkpt lat="45.41339" lon="5.74089">
        <ele>393.1</ele>
        <time>2019-04-17T13:48:16Z</time>
      </trkpt>
      <trkpt lat="45.41336" lon="5.74085">
        <ele>393.2</ele>
        <time>2019-04-17T13:48:17Z</time>
      </trkpt>
      <trkpt lat="45.41333" lon="5.74082">
        <ele>393.2</ele>
        <time>2019-04-17T13:48:18Z</time>
      </trkpt>
      <trkpt lat="45.4133" lon="5.74079">
        <ele>393.3</ele>
        <time>2019-04-17T13:48:19Z</time>
      </trkpt>
      <trkpt lat="45.41328" lon="5.74077">
        <ele>393.4</ele>
        <time>2019-04-17T13:48:20Z</time>
      </trkpt>
      <trkpt lat="45.41326" lon="5.74074">
        <ele>393.5</ele>
        <time>2019-04-17T13:48:21Z</time>
      </trkpt>
      <trkpt lat="45.41323" lon="5.74072">
        <ele>393.5</ele>
        <time>2019-04-17T13:48:22Z</time>
      </trkpt>
      <trkpt lat="45.41321" lon="5.7407">
        <ele>393.6</ele>
        <time>2019-04-17T13:48:23Z</time>
      </trkpt>
      <trkpt lat="45.41319" lon="5.74068">
        <ele>393.7</ele>
        <time>2019-04-17T13:48:24Z</time>
      </trkpt>
      <trkpt lat="45.41317" lon="5.74065">
        <ele>393.8</ele>
        <time>2019-04-17T13:48:25Z</time>
      </trkpt>
      <trkpt lat="45.41314" lon="5.74063">
        <ele>393.8</ele>
        <time>2019-04-17T13:48:26Z</time>
      </trkpt>
      <trkpt lat="45.41312" lon="5.74061">
        <ele>393.9</ele>
        <time>2019-04-17T13:48:27Z</time>
      </trkpt>
      <trkpt lat="45.41309" lon="5.74059">
        <ele>393.9</ele>
        <time>2019-04-17T13:48:28Z</time>
      </trkpt>
      <trkpt lat="45.41305" lon="5.74055">
        <ele>394</ele>
        <time>2019-04-17T13:48:30Z</time>
      </trkpt>
      <trkpt lat="45.413" lon="5.74051">
        <ele>394.2</ele>
        <time>2019-04-17T13:48:32Z</time>
      </trkpt>
      <trkpt lat="45.41297" lon="5.74048">
        <ele>394.3</ele>
        <time>2019-04-17T13:48:33Z</time>
      </trkpt>
      <trkpt lat="45.41294" lon="5.74046">
        <ele>394.5</ele>
        <time>2019-04-17T13:48:34Z</time>
      </trkpt>
      <trkpt lat="45.41291" lon="5.74043">
        <ele>394.7</ele>
        <time>2019-04-17T13:48:35Z</time>
      </trkpt>
      <trkpt lat="45.41289" lon="5.7404">
        <ele>394.9</ele>
        <time>2019-04-17T13:48:36Z</time>
      </trkpt>
      <trkpt lat="45.41287" lon="5.74037">
        <ele>395.1</ele>
        <time>2019-04-17T13:48:37Z</time>
      </trkpt>
      <trkpt lat="45.41286" lon="5.74034">
        <ele>395.3</ele>
        <time>2019-04-17T13:48:38Z</time>
      </trkpt>
      <trkpt lat="45.41285" lon="5.74029">
        <ele>395.5</ele>
        <time>2019-04-17T13:48:40Z</time>
      </trkpt>
      <trkpt lat="45.41286" lon="5.74024">
        <ele>395.6</ele>
        <time>2019-04-17T13:48:42Z</time>
      </trkpt>
      <trkpt lat="45.41287" lon="5.74019">
        <ele>395.8</ele>
        <time>2019-04-17T13:48:44Z</time>
      </trkpt>
      <trkpt lat="45.41289" lon="5.74014">
        <ele>396</ele>
        <time>2019-04-17T13:48:46Z</time>
      </trkpt>
      <trkpt lat="45.41291" lon="5.74009">
        <ele>396.1</ele>
        <time>2019-04-17T13:48:48Z</time>
      </trkpt>
      <trkpt lat="45.41293" lon="5.74004">
        <ele>396.3</ele>
        <time>2019-04-17T13:48:50Z</time>
      </trkpt>
      <trkpt lat="45.41296" lon="5.73997">
        <ele>396.4</ele>
        <time>2019-04-17T13:48:52Z</time>
      </trkpt>
      <trkpt lat="45.41298" lon="5.73994">
        <ele>396.5</ele>
        <time>2019-04-17T13:48:53Z</time>
      </trkpt>
      <trkpt lat="45.41299" lon="5.7399">
        <ele>396.6</ele>
        <time>2019-04-17T13:48:54Z</time>
      </trkpt>
      <trkpt lat="45.41301" lon="5.73986">
        <ele>396.6</ele>
        <time>2019-04-17T13:48:55Z</time>
      </trkpt>
      <trkpt lat="45.41303" lon="5.73983">
        <ele>396.7</ele>
        <time>2019-04-17T13:48:56Z</time>
      </trkpt>
      <trkpt lat="45.41304" lon="5.73979">
        <ele>396.7</ele>
        <time>2019-04-17T13:48:57Z</time>
      </trkpt>
      <trkpt lat="45.41306" lon="5.73975">
        <ele>396.8</ele>
        <time>2019-04-17T13:48:58Z</time>
      </trkpt>
      <trkpt lat="45.41308" lon="5.73971">
        <ele>396.8</ele>
        <time>2019-04-17T13:48:59Z</time>
      </trkpt>
      <trkpt lat="45.41311" lon="5.73963">
        <ele>396.8</ele>
        <time>2019-04-17T13:49:00Z</time>
      </trkpt>
      <trkpt lat="45.41314" lon="5.73958">
        <ele>396.9</ele>
        <time>2019-04-17T13:49:01Z</time>
      </trkpt>
      <trkpt lat="45.41317" lon="5.73952">
        <ele>397</ele>
        <time>2019-04-17T13:49:02Z</time>
      </trkpt>
      <trkpt lat="45.4132" lon="5.73946">
        <ele>397.1</ele>
        <time>2019-04-17T13:49:03Z</time>
      </trkpt>
      <trkpt lat="45.41323" lon="5.73941">
        <ele>397.3</ele>
        <time>2019-04-17T13:49:04Z</time>
      </trkpt>
      <trkpt lat="45.41325" lon="5.73936">
        <ele>397.5</ele>
        <time>2019-04-17T13:49:05Z</time>
      </trkpt>
      <trkpt lat="45.41327" lon="5.73932">
        <ele>397.6</ele>
        <time>2019-04-17T13:49:06Z</time>
      </trkpt>
      <trkpt lat="45.41329" lon="5.73928">
        <ele>397.6</ele>
        <time>2019-04-17T13:49:07Z</time>
      </trkpt>
      <trkpt lat="45.41331" lon="5.73925">
        <ele>397.7</ele>
        <time>2019-04-17T13:49:08Z</time>
      </trkpt>
      <trkpt lat="45.41333" lon="5.73921">
        <ele>397.7</ele>
        <time>2019-04-17T13:49:09Z</time>
      </trkpt>
      <trkpt lat="45.41336" lon="5.73917">
        <ele>397.7</ele>
        <time>2019-04-17T13:49:10Z</time>
      </trkpt>
      <trkpt lat="45.41338" lon="5.73912">
        <ele>397.7</ele>
        <time>2019-04-17T13:49:11Z</time>
      </trkpt>
      <trkpt lat="45.41341" lon="5.73908">
        <ele>397.7</ele>
        <time>2019-04-17T13:49:12Z</time>
      </trkpt>
      <trkpt lat="45.41343" lon="5.73904">
        <ele>397.8</ele>
        <time>2019-04-17T13:49:13Z</time>
      </trkpt>
      <trkpt lat="45.41345" lon="5.739">
        <ele>397.8</ele>
        <time>2019-04-17T13:49:14Z</time>
      </trkpt>
      <trkpt lat="45.41347" lon="5.73895">
        <ele>397.9</ele>
        <time>2019-04-17T13:49:15Z</time>
      </trkpt>
      <trkpt lat="45.41349" lon="5.73891">
        <ele>398</ele>
        <time>2019-04-17T13:49:16Z</time>
      </trkpt>
      <trkpt lat="45.41351" lon="5.73886">
        <ele>398.1</ele>
        <time>2019-04-17T13:49:17Z</time>
      </trkpt>
      <trkpt lat="45.41354" lon="5.73883">
        <ele>398.2</ele>
        <time>2019-04-17T13:49:18Z</time>
      </trkpt>
      <trkpt lat="45.41357" lon="5.73879">
        <ele>398.4</ele>
        <time>2019-04-17T13:49:19Z</time>
      </trkpt>
      <trkpt lat="45.41359" lon="5.73875">
        <ele>398.5</ele>
        <time>2019-04-17T13:49:20Z</time>
      </trkpt>
      <trkpt lat="45.41361" lon="5.73872">
        <ele>398.6</ele>
        <time>2019-04-17T13:49:21Z</time>
      </trkpt>
      <trkpt lat="45.41362" lon="5.73869">
        <ele>398.8</ele>
        <time>2019-04-17T13:49:22Z</time>
      </trkpt>
      <trkpt lat="45.41364" lon="5.73865">
        <ele>398.9</ele>
        <time>2019-04-17T13:49:23Z</time>
      </trkpt>
      <trkpt lat="45.41366" lon="5.73862">
        <ele>399.1</ele>
        <time>2019-04-17T13:49:24Z</time>
      </trkpt>
      <trkpt lat="45.41367" lon="5.73858">
        <ele>399.2</ele>
        <time>2019-04-17T13:49:25Z</time>
      </trkpt>
      <trkpt lat="45.4137" lon="5.73851">
        <ele>399.4</ele>
        <time>2019-04-17T13:49:27Z</time>
      </trkpt>
      <trkpt lat="45.41372" lon="5.73848">
        <ele>399.4</ele>
        <time>2019-04-17T13:49:28Z</time>
      </trkpt>
      <trkpt lat="45.41373" lon="5.73844">
        <ele>399.5</ele>
        <time>2019-04-17T13:49:29Z</time>
      </trkpt>
      <trkpt lat="45.41375" lon="5.7384">
        <ele>399.5</ele>
        <time>2019-04-17T13:49:30Z</time>
      </trkpt>
      <trkpt lat="45.41376" lon="5.73836">
        <ele>399.6</ele>
        <time>2019-04-17T13:49:31Z</time>
      </trkpt>
      <trkpt lat="45.41377" lon="5.73833">
        <ele>399.6</ele>
        <time>2019-04-17T13:49:32Z</time>
      </trkpt>
      <trkpt lat="45.41378" lon="5.73827">
        <ele>399.6</ele>
        <time>2019-04-17T13:49:34Z</time>
      </trkpt>
      <trkpt lat="45.41375" lon="5.73827">
        <ele>399.6</ele>
        <time>2019-04-17T13:50:51Z</time>
      </trkpt>
      <trkpt lat="45.41372" lon="5.73825">
        <ele>399.6</ele>
        <time>2019-04-17T13:50:53Z</time>
      </trkpt>
      <trkpt lat="45.41369" lon="5.73822">
        <ele>399.6</ele>
        <time>2019-04-17T13:50:56Z</time>
      </trkpt>
      <trkpt lat="45.41366" lon="5.7382">
        <ele>399.6</ele>
        <time>2019-04-17T13:50:58Z</time>
      </trkpt>
      <trkpt lat="45.41363" lon="5.73817">
        <ele>399.6</ele>
        <time>2019-04-17T13:51:01Z</time>
      </trkpt>
      <trkpt lat="45.41361" lon="5.73813">
        <ele>399.6</ele>
        <time>2019-04-17T13:51:04Z</time>
      </trkpt>
      <trkpt lat="45.4136" lon="5.7381">
        <ele>399.6</ele>
        <time>2019-04-17T13:51:06Z</time>
      </trkpt>
      <trkpt lat="45.41361" lon="5.73805">
        <ele>400.3</ele>
        <time>2019-04-17T13:51:08Z</time>
      </trkpt>
      <trkpt lat="45.41363" lon="5.73801">
        <ele>400.9</ele>
        <time>2019-04-17T13:51:10Z</time>
      </trkpt>
      <trkpt lat="45.41365" lon="5.73796">
        <ele>401.5</ele>
        <time>2019-04-17T13:51:12Z</time>
      </trkpt>
      <trkpt lat="45.41369" lon="5.7379">
        <ele>402.1</ele>
        <time>2019-04-17T13:51:14Z</time>
      </trkpt>
      <trkpt lat="45.41372" lon="5.73787">
        <ele>402</ele>
        <time>2019-04-17T13:51:15Z</time>
      </trkpt>
      <trkpt lat="45.41376" lon="5.73785">
        <ele>401.9</ele>
        <time>2019-04-17T13:51:16Z</time>
      </trkpt>
      <trkpt lat="45.41381" lon="5.73786">
        <ele>401.9</ele>
        <time>2019-04-17T13:51:18Z</time>
      </trkpt>
      <trkpt lat="45.41384" lon="5.73788">
        <ele>401.8</ele>
        <time>2019-04-17T13:51:19Z</time>
      </trkpt>
      <trkpt lat="45.41386" lon="5.73791">
        <ele>401.7</ele>
        <time>2019-04-17T13:51:20Z</time>
      </trkpt>
      <trkpt lat="45.41389" lon="5.73796">
        <ele>401.6</ele>
        <time>2019-04-17T13:51:21Z</time>
      </trkpt>
      <trkpt lat="45.41391" lon="5.738">
        <ele>401.5</ele>
        <time>2019-04-17T13:51:22Z</time>
      </trkpt>
      <trkpt lat="45.41393" lon="5.73805">
        <ele>401.4</ele>
        <time>2019-04-17T13:51:23Z</time>
      </trkpt>
      <trkpt lat="45.41395" lon="5.7381">
        <ele>401.3</ele>
        <time>2019-04-17T13:51:24Z</time>
      </trkpt>
      <trkpt lat="45.41397" lon="5.73814">
        <ele>401.2</ele>
        <time>2019-04-17T13:51:25Z</time>
      </trkpt>
      <trkpt lat="45.414" lon="5.73819">
        <ele>401.1</ele>
        <time>2019-04-17T13:51:26Z</time>
      </trkpt>
      <trkpt lat="45.41404" lon="5.73824">
        <ele>401.1</ele>
        <time>2019-04-17T13:51:27Z</time>
      </trkpt>
      <trkpt lat="45.41409" lon="5.7383">
        <ele>401</ele>
        <time>2019-04-17T13:51:28Z</time>
      </trkpt>
      <trkpt lat="45.41414" lon="5.73837">
        <ele>401</ele>
        <time>2019-04-17T13:51:29Z</time>
      </trkpt>
      <trkpt lat="45.4142" lon="5.73843">
        <ele>401</ele>
        <time>2019-04-17T13:51:30Z</time>
      </trkpt>
      <trkpt lat="45.41425" lon="5.73849">
        <ele>401</ele>
        <time>2019-04-17T13:51:31Z</time>
      </trkpt>
      <trkpt lat="45.41431" lon="5.73855">
        <ele>401</ele>
        <time>2019-04-17T13:51:32Z</time>
      </trkpt>
      <trkpt lat="45.41437" lon="5.73861">
        <ele>401</ele>
        <time>2019-04-17T13:51:33Z</time>
      </trkpt>
      <trkpt lat="45.41442" lon="5.73867">
        <ele>401</ele>
        <time>2019-04-17T13:51:34Z</time>
      </trkpt>
      <trkpt lat="45.41448" lon="5.73872">
        <ele>401</ele>
        <time>2019-04-17T13:51:35Z</time>
      </trkpt>
      <trkpt lat="45.41453" lon="5.73877">
        <ele>401</ele>
        <time>2019-04-17T13:51:36Z</time>
      </trkpt>
      <trkpt lat="45.41458" lon="5.73882">
        <ele>401</ele>
        <time>2019-04-17T13:51:37Z</time>
      </trkpt>
      <trkpt lat="45.41463" lon="5.73887">
        <ele>401</ele>
        <time>2019-04-17T13:51:38Z</time>
      </trkpt>
      <trkpt lat="45.41467" lon="5.73891">
        <ele>401</ele>
        <time>2019-04-17T13:51:39Z</time>
      </trkpt>
      <trkpt lat="45.41472" lon="5.73895">
        <ele>401</ele>
        <time>2019-04-17T13:51:40Z</time>
      </trkpt>
      <trkpt lat="45.41476" lon="5.73898">
        <ele>401</ele>
        <time>2019-04-17T13:51:41Z</time>
      </trkpt>
      <trkpt lat="45.41479" lon="5.73901">
        <ele>401</ele>
        <time>2019-04-17T13:51:42Z</time>
      </trkpt>
      <trkpt lat="45.41484" lon="5.73904">
        <ele>401</ele>
        <time>2019-04-17T13:51:43Z</time>
      </trkpt>
      <trkpt lat="45.41487" lon="5.7391">
        <ele>401</ele>
        <time>2019-04-17T13:51:44Z</time>
      </trkpt>
      <trkpt lat="45.4149" lon="5.73913">
        <ele>401</ele>
        <time>2019-04-17T13:51:45Z</time>
      </trkpt>
      <trkpt lat="45.41494" lon="5.73917">
        <ele>401</ele>
        <time>2019-04-17T13:51:46Z</time>
      </trkpt>
      <trkpt lat="45.41498" lon="5.73922">
        <ele>401</ele>
        <time>2019-04-17T13:51:47Z</time>
      </trkpt>
      <trkpt lat="45.41503" lon="5.73926">
        <ele>401</ele>
        <time>2019-04-17T13:51:48Z</time>
      </trkpt>
      <trkpt lat="45.41508" lon="5.73928">
        <ele>401</ele>
        <time>2019-04-17T13:51:50Z</time>
      </trkpt>
      <trkpt lat="45.41513" lon="5.73932">
        <ele>401</ele>
        <time>2019-04-17T13:51:51Z</time>
      </trkpt>
      <trkpt lat="45.41519" lon="5.73938">
        <ele>401</ele>
        <time>2019-04-17T13:51:52Z</time>
      </trkpt>
      <trkpt lat="45.41524" lon="5.73942">
        <ele>401</ele>
        <time>2019-04-17T13:51:53Z</time>
      </trkpt>
      <trkpt lat="45.41527" lon="5.73945">
        <ele>401</ele>
        <time>2019-04-17T13:51:54Z</time>
      </trkpt>
      <trkpt lat="45.4153" lon="5.7395">
        <ele>401</ele>
        <time>2019-04-17T13:51:55Z</time>
      </trkpt>
      <trkpt lat="45.41533" lon="5.73953">
        <ele>401</ele>
        <time>2019-04-17T13:51:56Z</time>
      </trkpt>
      <trkpt lat="45.41538" lon="5.73954">
        <ele>401</ele>
        <time>2019-04-17T13:51:58Z</time>
      </trkpt>
      <trkpt lat="45.41542" lon="5.73956">
        <ele>401</ele>
        <time>2019-04-17T13:52:00Z</time>
      </trkpt>
      <trkpt lat="45.41545" lon="5.7396">
        <ele>401</ele>
        <time>2019-04-17T13:52:01Z</time>
      </trkpt>
      <trkpt lat="45.41547" lon="5.73963">
        <ele>401</ele>
        <time>2019-04-17T13:52:03Z</time>
      </trkpt>
      <trkpt lat="45.4155" lon="5.7397">
        <ele>401</ele>
        <time>2019-04-17T13:52:34Z</time>
      </trkpt>
      <trkpt lat="45.41552" lon="5.73973">
        <ele>401</ele>
        <time>2019-04-17T13:52:35Z</time>
      </trkpt>
      <trkpt lat="45.41555" lon="5.73976">
        <ele>401</ele>
        <time>2019-04-17T13:52:36Z</time>
      </trkpt>
      <trkpt lat="45.41558" lon="5.7398">
        <ele>401</ele>
        <time>2019-04-17T13:52:38Z</time>
      </trkpt>
      <trkpt lat="45.41561" lon="5.73983">
        <ele>401</ele>
        <time>2019-04-17T13:52:40Z</time>
      </trkpt>
      <trkpt lat="45.41565" lon="5.73986">
        <ele>401</ele>
        <time>2019-04-17T13:52:42Z</time>
      </trkpt>
      <trkpt lat="45.41571" lon="5.73991">
        <ele>401</ele>
        <time>2019-04-17T13:52:43Z</time>
      </trkpt>
      <trkpt lat="45.41574" lon="5.73995">
        <ele>400.6</ele>
        <time>2019-04-17T13:52:44Z</time>
      </trkpt>
      <trkpt lat="45.41576" lon="5.73999">
        <ele>400.3</ele>
        <time>2019-04-17T13:52:45Z</time>
      </trkpt>
      <trkpt lat="45.41578" lon="5.74004">
        <ele>400</ele>
        <time>2019-04-17T13:52:46Z</time>
      </trkpt>
      <trkpt lat="45.4158" lon="5.74008">
        <ele>399.3</ele>
        <time>2019-04-17T13:52:47Z</time>
      </trkpt>
      <trkpt lat="45.41582" lon="5.74012">
        <ele>399.1</ele>
        <time>2019-04-17T13:52:48Z</time>
      </trkpt>
      <trkpt lat="45.41584" lon="5.74016">
        <ele>398.9</ele>
        <time>2019-04-17T13:52:50Z</time>
      </trkpt>
      <trkpt lat="45.41587" lon="5.74022">
        <ele>398.8</ele>
        <time>2019-04-17T13:52:52Z</time>
      </trkpt>
      <trkpt lat="45.41589" lon="5.74026">
        <ele>398.2</ele>
        <time>2019-04-17T13:52:53Z</time>
      </trkpt>
      <trkpt lat="45.41593" lon="5.74036">
        <ele>397.2</ele>
        <time>2019-04-17T13:52:54Z</time>
      </trkpt>
      <trkpt lat="45.41595" lon="5.74041">
        <ele>396.6</ele>
        <time>2019-04-17T13:52:55Z</time>
      </trkpt>
      <trkpt lat="45.41597" lon="5.74045">
        <ele>396.3</ele>
        <time>2019-04-17T13:52:56Z</time>
      </trkpt>
      <trkpt lat="45.41599" lon="5.74049">
        <ele>396</ele>
        <time>2019-04-17T13:52:57Z</time>
      </trkpt>
      <trkpt lat="45.41602" lon="5.74053">
        <ele>396.3</ele>
        <time>2019-04-17T13:52:58Z</time>
      </trkpt>
      <trkpt lat="45.41604" lon="5.74059">
        <ele>395.1</ele>
        <time>2019-04-17T13:52:59Z</time>
      </trkpt>
      <trkpt lat="45.41607" lon="5.74063">
        <ele>394.9</ele>
        <time>2019-04-17T13:53:00Z</time>
      </trkpt>
      <trkpt lat="45.41609" lon="5.74069">
        <ele>394.7</ele>
        <time>2019-04-17T13:53:01Z</time>
      </trkpt>
      <trkpt lat="45.41611" lon="5.74076">
        <ele>394.2</ele>
        <time>2019-04-17T13:53:02Z</time>
      </trkpt>
      <trkpt lat="45.41614" lon="5.74081">
        <ele>394.1</ele>
        <time>2019-04-17T13:53:03Z</time>
      </trkpt>
      <trkpt lat="45.41617" lon="5.74086">
        <ele>394</ele>
        <time>2019-04-17T13:53:04Z</time>
      </trkpt>
      <trkpt lat="45.4162" lon="5.74089">
        <ele>393.7</ele>
        <time>2019-04-17T13:53:05Z</time>
      </trkpt>
      <trkpt lat="45.41623" lon="5.74093">
        <ele>393.1</ele>
        <time>2019-04-17T13:53:06Z</time>
      </trkpt>
      <trkpt lat="45.41625" lon="5.74102">
        <ele>392.1</ele>
        <time>2019-04-17T13:53:07Z</time>
      </trkpt>
      <trkpt lat="45.41627" lon="5.74109">
        <ele>390.9</ele>
        <time>2019-04-17T13:53:08Z</time>
      </trkpt>
      <trkpt lat="45.4163" lon="5.74121">
        <ele>389.9</ele>
        <time>2019-04-17T13:53:09Z</time>
      </trkpt>
      <trkpt lat="45.41631" lon="5.74128">
        <ele>389</ele>
        <time>2019-04-17T13:53:10Z</time>
      </trkpt>
      <trkpt lat="45.41633" lon="5.74135">
        <ele>388.6</ele>
        <time>2019-04-17T13:53:11Z</time>
      </trkpt>
      <trkpt lat="45.41637" lon="5.74138">
        <ele>388.8</ele>
        <time>2019-04-17T13:53:12Z</time>
      </trkpt>
      <trkpt lat="45.41639" lon="5.74139">
        <ele>388.7</ele>
        <time>2019-04-17T13:53:13Z</time>
      </trkpt>
      <trkpt lat="45.41642" lon="5.74143">
        <ele>388.9</ele>
        <time>2019-04-17T13:53:14Z</time>
      </trkpt>
      <trkpt lat="45.41644" lon="5.74147">
        <ele>388.8</ele>
        <time>2019-04-17T13:53:16Z</time>
      </trkpt>
      <trkpt lat="45.41647" lon="5.74154">
        <ele>388.5</ele>
        <time>2019-04-17T13:53:18Z</time>
      </trkpt>
      <trkpt lat="45.41649" lon="5.74158">
        <ele>388.4</ele>
        <time>2019-04-17T13:53:19Z</time>
      </trkpt>
      <trkpt lat="45.41651" lon="5.74162">
        <ele>388.4</ele>
        <time>2019-04-17T13:53:20Z</time>
      </trkpt>
      <trkpt lat="45.41654" lon="5.74166">
        <ele>388.4</ele>
        <time>2019-04-17T13:53:21Z</time>
      </trkpt>
      <trkpt lat="45.41657" lon="5.74171">
        <ele>388.4</ele>
        <time>2019-04-17T13:53:22Z</time>
      </trkpt>
      <trkpt lat="45.4166" lon="5.74175">
        <ele>388.4</ele>
        <time>2019-04-17T13:53:23Z</time>
      </trkpt>
      <trkpt lat="45.41663" lon="5.74179">
        <ele>388.5</ele>
        <time>2019-04-17T13:53:24Z</time>
      </trkpt>
      <trkpt lat="45.41665" lon="5.74183">
        <ele>388.5</ele>
        <time>2019-04-17T13:53:25Z</time>
      </trkpt>
      <trkpt lat="45.41667" lon="5.74187">
        <ele>388.5</ele>
        <time>2019-04-17T13:53:26Z</time>
      </trkpt>
      <trkpt lat="45.41669" lon="5.74193">
        <ele>388.5</ele>
        <time>2019-04-17T13:53:27Z</time>
      </trkpt>
      <trkpt lat="45.4167" lon="5.742">
        <ele>388.5</ele>
        <time>2019-04-17T13:53:28Z</time>
      </trkpt>
      <trkpt lat="45.41672" lon="5.74207">
        <ele>388.6</ele>
        <time>2019-04-17T13:53:29Z</time>
      </trkpt>
      <trkpt lat="45.41674" lon="5.74213">
        <ele>388.6</ele>
        <time>2019-04-17T13:53:30Z</time>
      </trkpt>
      <trkpt lat="45.41677" lon="5.7422">
        <ele>388.7</ele>
        <time>2019-04-17T13:53:31Z</time>
      </trkpt>
      <trkpt lat="45.4168" lon="5.74226">
        <ele>388.5</ele>
        <time>2019-04-17T13:53:32Z</time>
      </trkpt>
      <trkpt lat="45.41684" lon="5.74231">
        <ele>388.5</ele>
        <time>2019-04-17T13:53:33Z</time>
      </trkpt>
      <trkpt lat="45.41687" lon="5.74234">
        <ele>388.4</ele>
        <time>2019-04-17T13:53:34Z</time>
      </trkpt>
      <trkpt lat="45.41691" lon="5.74237">
        <ele>388.3</ele>
        <time>2019-04-17T13:53:36Z</time>
      </trkpt>
      <trkpt lat="45.41696" lon="5.74241">
        <ele>388.1</ele>
        <time>2019-04-17T13:53:38Z</time>
      </trkpt>
      <trkpt lat="45.41699" lon="5.74243">
        <ele>388</ele>
        <time>2019-04-17T13:53:39Z</time>
      </trkpt>
      <trkpt lat="45.41702" lon="5.74245">
        <ele>387.9</ele>
        <time>2019-04-17T13:53:40Z</time>
      </trkpt>
      <trkpt lat="45.41706" lon="5.74246">
        <ele>387.8</ele>
        <time>2019-04-17T13:53:41Z</time>
      </trkpt>
      <trkpt lat="45.4171" lon="5.74249">
        <ele>387.8</ele>
        <time>2019-04-17T13:53:42Z</time>
      </trkpt>
      <trkpt lat="45.41713" lon="5.74252">
        <ele>387.6</ele>
        <time>2019-04-17T13:53:43Z</time>
      </trkpt>
      <trkpt lat="45.41717" lon="5.74256">
        <ele>387.5</ele>
        <time>2019-04-17T13:53:44Z</time>
      </trkpt>
      <trkpt lat="45.4172" lon="5.74261">
        <ele>387.5</ele>
        <time>2019-04-17T13:53:45Z</time>
      </trkpt>
      <trkpt lat="45.41724" lon="5.74266">
        <ele>387.4</ele>
        <time>2019-04-17T13:53:46Z</time>
      </trkpt>
      <trkpt lat="45.41727" lon="5.7427">
        <ele>387.4</ele>
        <time>2019-04-17T13:53:47Z</time>
      </trkpt>
      <trkpt lat="45.4173" lon="5.74274">
        <ele>387.4</ele>
        <time>2019-04-17T13:53:48Z</time>
      </trkpt>
      <trkpt lat="45.41735" lon="5.74277">
        <ele>387.3</ele>
        <time>2019-04-17T13:53:49Z</time>
      </trkpt>
      <trkpt lat="45.41739" lon="5.74279">
        <ele>387.3</ele>
        <time>2019-04-17T13:53:50Z</time>
      </trkpt>
      <trkpt lat="45.41743" lon="5.74281">
        <ele>387.3</ele>
        <time>2019-04-17T13:53:51Z</time>
      </trkpt>
      <trkpt lat="45.41746" lon="5.74282">
        <ele>387.3</ele>
        <time>2019-04-17T13:53:52Z</time>
      </trkpt>
      <trkpt lat="45.41749" lon="5.74284">
        <ele>387.3</ele>
        <time>2019-04-17T13:53:53Z</time>
      </trkpt>
      <trkpt lat="45.41751" lon="5.74285">
        <ele>387.4</ele>
        <time>2019-04-17T13:53:54Z</time>
      </trkpt>
      <trkpt lat="45.41755" lon="5.74287">
        <ele>387.4</ele>
        <time>2019-04-17T13:53:55Z</time>
      </trkpt>
      <trkpt lat="45.41759" lon="5.7429">
        <ele>387.5</ele>
        <time>2019-04-17T13:53:56Z</time>
      </trkpt>
      <trkpt lat="45.41762" lon="5.74293">
        <ele>387.7</ele>
        <time>2019-04-17T13:53:58Z</time>
      </trkpt>
      <trkpt lat="45.41766" lon="5.74297">
        <ele>387.8</ele>
        <time>2019-04-17T13:54:00Z</time>
      </trkpt>
      <trkpt lat="45.41766" lon="5.74301">
        <ele>388</ele>
        <time>2019-04-17T13:54:04Z</time>
      </trkpt>
      <trkpt lat="45.41766" lon="5.74306">
        <ele>388.2</ele>
        <time>2019-04-17T13:54:10Z</time>
      </trkpt>
      <trkpt lat="45.41768" lon="5.74309">
        <ele>388.4</ele>
        <time>2019-04-17T13:54:27Z</time>
      </trkpt>
      <trkpt lat="45.41772" lon="5.74306">
        <ele>388.3</ele>
        <time>2019-04-17T13:54:29Z</time>
      </trkpt>
      <trkpt lat="45.41778" lon="5.74305">
        <ele>388.4</ele>
        <time>2019-04-17T13:54:31Z</time>
      </trkpt>
      <trkpt lat="45.41781" lon="5.74305">
        <ele>388.5</ele>
        <time>2019-04-17T13:54:32Z</time>
      </trkpt>
      <trkpt lat="45.41786" lon="5.74308">
        <ele>388.9</ele>
        <time>2019-04-17T13:54:34Z</time>
      </trkpt>
      <trkpt lat="45.41789" lon="5.7431">
        <ele>389</ele>
        <time>2019-04-17T13:54:35Z</time>
      </trkpt>
      <trkpt lat="45.41791" lon="5.74313">
        <ele>389.3</ele>
        <time>2019-04-17T13:54:36Z</time>
      </trkpt>
      <trkpt lat="45.41795" lon="5.74314">
        <ele>389.4</ele>
        <time>2019-04-17T13:54:38Z</time>
      </trkpt>
      <trkpt lat="45.41799" lon="5.74319">
        <ele>389.9</ele>
        <time>2019-04-17T13:54:40Z</time>
      </trkpt>
      <trkpt lat="45.418" lon="5.74325">
        <ele>390.1</ele>
        <time>2019-04-17T13:54:42Z</time>
      </trkpt>
      <trkpt lat="45.41801" lon="5.7433">
        <ele>390.3</ele>
        <time>2019-04-17T13:54:44Z</time>
      </trkpt>
      <trkpt lat="45.41803" lon="5.74333">
        <ele>390.4</ele>
        <time>2019-04-17T13:54:48Z</time>
      </trkpt>
      <trkpt lat="45.41807" lon="5.74336">
        <ele>390.6</ele>
        <time>2019-04-17T13:54:50Z</time>
      </trkpt>
      <trkpt lat="45.4181" lon="5.74338">
        <ele>390.6</ele>
        <time>2019-04-17T13:54:52Z</time>
      </trkpt>
      <trkpt lat="45.41815" lon="5.7434">
        <ele>390.6</ele>
        <time>2019-04-17T13:54:54Z</time>
      </trkpt>
      <trkpt lat="45.41819" lon="5.74345">
        <ele>390.7</ele>
        <time>2019-04-17T13:54:56Z</time>
      </trkpt>
      <trkpt lat="45.41821" lon="5.74349">
        <ele>390.7</ele>
        <time>2019-04-17T13:54:57Z</time>
      </trkpt>
      <trkpt lat="45.41823" lon="5.74353">
        <ele>390.8</ele>
        <time>2019-04-17T13:54:58Z</time>
      </trkpt>
      <trkpt lat="45.41824" lon="5.74357">
        <ele>390.8</ele>
        <time>2019-04-17T13:54:59Z</time>
      </trkpt>
      <trkpt lat="45.41828" lon="5.74363">
        <ele>390.7</ele>
        <time>2019-04-17T13:55:00Z</time>
      </trkpt>
      <trkpt lat="45.41831" lon="5.74368">
        <ele>390.7</ele>
        <time>2019-04-17T13:55:01Z</time>
      </trkpt>
      <trkpt lat="45.41834" lon="5.74374">
        <ele>390.6</ele>
        <time>2019-04-17T13:55:02Z</time>
      </trkpt>
      <trkpt lat="45.41838" lon="5.74381">
        <ele>390.4</ele>
        <time>2019-04-17T13:55:03Z</time>
      </trkpt>
      <trkpt lat="45.41841" lon="5.74389">
        <ele>390.2</ele>
        <time>2019-04-17T13:55:04Z</time>
      </trkpt>
      <trkpt lat="45.41845" lon="5.74395">
        <ele>390.1</ele>
        <time>2019-04-17T13:55:05Z</time>
      </trkpt>
      <trkpt lat="45.41848" lon="5.74399">
        <ele>390</ele>
        <time>2019-04-17T13:55:06Z</time>
      </trkpt>
      <trkpt lat="45.4185" lon="5.74402">
        <ele>389.9</ele>
        <time>2019-04-17T13:55:07Z</time>
      </trkpt>
      <trkpt lat="45.41852" lon="5.74406">
        <ele>389.8</ele>
        <time>2019-04-17T13:55:08Z</time>
      </trkpt>
      <trkpt lat="45.41854" lon="5.7441">
        <ele>389.8</ele>
        <time>2019-04-17T13:55:09Z</time>
      </trkpt>
      <trkpt lat="45.41856" lon="5.74413">
        <ele>389.8</ele>
        <time>2019-04-17T13:55:10Z</time>
      </trkpt>
      <trkpt lat="45.41858" lon="5.74417">
        <ele>389.7</ele>
        <time>2019-04-17T13:55:11Z</time>
      </trkpt>
      <trkpt lat="45.41859" lon="5.74422">
        <ele>389.6</ele>
        <time>2019-04-17T13:55:12Z</time>
      </trkpt>
      <trkpt lat="45.41861" lon="5.74426">
        <ele>389.5</ele>
        <time>2019-04-17T13:55:13Z</time>
      </trkpt>
      <trkpt lat="45.41862" lon="5.7443">
        <ele>389.4</ele>
        <time>2019-04-17T13:55:14Z</time>
      </trkpt>
      <trkpt lat="45.41864" lon="5.74435">
        <ele>389.4</ele>
        <time>2019-04-17T13:55:15Z</time>
      </trkpt>
      <trkpt lat="45.41866" lon="5.74441">
        <ele>389.1</ele>
        <time>2019-04-17T13:55:17Z</time>
      </trkpt>
      <trkpt lat="45.41868" lon="5.74447">
        <ele>389</ele>
        <time>2019-04-17T13:55:20Z</time>
      </trkpt>
      <trkpt lat="45.41869" lon="5.74451">
        <ele>388.8</ele>
        <time>2019-04-17T13:55:22Z</time>
      </trkpt>
      <trkpt lat="45.41869" lon="5.74456">
        <ele>388.5</ele>
        <time>2019-04-17T13:55:24Z</time>
      </trkpt>
      <trkpt lat="45.41868" lon="5.74462">
        <ele>388.3</ele>
        <time>2019-04-17T13:55:26Z</time>
      </trkpt>
      <trkpt lat="45.41868" lon="5.74467">
        <ele>388.2</ele>
        <time>2019-04-17T13:55:27Z</time>
      </trkpt>
      <trkpt lat="45.41868" lon="5.74472">
        <ele>388.1</ele>
        <time>2019-04-17T13:55:28Z</time>
      </trkpt>
      <trkpt lat="45.41869" lon="5.74478">
        <ele>387.8</ele>
        <time>2019-04-17T13:55:29Z</time>
      </trkpt>
      <trkpt lat="45.41869" lon="5.74484">
        <ele>387.6</ele>
        <time>2019-04-17T13:55:30Z</time>
      </trkpt>
      <trkpt lat="45.4187" lon="5.74492">
        <ele>387.3</ele>
        <time>2019-04-17T13:55:31Z</time>
      </trkpt>
      <trkpt lat="45.4187" lon="5.745">
        <ele>387.1</ele>
        <time>2019-04-17T13:55:32Z</time>
      </trkpt>
      <trkpt lat="45.41869" lon="5.74508">
        <ele>387</ele>
        <time>2019-04-17T13:55:33Z</time>
      </trkpt>
      <trkpt lat="45.41868" lon="5.74516">
        <ele>386.7</ele>
        <time>2019-04-17T13:55:34Z</time>
      </trkpt>
      <trkpt lat="45.41867" lon="5.74524">
        <ele>386.5</ele>
        <time>2019-04-17T13:55:35Z</time>
      </trkpt>
      <trkpt lat="45.41865" lon="5.74532">
        <ele>386.4</ele>
        <time>2019-04-17T13:55:36Z</time>
      </trkpt>
      <trkpt lat="45.41862" lon="5.74541">
        <ele>386.4</ele>
        <time>2019-04-17T13:55:37Z</time>
      </trkpt>
      <trkpt lat="45.41859" lon="5.74548">
        <ele>386.3</ele>
        <time>2019-04-17T13:55:38Z</time>
      </trkpt>
      <trkpt lat="45.41857" lon="5.74554">
        <ele>386.4</ele>
        <time>2019-04-17T13:55:39Z</time>
      </trkpt>
      <trkpt lat="45.41856" lon="5.74559">
        <ele>386.3</ele>
        <time>2019-04-17T13:55:40Z</time>
      </trkpt>
      <trkpt lat="45.41857" lon="5.74564">
        <ele>386.3</ele>
        <time>2019-04-17T13:55:44Z</time>
      </trkpt>
      <trkpt lat="45.41858" lon="5.74568">
        <ele>386.1</ele>
        <time>2019-04-17T13:55:46Z</time>
      </trkpt>
      <trkpt lat="45.41857" lon="5.74573">
        <ele>386.3</ele>
        <time>2019-04-17T13:55:48Z</time>
      </trkpt>
      <trkpt lat="45.41855" lon="5.74578">
        <ele>386.3</ele>
        <time>2019-04-17T13:55:50Z</time>
      </trkpt>
      <trkpt lat="45.41852" lon="5.74584">
        <ele>386.4</ele>
        <time>2019-04-17T13:55:52Z</time>
      </trkpt>
      <trkpt lat="45.4185" lon="5.7459">
        <ele>386.7</ele>
        <time>2019-04-17T13:55:54Z</time>
      </trkpt>
      <trkpt lat="45.41848" lon="5.74596">
        <ele>386.8</ele>
        <time>2019-04-17T13:55:56Z</time>
      </trkpt>
      <trkpt lat="45.41846" lon="5.74604">
        <ele>387</ele>
        <time>2019-04-17T13:55:58Z</time>
      </trkpt>
      <trkpt lat="45.41845" lon="5.74609">
        <ele>387.2</ele>
        <time>2019-04-17T13:55:59Z</time>
      </trkpt>
      <trkpt lat="45.41845" lon="5.74614">
        <ele>387.3</ele>
        <time>2019-04-17T13:56:00Z</time>
      </trkpt>
      <trkpt lat="45.41846" lon="5.7462">
        <ele>387.5</ele>
        <time>2019-04-17T13:56:02Z</time>
      </trkpt>
      <trkpt lat="45.41847" lon="5.74625">
        <ele>387.6</ele>
        <time>2019-04-17T13:56:04Z</time>
      </trkpt>
      <trkpt lat="45.41846" lon="5.74629">
        <ele>387.7</ele>
        <time>2019-04-17T13:56:06Z</time>
      </trkpt>
      <trkpt lat="45.41848" lon="5.74633">
        <ele>387.9</ele>
        <time>2019-04-17T13:56:08Z</time>
      </trkpt>
      <trkpt lat="45.41848" lon="5.74639">
        <ele>388</ele>
        <time>2019-04-17T13:56:10Z</time>
      </trkpt>
      <trkpt lat="45.41848" lon="5.74645">
        <ele>388.1</ele>
        <time>2019-04-17T13:56:11Z</time>
      </trkpt>
      <trkpt lat="45.41848" lon="5.74651">
        <ele>388.4</ele>
        <time>2019-04-17T13:56:12Z</time>
      </trkpt>
      <trkpt lat="45.41847" lon="5.74656">
        <ele>388.6</ele>
        <time>2019-04-17T13:56:13Z</time>
      </trkpt>
      <trkpt lat="45.41848" lon="5.74661">
        <ele>388.8</ele>
        <time>2019-04-17T13:56:14Z</time>
      </trkpt>
      <trkpt lat="45.41848" lon="5.74666">
        <ele>389</ele>
        <time>2019-04-17T13:56:15Z</time>
      </trkpt>
      <trkpt lat="45.4185" lon="5.74669">
        <ele>389.1</ele>
        <time>2019-04-17T13:56:16Z</time>
      </trkpt>
      <trkpt lat="45.41851" lon="5.74673">
        <ele>389.3</ele>
        <time>2019-04-17T13:56:17Z</time>
      </trkpt>
      <trkpt lat="45.41854" lon="5.74678">
        <ele>389.5</ele>
        <time>2019-04-17T13:56:19Z</time>
      </trkpt>
      <trkpt lat="45.41855" lon="5.74682">
        <ele>389.5</ele>
        <time>2019-04-17T13:56:21Z</time>
      </trkpt>
      <trkpt lat="45.41853" lon="5.74687">
        <ele>389.8</ele>
        <time>2019-04-17T13:56:23Z</time>
      </trkpt>
      <trkpt lat="45.41853" lon="5.74691">
        <ele>390</ele>
        <time>2019-04-17T13:56:25Z</time>
      </trkpt>
      <trkpt lat="45.41854" lon="5.74696">
        <ele>390.1</ele>
        <time>2019-04-17T13:56:29Z</time>
      </trkpt>
      <trkpt lat="45.41858" lon="5.74702">
        <ele>390.3</ele>
        <time>2019-04-17T13:56:31Z</time>
      </trkpt>
      <trkpt lat="45.4186" lon="5.74705">
        <ele>390.3</ele>
        <time>2019-04-17T13:56:32Z</time>
      </trkpt>
      <trkpt lat="45.41864" lon="5.74707">
        <ele>390.2</ele>
        <time>2019-04-17T13:56:34Z</time>
      </trkpt>
      <trkpt lat="45.41868" lon="5.74707">
        <ele>390.1</ele>
        <time>2019-04-17T13:56:36Z</time>
      </trkpt>
      <trkpt lat="45.41871" lon="5.7471">
        <ele>390.1</ele>
        <time>2019-04-17T13:56:39Z</time>
      </trkpt>
      <trkpt lat="45.41872" lon="5.74713">
        <ele>390.1</ele>
        <time>2019-04-17T13:56:42Z</time>
      </trkpt>
      <trkpt lat="45.41873" lon="5.74717">
        <ele>390.1</ele>
        <time>2019-04-17T13:56:47Z</time>
      </trkpt>
      <trkpt lat="45.41876" lon="5.74724">
        <ele>390.1</ele>
        <time>2019-04-17T13:57:38Z</time>
      </trkpt>
      <trkpt lat="45.41879" lon="5.74725">
        <ele>389.8</ele>
        <time>2019-04-17T13:57:42Z</time>
      </trkpt>
      <trkpt lat="45.41884" lon="5.74727">
        <ele>389.7</ele>
        <time>2019-04-17T13:57:44Z</time>
      </trkpt>
      <trkpt lat="45.41887" lon="5.74727">
        <ele>389.4</ele>
        <time>2019-04-17T13:57:45Z</time>
      </trkpt>
      <trkpt lat="45.4189" lon="5.74727">
        <ele>389.1</ele>
        <time>2019-04-17T13:57:46Z</time>
      </trkpt>
      <trkpt lat="45.41893" lon="5.74727">
        <ele>388.9</ele>
        <time>2019-04-17T13:57:47Z</time>
      </trkpt>
      <trkpt lat="45.41896" lon="5.7473">
        <ele>388.6</ele>
        <time>2019-04-17T13:57:48Z</time>
      </trkpt>
      <trkpt lat="45.41898" lon="5.74732">
        <ele>388.4</ele>
        <time>2019-04-17T13:57:49Z</time>
      </trkpt>
      <trkpt lat="45.419" lon="5.74736">
        <ele>388.2</ele>
        <time>2019-04-17T13:57:50Z</time>
      </trkpt>
      <trkpt lat="45.41903" lon="5.74738">
        <ele>388.2</ele>
        <time>2019-04-17T13:57:51Z</time>
      </trkpt>
      <trkpt lat="45.41905" lon="5.74742">
        <ele>388</ele>
        <time>2019-04-17T13:57:52Z</time>
      </trkpt>
      <trkpt lat="45.41907" lon="5.74745">
        <ele>387.9</ele>
        <time>2019-04-17T13:57:53Z</time>
      </trkpt>
      <trkpt lat="45.41908" lon="5.74748">
        <ele>388</ele>
        <time>2019-04-17T13:57:54Z</time>
      </trkpt>
      <trkpt lat="45.4191" lon="5.74751">
        <ele>387.7</ele>
        <time>2019-04-17T13:57:55Z</time>
      </trkpt>
      <trkpt lat="45.41915" lon="5.74755">
        <ele>387.6</ele>
        <time>2019-04-17T13:57:57Z</time>
      </trkpt>
      <trkpt lat="45.41917" lon="5.74758">
        <ele>387.4</ele>
        <time>2019-04-17T13:57:58Z</time>
      </trkpt>
      <trkpt lat="45.41919" lon="5.74761">
        <ele>387.2</ele>
        <time>2019-04-17T13:57:59Z</time>
      </trkpt>
      <trkpt lat="45.41923" lon="5.74765">
        <ele>387</ele>
        <time>2019-04-17T13:58:01Z</time>
      </trkpt>
      <trkpt lat="45.41927" lon="5.74769">
        <ele>386.6</ele>
        <time>2019-04-17T13:58:03Z</time>
      </trkpt>
      <trkpt lat="45.41931" lon="5.74772">
        <ele>386.5</ele>
        <time>2019-04-17T13:58:04Z</time>
      </trkpt>
      <trkpt lat="45.41933" lon="5.74776">
        <ele>386.3</ele>
        <time>2019-04-17T13:58:05Z</time>
      </trkpt>
      <trkpt lat="45.41936" lon="5.74781">
        <ele>386.5</ele>
        <time>2019-04-17T13:58:06Z</time>
      </trkpt>
      <trkpt lat="45.41938" lon="5.74787">
        <ele>386.4</ele>
        <time>2019-04-17T13:58:07Z</time>
      </trkpt>
      <trkpt lat="45.41941" lon="5.74791">
        <ele>386.3</ele>
        <time>2019-04-17T13:58:08Z</time>
      </trkpt>
      <trkpt lat="45.41944" lon="5.74795">
        <ele>386.1</ele>
        <time>2019-04-17T13:58:09Z</time>
      </trkpt>
      <trkpt lat="45.41947" lon="5.74798">
        <ele>386</ele>
        <time>2019-04-17T13:58:10Z</time>
      </trkpt>
      <trkpt lat="45.4195" lon="5.74802">
        <ele>386</ele>
        <time>2019-04-17T13:58:11Z</time>
      </trkpt>
      <trkpt lat="45.41951" lon="5.74814">
        <ele>386.1</ele>
        <time>2019-04-17T13:58:12Z</time>
      </trkpt>
      <trkpt lat="45.41956" lon="5.74815">
        <ele>385.9</ele>
        <time>2019-04-17T13:58:15Z</time>
      </trkpt>
      <trkpt lat="45.41958" lon="5.74819">
        <ele>385.9</ele>
        <time>2019-04-17T13:58:16Z</time>
      </trkpt>
      <trkpt lat="45.4196" lon="5.74823">
        <ele>385.8</ele>
        <time>2019-04-17T13:58:17Z</time>
      </trkpt>
      <trkpt lat="45.41966" lon="5.74824">
        <ele>385.7</ele>
        <time>2019-04-17T13:58:19Z</time>
      </trkpt>
      <trkpt lat="45.4197" lon="5.74829">
        <ele>385.6</ele>
        <time>2019-04-17T13:58:21Z</time>
      </trkpt>
      <trkpt lat="45.41974" lon="5.74836">
        <ele>385.7</ele>
        <time>2019-04-17T13:58:22Z</time>
      </trkpt>
      <trkpt lat="45.41976" lon="5.7484">
        <ele>385.7</ele>
        <time>2019-04-17T13:58:23Z</time>
      </trkpt>
      <trkpt lat="45.41979" lon="5.74842">
        <ele>385.7</ele>
        <time>2019-04-17T13:58:25Z</time>
      </trkpt>
      <trkpt lat="45.41984" lon="5.74844">
        <ele>385.7</ele>
        <time>2019-04-17T13:58:26Z</time>
      </trkpt>
      <trkpt lat="45.4199" lon="5.74848">
        <ele>385.7</ele>
        <time>2019-04-17T13:58:27Z</time>
      </trkpt>
      <trkpt lat="45.41995" lon="5.74851">
        <ele>385.6</ele>
        <time>2019-04-17T13:58:28Z</time>
      </trkpt>
      <trkpt lat="45.41997" lon="5.74852">
        <ele>385.7</ele>
        <time>2019-04-17T13:58:29Z</time>
      </trkpt>
      <trkpt lat="45.42001" lon="5.74849">
        <ele>385.5</ele>
        <time>2019-04-17T13:58:32Z</time>
      </trkpt>
      <trkpt lat="45.42005" lon="5.74847">
        <ele>385.4</ele>
        <time>2019-04-17T13:58:33Z</time>
      </trkpt>
      <trkpt lat="45.42007" lon="5.7485">
        <ele>385.5</ele>
        <time>2019-04-17T13:58:37Z</time>
      </trkpt>
      <trkpt lat="45.42009" lon="5.74854">
        <ele>385.6</ele>
        <time>2019-04-17T13:58:41Z</time>
      </trkpt>
      <trkpt lat="45.42011" lon="5.74856">
        <ele>385.8</ele>
        <time>2019-04-17T13:58:49Z</time>
      </trkpt>
      <trkpt lat="45.4201" lon="5.7486">
        <ele>386</ele>
        <time>2019-04-17T13:59:51Z</time>
      </trkpt>
      <trkpt lat="45.42007" lon="5.74859">
        <ele>385.8</ele>
        <time>2019-04-17T14:00:03Z</time>
      </trkpt>
      <trkpt lat="45.42004" lon="5.74858">
        <ele>385.9</ele>
        <time>2019-04-17T14:00:12Z</time>
      </trkpt>
      <trkpt lat="45.42006" lon="5.74861">
        <ele>386</ele>
        <time>2019-04-17T14:00:58Z</time>
      </trkpt>
      <trkpt lat="45.42008" lon="5.74859">
        <ele>385.9</ele>
        <time>2019-04-17T14:01:03Z</time>
      </trkpt>
      <trkpt lat="45.42016" lon="5.74851">
        <ele>385.7</ele>
        <time>2019-04-17T14:01:36Z</time>
      </trkpt>
      <trkpt lat="45.42021" lon="5.7485">
        <ele>385.7</ele>
        <time>2019-04-17T14:01:39Z</time>
      </trkpt>
      <trkpt lat="45.42024" lon="5.74848">
        <ele>385.8</ele>
        <time>2019-04-17T14:01:41Z</time>
      </trkpt>
      <trkpt lat="45.42027" lon="5.74847">
        <ele>385.8</ele>
        <time>2019-04-17T14:01:43Z</time>
      </trkpt>
      <trkpt lat="45.42033" lon="5.74843">
        <ele>386</ele>
        <time>2019-04-17T14:01:45Z</time>
      </trkpt>
      <trkpt lat="45.42036" lon="5.74841">
        <ele>386</ele>
        <time>2019-04-17T14:01:46Z</time>
      </trkpt>
      <trkpt lat="45.42039" lon="5.74838">
        <ele>386</ele>
        <time>2019-04-17T14:01:47Z</time>
      </trkpt>
      <trkpt lat="45.42043" lon="5.74835">
        <ele>386.1</ele>
        <time>2019-04-17T14:01:48Z</time>
      </trkpt>
      <trkpt lat="45.42046" lon="5.74834">
        <ele>386.2</ele>
        <time>2019-04-17T14:01:49Z</time>
      </trkpt>
      <trkpt lat="45.42049" lon="5.74832">
        <ele>386.3</ele>
        <time>2019-04-17T14:01:51Z</time>
      </trkpt>
      <trkpt lat="45.42051" lon="5.74828">
        <ele>386.3</ele>
        <time>2019-04-17T14:01:54Z</time>
      </trkpt>
      <trkpt lat="45.42053" lon="5.74824">
        <ele>386.2</ele>
        <time>2019-04-17T14:02:04Z</time>
      </trkpt>
      <trkpt lat="45.42056" lon="5.74822">
        <ele>386.3</ele>
        <time>2019-04-17T14:02:06Z</time>
      </trkpt>
      <trkpt lat="45.4206" lon="5.74819">
        <ele>386.5</ele>
        <time>2019-04-17T14:02:08Z</time>
      </trkpt>
      <trkpt lat="45.42062" lon="5.74816">
        <ele>386.4</ele>
        <time>2019-04-17T14:02:09Z</time>
      </trkpt>
      <trkpt lat="45.42065" lon="5.74815">
        <ele>386.5</ele>
        <time>2019-04-17T14:02:10Z</time>
      </trkpt>
      <trkpt lat="45.4207" lon="5.74813">
        <ele>386.7</ele>
        <time>2019-04-17T14:02:12Z</time>
      </trkpt>
      <trkpt lat="45.42074" lon="5.74808">
        <ele>386.7</ele>
        <time>2019-04-17T14:02:14Z</time>
      </trkpt>
      <trkpt lat="45.42076" lon="5.74805">
        <ele>386.8</ele>
        <time>2019-04-17T14:02:15Z</time>
      </trkpt>
      <trkpt lat="45.42079" lon="5.74803">
        <ele>386.9</ele>
        <time>2019-04-17T14:02:16Z</time>
      </trkpt>
      <trkpt lat="45.42081" lon="5.74799">
        <ele>386.9</ele>
        <time>2019-04-17T14:02:17Z</time>
      </trkpt>
      <trkpt lat="45.42085" lon="5.74796">
        <ele>387</ele>
        <time>2019-04-17T14:02:18Z</time>
      </trkpt>
      <trkpt lat="45.42088" lon="5.74791">
        <ele>387</ele>
        <time>2019-04-17T14:02:19Z</time>
      </trkpt>
      <trkpt lat="45.42092" lon="5.74786">
        <ele>387</ele>
        <time>2019-04-17T14:02:20Z</time>
      </trkpt>
      <trkpt lat="45.42095" lon="5.74781">
        <ele>387</ele>
        <time>2019-04-17T14:02:21Z</time>
      </trkpt>
      <trkpt lat="45.42098" lon="5.74775">
        <ele>386.9</ele>
        <time>2019-04-17T14:02:22Z</time>
      </trkpt>
      <trkpt lat="45.42102" lon="5.74768">
        <ele>386.8</ele>
        <time>2019-04-17T14:02:23Z</time>
      </trkpt>
      <trkpt lat="45.4211" lon="5.74756">
        <ele>386.6</ele>
        <time>2019-04-17T14:02:25Z</time>
      </trkpt>
      <trkpt lat="45.42115" lon="5.74751">
        <ele>386.6</ele>
        <time>2019-04-17T14:02:26Z</time>
      </trkpt>
      <trkpt lat="45.42121" lon="5.74744">
        <ele>386.5</ele>
        <time>2019-04-17T14:02:27Z</time>
      </trkpt>
      <trkpt lat="45.42125" lon="5.74738">
        <ele>386.4</ele>
        <time>2019-04-17T14:02:28Z</time>
      </trkpt>
      <trkpt lat="45.42129" lon="5.74732">
        <ele>386.4</ele>
        <time>2019-04-17T14:02:29Z</time>
      </trkpt>
      <trkpt lat="45.42134" lon="5.74727">
        <ele>386.2</ele>
        <time>2019-04-17T14:02:30Z</time>
      </trkpt>
      <trkpt lat="45.42138" lon="5.74721">
        <ele>386.2</ele>
        <time>2019-04-17T14:02:31Z</time>
      </trkpt>
      <trkpt lat="45.42142" lon="5.74714">
        <ele>386.1</ele>
        <time>2019-04-17T14:02:32Z</time>
      </trkpt>
      <trkpt lat="45.42147" lon="5.74709">
        <ele>385.9</ele>
        <time>2019-04-17T14:02:33Z</time>
      </trkpt>
      <trkpt lat="45.42151" lon="5.74701">
        <ele>385.8</ele>
        <time>2019-04-17T14:02:34Z</time>
      </trkpt>
      <trkpt lat="45.42155" lon="5.74701">
        <ele>385.9</ele>
        <time>2019-04-17T14:02:35Z</time>
      </trkpt>
      <trkpt lat="45.42159" lon="5.74699">
        <ele>385.9</ele>
        <time>2019-04-17T14:02:36Z</time>
      </trkpt>
      <trkpt lat="45.42163" lon="5.74695">
        <ele>385.8</ele>
        <time>2019-04-17T14:02:37Z</time>
      </trkpt>
      <trkpt lat="45.42167" lon="5.74692">
        <ele>385.8</ele>
        <time>2019-04-17T14:02:38Z</time>
      </trkpt>
      <trkpt lat="45.42171" lon="5.74689">
        <ele>385.8</ele>
        <time>2019-04-17T14:02:39Z</time>
      </trkpt>
      <trkpt lat="45.42176" lon="5.74685">
        <ele>385.8</ele>
        <time>2019-04-17T14:02:40Z</time>
      </trkpt>
      <trkpt lat="45.4218" lon="5.74682">
        <ele>385.7</ele>
        <time>2019-04-17T14:02:41Z</time>
      </trkpt>
      <trkpt lat="45.42185" lon="5.74682">
        <ele>385.8</ele>
        <time>2019-04-17T14:02:42Z</time>
      </trkpt>
      <trkpt lat="45.42188" lon="5.7468">
        <ele>385.8</ele>
        <time>2019-04-17T14:02:43Z</time>
      </trkpt>
      <trkpt lat="45.42205" lon="5.74665">
        <ele>385.8</ele>
        <time>2019-04-17T14:02:46Z</time>
      </trkpt>
      <trkpt lat="45.4221" lon="5.74664">
        <ele>385.8</ele>
        <time>2019-04-17T14:02:48Z</time>
      </trkpt>
      <trkpt lat="45.42213" lon="5.74662">
        <ele>385.9</ele>
        <time>2019-04-17T14:02:49Z</time>
      </trkpt>
      <trkpt lat="45.42217" lon="5.74661">
        <ele>385.9</ele>
        <time>2019-04-17T14:02:50Z</time>
      </trkpt>
      <trkpt lat="45.42221" lon="5.7466">
        <ele>385.9</ele>
        <time>2019-04-17T14:02:51Z</time>
      </trkpt>
      <trkpt lat="45.42226" lon="5.74657">
        <ele>385.9</ele>
        <time>2019-04-17T14:02:52Z</time>
      </trkpt>
      <trkpt lat="45.4223" lon="5.74656">
        <ele>386</ele>
        <time>2019-04-17T14:02:53Z</time>
      </trkpt>
      <trkpt lat="45.42233" lon="5.74655">
        <ele>386</ele>
        <time>2019-04-17T14:02:54Z</time>
      </trkpt>
      <trkpt lat="45.42238" lon="5.74654">
        <ele>386</ele>
        <time>2019-04-17T14:02:56Z</time>
      </trkpt>
      <trkpt lat="45.42242" lon="5.74653">
        <ele>386.1</ele>
        <time>2019-04-17T14:02:57Z</time>
      </trkpt>
      <trkpt lat="45.42248" lon="5.74652">
        <ele>386.2</ele>
        <time>2019-04-17T14:02:58Z</time>
      </trkpt>
      <trkpt lat="45.42254" lon="5.74651">
        <ele>386.2</ele>
        <time>2019-04-17T14:02:59Z</time>
      </trkpt>
      <trkpt lat="45.42258" lon="5.7465">
        <ele>386.3</ele>
        <time>2019-04-17T14:03:00Z</time>
      </trkpt>
      <trkpt lat="45.42264" lon="5.7465">
        <ele>386.4</ele>
        <time>2019-04-17T14:03:02Z</time>
      </trkpt>
      <trkpt lat="45.42268" lon="5.74653">
        <ele>386.5</ele>
        <time>2019-04-17T14:03:04Z</time>
      </trkpt>
      <trkpt lat="45.42271" lon="5.74655">
        <ele>386.5</ele>
        <time>2019-04-17T14:03:05Z</time>
      </trkpt>
      <trkpt lat="45.42273" lon="5.74658">
        <ele>386.6</ele>
        <time>2019-04-17T14:03:06Z</time>
      </trkpt>
      <trkpt lat="45.42278" lon="5.74661">
        <ele>386.7</ele>
        <time>2019-04-17T14:03:08Z</time>
      </trkpt>
      <trkpt lat="45.42281" lon="5.74663">
        <ele>386.7</ele>
        <time>2019-04-17T14:03:10Z</time>
      </trkpt>
      <trkpt lat="45.42287" lon="5.74664">
        <ele>386.8</ele>
        <time>2019-04-17T14:03:12Z</time>
      </trkpt>
      <trkpt lat="45.4229" lon="5.74665">
        <ele>386.8</ele>
        <time>2019-04-17T14:03:13Z</time>
      </trkpt>
      <trkpt lat="45.42294" lon="5.74667">
        <ele>386.9</ele>
        <time>2019-04-17T14:03:15Z</time>
      </trkpt>
      <trkpt lat="45.42297" lon="5.74665">
        <ele>387</ele>
        <time>2019-04-17T14:03:19Z</time>
      </trkpt>
      <trkpt lat="45.42297" lon="5.74669">
        <ele>387</ele>
        <time>2019-04-17T14:03:30Z</time>
      </trkpt>
      <trkpt lat="45.42292" lon="5.74674">
        <ele>387.1</ele>
        <time>2019-04-17T14:03:53Z</time>
      </trkpt>
      <trkpt lat="45.42295" lon="5.74671">
        <ele>387.1</ele>
        <time>2019-04-17T14:03:56Z</time>
      </trkpt>
      <trkpt lat="45.42299" lon="5.74672">
        <ele>387.2</ele>
        <time>2019-04-17T14:04:03Z</time>
      </trkpt>
      <trkpt lat="45.42303" lon="5.74674">
        <ele>387.3</ele>
        <time>2019-04-17T14:04:05Z</time>
      </trkpt>
      <trkpt lat="45.42306" lon="5.74675">
        <ele>387.3</ele>
        <time>2019-04-17T14:04:06Z</time>
      </trkpt>
      <trkpt lat="45.42309" lon="5.74676">
        <ele>387.3</ele>
        <time>2019-04-17T14:04:07Z</time>
      </trkpt>
      <trkpt lat="45.42313" lon="5.74677">
        <ele>387.3</ele>
        <time>2019-04-17T14:04:08Z</time>
      </trkpt>
      <trkpt lat="45.42317" lon="5.74679">
        <ele>387.3</ele>
        <time>2019-04-17T14:04:09Z</time>
      </trkpt>
      <trkpt lat="45.42322" lon="5.7468">
        <ele>387.3</ele>
        <time>2019-04-17T14:04:10Z</time>
      </trkpt>
      <trkpt lat="45.42326" lon="5.74681">
        <ele>387.3</ele>
        <time>2019-04-17T14:04:11Z</time>
      </trkpt>
      <trkpt lat="45.4233" lon="5.74682">
        <ele>387.3</ele>
        <time>2019-04-17T14:04:12Z</time>
      </trkpt>
      <trkpt lat="45.42337" lon="5.74685">
        <ele>387.4</ele>
        <time>2019-04-17T14:04:13Z</time>
      </trkpt>
      <trkpt lat="45.42341" lon="5.74687">
        <ele>387.4</ele>
        <time>2019-04-17T14:04:14Z</time>
      </trkpt>
      <trkpt lat="45.42346" lon="5.74688">
        <ele>387.4</ele>
        <time>2019-04-17T14:04:15Z</time>
      </trkpt>
      <trkpt lat="45.42353" lon="5.7469">
        <ele>387.4</ele>
        <time>2019-04-17T14:04:16Z</time>
      </trkpt>
      <trkpt lat="45.42358" lon="5.74692">
        <ele>387.4</ele>
        <time>2019-04-17T14:04:17Z</time>
      </trkpt>
      <trkpt lat="45.42363" lon="5.74695">
        <ele>387.3</ele>
        <time>2019-04-17T14:04:18Z</time>
      </trkpt>
      <trkpt lat="45.42366" lon="5.74696">
        <ele>387.3</ele>
        <time>2019-04-17T14:04:19Z</time>
      </trkpt>
      <trkpt lat="45.42368" lon="5.74698">
        <ele>387.3</ele>
        <time>2019-04-17T14:04:21Z</time>
      </trkpt>
      <trkpt lat="45.42372" lon="5.74699">
        <ele>387.3</ele>
        <time>2019-04-17T14:04:22Z</time>
      </trkpt>
      <trkpt lat="45.42378" lon="5.74703">
        <ele>387.3</ele>
        <time>2019-04-17T14:04:23Z</time>
      </trkpt>
      <trkpt lat="45.42385" lon="5.74707">
        <ele>387.3</ele>
        <time>2019-04-17T14:04:24Z</time>
      </trkpt>
      <trkpt lat="45.42389" lon="5.74709">
        <ele>387.4</ele>
        <time>2019-04-17T14:04:25Z</time>
      </trkpt>
      <trkpt lat="45.42392" lon="5.74712">
        <ele>387.4</ele>
        <time>2019-04-17T14:04:26Z</time>
      </trkpt>
      <trkpt lat="45.42395" lon="5.74714">
        <ele>387.4</ele>
        <time>2019-04-17T14:04:27Z</time>
      </trkpt>
      <trkpt lat="45.42399" lon="5.74716">
        <ele>387.4</ele>
        <time>2019-04-17T14:04:28Z</time>
      </trkpt>
      <trkpt lat="45.42403" lon="5.74717">
        <ele>387.4</ele>
        <time>2019-04-17T14:04:29Z</time>
      </trkpt>
      <trkpt lat="45.42406" lon="5.74718">
        <ele>387.4</ele>
        <time>2019-04-17T14:04:30Z</time>
      </trkpt>
      <trkpt lat="45.42409" lon="5.74719">
        <ele>387.4</ele>
        <time>2019-04-17T14:04:32Z</time>
      </trkpt>
      <trkpt lat="45.42415" lon="5.74722">
        <ele>387.3</ele>
        <time>2019-04-17T14:04:34Z</time>
      </trkpt>
      <trkpt lat="45.42421" lon="5.74725">
        <ele>387.2</ele>
        <time>2019-04-17T14:04:35Z</time>
      </trkpt>
      <trkpt lat="45.42427" lon="5.74727">
        <ele>387.2</ele>
        <time>2019-04-17T14:04:36Z</time>
      </trkpt>
      <trkpt lat="45.42432" lon="5.74731">
        <ele>387.2</ele>
        <time>2019-04-17T14:04:37Z</time>
      </trkpt>
      <trkpt lat="45.42436" lon="5.74733">
        <ele>387.2</ele>
        <time>2019-04-17T14:04:38Z</time>
      </trkpt>
      <trkpt lat="45.4244" lon="5.74735">
        <ele>387.2</ele>
        <time>2019-04-17T14:04:40Z</time>
      </trkpt>
      <trkpt lat="45.42444" lon="5.74738">
        <ele>387.1</ele>
        <time>2019-04-17T14:04:41Z</time>
      </trkpt>
      <trkpt lat="45.42456" lon="5.74736">
        <ele>387.1</ele>
        <time>2019-04-17T14:04:43Z</time>
      </trkpt>
      <trkpt lat="45.42458" lon="5.7474">
        <ele>387</ele>
        <time>2019-04-17T14:04:45Z</time>
      </trkpt>
      <trkpt lat="45.42462" lon="5.74744">
        <ele>387</ele>
        <time>2019-04-17T14:04:46Z</time>
      </trkpt>
      <trkpt lat="45.42466" lon="5.74747">
        <ele>387</ele>
        <time>2019-04-17T14:04:47Z</time>
      </trkpt>
      <trkpt lat="45.42471" lon="5.74749">
        <ele>386.9</ele>
        <time>2019-04-17T14:04:48Z</time>
      </trkpt>
      <trkpt lat="45.42477" lon="5.7475">
        <ele>386.9</ele>
        <time>2019-04-17T14:04:49Z</time>
      </trkpt>
      <trkpt lat="45.42481" lon="5.74752">
        <ele>386.9</ele>
        <time>2019-04-17T14:04:50Z</time>
      </trkpt>
      <trkpt lat="45.42485" lon="5.74753">
        <ele>386.8</ele>
        <time>2019-04-17T14:04:51Z</time>
      </trkpt>
      <trkpt lat="45.4249" lon="5.74756">
        <ele>386.8</ele>
        <time>2019-04-17T14:04:52Z</time>
      </trkpt>
      <trkpt lat="45.42495" lon="5.74758">
        <ele>386.9</ele>
        <time>2019-04-17T14:04:53Z</time>
      </trkpt>
      <trkpt lat="45.425" lon="5.7476">
        <ele>387</ele>
        <time>2019-04-17T14:04:54Z</time>
      </trkpt>
      <trkpt lat="45.42505" lon="5.74763">
        <ele>387</ele>
        <time>2019-04-17T14:04:56Z</time>
      </trkpt>
      <trkpt lat="45.4251" lon="5.74766">
        <ele>387.1</ele>
        <time>2019-04-17T14:04:58Z</time>
      </trkpt>
      <trkpt lat="45.42515" lon="5.74769">
        <ele>387.2</ele>
        <time>2019-04-17T14:05:00Z</time>
      </trkpt>
      <trkpt lat="45.42518" lon="5.7477">
        <ele>387.3</ele>
        <time>2019-04-17T14:05:01Z</time>
      </trkpt>
      <trkpt lat="45.42522" lon="5.74772">
        <ele>387.4</ele>
        <time>2019-04-17T14:05:02Z</time>
      </trkpt>
      <trkpt lat="45.42527" lon="5.74775">
        <ele>387.5</ele>
        <time>2019-04-17T14:05:04Z</time>
      </trkpt>
      <trkpt lat="45.42532" lon="5.74777">
        <ele>387.5</ele>
        <time>2019-04-17T14:05:05Z</time>
      </trkpt>
      <trkpt lat="45.42537" lon="5.7478">
        <ele>387.6</ele>
        <time>2019-04-17T14:05:06Z</time>
      </trkpt>
      <trkpt lat="45.42542" lon="5.7478">
        <ele>387.7</ele>
        <time>2019-04-17T14:05:07Z</time>
      </trkpt>
      <trkpt lat="45.42547" lon="5.74783">
        <ele>387.8</ele>
        <time>2019-04-17T14:05:08Z</time>
      </trkpt>
      <trkpt lat="45.4255" lon="5.74784">
        <ele>387.8</ele>
        <time>2019-04-17T14:05:09Z</time>
      </trkpt>
      <trkpt lat="45.42557" lon="5.74787">
        <ele>387.9</ele>
        <time>2019-04-17T14:05:12Z</time>
      </trkpt>
      <trkpt lat="45.4256" lon="5.74788">
        <ele>388</ele>
        <time>2019-04-17T14:05:13Z</time>
      </trkpt>
      <trkpt lat="45.42567" lon="5.74789">
        <ele>388.1</ele>
        <time>2019-04-17T14:05:14Z</time>
      </trkpt>
      <trkpt lat="45.4257" lon="5.74789">
        <ele>388.1</ele>
        <time>2019-04-17T14:05:15Z</time>
      </trkpt>
      <trkpt lat="45.42573" lon="5.74791">
        <ele>388.2</ele>
        <time>2019-04-17T14:05:16Z</time>
      </trkpt>
      <trkpt lat="45.42576" lon="5.74792">
        <ele>388.2</ele>
        <time>2019-04-17T14:05:17Z</time>
      </trkpt>
      <trkpt lat="45.42579" lon="5.74792">
        <ele>388.3</ele>
        <time>2019-04-17T14:05:18Z</time>
      </trkpt>
      <trkpt lat="45.42582" lon="5.74793">
        <ele>388.3</ele>
        <time>2019-04-17T14:05:19Z</time>
      </trkpt>
      <trkpt lat="45.42586" lon="5.74794">
        <ele>388.4</ele>
        <time>2019-04-17T14:05:21Z</time>
      </trkpt>
      <trkpt lat="45.42591" lon="5.74795">
        <ele>388.4</ele>
        <time>2019-04-17T14:05:23Z</time>
      </trkpt>
      <trkpt lat="45.42595" lon="5.74797">
        <ele>388.4</ele>
        <time>2019-04-17T14:05:24Z</time>
      </trkpt>
      <trkpt lat="45.42603" lon="5.74799">
        <ele>388.4</ele>
        <time>2019-04-17T14:05:25Z</time>
      </trkpt>
      <trkpt lat="45.42611" lon="5.74801">
        <ele>388.2</ele>
        <time>2019-04-17T14:05:26Z</time>
      </trkpt>
      <trkpt lat="45.42617" lon="5.74802">
        <ele>388.1</ele>
        <time>2019-04-17T14:05:27Z</time>
      </trkpt>
      <trkpt lat="45.42622" lon="5.74804">
        <ele>388.1</ele>
        <time>2019-04-17T14:05:28Z</time>
      </trkpt>
      <trkpt lat="45.42626" lon="5.74806">
        <ele>387.8</ele>
        <time>2019-04-17T14:05:29Z</time>
      </trkpt>
      <trkpt lat="45.4263" lon="5.74809">
        <ele>387.7</ele>
        <time>2019-04-17T14:05:30Z</time>
      </trkpt>
      <trkpt lat="45.42634" lon="5.74812">
        <ele>387.5</ele>
        <time>2019-04-17T14:05:31Z</time>
      </trkpt>
      <trkpt lat="45.42637" lon="5.74814">
        <ele>387.4</ele>
        <time>2019-04-17T14:05:32Z</time>
      </trkpt>
      <trkpt lat="45.42639" lon="5.74812">
        <ele>387.4</ele>
        <time>2019-04-17T14:05:33Z</time>
      </trkpt>
      <trkpt lat="45.42643" lon="5.74811">
        <ele>387.3</ele>
        <time>2019-04-17T14:05:35Z</time>
      </trkpt>
      <trkpt lat="45.42646" lon="5.74809">
        <ele>387.2</ele>
        <time>2019-04-17T14:05:37Z</time>
      </trkpt>
      <trkpt lat="45.42649" lon="5.74807">
        <ele>387.2</ele>
        <time>2019-04-17T14:05:39Z</time>
      </trkpt>
      <trkpt lat="45.42654" lon="5.74806">
        <ele>387.1</ele>
        <time>2019-04-17T14:05:41Z</time>
      </trkpt>
      <trkpt lat="45.42659" lon="5.74804">
        <ele>387</ele>
        <time>2019-04-17T14:05:44Z</time>
      </trkpt>
      <trkpt lat="45.42663" lon="5.74804">
        <ele>386.9</ele>
        <time>2019-04-17T14:05:45Z</time>
      </trkpt>
      <trkpt lat="45.42665" lon="5.748">
        <ele>386.8</ele>
        <time>2019-04-17T14:05:48Z</time>
      </trkpt>
      <trkpt lat="45.42671" lon="5.74803">
        <ele>386.8</ele>
        <time>2019-04-17T14:08:45Z</time>
      </trkpt>
      <trkpt lat="45.42674" lon="5.74802">
        <ele>386.7</ele>
        <time>2019-04-17T14:08:50Z</time>
      </trkpt>
      <trkpt lat="45.42677" lon="5.74801">
        <ele>386.7</ele>
        <time>2019-04-17T14:08:52Z</time>
      </trkpt>
      <trkpt lat="45.42681" lon="5.74799">
        <ele>386.6</ele>
        <time>2019-04-17T14:08:54Z</time>
      </trkpt>
      <trkpt lat="45.42685" lon="5.74798">
        <ele>386.5</ele>
        <time>2019-04-17T14:08:56Z</time>
      </trkpt>
      <trkpt lat="45.42688" lon="5.74797">
        <ele>386.5</ele>
        <time>2019-04-17T14:08:58Z</time>
      </trkpt>
      <trkpt lat="45.42691" lon="5.74794">
        <ele>386.5</ele>
        <time>2019-04-17T14:09:00Z</time>
      </trkpt>
      <trkpt lat="45.42694" lon="5.74791">
        <ele>386.4</ele>
        <time>2019-04-17T14:09:02Z</time>
      </trkpt>
      <trkpt lat="45.42698" lon="5.74789">
        <ele>386.3</ele>
        <time>2019-04-17T14:09:04Z</time>
      </trkpt>
      <trkpt lat="45.42702" lon="5.74787">
        <ele>386.3</ele>
        <time>2019-04-17T14:09:06Z</time>
      </trkpt>
      <trkpt lat="45.42705" lon="5.74782">
        <ele>386.2</ele>
        <time>2019-04-17T14:09:08Z</time>
      </trkpt>
      <trkpt lat="45.42709" lon="5.74778">
        <ele>386.2</ele>
        <time>2019-04-17T14:09:10Z</time>
      </trkpt>
      <trkpt lat="45.42712" lon="5.74777">
        <ele>386.1</ele>
        <time>2019-04-17T14:09:11Z</time>
      </trkpt>
      <trkpt lat="45.42716" lon="5.74774">
        <ele>386</ele>
        <time>2019-04-17T14:09:13Z</time>
      </trkpt>
      <trkpt lat="45.4272" lon="5.74771">
        <ele>386</ele>
        <time>2019-04-17T14:09:15Z</time>
      </trkpt>
      <trkpt lat="45.42723" lon="5.74768">
        <ele>386</ele>
        <time>2019-04-17T14:09:17Z</time>
      </trkpt>
      <trkpt lat="45.42726" lon="5.74766">
        <ele>385.9</ele>
        <time>2019-04-17T14:09:22Z</time>
      </trkpt>
      <trkpt lat="45.42729" lon="5.74764">
        <ele>385.9</ele>
        <time>2019-04-17T14:09:24Z</time>
      </trkpt>
      <trkpt lat="45.42733" lon="5.74762">
        <ele>385.9</ele>
        <time>2019-04-17T14:09:26Z</time>
      </trkpt>
      <trkpt lat="45.42735" lon="5.7476">
        <ele>385.8</ele>
        <time>2019-04-17T14:09:27Z</time>
      </trkpt>
      <trkpt lat="45.42738" lon="5.74759">
        <ele>385.8</ele>
        <time>2019-04-17T14:09:28Z</time>
      </trkpt>
      <trkpt lat="45.42741" lon="5.74757">
        <ele>385.8</ele>
        <time>2019-04-17T14:09:29Z</time>
      </trkpt>
      <trkpt lat="45.42746" lon="5.74753">
        <ele>385.8</ele>
        <time>2019-04-17T14:09:31Z</time>
      </trkpt>
      <trkpt lat="45.4275" lon="5.74749">
        <ele>385.8</ele>
        <time>2019-04-17T14:09:33Z</time>
      </trkpt>
      <trkpt lat="45.42753" lon="5.74745">
        <ele>385.8</ele>
        <time>2019-04-17T14:09:35Z</time>
      </trkpt>
      <trkpt lat="45.42758" lon="5.74741">
        <ele>385.9</ele>
        <time>2019-04-17T14:09:37Z</time>
      </trkpt>
      <trkpt lat="45.42762" lon="5.74738">
        <ele>386</ele>
        <time>2019-04-17T14:09:39Z</time>
      </trkpt>
      <trkpt lat="45.42766" lon="5.74735">
        <ele>386</ele>
        <time>2019-04-17T14:09:41Z</time>
      </trkpt>
      <trkpt lat="45.42771" lon="5.74733">
        <ele>386</ele>
        <time>2019-04-17T14:09:43Z</time>
      </trkpt>
      <trkpt lat="45.42774" lon="5.74732">
        <ele>386</ele>
        <time>2019-04-17T14:09:45Z</time>
      </trkpt>
      <trkpt lat="45.42779" lon="5.74729">
        <ele>386</ele>
        <time>2019-04-17T14:09:47Z</time>
      </trkpt>
      <trkpt lat="45.42781" lon="5.74727">
        <ele>386.1</ele>
        <time>2019-04-17T14:09:48Z</time>
      </trkpt>
      <trkpt lat="45.42784" lon="5.74726">
        <ele>386</ele>
        <time>2019-04-17T14:09:49Z</time>
      </trkpt>
      <trkpt lat="45.42786" lon="5.74724">
        <ele>386</ele>
        <time>2019-04-17T14:09:50Z</time>
      </trkpt>
      <trkpt lat="45.4279" lon="5.74722">
        <ele>385.9</ele>
        <time>2019-04-17T14:09:51Z</time>
      </trkpt>
      <trkpt lat="45.42792" lon="5.7472">
        <ele>385.8</ele>
        <time>2019-04-17T14:09:52Z</time>
      </trkpt>
      <trkpt lat="45.42795" lon="5.74718">
        <ele>385.8</ele>
        <time>2019-04-17T14:09:53Z</time>
      </trkpt>
      <trkpt lat="45.428" lon="5.74715">
        <ele>385.7</ele>
        <time>2019-04-17T14:09:55Z</time>
      </trkpt>
      <trkpt lat="45.42805" lon="5.74712">
        <ele>385.6</ele>
        <time>2019-04-17T14:09:57Z</time>
      </trkpt>
      <trkpt lat="45.42808" lon="5.74711">
        <ele>385.6</ele>
        <time>2019-04-17T14:09:58Z</time>
      </trkpt>
      <trkpt lat="45.42813" lon="5.74707">
        <ele>385.7</ele>
        <time>2019-04-17T14:10:00Z</time>
      </trkpt>
      <trkpt lat="45.42816" lon="5.74705">
        <ele>385.6</ele>
        <time>2019-04-17T14:10:01Z</time>
      </trkpt>
      <trkpt lat="45.4282" lon="5.74703">
        <ele>385.6</ele>
        <time>2019-04-17T14:10:02Z</time>
      </trkpt>
      <trkpt lat="45.42824" lon="5.747">
        <ele>385.6</ele>
        <time>2019-04-17T14:10:03Z</time>
      </trkpt>
      <trkpt lat="45.42828" lon="5.74698">
        <ele>385.5</ele>
        <time>2019-04-17T14:10:04Z</time>
      </trkpt>
      <trkpt lat="45.42832" lon="5.74696">
        <ele>385.4</ele>
        <time>2019-04-17T14:10:05Z</time>
      </trkpt>
      <trkpt lat="45.42836" lon="5.74694">
        <ele>385.4</ele>
        <time>2019-04-17T14:10:06Z</time>
      </trkpt>
      <trkpt lat="45.42841" lon="5.74691">
        <ele>385.2</ele>
        <time>2019-04-17T14:10:07Z</time>
      </trkpt>
      <trkpt lat="45.42845" lon="5.74688">
        <ele>385</ele>
        <time>2019-04-17T14:10:09Z</time>
      </trkpt>
      <trkpt lat="45.4288" lon="5.74663">
        <ele>385.9</ele>
        <time>2019-04-17T14:10:12Z</time>
      </trkpt>
      <trkpt lat="45.42885" lon="5.74659">
        <ele>386.3</ele>
        <time>2019-04-17T14:10:13Z</time>
      </trkpt>
      <trkpt lat="45.42889" lon="5.74658">
        <ele>386.7</ele>
        <time>2019-04-17T14:10:14Z</time>
      </trkpt>
      <trkpt lat="45.42895" lon="5.74656">
        <ele>387.2</ele>
        <time>2019-04-17T14:10:15Z</time>
      </trkpt>
      <trkpt lat="45.42898" lon="5.74654">
        <ele>387.5</ele>
        <time>2019-04-17T14:10:16Z</time>
      </trkpt>
      <trkpt lat="45.42901" lon="5.74653">
        <ele>387.8</ele>
        <time>2019-04-17T14:10:17Z</time>
      </trkpt>
      <trkpt lat="45.42904" lon="5.74651">
        <ele>388</ele>
        <time>2019-04-17T14:10:18Z</time>
      </trkpt>
      <trkpt lat="45.42909" lon="5.74648">
        <ele>388.3</ele>
        <time>2019-04-17T14:10:19Z</time>
      </trkpt>
      <trkpt lat="45.42914" lon="5.74645">
        <ele>388.6</ele>
        <time>2019-04-17T14:10:20Z</time>
      </trkpt>
      <trkpt lat="45.42918" lon="5.74643">
        <ele>388.9</ele>
        <time>2019-04-17T14:10:21Z</time>
      </trkpt>
      <trkpt lat="45.42921" lon="5.7464">
        <ele>389.4</ele>
        <time>2019-04-17T14:10:22Z</time>
      </trkpt>
      <trkpt lat="45.42924" lon="5.74637">
        <ele>389.7</ele>
        <time>2019-04-17T14:10:23Z</time>
      </trkpt>
      <trkpt lat="45.42926" lon="5.74635">
        <ele>389.9</ele>
        <time>2019-04-17T14:10:24Z</time>
      </trkpt>
      <trkpt lat="45.42929" lon="5.74632">
        <ele>390.2</ele>
        <time>2019-04-17T14:10:26Z</time>
      </trkpt>
      <trkpt lat="45.42931" lon="5.74629">
        <ele>390.7</ele>
        <time>2019-04-17T14:10:29Z</time>
      </trkpt>
      <trkpt lat="45.42933" lon="5.74625">
        <ele>391.3</ele>
        <time>2019-04-17T14:10:33Z</time>
      </trkpt>
      <trkpt lat="45.42934" lon="5.7462">
        <ele>391.9</ele>
        <time>2019-04-17T14:10:36Z</time>
      </trkpt>
      <trkpt lat="45.42939" lon="5.74615">
        <ele>393.3</ele>
        <time>2019-04-17T14:11:15Z</time>
      </trkpt>
      <trkpt lat="45.42941" lon="5.74613">
        <ele>393.4</ele>
        <time>2019-04-17T14:11:18Z</time>
      </trkpt>
      <trkpt lat="45.42945" lon="5.74611">
        <ele>393.5</ele>
        <time>2019-04-17T14:11:20Z</time>
      </trkpt>
      <trkpt lat="45.42948" lon="5.74611">
        <ele>393.6</ele>
        <time>2019-04-17T14:11:22Z</time>
      </trkpt>
      <trkpt lat="45.42951" lon="5.74611">
        <ele>393.7</ele>
        <time>2019-04-17T14:11:24Z</time>
      </trkpt>
      <trkpt lat="45.42955" lon="5.74612">
        <ele>393.9</ele>
        <time>2019-04-17T14:11:26Z</time>
      </trkpt>
      <trkpt lat="45.42959" lon="5.74616">
        <ele>393.6</ele>
        <time>2019-04-17T14:11:28Z</time>
      </trkpt>
      <trkpt lat="45.42962" lon="5.74621">
        <ele>393.4</ele>
        <time>2019-04-17T14:11:30Z</time>
      </trkpt>
      <trkpt lat="45.42964" lon="5.74624">
        <ele>393.3</ele>
        <time>2019-04-17T14:11:31Z</time>
      </trkpt>
      <trkpt lat="45.42967" lon="5.7463">
        <ele>392.7</ele>
        <time>2019-04-17T14:11:33Z</time>
      </trkpt>
      <trkpt lat="45.42969" lon="5.74636">
        <ele>392.3</ele>
        <time>2019-04-17T14:11:35Z</time>
      </trkpt>
      <trkpt lat="45.42971" lon="5.74643">
        <ele>391.9</ele>
        <time>2019-04-17T14:11:37Z</time>
      </trkpt>
      <trkpt lat="45.42973" lon="5.7465">
        <ele>391.5</ele>
        <time>2019-04-17T14:11:39Z</time>
      </trkpt>
      <trkpt lat="45.42975" lon="5.74653">
        <ele>391.2</ele>
        <time>2019-04-17T14:11:40Z</time>
      </trkpt>
      <trkpt lat="45.42977" lon="5.7466">
        <ele>390.8</ele>
        <time>2019-04-17T14:11:42Z</time>
      </trkpt>
      <trkpt lat="45.42979" lon="5.74666">
        <ele>390.4</ele>
        <time>2019-04-17T14:11:44Z</time>
      </trkpt>
      <trkpt lat="45.4298" lon="5.7467">
        <ele>390.1</ele>
        <time>2019-04-17T14:11:46Z</time>
      </trkpt>
      <trkpt lat="45.42982" lon="5.74676">
        <ele>389.7</ele>
        <time>2019-04-17T14:11:48Z</time>
      </trkpt>
      <trkpt lat="45.42984" lon="5.7468">
        <ele>389.5</ele>
        <time>2019-04-17T14:11:49Z</time>
      </trkpt>
      <trkpt lat="45.42986" lon="5.74683">
        <ele>389.2</ele>
        <time>2019-04-17T14:11:50Z</time>
      </trkpt>
      <trkpt lat="45.42989" lon="5.74687">
        <ele>388.5</ele>
        <time>2019-04-17T14:11:51Z</time>
      </trkpt>
      <trkpt lat="45.42992" lon="5.74688">
        <ele>388.5</ele>
        <time>2019-04-17T14:11:53Z</time>
      </trkpt>
      <trkpt lat="45.42997" lon="5.7469">
        <ele>388.4</ele>
        <time>2019-04-17T14:11:55Z</time>
      </trkpt>
      <trkpt lat="45.42999" lon="5.74688">
        <ele>388.4</ele>
        <time>2019-04-17T14:11:57Z</time>
      </trkpt>
      <trkpt lat="45.43002" lon="5.74687">
        <ele>388.4</ele>
        <time>2019-04-17T14:11:59Z</time>
      </trkpt>
      <trkpt lat="45.43006" lon="5.74686">
        <ele>388.3</ele>
        <time>2019-04-17T14:12:01Z</time>
      </trkpt>
      <trkpt lat="45.43009" lon="5.74683">
        <ele>388.3</ele>
        <time>2019-04-17T14:12:04Z</time>
      </trkpt>
      <trkpt lat="45.43012" lon="5.74682">
        <ele>388.3</ele>
        <time>2019-04-17T14:12:06Z</time>
      </trkpt>
      <trkpt lat="45.43015" lon="5.74681">
        <ele>388.3</ele>
        <time>2019-04-17T14:12:08Z</time>
      </trkpt>
      <trkpt lat="45.43018" lon="5.74681">
        <ele>388.2</ele>
        <time>2019-04-17T14:12:10Z</time>
      </trkpt>
      <trkpt lat="45.43022" lon="5.7468">
        <ele>388.2</ele>
        <time>2019-04-17T14:12:12Z</time>
      </trkpt>
      <trkpt lat="45.43025" lon="5.74679">
        <ele>388.1</ele>
        <time>2019-04-17T14:12:14Z</time>
      </trkpt>
      <trkpt lat="45.43028" lon="5.74675">
        <ele>388</ele>
        <time>2019-04-17T14:12:21Z</time>
      </trkpt>
      <trkpt lat="45.43031" lon="5.74675">
        <ele>388</ele>
        <time>2019-04-17T14:12:23Z</time>
      </trkpt>
      <trkpt lat="45.43035" lon="5.74672">
        <ele>388</ele>
        <time>2019-04-17T14:12:25Z</time>
      </trkpt>
      <trkpt lat="45.43037" lon="5.7467">
        <ele>388</ele>
        <time>2019-04-17T14:12:27Z</time>
      </trkpt>
      <trkpt lat="45.4304" lon="5.74669">
        <ele>388</ele>
        <time>2019-04-17T14:12:29Z</time>
      </trkpt>
      <trkpt lat="45.43045" lon="5.7467">
        <ele>387.9</ele>
        <time>2019-04-17T14:12:31Z</time>
      </trkpt>
      <trkpt lat="45.43047" lon="5.7467">
        <ele>387.9</ele>
        <time>2019-04-17T14:12:32Z</time>
      </trkpt>
      <trkpt lat="45.4305" lon="5.74669">
        <ele>387.9</ele>
        <time>2019-04-17T14:12:33Z</time>
      </trkpt>
      <trkpt lat="45.43053" lon="5.74668">
        <ele>387.9</ele>
        <time>2019-04-17T14:12:34Z</time>
      </trkpt>
      <trkpt lat="45.43058" lon="5.74667">
        <ele>387.8</ele>
        <time>2019-04-17T14:12:36Z</time>
      </trkpt>
      <trkpt lat="45.43062" lon="5.74666">
        <ele>387.7</ele>
        <time>2019-04-17T14:12:38Z</time>
      </trkpt>
      <trkpt lat="45.43067" lon="5.74666">
        <ele>387.7</ele>
        <time>2019-04-17T14:12:40Z</time>
      </trkpt>
      <trkpt lat="45.43072" lon="5.74666">
        <ele>387.6</ele>
        <time>2019-04-17T14:12:42Z</time>
      </trkpt>
      <trkpt lat="45.43074" lon="5.74669">
        <ele>387.6</ele>
        <time>2019-04-17T14:12:56Z</time>
      </trkpt>
      <trkpt lat="45.43079" lon="5.74668">
        <ele>387.6</ele>
        <time>2019-04-17T14:12:59Z</time>
      </trkpt>
      <trkpt lat="45.43084" lon="5.74667">
        <ele>387.5</ele>
        <time>2019-04-17T14:13:01Z</time>
      </trkpt>
      <trkpt lat="45.43088" lon="5.74666">
        <ele>387.5</ele>
        <time>2019-04-17T14:13:03Z</time>
      </trkpt>
      <trkpt lat="45.43093" lon="5.74664">
        <ele>387.5</ele>
        <time>2019-04-17T14:13:05Z</time>
      </trkpt>
      <trkpt lat="45.43097" lon="5.74664">
        <ele>387.4</ele>
        <time>2019-04-17T14:13:07Z</time>
      </trkpt>
      <trkpt lat="45.431" lon="5.74664">
        <ele>387.4</ele>
        <time>2019-04-17T14:13:08Z</time>
      </trkpt>
      <trkpt lat="45.43106" lon="5.74664">
        <ele>387.4</ele>
        <time>2019-04-17T14:13:10Z</time>
      </trkpt>
      <trkpt lat="45.43111" lon="5.74664">
        <ele>387.4</ele>
        <time>2019-04-17T14:13:12Z</time>
      </trkpt>
      <trkpt lat="45.43116" lon="5.74663">
        <ele>387.3</ele>
        <time>2019-04-17T14:13:14Z</time>
      </trkpt>
      <trkpt lat="45.43121" lon="5.74662">
        <ele>387.3</ele>
        <time>2019-04-17T14:13:16Z</time>
      </trkpt>
      <trkpt lat="45.43124" lon="5.74661">
        <ele>387.2</ele>
        <time>2019-04-17T14:13:17Z</time>
      </trkpt>
      <trkpt lat="45.43127" lon="5.74661">
        <ele>387.2</ele>
        <time>2019-04-17T14:13:18Z</time>
      </trkpt>
      <trkpt lat="45.4313" lon="5.74661">
        <ele>387.2</ele>
        <time>2019-04-17T14:13:19Z</time>
      </trkpt>
      <trkpt lat="45.43133" lon="5.74661">
        <ele>387.2</ele>
        <time>2019-04-17T14:13:20Z</time>
      </trkpt>
      <trkpt lat="45.43137" lon="5.74661">
        <ele>387.1</ele>
        <time>2019-04-17T14:13:22Z</time>
      </trkpt>
      <trkpt lat="45.4314" lon="5.74661">
        <ele>387.1</ele>
        <time>2019-04-17T14:13:28Z</time>
      </trkpt>
      <trkpt lat="45.43142" lon="5.74661">
        <ele>387.1</ele>
        <time>2019-04-17T14:14:10Z</time>
      </trkpt>
      <trkpt lat="45.43145" lon="5.74662">
        <ele>387.1</ele>
        <time>2019-04-17T14:14:12Z</time>
      </trkpt>
      <trkpt lat="45.4315" lon="5.74661">
        <ele>387.1</ele>
        <time>2019-04-17T14:14:14Z</time>
      </trkpt>
      <trkpt lat="45.43155" lon="5.74659">
        <ele>387</ele>
        <time>2019-04-17T14:14:16Z</time>
      </trkpt>
      <trkpt lat="45.43161" lon="5.74657">
        <ele>387</ele>
        <time>2019-04-17T14:14:18Z</time>
      </trkpt>
      <trkpt lat="45.43164" lon="5.74656">
        <ele>387</ele>
        <time>2019-04-17T14:14:19Z</time>
      </trkpt>
      <trkpt lat="45.43168" lon="5.74653">
        <ele>387</ele>
        <time>2019-04-17T14:14:21Z</time>
      </trkpt>
      <trkpt lat="45.43172" lon="5.74651">
        <ele>387</ele>
        <time>2019-04-17T14:14:23Z</time>
      </trkpt>
      <trkpt lat="45.43176" lon="5.74649">
        <ele>386.9</ele>
        <time>2019-04-17T14:14:25Z</time>
      </trkpt>
      <trkpt lat="45.4318" lon="5.74647">
        <ele>386.9</ele>
        <time>2019-04-17T14:14:27Z</time>
      </trkpt>
      <trkpt lat="45.43185" lon="5.74646">
        <ele>386.9</ele>
        <time>2019-04-17T14:14:29Z</time>
      </trkpt>
      <trkpt lat="45.4319" lon="5.74645">
        <ele>387</ele>
        <time>2019-04-17T14:14:31Z</time>
      </trkpt>
      <trkpt lat="45.43195" lon="5.74643">
        <ele>387</ele>
        <time>2019-04-17T14:14:33Z</time>
      </trkpt>
      <trkpt lat="45.43199" lon="5.74643">
        <ele>387</ele>
        <time>2019-04-17T14:14:35Z</time>
      </trkpt>
      <trkpt lat="45.43203" lon="5.74641">
        <ele>387.1</ele>
        <time>2019-04-17T14:14:37Z</time>
      </trkpt>
      <trkpt lat="45.43206" lon="5.7464">
        <ele>387.1</ele>
        <time>2019-04-17T14:14:38Z</time>
      </trkpt>
      <trkpt lat="45.43208" lon="5.74637">
        <ele>387.1</ele>
        <time>2019-04-17T14:14:39Z</time>
      </trkpt>
      <trkpt lat="45.43214" lon="5.74634">
        <ele>387</ele>
        <time>2019-04-17T14:14:41Z</time>
      </trkpt>
      <trkpt lat="45.43217" lon="5.74633">
        <ele>387</ele>
        <time>2019-04-17T14:14:42Z</time>
      </trkpt>
      <trkpt lat="45.4322" lon="5.74631">
        <ele>386.9</ele>
        <time>2019-04-17T14:14:43Z</time>
      </trkpt>
      <trkpt lat="45.43225" lon="5.7463">
        <ele>386.7</ele>
        <time>2019-04-17T14:14:45Z</time>
      </trkpt>
      <trkpt lat="45.4323" lon="5.74626">
        <ele>386.6</ele>
        <time>2019-04-17T14:14:47Z</time>
      </trkpt>
      <trkpt lat="45.43233" lon="5.74624">
        <ele>386.5</ele>
        <time>2019-04-17T14:14:48Z</time>
      </trkpt>
      <trkpt lat="45.43237" lon="5.74621">
        <ele>386.3</ele>
        <time>2019-04-17T14:14:49Z</time>
      </trkpt>
      <trkpt lat="45.43241" lon="5.74617">
        <ele>386.1</ele>
        <time>2019-04-17T14:14:50Z</time>
      </trkpt>
      <trkpt lat="45.43244" lon="5.74615">
        <ele>385.9</ele>
        <time>2019-04-17T14:14:51Z</time>
      </trkpt>
      <trkpt lat="45.43249" lon="5.74612">
        <ele>385.6</ele>
        <time>2019-04-17T14:14:53Z</time>
      </trkpt>
      <trkpt lat="45.43254" lon="5.74609">
        <ele>385.3</ele>
        <time>2019-04-17T14:14:55Z</time>
      </trkpt>
      <trkpt lat="45.43258" lon="5.74607">
        <ele>385.2</ele>
        <time>2019-04-17T14:14:57Z</time>
      </trkpt>
      <trkpt lat="45.43261" lon="5.74603">
        <ele>385</ele>
        <time>2019-04-17T14:14:59Z</time>
      </trkpt>
      <trkpt lat="45.43265" lon="5.74599">
        <ele>384.8</ele>
        <time>2019-04-17T14:15:01Z</time>
      </trkpt>
      <trkpt lat="45.4327" lon="5.74599">
        <ele>384.5</ele>
        <time>2019-04-17T14:15:03Z</time>
      </trkpt>
      <trkpt lat="45.43273" lon="5.746">
        <ele>384.5</ele>
        <time>2019-04-17T14:15:04Z</time>
      </trkpt>
      <trkpt lat="45.43275" lon="5.74604">
        <ele>384.5</ele>
        <time>2019-04-17T14:15:05Z</time>
      </trkpt>
      <trkpt lat="45.43275" lon="5.74609">
        <ele>384.5</ele>
        <time>2019-04-17T14:15:06Z</time>
      </trkpt>
      <trkpt lat="45.43276" lon="5.74613">
        <ele>384.6</ele>
        <time>2019-04-17T14:15:07Z</time>
      </trkpt>
      <trkpt lat="45.43275" lon="5.74618">
        <ele>384.7</ele>
        <time>2019-04-17T14:15:08Z</time>
      </trkpt>
      <trkpt lat="45.43273" lon="5.74622">
        <ele>384.8</ele>
        <time>2019-04-17T14:15:09Z</time>
      </trkpt>
      <trkpt lat="45.43271" lon="5.74626">
        <ele>384.9</ele>
        <time>2019-04-17T14:15:10Z</time>
      </trkpt>
      <trkpt lat="45.43271" lon="5.7463">
        <ele>385</ele>
        <time>2019-04-17T14:15:11Z</time>
      </trkpt>
      <trkpt lat="45.4327" lon="5.74637">
        <ele>385.1</ele>
        <time>2019-04-17T14:15:13Z</time>
      </trkpt>
      <trkpt lat="45.43269" lon="5.74642">
        <ele>385.2</ele>
        <time>2019-04-17T14:15:15Z</time>
      </trkpt>
      <trkpt lat="45.43268" lon="5.74648">
        <ele>385.4</ele>
        <time>2019-04-17T14:15:17Z</time>
      </trkpt>
      <trkpt lat="45.43268" lon="5.74654">
        <ele>385.6</ele>
        <time>2019-04-17T14:15:19Z</time>
      </trkpt>
      <trkpt lat="45.43268" lon="5.74661">
        <ele>385.8</ele>
        <time>2019-04-17T14:15:21Z</time>
      </trkpt>
      <trkpt lat="45.43269" lon="5.74665">
        <ele>386</ele>
        <time>2019-04-17T14:15:22Z</time>
      </trkpt>
      <trkpt lat="45.4327" lon="5.7467">
        <ele>386.2</ele>
        <time>2019-04-17T14:15:23Z</time>
      </trkpt>
      <trkpt lat="45.43271" lon="5.74675">
        <ele>386.4</ele>
        <time>2019-04-17T14:15:24Z</time>
      </trkpt>
      <trkpt lat="45.43271" lon="5.74679">
        <ele>386.6</ele>
        <time>2019-04-17T14:15:25Z</time>
      </trkpt>
      <trkpt lat="45.43272" lon="5.74683">
        <ele>386.8</ele>
        <time>2019-04-17T14:15:26Z</time>
      </trkpt>
      <trkpt lat="45.43273" lon="5.74691">
        <ele>387.1</ele>
        <time>2019-04-17T14:15:28Z</time>
      </trkpt>
      <trkpt lat="45.43273" lon="5.74695">
        <ele>387.2</ele>
        <time>2019-04-17T14:15:29Z</time>
      </trkpt>
      <trkpt lat="45.43274" lon="5.74699">
        <ele>387.4</ele>
        <time>2019-04-17T14:15:30Z</time>
      </trkpt>
      <trkpt lat="45.43274" lon="5.74703">
        <ele>387.5</ele>
        <time>2019-04-17T14:15:31Z</time>
      </trkpt>
      <trkpt lat="45.43275" lon="5.74707">
        <ele>387.7</ele>
        <time>2019-04-17T14:15:32Z</time>
      </trkpt>
      <trkpt lat="45.43275" lon="5.74712">
        <ele>387.9</ele>
        <time>2019-04-17T14:15:33Z</time>
      </trkpt>
      <trkpt lat="45.43276" lon="5.74717">
        <ele>387.9</ele>
        <time>2019-04-17T14:15:34Z</time>
      </trkpt>
      <trkpt lat="45.43278" lon="5.74723">
        <ele>387.9</ele>
        <time>2019-04-17T14:15:35Z</time>
      </trkpt>
      <trkpt lat="45.43279" lon="5.74727">
        <ele>388</ele>
        <time>2019-04-17T14:15:36Z</time>
      </trkpt>
      <trkpt lat="45.4328" lon="5.74732">
        <ele>388.1</ele>
        <time>2019-04-17T14:15:37Z</time>
      </trkpt>
      <trkpt lat="45.43282" lon="5.74736">
        <ele>388.2</ele>
        <time>2019-04-17T14:15:38Z</time>
      </trkpt>
      <trkpt lat="45.43283" lon="5.7474">
        <ele>388.3</ele>
        <time>2019-04-17T14:15:39Z</time>
      </trkpt>
      <trkpt lat="45.43284" lon="5.74745">
        <ele>388.4</ele>
        <time>2019-04-17T14:15:40Z</time>
      </trkpt>
      <trkpt lat="45.43286" lon="5.7475">
        <ele>388.5</ele>
        <time>2019-04-17T14:15:41Z</time>
      </trkpt>
      <trkpt lat="45.43287" lon="5.74754">
        <ele>388.6</ele>
        <time>2019-04-17T14:15:42Z</time>
      </trkpt>
      <trkpt lat="45.43288" lon="5.74759">
        <ele>388.7</ele>
        <time>2019-04-17T14:15:43Z</time>
      </trkpt>
      <trkpt lat="45.43289" lon="5.74764">
        <ele>388.8</ele>
        <time>2019-04-17T14:15:44Z</time>
      </trkpt>
      <trkpt lat="45.4329" lon="5.74769">
        <ele>388.9</ele>
        <time>2019-04-17T14:15:45Z</time>
      </trkpt>
      <trkpt lat="45.43291" lon="5.74773">
        <ele>389</ele>
        <time>2019-04-17T14:15:46Z</time>
      </trkpt>
      <trkpt lat="45.43292" lon="5.74778">
        <ele>389.1</ele>
        <time>2019-04-17T14:15:47Z</time>
      </trkpt>
      <trkpt lat="45.43294" lon="5.74783">
        <ele>389.1</ele>
        <time>2019-04-17T14:15:48Z</time>
      </trkpt>
      <trkpt lat="45.43294" lon="5.74788">
        <ele>389.2</ele>
        <time>2019-04-17T14:15:49Z</time>
      </trkpt>
      <trkpt lat="45.43295" lon="5.74792">
        <ele>389.2</ele>
        <time>2019-04-17T14:15:50Z</time>
      </trkpt>
      <trkpt lat="45.43296" lon="5.74797">
        <ele>389.3</ele>
        <time>2019-04-17T14:15:51Z</time>
      </trkpt>
      <trkpt lat="45.43298" lon="5.74802">
        <ele>389.3</ele>
        <time>2019-04-17T14:15:52Z</time>
      </trkpt>
      <trkpt lat="45.43299" lon="5.74807">
        <ele>389.3</ele>
        <time>2019-04-17T14:15:53Z</time>
      </trkpt>
      <trkpt lat="45.43301" lon="5.74811">
        <ele>389.3</ele>
        <time>2019-04-17T14:15:54Z</time>
      </trkpt>
      <trkpt lat="45.43302" lon="5.74815">
        <ele>389.4</ele>
        <time>2019-04-17T14:15:55Z</time>
      </trkpt>
      <trkpt lat="45.43304" lon="5.7482">
        <ele>389.4</ele>
        <time>2019-04-17T14:15:57Z</time>
      </trkpt>
      <trkpt lat="45.43306" lon="5.74827">
        <ele>389.4</ele>
        <time>2019-04-17T14:15:59Z</time>
      </trkpt>
      <trkpt lat="45.43308" lon="5.74831">
        <ele>389.5</ele>
        <time>2019-04-17T14:16:00Z</time>
      </trkpt>
      <trkpt lat="45.43311" lon="5.74835">
        <ele>389.5</ele>
        <time>2019-04-17T14:16:01Z</time>
      </trkpt>
      <trkpt lat="45.43313" lon="5.7484">
        <ele>389.5</ele>
        <time>2019-04-17T14:16:02Z</time>
      </trkpt>
      <trkpt lat="45.43316" lon="5.74844">
        <ele>389.5</ele>
        <time>2019-04-17T14:16:03Z</time>
      </trkpt>
      <trkpt lat="45.43318" lon="5.74847">
        <ele>389.5</ele>
        <time>2019-04-17T14:16:04Z</time>
      </trkpt>
      <trkpt lat="45.43321" lon="5.74853">
        <ele>389.4</ele>
        <time>2019-04-17T14:16:06Z</time>
      </trkpt>
      <trkpt lat="45.43322" lon="5.74856">
        <ele>389.4</ele>
        <time>2019-04-17T14:16:07Z</time>
      </trkpt>
      <trkpt lat="45.43324" lon="5.74862">
        <ele>389.4</ele>
        <time>2019-04-17T14:16:09Z</time>
      </trkpt>
      <trkpt lat="45.43326" lon="5.7487">
        <ele>389.4</ele>
        <time>2019-04-17T14:16:11Z</time>
      </trkpt>
      <trkpt lat="45.43327" lon="5.74875">
        <ele>389.3</ele>
        <time>2019-04-17T14:16:12Z</time>
      </trkpt>
      <trkpt lat="45.43328" lon="5.7488">
        <ele>389.3</ele>
        <time>2019-04-17T14:16:13Z</time>
      </trkpt>
      <trkpt lat="45.4333" lon="5.74885">
        <ele>389.3</ele>
        <time>2019-04-17T14:16:14Z</time>
      </trkpt>
      <trkpt lat="45.4333" lon="5.74894">
        <ele>389.3</ele>
        <time>2019-04-17T14:16:16Z</time>
      </trkpt>
      <trkpt lat="45.43329" lon="5.74899">
        <ele>389.4</ele>
        <time>2019-04-17T14:16:17Z</time>
      </trkpt>
      <trkpt lat="45.4333" lon="5.74904">
        <ele>389.4</ele>
        <time>2019-04-17T14:16:18Z</time>
      </trkpt>
      <trkpt lat="45.43331" lon="5.7491">
        <ele>389.4</ele>
        <time>2019-04-17T14:16:19Z</time>
      </trkpt>
      <trkpt lat="45.43331" lon="5.74914">
        <ele>389.4</ele>
        <time>2019-04-17T14:16:20Z</time>
      </trkpt>
      <trkpt lat="45.43333" lon="5.74919">
        <ele>389.4</ele>
        <time>2019-04-17T14:16:21Z</time>
      </trkpt>
      <trkpt lat="45.43335" lon="5.74923">
        <ele>389.4</ele>
        <time>2019-04-17T14:16:22Z</time>
      </trkpt>
      <trkpt lat="45.43336" lon="5.74928">
        <ele>389.4</ele>
        <time>2019-04-17T14:16:23Z</time>
      </trkpt>
      <trkpt lat="45.43337" lon="5.74932">
        <ele>389.5</ele>
        <time>2019-04-17T14:16:24Z</time>
      </trkpt>
      <trkpt lat="45.43338" lon="5.74938">
        <ele>389.4</ele>
        <time>2019-04-17T14:16:26Z</time>
      </trkpt>
      <trkpt lat="45.43339" lon="5.74945">
        <ele>389.3</ele>
        <time>2019-04-17T14:16:28Z</time>
      </trkpt>
      <trkpt lat="45.4334" lon="5.7495">
        <ele>389.3</ele>
        <time>2019-04-17T14:16:30Z</time>
      </trkpt>
      <trkpt lat="45.43341" lon="5.74954">
        <ele>389.3</ele>
        <time>2019-04-17T14:16:32Z</time>
      </trkpt>
      <trkpt lat="45.43339" lon="5.74959">
        <ele>389.3</ele>
        <time>2019-04-17T14:16:34Z</time>
      </trkpt>
      <trkpt lat="45.43338" lon="5.74963">
        <ele>389.3</ele>
        <time>2019-04-17T14:16:36Z</time>
      </trkpt>
      <trkpt lat="45.43337" lon="5.74968">
        <ele>389.5</ele>
        <time>2019-04-17T14:16:38Z</time>
      </trkpt>
      <trkpt lat="45.43335" lon="5.74972">
        <ele>389.6</ele>
        <time>2019-04-17T14:16:43Z</time>
      </trkpt>
      <trkpt lat="45.43333" lon="5.7498">
        <ele>389.7</ele>
        <time>2019-04-17T14:16:45Z</time>
      </trkpt>
      <trkpt lat="45.43332" lon="5.74985">
        <ele>389.7</ele>
        <time>2019-04-17T14:16:46Z</time>
      </trkpt>
      <trkpt lat="45.4333" lon="5.74991">
        <ele>389.7</ele>
        <time>2019-04-17T14:16:47Z</time>
      </trkpt>
      <trkpt lat="45.43329" lon="5.74997">
        <ele>389.7</ele>
        <time>2019-04-17T14:16:48Z</time>
      </trkpt>
      <trkpt lat="45.43328" lon="5.75003">
        <ele>389.7</ele>
        <time>2019-04-17T14:16:49Z</time>
      </trkpt>
      <trkpt lat="45.43328" lon="5.75014">
        <ele>389.5</ele>
        <time>2019-04-17T14:16:50Z</time>
      </trkpt>
      <trkpt lat="45.43329" lon="5.75018">
        <ele>389.4</ele>
        <time>2019-04-17T14:16:51Z</time>
      </trkpt>
      <trkpt lat="45.43332" lon="5.75024">
        <ele>389.2</ele>
        <time>2019-04-17T14:16:52Z</time>
      </trkpt>
      <trkpt lat="45.43333" lon="5.75029">
        <ele>389</ele>
        <time>2019-04-17T14:16:53Z</time>
      </trkpt>
      <trkpt lat="45.43335" lon="5.75035">
        <ele>388.9</ele>
        <time>2019-04-17T14:16:54Z</time>
      </trkpt>
      <trkpt lat="45.43337" lon="5.75039">
        <ele>388.8</ele>
        <time>2019-04-17T14:16:55Z</time>
      </trkpt>
      <trkpt lat="45.43339" lon="5.75044">
        <ele>388.7</ele>
        <time>2019-04-17T14:16:56Z</time>
      </trkpt>
      <trkpt lat="45.4334" lon="5.75051">
        <ele>388.5</ele>
        <time>2019-04-17T14:16:57Z</time>
      </trkpt>
      <trkpt lat="45.43341" lon="5.75057">
        <ele>388.4</ele>
        <time>2019-04-17T14:16:58Z</time>
      </trkpt>
      <trkpt lat="45.4334" lon="5.75065">
        <ele>388.2</ele>
        <time>2019-04-17T14:16:59Z</time>
      </trkpt>
      <trkpt lat="45.43341" lon="5.75073">
        <ele>388</ele>
        <time>2019-04-17T14:17:00Z</time>
      </trkpt>
      <trkpt lat="45.4334" lon="5.75082">
        <ele>387.8</ele>
        <time>2019-04-17T14:17:01Z</time>
      </trkpt>
      <trkpt lat="45.43336" lon="5.7509">
        <ele>387.8</ele>
        <time>2019-04-17T14:17:02Z</time>
      </trkpt>
      <trkpt lat="45.43332" lon="5.75098">
        <ele>387.9</ele>
        <time>2019-04-17T14:17:03Z</time>
      </trkpt>
      <trkpt lat="45.4333" lon="5.75105">
        <ele>387.9</ele>
        <time>2019-04-17T14:17:04Z</time>
      </trkpt>
      <trkpt lat="45.43327" lon="5.7511">
        <ele>387.9</ele>
        <time>2019-04-17T14:17:05Z</time>
      </trkpt>
      <trkpt lat="45.43324" lon="5.75116">
        <ele>387.9</ele>
        <time>2019-04-17T14:17:06Z</time>
      </trkpt>
      <trkpt lat="45.43321" lon="5.75121">
        <ele>387.9</ele>
        <time>2019-04-17T14:17:07Z</time>
      </trkpt>
      <trkpt lat="45.43318" lon="5.75126">
        <ele>387.9</ele>
        <time>2019-04-17T14:17:08Z</time>
      </trkpt>
      <trkpt lat="45.43316" lon="5.75132">
        <ele>387.9</ele>
        <time>2019-04-17T14:17:09Z</time>
      </trkpt>
      <trkpt lat="45.43313" lon="5.75137">
        <ele>387.9</ele>
        <time>2019-04-17T14:17:10Z</time>
      </trkpt>
      <trkpt lat="45.43311" lon="5.75142">
        <ele>387.9</ele>
        <time>2019-04-17T14:17:11Z</time>
      </trkpt>
      <trkpt lat="45.4331" lon="5.75147">
        <ele>387.9</ele>
        <time>2019-04-17T14:17:12Z</time>
      </trkpt>
      <trkpt lat="45.43308" lon="5.75152">
        <ele>387.9</ele>
        <time>2019-04-17T14:17:13Z</time>
      </trkpt>
      <trkpt lat="45.43307" lon="5.75157">
        <ele>387.8</ele>
        <time>2019-04-17T14:17:14Z</time>
      </trkpt>
      <trkpt lat="45.43306" lon="5.75162">
        <ele>387.8</ele>
        <time>2019-04-17T14:17:15Z</time>
      </trkpt>
      <trkpt lat="45.43307" lon="5.75166">
        <ele>387.8</ele>
        <time>2019-04-17T14:17:16Z</time>
      </trkpt>
      <trkpt lat="45.43307" lon="5.75171">
        <ele>387.7</ele>
        <time>2019-04-17T14:17:17Z</time>
      </trkpt>
      <trkpt lat="45.43307" lon="5.75176">
        <ele>387.6</ele>
        <time>2019-04-17T14:17:18Z</time>
      </trkpt>
      <trkpt lat="45.43307" lon="5.75181">
        <ele>387.6</ele>
        <time>2019-04-17T14:17:19Z</time>
      </trkpt>
      <trkpt lat="45.43307" lon="5.75185">
        <ele>387.5</ele>
        <time>2019-04-17T14:17:20Z</time>
      </trkpt>
      <trkpt lat="45.43306" lon="5.75191">
        <ele>387.4</ele>
        <time>2019-04-17T14:17:22Z</time>
      </trkpt>
      <trkpt lat="45.43305" lon="5.75195">
        <ele>387.4</ele>
        <time>2019-04-17T14:17:23Z</time>
      </trkpt>
      <trkpt lat="45.43304" lon="5.75202">
        <ele>387.3</ele>
        <time>2019-04-17T14:17:25Z</time>
      </trkpt>
      <trkpt lat="45.43305" lon="5.75209">
        <ele>387.1</ele>
        <time>2019-04-17T14:17:27Z</time>
      </trkpt>
      <trkpt lat="45.43308" lon="5.75215">
        <ele>387.1</ele>
        <time>2019-04-17T14:17:29Z</time>
      </trkpt>
      <trkpt lat="45.43311" lon="5.7522">
        <ele>386.7</ele>
        <time>2019-04-17T14:17:31Z</time>
      </trkpt>
      <trkpt lat="45.43315" lon="5.75222">
        <ele>385.9</ele>
        <time>2019-04-17T14:17:33Z</time>
      </trkpt>
      <trkpt lat="45.43319" lon="5.75223">
        <ele>385.8</ele>
        <time>2019-04-17T14:17:36Z</time>
      </trkpt>
      <trkpt lat="45.43318" lon="5.75226">
        <ele>385.8</ele>
        <time>2019-04-17T14:18:34Z</time>
      </trkpt>
      <trkpt lat="45.43315" lon="5.75225">
        <ele>385.7</ele>
        <time>2019-04-17T14:18:45Z</time>
      </trkpt>
      <trkpt lat="45.43318" lon="5.75224">
        <ele>385.7</ele>
        <time>2019-04-17T14:19:16Z</time>
      </trkpt>
      <trkpt lat="45.43321" lon="5.75226">
        <ele>385.7</ele>
        <time>2019-04-17T14:19:19Z</time>
      </trkpt>
      <trkpt lat="45.43324" lon="5.75227">
        <ele>385.7</ele>
        <time>2019-04-17T14:19:20Z</time>
      </trkpt>
      <trkpt lat="45.43325" lon="5.75231">
        <ele>385.7</ele>
        <time>2019-04-17T14:19:21Z</time>
      </trkpt>
      <trkpt lat="45.43329" lon="5.75233">
        <ele>385.6</ele>
        <time>2019-04-17T14:19:23Z</time>
      </trkpt>
      <trkpt lat="45.43333" lon="5.75233">
        <ele>385.6</ele>
        <time>2019-04-17T14:19:25Z</time>
      </trkpt>
      <trkpt lat="45.43337" lon="5.75235">
        <ele>385.6</ele>
        <time>2019-04-17T14:19:27Z</time>
      </trkpt>
      <trkpt lat="45.4334" lon="5.75237">
        <ele>385.6</ele>
        <time>2019-04-17T14:19:28Z</time>
      </trkpt>
      <trkpt lat="45.43342" lon="5.7524">
        <ele>385.5</ele>
        <time>2019-04-17T14:19:29Z</time>
      </trkpt>
      <trkpt lat="45.43346" lon="5.75243">
        <ele>385.5</ele>
        <time>2019-04-17T14:19:30Z</time>
      </trkpt>
      <trkpt lat="45.43349" lon="5.75244">
        <ele>385.4</ele>
        <time>2019-04-17T14:19:31Z</time>
      </trkpt>
      <trkpt lat="45.43353" lon="5.75245">
        <ele>385.4</ele>
        <time>2019-04-17T14:19:32Z</time>
      </trkpt>
      <trkpt lat="45.43357" lon="5.75245">
        <ele>385.3</ele>
        <time>2019-04-17T14:19:33Z</time>
      </trkpt>
      <trkpt lat="45.4336" lon="5.75246">
        <ele>385.2</ele>
        <time>2019-04-17T14:19:34Z</time>
      </trkpt>
      <trkpt lat="45.43365" lon="5.75245">
        <ele>385.1</ele>
        <time>2019-04-17T14:19:35Z</time>
      </trkpt>
      <trkpt lat="45.43368" lon="5.75246">
        <ele>385.1</ele>
        <time>2019-04-17T14:19:36Z</time>
      </trkpt>
      <trkpt lat="45.43371" lon="5.75245">
        <ele>385.1</ele>
        <time>2019-04-17T14:19:37Z</time>
      </trkpt>
      <trkpt lat="45.43374" lon="5.75246">
        <ele>385</ele>
        <time>2019-04-17T14:19:38Z</time>
      </trkpt>
      <trkpt lat="45.43377" lon="5.75246">
        <ele>385</ele>
        <time>2019-04-17T14:19:39Z</time>
      </trkpt>
      <trkpt lat="45.43383" lon="5.75244">
        <ele>384.9</ele>
        <time>2019-04-17T14:19:41Z</time>
      </trkpt>
      <trkpt lat="45.43386" lon="5.75243">
        <ele>384.9</ele>
        <time>2019-04-17T14:19:42Z</time>
      </trkpt>
      <trkpt lat="45.43389" lon="5.75242">
        <ele>384.9</ele>
        <time>2019-04-17T14:19:43Z</time>
      </trkpt>
      <trkpt lat="45.43393" lon="5.75243">
        <ele>384.8</ele>
        <time>2019-04-17T14:19:44Z</time>
      </trkpt>
      <trkpt lat="45.43395" lon="5.75244">
        <ele>384.8</ele>
        <time>2019-04-17T14:19:45Z</time>
      </trkpt>
      <trkpt lat="45.43399" lon="5.75243">
        <ele>384.7</ele>
        <time>2019-04-17T14:19:47Z</time>
      </trkpt>
      <trkpt lat="45.43404" lon="5.75243">
        <ele>384.7</ele>
        <time>2019-04-17T14:19:49Z</time>
      </trkpt>
      <trkpt lat="45.43409" lon="5.75243">
        <ele>384.6</ele>
        <time>2019-04-17T14:19:51Z</time>
      </trkpt>
      <trkpt lat="45.43412" lon="5.75245">
        <ele>384.6</ele>
        <time>2019-04-17T14:19:52Z</time>
      </trkpt>
      <trkpt lat="45.43416" lon="5.75247">
        <ele>384.5</ele>
        <time>2019-04-17T14:19:54Z</time>
      </trkpt>
      <trkpt lat="45.43418" lon="5.75249">
        <ele>384.5</ele>
        <time>2019-04-17T14:19:57Z</time>
      </trkpt>
      <trkpt lat="45.43416" lon="5.75253">
        <ele>384.6</ele>
        <time>2019-04-17T14:20:04Z</time>
      </trkpt>
      <trkpt lat="45.43413" lon="5.75253">
        <ele>384.6</ele>
        <time>2019-04-17T14:20:06Z</time>
      </trkpt>
      <trkpt lat="45.43408" lon="5.75254">
        <ele>384.7</ele>
        <time>2019-04-17T14:20:08Z</time>
      </trkpt>
      <trkpt lat="45.43403" lon="5.75255">
        <ele>384.7</ele>
        <time>2019-04-17T14:20:10Z</time>
      </trkpt>
      <trkpt lat="45.43398" lon="5.75256">
        <ele>384.8</ele>
        <time>2019-04-17T14:20:12Z</time>
      </trkpt>
      <trkpt lat="45.43394" lon="5.75258">
        <ele>384.8</ele>
        <time>2019-04-17T14:20:14Z</time>
      </trkpt>
      <trkpt lat="45.43391" lon="5.75259">
        <ele>384.8</ele>
        <time>2019-04-17T14:20:16Z</time>
      </trkpt>
      <trkpt lat="45.43387" lon="5.75258">
        <ele>384.9</ele>
        <time>2019-04-17T14:20:21Z</time>
      </trkpt>
      <trkpt lat="45.43384" lon="5.75257">
        <ele>384.9</ele>
        <time>2019-04-17T14:20:22Z</time>
      </trkpt>
      <trkpt lat="45.4338" lon="5.75254">
        <ele>384.9</ele>
        <time>2019-04-17T14:20:24Z</time>
      </trkpt>
      <trkpt lat="45.43376" lon="5.75253">
        <ele>385</ele>
        <time>2019-04-17T14:20:26Z</time>
      </trkpt>
      <trkpt lat="45.43373" lon="5.75254">
        <ele>385</ele>
        <time>2019-04-17T14:20:29Z</time>
      </trkpt>
      <trkpt lat="45.43375" lon="5.75257">
        <ele>385</ele>
        <time>2019-04-17T14:20:39Z</time>
      </trkpt>
      <trkpt lat="45.43378" lon="5.75257">
        <ele>384.7</ele>
        <time>2019-04-17T14:20:41Z</time>
      </trkpt>
      <trkpt lat="45.43383" lon="5.75258">
        <ele>384.6</ele>
        <time>2019-04-17T14:21:08Z</time>
      </trkpt>
      <trkpt lat="45.43386" lon="5.75259">
        <ele>384.6</ele>
        <time>2019-04-17T14:21:10Z</time>
      </trkpt>
      <trkpt lat="45.43391" lon="5.75258">
        <ele>384.5</ele>
        <time>2019-04-17T14:21:12Z</time>
      </trkpt>
      <trkpt lat="45.43396" lon="5.75258">
        <ele>384.4</ele>
        <time>2019-04-17T14:21:14Z</time>
      </trkpt>
      <trkpt lat="45.43401" lon="5.75257">
        <ele>384.4</ele>
        <time>2019-04-17T14:21:16Z</time>
      </trkpt>
      <trkpt lat="45.43406" lon="5.75256">
        <ele>384.3</ele>
        <time>2019-04-17T14:21:18Z</time>
      </trkpt>
      <trkpt lat="45.43409" lon="5.75257">
        <ele>384.3</ele>
        <time>2019-04-17T14:21:19Z</time>
      </trkpt>
      <trkpt lat="45.43415" lon="5.75256">
        <ele>384.3</ele>
        <time>2019-04-17T14:21:21Z</time>
      </trkpt>
      <trkpt lat="45.43419" lon="5.75256">
        <ele>384.3</ele>
        <time>2019-04-17T14:21:22Z</time>
      </trkpt>
      <trkpt lat="45.43422" lon="5.75255">
        <ele>384.3</ele>
        <time>2019-04-17T14:21:23Z</time>
      </trkpt>
      <trkpt lat="45.43425" lon="5.75255">
        <ele>384.3</ele>
        <time>2019-04-17T14:21:24Z</time>
      </trkpt>
      <trkpt lat="45.43428" lon="5.75255">
        <ele>384.3</ele>
        <time>2019-04-17T14:21:25Z</time>
      </trkpt>
      <trkpt lat="45.43433" lon="5.75257">
        <ele>384.3</ele>
        <time>2019-04-17T14:21:26Z</time>
      </trkpt>
      <trkpt lat="45.43437" lon="5.75259">
        <ele>384.4</ele>
        <time>2019-04-17T14:21:27Z</time>
      </trkpt>
      <trkpt lat="45.43441" lon="5.7526">
        <ele>384.4</ele>
        <time>2019-04-17T14:21:28Z</time>
      </trkpt>
      <trkpt lat="45.43445" lon="5.75263">
        <ele>384.4</ele>
        <time>2019-04-17T14:21:29Z</time>
      </trkpt>
      <trkpt lat="45.43449" lon="5.75265">
        <ele>384.4</ele>
        <time>2019-04-17T14:21:30Z</time>
      </trkpt>
      <trkpt lat="45.43451" lon="5.75266">
        <ele>384.4</ele>
        <time>2019-04-17T14:21:31Z</time>
      </trkpt>
      <trkpt lat="45.43455" lon="5.75268">
        <ele>384.4</ele>
        <time>2019-04-17T14:21:32Z</time>
      </trkpt>
      <trkpt lat="45.43458" lon="5.75268">
        <ele>384.4</ele>
        <time>2019-04-17T14:21:33Z</time>
      </trkpt>
      <trkpt lat="45.43463" lon="5.75269">
        <ele>384.5</ele>
        <time>2019-04-17T14:21:34Z</time>
      </trkpt>
      <trkpt lat="45.43467" lon="5.75271">
        <ele>384.5</ele>
        <time>2019-04-17T14:21:35Z</time>
      </trkpt>
      <trkpt lat="45.4347" lon="5.75273">
        <ele>384.5</ele>
        <time>2019-04-17T14:21:36Z</time>
      </trkpt>
      <trkpt lat="45.43472" lon="5.75277">
        <ele>384.5</ele>
        <time>2019-04-17T14:21:37Z</time>
      </trkpt>
      <trkpt lat="45.43471" lon="5.75283">
        <ele>384.5</ele>
        <time>2019-04-17T14:21:38Z</time>
      </trkpt>
      <trkpt lat="45.4347" lon="5.75287">
        <ele>384.6</ele>
        <time>2019-04-17T14:21:39Z</time>
      </trkpt>
      <trkpt lat="45.43469" lon="5.75294">
        <ele>384.6</ele>
        <time>2019-04-17T14:21:41Z</time>
      </trkpt>
      <trkpt lat="45.43468" lon="5.75298">
        <ele>384.6</ele>
        <time>2019-04-17T14:21:45Z</time>
      </trkpt>
      <trkpt lat="45.43467" lon="5.75303">
        <ele>384.6</ele>
        <time>2019-04-17T14:22:07Z</time>
      </trkpt>
      <trkpt lat="45.43468" lon="5.75307">
        <ele>384.6</ele>
        <time>2019-04-17T14:22:08Z</time>
      </trkpt>
      <trkpt lat="45.43467" lon="5.75311">
        <ele>384.6</ele>
        <time>2019-04-17T14:22:09Z</time>
      </trkpt>
      <trkpt lat="45.43466" lon="5.75316">
        <ele>384.6</ele>
        <time>2019-04-17T14:22:10Z</time>
      </trkpt>
      <trkpt lat="45.43464" lon="5.75322">
        <ele>384.6</ele>
        <time>2019-04-17T14:22:11Z</time>
      </trkpt>
      <trkpt lat="45.43464" lon="5.75326">
        <ele>384.6</ele>
        <time>2019-04-17T14:22:12Z</time>
      </trkpt>
      <trkpt lat="45.43464" lon="5.75334">
        <ele>384.6</ele>
        <time>2019-04-17T14:22:14Z</time>
      </trkpt>
      <trkpt lat="45.43464" lon="5.75341">
        <ele>384.6</ele>
        <time>2019-04-17T14:22:15Z</time>
      </trkpt>
      <trkpt lat="45.43464" lon="5.75347">
        <ele>384.6</ele>
        <time>2019-04-17T14:22:16Z</time>
      </trkpt>
      <trkpt lat="45.43463" lon="5.75355">
        <ele>384.6</ele>
        <time>2019-04-17T14:22:17Z</time>
      </trkpt>
      <trkpt lat="45.43464" lon="5.7536">
        <ele>384.6</ele>
        <time>2019-04-17T14:22:18Z</time>
      </trkpt>
      <trkpt lat="45.43464" lon="5.75366">
        <ele>384.6</ele>
        <time>2019-04-17T14:22:19Z</time>
      </trkpt>
      <trkpt lat="45.43464" lon="5.75371">
        <ele>384.6</ele>
        <time>2019-04-17T14:22:20Z</time>
      </trkpt>
      <trkpt lat="45.43466" lon="5.75377">
        <ele>384.6</ele>
        <time>2019-04-17T14:22:21Z</time>
      </trkpt>
      <trkpt lat="45.43467" lon="5.75381">
        <ele>384.6</ele>
        <time>2019-04-17T14:22:22Z</time>
      </trkpt>
      <trkpt lat="45.43467" lon="5.75386">
        <ele>384.7</ele>
        <time>2019-04-17T14:22:23Z</time>
      </trkpt>
      <trkpt lat="45.43469" lon="5.75393">
        <ele>384.6</ele>
        <time>2019-04-17T14:22:24Z</time>
      </trkpt>
      <trkpt lat="45.4347" lon="5.754">
        <ele>384.6</ele>
        <time>2019-04-17T14:22:25Z</time>
      </trkpt>
      <trkpt lat="45.43471" lon="5.75407">
        <ele>384.6</ele>
        <time>2019-04-17T14:22:26Z</time>
      </trkpt>
      <trkpt lat="45.43472" lon="5.75415">
        <ele>384.7</ele>
        <time>2019-04-17T14:22:27Z</time>
      </trkpt>
      <trkpt lat="45.43473" lon="5.75422">
        <ele>384.7</ele>
        <time>2019-04-17T14:22:28Z</time>
      </trkpt>
      <trkpt lat="45.43475" lon="5.75429">
        <ele>384.7</ele>
        <time>2019-04-17T14:22:29Z</time>
      </trkpt>
      <trkpt lat="45.43476" lon="5.75435">
        <ele>384.7</ele>
        <time>2019-04-17T14:22:30Z</time>
      </trkpt>
      <trkpt lat="45.43476" lon="5.7544">
        <ele>384.7</ele>
        <time>2019-04-17T14:22:31Z</time>
      </trkpt>
      <trkpt lat="45.43476" lon="5.75445">
        <ele>384.8</ele>
        <time>2019-04-17T14:22:32Z</time>
      </trkpt>
      <trkpt lat="45.43476" lon="5.7545">
        <ele>384.9</ele>
        <time>2019-04-17T14:22:33Z</time>
      </trkpt>
      <trkpt lat="45.43474" lon="5.75455">
        <ele>385</ele>
        <time>2019-04-17T14:22:35Z</time>
      </trkpt>
      <trkpt lat="45.43471" lon="5.75459">
        <ele>385.1</ele>
        <time>2019-04-17T14:22:37Z</time>
      </trkpt>
      <trkpt lat="45.43468" lon="5.75465">
        <ele>385.3</ele>
        <time>2019-04-17T14:22:39Z</time>
      </trkpt>
      <trkpt lat="45.43466" lon="5.75468">
        <ele>385.4</ele>
        <time>2019-04-17T14:22:41Z</time>
      </trkpt>
      <trkpt lat="45.43466" lon="5.75472">
        <ele>385.5</ele>
        <time>2019-04-17T14:22:45Z</time>
      </trkpt>
      <trkpt lat="45.43466" lon="5.75478">
        <ele>385.6</ele>
        <time>2019-04-17T14:22:47Z</time>
      </trkpt>
      <trkpt lat="45.43465" lon="5.75486">
        <ele>385.8</ele>
        <time>2019-04-17T14:22:49Z</time>
      </trkpt>
      <trkpt lat="45.43461" lon="5.75479">
        <ele>386.1</ele>
        <time>2019-04-17T14:23:28Z</time>
      </trkpt>
      <trkpt lat="45.43458" lon="5.7548">
        <ele>386.2</ele>
        <time>2019-04-17T14:23:30Z</time>
      </trkpt>
      <trkpt lat="45.43455" lon="5.75482">
        <ele>386.3</ele>
        <time>2019-04-17T14:23:33Z</time>
      </trkpt>
      <trkpt lat="45.43452" lon="5.75484">
        <ele>386.5</ele>
        <time>2019-04-17T14:23:35Z</time>
      </trkpt>
      <trkpt lat="45.43449" lon="5.75486">
        <ele>386.6</ele>
        <time>2019-04-17T14:23:37Z</time>
      </trkpt>
      <trkpt lat="45.43447" lon="5.75489">
        <ele>386.7</ele>
        <time>2019-04-17T14:23:45Z</time>
      </trkpt>
      <trkpt lat="45.43443" lon="5.75491">
        <ele>386.9</ele>
        <time>2019-04-17T14:23:55Z</time>
      </trkpt>
      <trkpt lat="45.4344" lon="5.75491">
        <ele>387</ele>
        <time>2019-04-17T14:23:56Z</time>
      </trkpt>
      <trkpt lat="45.43436" lon="5.75492">
        <ele>387.2</ele>
        <time>2019-04-17T14:23:57Z</time>
      </trkpt>
      <trkpt lat="45.43432" lon="5.75494">
        <ele>387.3</ele>
        <time>2019-04-17T14:23:58Z</time>
      </trkpt>
      <trkpt lat="45.43429" lon="5.75497">
        <ele>387.4</ele>
        <time>2019-04-17T14:23:59Z</time>
      </trkpt>
      <trkpt lat="45.43426" lon="5.75499">
        <ele>387.8</ele>
        <time>2019-04-17T14:24:01Z</time>
      </trkpt>
      <trkpt lat="45.43422" lon="5.75501">
        <ele>387.8</ele>
        <time>2019-04-17T14:24:03Z</time>
      </trkpt>
      <trkpt lat="45.43424" lon="5.75505">
        <ele>387.7</ele>
        <time>2019-04-17T14:24:06Z</time>
      </trkpt>
      <trkpt lat="45.43427" lon="5.75506">
        <ele>387.7</ele>
        <time>2019-04-17T14:24:08Z</time>
      </trkpt>
      <trkpt lat="45.43431" lon="5.75504">
        <ele>387.6</ele>
        <time>2019-04-17T14:24:10Z</time>
      </trkpt>
      <trkpt lat="45.43434" lon="5.75504">
        <ele>387.6</ele>
        <time>2019-04-17T14:24:11Z</time>
      </trkpt>
      <trkpt lat="45.43436" lon="5.75503">
        <ele>387.5</ele>
        <time>2019-04-17T14:24:12Z</time>
      </trkpt>
      <trkpt lat="45.4344" lon="5.75498">
        <ele>387.5</ele>
        <time>2019-04-17T14:24:14Z</time>
      </trkpt>
      <trkpt lat="45.43443" lon="5.75495">
        <ele>387.4</ele>
        <time>2019-04-17T14:24:16Z</time>
      </trkpt>
      <trkpt lat="45.43448" lon="5.75492">
        <ele>387.3</ele>
        <time>2019-04-17T14:24:18Z</time>
      </trkpt>
      <trkpt lat="45.43452" lon="5.75489">
        <ele>387.3</ele>
        <time>2019-04-17T14:24:20Z</time>
      </trkpt>
      <trkpt lat="45.43455" lon="5.75487">
        <ele>387.3</ele>
        <time>2019-04-17T14:24:21Z</time>
      </trkpt>
      <trkpt lat="45.43457" lon="5.75486">
        <ele>387.3</ele>
        <time>2019-04-17T14:24:22Z</time>
      </trkpt>
      <trkpt lat="45.4346" lon="5.75484">
        <ele>387.3</ele>
        <time>2019-04-17T14:24:23Z</time>
      </trkpt>
      <trkpt lat="45.43465" lon="5.75481">
        <ele>387.4</ele>
        <time>2019-04-17T14:24:25Z</time>
      </trkpt>
      <trkpt lat="45.43468" lon="5.7548">
        <ele>387.4</ele>
        <time>2019-04-17T14:24:26Z</time>
      </trkpt>
      <trkpt lat="45.43471" lon="5.75479">
        <ele>387.4</ele>
        <time>2019-04-17T14:24:27Z</time>
      </trkpt>
      <trkpt lat="45.43474" lon="5.75478">
        <ele>387.4</ele>
        <time>2019-04-17T14:24:28Z</time>
      </trkpt>
      <trkpt lat="45.43477" lon="5.75476">
        <ele>387.4</ele>
        <time>2019-04-17T14:24:29Z</time>
      </trkpt>
      <trkpt lat="45.4348" lon="5.75475">
        <ele>387.5</ele>
        <time>2019-04-17T14:24:30Z</time>
      </trkpt>
      <trkpt lat="45.43483" lon="5.75473">
        <ele>387.7</ele>
        <time>2019-04-17T14:24:31Z</time>
      </trkpt>
      <trkpt lat="45.43487" lon="5.75472">
        <ele>387.9</ele>
        <time>2019-04-17T14:24:32Z</time>
      </trkpt>
      <trkpt lat="45.43491" lon="5.7547">
        <ele>388.1</ele>
        <time>2019-04-17T14:24:33Z</time>
      </trkpt>
      <trkpt lat="45.43495" lon="5.75468">
        <ele>388.3</ele>
        <time>2019-04-17T14:24:34Z</time>
      </trkpt>
      <trkpt lat="45.43499" lon="5.75466">
        <ele>388.6</ele>
        <time>2019-04-17T14:24:35Z</time>
      </trkpt>
      <trkpt lat="45.43503" lon="5.75464">
        <ele>388.8</ele>
        <time>2019-04-17T14:24:36Z</time>
      </trkpt>
      <trkpt lat="45.43506" lon="5.75462">
        <ele>389</ele>
        <time>2019-04-17T14:24:37Z</time>
      </trkpt>
      <trkpt lat="45.43509" lon="5.75461">
        <ele>389.1</ele>
        <time>2019-04-17T14:24:38Z</time>
      </trkpt>
      <trkpt lat="45.43516" lon="5.75456">
        <ele>389.7</ele>
        <time>2019-04-17T14:24:39Z</time>
      </trkpt>
      <trkpt lat="45.4352" lon="5.75456">
        <ele>390</ele>
        <time>2019-04-17T14:24:40Z</time>
      </trkpt>
      <trkpt lat="45.43523" lon="5.75454">
        <ele>390.3</ele>
        <time>2019-04-17T14:24:41Z</time>
      </trkpt>
      <trkpt lat="45.43527" lon="5.75453">
        <ele>390.6</ele>
        <time>2019-04-17T14:24:42Z</time>
      </trkpt>
      <trkpt lat="45.4353" lon="5.75452">
        <ele>390.9</ele>
        <time>2019-04-17T14:24:43Z</time>
      </trkpt>
      <trkpt lat="45.43533" lon="5.75451">
        <ele>391.4</ele>
        <time>2019-04-17T14:24:44Z</time>
      </trkpt>
      <trkpt lat="45.43535" lon="5.75448">
        <ele>391.5</ele>
        <time>2019-04-17T14:24:45Z</time>
      </trkpt>
      <trkpt lat="45.43538" lon="5.75444">
        <ele>391.6</ele>
        <time>2019-04-17T14:24:46Z</time>
      </trkpt>
      <trkpt lat="45.4354" lon="5.7544">
        <ele>391.7</ele>
        <time>2019-04-17T14:24:47Z</time>
      </trkpt>
      <trkpt lat="45.43543" lon="5.75435">
        <ele>391.8</ele>
        <time>2019-04-17T14:24:49Z</time>
      </trkpt>
      <trkpt lat="45.43545" lon="5.75431">
        <ele>391.9</ele>
        <time>2019-04-17T14:24:50Z</time>
      </trkpt>
      <trkpt lat="45.43548" lon="5.75425">
        <ele>392.1</ele>
        <time>2019-04-17T14:24:52Z</time>
      </trkpt>
      <trkpt lat="45.4355" lon="5.7542">
        <ele>392.2</ele>
        <time>2019-04-17T14:24:53Z</time>
      </trkpt>
      <trkpt lat="45.43553" lon="5.75417">
        <ele>392.3</ele>
        <time>2019-04-17T14:24:54Z</time>
      </trkpt>
      <trkpt lat="45.43556" lon="5.75415">
        <ele>392.4</ele>
        <time>2019-04-17T14:24:55Z</time>
      </trkpt>
      <trkpt lat="45.4356" lon="5.75414">
        <ele>392.6</ele>
        <time>2019-04-17T14:24:56Z</time>
      </trkpt>
      <trkpt lat="45.43565" lon="5.75413">
        <ele>392.7</ele>
        <time>2019-04-17T14:24:57Z</time>
      </trkpt>
      <trkpt lat="45.4357" lon="5.75412">
        <ele>392.8</ele>
        <time>2019-04-17T14:24:58Z</time>
      </trkpt>
      <trkpt lat="45.43574" lon="5.75412">
        <ele>393</ele>
        <time>2019-04-17T14:24:59Z</time>
      </trkpt>
      <trkpt lat="45.43579" lon="5.75411">
        <ele>393.2</ele>
        <time>2019-04-17T14:25:00Z</time>
      </trkpt>
      <trkpt lat="45.43583" lon="5.75409">
        <ele>393.3</ele>
        <time>2019-04-17T14:25:01Z</time>
      </trkpt>
      <trkpt lat="45.43587" lon="5.75408">
        <ele>393.6</ele>
        <time>2019-04-17T14:25:02Z</time>
      </trkpt>
      <trkpt lat="45.43591" lon="5.75407">
        <ele>393.9</ele>
        <time>2019-04-17T14:25:03Z</time>
      </trkpt>
      <trkpt lat="45.43595" lon="5.75407">
        <ele>394.1</ele>
        <time>2019-04-17T14:25:04Z</time>
      </trkpt>
      <trkpt lat="45.43598" lon="5.75406">
        <ele>394.3</ele>
        <time>2019-04-17T14:25:05Z</time>
      </trkpt>
      <trkpt lat="45.43603" lon="5.75405">
        <ele>394.5</ele>
        <time>2019-04-17T14:25:06Z</time>
      </trkpt>
      <trkpt lat="45.43607" lon="5.75404">
        <ele>394.8</ele>
        <time>2019-04-17T14:25:07Z</time>
      </trkpt>
      <trkpt lat="45.43611" lon="5.75404">
        <ele>395</ele>
        <time>2019-04-17T14:25:08Z</time>
      </trkpt>
      <trkpt lat="45.43615" lon="5.75404">
        <ele>395.2</ele>
        <time>2019-04-17T14:25:09Z</time>
      </trkpt>
      <trkpt lat="45.43619" lon="5.75404">
        <ele>395.4</ele>
        <time>2019-04-17T14:25:10Z</time>
      </trkpt>
      <trkpt lat="45.43622" lon="5.75404">
        <ele>395.6</ele>
        <time>2019-04-17T14:25:11Z</time>
      </trkpt>
      <trkpt lat="45.43626" lon="5.75405">
        <ele>395.7</ele>
        <time>2019-04-17T14:25:12Z</time>
      </trkpt>
      <trkpt lat="45.43631" lon="5.75406">
        <ele>395.9</ele>
        <time>2019-04-17T14:25:14Z</time>
      </trkpt>
      <trkpt lat="45.43635" lon="5.75406">
        <ele>396</ele>
        <time>2019-04-17T14:25:16Z</time>
      </trkpt>
      <trkpt lat="45.43638" lon="5.75408">
        <ele>396.1</ele>
        <time>2019-04-17T14:25:19Z</time>
      </trkpt>
      <trkpt lat="45.43639" lon="5.75412">
        <ele>396.2</ele>
        <time>2019-04-17T14:25:22Z</time>
      </trkpt>
      <trkpt lat="45.43642" lon="5.75412">
        <ele>396.3</ele>
        <time>2019-04-17T14:25:27Z</time>
      </trkpt>
      <trkpt lat="45.43643" lon="5.75417">
        <ele>396.4</ele>
        <time>2019-04-17T14:25:29Z</time>
      </trkpt>
      <trkpt lat="45.43646" lon="5.75417">
        <ele>396.5</ele>
        <time>2019-04-17T14:25:36Z</time>
      </trkpt>
      <trkpt lat="45.43648" lon="5.75412">
        <ele>396.6</ele>
        <time>2019-04-17T14:25:39Z</time>
      </trkpt>
      <trkpt lat="45.43654" lon="5.75425">
        <ele>397</ele>
        <time>2019-04-17T14:29:41Z</time>
      </trkpt>
      <trkpt lat="45.43655" lon="5.7543">
        <ele>397.1</ele>
        <time>2019-04-17T14:29:42Z</time>
      </trkpt>
      <trkpt lat="45.43655" lon="5.75425">
        <ele>397.2</ele>
        <time>2019-04-17T14:29:47Z</time>
      </trkpt>
      <trkpt lat="45.43653" lon="5.7542">
        <ele>397.3</ele>
        <time>2019-04-17T14:29:49Z</time>
      </trkpt>
      <trkpt lat="45.43651" lon="5.75418">
        <ele>397.2</ele>
        <time>2019-04-17T14:29:54Z</time>
      </trkpt>
      <trkpt lat="45.43649" lon="5.75415">
        <ele>397.1</ele>
        <time>2019-04-17T14:29:58Z</time>
      </trkpt>
      <trkpt lat="45.43647" lon="5.75419">
        <ele>397.1</ele>
        <time>2019-04-17T14:30:03Z</time>
      </trkpt>
      <trkpt lat="45.43643" lon="5.75417">
        <ele>397</ele>
        <time>2019-04-17T14:30:06Z</time>
      </trkpt>
      <trkpt lat="45.4364" lon="5.75415">
        <ele>396.9</ele>
        <time>2019-04-17T14:30:07Z</time>
      </trkpt>
      <trkpt lat="45.43642" lon="5.75412">
        <ele>396.9</ele>
        <time>2019-04-17T14:30:11Z</time>
      </trkpt>
      <trkpt lat="45.43647" lon="5.75414">
        <ele>396.8</ele>
        <time>2019-04-17T14:31:21Z</time>
      </trkpt>
      <trkpt lat="45.43649" lon="5.75409">
        <ele>396.7</ele>
        <time>2019-04-17T14:31:23Z</time>
      </trkpt>
      <trkpt lat="45.43646" lon="5.75412">
        <ele>396.7</ele>
        <time>2019-04-17T14:31:29Z</time>
      </trkpt>
      <trkpt lat="45.43648" lon="5.75416">
        <ele>396.6</ele>
        <time>2019-04-17T14:31:31Z</time>
      </trkpt>
      <trkpt lat="45.43651" lon="5.75418">
        <ele>396.6</ele>
        <time>2019-04-17T14:31:34Z</time>
      </trkpt>
      <trkpt lat="45.43652" lon="5.75414">
        <ele>396.5</ele>
        <time>2019-04-17T14:31:45Z</time>
      </trkpt>
      <trkpt lat="45.43653" lon="5.7541">
        <ele>396.5</ele>
        <time>2019-04-17T14:31:48Z</time>
      </trkpt>
      <trkpt lat="45.4365" lon="5.75411">
        <ele>396.4</ele>
        <time>2019-04-17T14:31:54Z</time>
      </trkpt>
      <trkpt lat="45.43648" lon="5.75414">
        <ele>396.4</ele>
        <time>2019-04-17T14:31:59Z</time>
      </trkpt>
      <trkpt lat="45.43644" lon="5.75413">
        <ele>396.3</ele>
        <time>2019-04-17T14:32:03Z</time>
      </trkpt>
      <trkpt lat="45.43641" lon="5.75413">
        <ele>396.2</ele>
        <time>2019-04-17T14:32:06Z</time>
      </trkpt>
      <trkpt lat="45.43637" lon="5.75413">
        <ele>396.2</ele>
        <time>2019-04-17T14:32:09Z</time>
      </trkpt>
      <trkpt lat="45.43634" lon="5.75412">
        <ele>396.1</ele>
        <time>2019-04-17T14:32:12Z</time>
      </trkpt>
      <trkpt lat="45.43631" lon="5.75409">
        <ele>396</ele>
        <time>2019-04-17T14:32:15Z</time>
      </trkpt>
      <trkpt lat="45.4363" lon="5.75414">
        <ele>396</ele>
        <time>2019-04-17T14:32:19Z</time>
      </trkpt>
      <trkpt lat="45.43628" lon="5.75418">
        <ele>395.9</ele>
        <time>2019-04-17T14:32:23Z</time>
      </trkpt>
      <trkpt lat="45.43624" lon="5.75416">
        <ele>395.6</ele>
        <time>2019-04-17T14:32:25Z</time>
      </trkpt>
      <trkpt lat="45.43621" lon="5.75415">
        <ele>395.5</ele>
        <time>2019-04-17T14:32:28Z</time>
      </trkpt>
      <trkpt lat="45.43623" lon="5.7541">
        <ele>395.4</ele>
        <time>2019-04-17T14:32:33Z</time>
      </trkpt>
      <trkpt lat="45.43621" lon="5.75406">
        <ele>395.3</ele>
        <time>2019-04-17T14:32:34Z</time>
      </trkpt>
      <trkpt lat="45.43618" lon="5.75404">
        <ele>395.2</ele>
        <time>2019-04-17T14:32:36Z</time>
      </trkpt>
      <trkpt lat="45.43616" lon="5.75407">
        <ele>395.2</ele>
        <time>2019-04-17T14:32:42Z</time>
      </trkpt>
      <trkpt lat="45.43609" lon="5.7541">
        <ele>395</ele>
        <time>2019-04-17T14:36:27Z</time>
      </trkpt>
      <trkpt lat="45.43605" lon="5.75411">
        <ele>394.9</ele>
        <time>2019-04-17T14:36:29Z</time>
      </trkpt>
      <trkpt lat="45.43602" lon="5.75413">
        <ele>394.8</ele>
        <time>2019-04-17T14:36:30Z</time>
      </trkpt>
      <trkpt lat="45.43597" lon="5.75415">
        <ele>394.7</ele>
        <time>2019-04-17T14:36:32Z</time>
      </trkpt>
      <trkpt lat="45.43593" lon="5.75418">
        <ele>394.5</ele>
        <time>2019-04-17T14:36:34Z</time>
      </trkpt>
      <trkpt lat="45.4359" lon="5.75418">
        <ele>394.5</ele>
        <time>2019-04-17T14:36:35Z</time>
      </trkpt>
      <trkpt lat="45.43587" lon="5.75419">
        <ele>394.4</ele>
        <time>2019-04-17T14:36:36Z</time>
      </trkpt>
      <trkpt lat="45.43603" lon="5.75414">
        <ele>394</ele>
        <time>2019-04-17T14:36:38Z</time>
      </trkpt>
      <trkpt lat="45.43601" lon="5.75407">
        <ele>393.9</ele>
        <time>2019-04-17T14:37:50Z</time>
      </trkpt>
      <trkpt lat="45.43598" lon="5.75405">
        <ele>393.8</ele>
        <time>2019-04-17T14:37:53Z</time>
      </trkpt>
      <trkpt lat="45.43595" lon="5.75406">
        <ele>393.7</ele>
        <time>2019-04-17T14:37:56Z</time>
      </trkpt>
      <trkpt lat="45.43592" lon="5.75407">
        <ele>393.6</ele>
        <time>2019-04-17T14:38:03Z</time>
      </trkpt>
      <trkpt lat="45.43588" lon="5.75407">
        <ele>393.5</ele>
        <time>2019-04-17T14:38:05Z</time>
      </trkpt>
      <trkpt lat="45.43585" lon="5.75408">
        <ele>393.4</ele>
        <time>2019-04-17T14:38:07Z</time>
      </trkpt>
      <trkpt lat="45.43582" lon="5.7541">
        <ele>393.4</ele>
        <time>2019-04-17T14:38:09Z</time>
      </trkpt>
      <trkpt lat="45.43579" lon="5.75412">
        <ele>393</ele>
        <time>2019-04-17T14:38:10Z</time>
      </trkpt>
      <trkpt lat="45.43575" lon="5.75415">
        <ele>392.9</ele>
        <time>2019-04-17T14:38:12Z</time>
      </trkpt>
      <trkpt lat="45.43571" lon="5.75416">
        <ele>392.8</ele>
        <time>2019-04-17T14:38:14Z</time>
      </trkpt>
      <trkpt lat="45.43568" lon="5.75417">
        <ele>392.7</ele>
        <time>2019-04-17T14:38:16Z</time>
      </trkpt>
      <trkpt lat="45.43565" lon="5.75422">
        <ele>392.6</ele>
        <time>2019-04-17T14:38:18Z</time>
      </trkpt>
      <trkpt lat="45.43564" lon="5.75426">
        <ele>392.5</ele>
        <time>2019-04-17T14:38:19Z</time>
      </trkpt>
      <trkpt lat="45.43563" lon="5.7543">
        <ele>392.4</ele>
        <time>2019-04-17T14:38:20Z</time>
      </trkpt>
      <trkpt lat="45.43557" lon="5.75442">
        <ele>392</ele>
        <time>2019-04-17T14:38:21Z</time>
      </trkpt>
      <trkpt lat="45.43552" lon="5.75444">
        <ele>391.9</ele>
        <time>2019-04-17T14:38:22Z</time>
      </trkpt>
      <trkpt lat="45.43549" lon="5.75445">
        <ele>391.8</ele>
        <time>2019-04-17T14:38:23Z</time>
      </trkpt>
      <trkpt lat="45.43497" lon="5.75468">
        <ele>389.4</ele>
        <time>2019-04-17T14:38:26Z</time>
      </trkpt>
      <trkpt lat="45.4349" lon="5.75472">
        <ele>388.1</ele>
        <time>2019-04-17T14:38:27Z</time>
      </trkpt>
      <trkpt lat="45.43484" lon="5.75476">
        <ele>387.7</ele>
        <time>2019-04-17T14:38:28Z</time>
      </trkpt>
      <trkpt lat="45.43478" lon="5.75479">
        <ele>387.4</ele>
        <time>2019-04-17T14:38:29Z</time>
      </trkpt>
      <trkpt lat="45.43473" lon="5.75482">
        <ele>387.4</ele>
        <time>2019-04-17T14:38:30Z</time>
      </trkpt>
      <trkpt lat="45.43466" lon="5.75482">
        <ele>387.4</ele>
        <time>2019-04-17T14:38:31Z</time>
      </trkpt>
      <trkpt lat="45.43459" lon="5.75483">
        <ele>387.3</ele>
        <time>2019-04-17T14:38:32Z</time>
      </trkpt>
      <trkpt lat="45.43454" lon="5.75488">
        <ele>387.3</ele>
        <time>2019-04-17T14:38:33Z</time>
      </trkpt>
      <trkpt lat="45.43449" lon="5.75491">
        <ele>387.3</ele>
        <time>2019-04-17T14:38:34Z</time>
      </trkpt>
      <trkpt lat="45.43444" lon="5.75494">
        <ele>387.3</ele>
        <time>2019-04-17T14:38:35Z</time>
      </trkpt>
      <trkpt lat="45.43439" lon="5.75497">
        <ele>387.4</ele>
        <time>2019-04-17T14:38:36Z</time>
      </trkpt>
      <trkpt lat="45.43433" lon="5.755">
        <ele>387.5</ele>
        <time>2019-04-17T14:38:37Z</time>
      </trkpt>
      <trkpt lat="45.43428" lon="5.75501">
        <ele>387.6</ele>
        <time>2019-04-17T14:38:38Z</time>
      </trkpt>
      <trkpt lat="45.43423" lon="5.75503">
        <ele>387.7</ele>
        <time>2019-04-17T14:38:39Z</time>
      </trkpt>
      <trkpt lat="45.43418" lon="5.75505">
        <ele>387.8</ele>
        <time>2019-04-17T14:38:40Z</time>
      </trkpt>
      <trkpt lat="45.43412" lon="5.75505">
        <ele>387.9</ele>
        <time>2019-04-17T14:38:41Z</time>
      </trkpt>
      <trkpt lat="45.43408" lon="5.75508">
        <ele>388.1</ele>
        <time>2019-04-17T14:38:42Z</time>
      </trkpt>
      <trkpt lat="45.43403" lon="5.75512">
        <ele>388.3</ele>
        <time>2019-04-17T14:38:43Z</time>
      </trkpt>
      <trkpt lat="45.434" lon="5.75517">
        <ele>388.4</ele>
        <time>2019-04-17T14:38:44Z</time>
      </trkpt>
      <trkpt lat="45.43396" lon="5.75519">
        <ele>388.6</ele>
        <time>2019-04-17T14:38:45Z</time>
      </trkpt>
      <trkpt lat="45.43391" lon="5.75523">
        <ele>388.8</ele>
        <time>2019-04-17T14:38:46Z</time>
      </trkpt>
      <trkpt lat="45.43385" lon="5.75526">
        <ele>389</ele>
        <time>2019-04-17T14:38:47Z</time>
      </trkpt>
      <trkpt lat="45.43385" lon="5.7553">
        <ele>389.1</ele>
        <time>2019-04-17T14:38:48Z</time>
      </trkpt>
      <trkpt lat="45.4338" lon="5.75532">
        <ele>389.4</ele>
        <time>2019-04-17T14:38:49Z</time>
      </trkpt>
      <trkpt lat="45.43376" lon="5.75534">
        <ele>389.6</ele>
        <time>2019-04-17T14:38:50Z</time>
      </trkpt>
      <trkpt lat="45.43373" lon="5.75537">
        <ele>389.7</ele>
        <time>2019-04-17T14:38:51Z</time>
      </trkpt>
      <trkpt lat="45.4337" lon="5.75538">
        <ele>389.9</ele>
        <time>2019-04-17T14:38:53Z</time>
      </trkpt>
      <trkpt lat="45.43371" lon="5.75542">
        <ele>390.1</ele>
        <time>2019-04-17T14:38:58Z</time>
      </trkpt>
      <trkpt lat="45.43372" lon="5.75547">
        <ele>390.4</ele>
        <time>2019-04-17T14:39:01Z</time>
      </trkpt>
      <trkpt lat="45.43373" lon="5.75554">
        <ele>390.3</ele>
        <time>2019-04-17T14:39:03Z</time>
      </trkpt>
      <trkpt lat="45.43374" lon="5.7556">
        <ele>390.2</ele>
        <time>2019-04-17T14:39:05Z</time>
      </trkpt>
      <trkpt lat="45.43374" lon="5.75566">
        <ele>390.1</ele>
        <time>2019-04-17T14:39:07Z</time>
      </trkpt>
      <trkpt lat="45.43373" lon="5.75572">
        <ele>390</ele>
        <time>2019-04-17T14:39:09Z</time>
      </trkpt>
      <trkpt lat="45.43371" lon="5.75576">
        <ele>390</ele>
        <time>2019-04-17T14:39:11Z</time>
      </trkpt>
      <trkpt lat="45.4337" lon="5.75581">
        <ele>390</ele>
        <time>2019-04-17T14:39:13Z</time>
      </trkpt>
      <trkpt lat="45.43368" lon="5.75587">
        <ele>390</ele>
        <time>2019-04-17T14:39:15Z</time>
      </trkpt>
      <trkpt lat="45.43366" lon="5.75591">
        <ele>390</ele>
        <time>2019-04-17T14:39:16Z</time>
      </trkpt>
      <trkpt lat="45.43364" lon="5.75596">
        <ele>390</ele>
        <time>2019-04-17T14:39:18Z</time>
      </trkpt>
      <trkpt lat="45.43361" lon="5.756">
        <ele>390</ele>
        <time>2019-04-17T14:39:20Z</time>
      </trkpt>
      <trkpt lat="45.4336" lon="5.75605">
        <ele>390</ele>
        <time>2019-04-17T14:39:22Z</time>
      </trkpt>
      <trkpt lat="45.4336" lon="5.75609">
        <ele>390</ele>
        <time>2019-04-17T14:39:24Z</time>
      </trkpt>
      <trkpt lat="45.43361" lon="5.75614">
        <ele>390</ele>
        <time>2019-04-17T14:39:26Z</time>
      </trkpt>
      <trkpt lat="45.43363" lon="5.75619">
        <ele>389.9</ele>
        <time>2019-04-17T14:39:28Z</time>
      </trkpt>
      <trkpt lat="45.43365" lon="5.75624">
        <ele>389.9</ele>
        <time>2019-04-17T14:39:30Z</time>
      </trkpt>
      <trkpt lat="45.43367" lon="5.75628">
        <ele>389.9</ele>
        <time>2019-04-17T14:39:31Z</time>
      </trkpt>
      <trkpt lat="45.43369" lon="5.75633">
        <ele>389.9</ele>
        <time>2019-04-17T14:39:33Z</time>
      </trkpt>
      <trkpt lat="45.4337" lon="5.75637">
        <ele>390</ele>
        <time>2019-04-17T14:39:34Z</time>
      </trkpt>
      <trkpt lat="45.43372" lon="5.7564">
        <ele>390</ele>
        <time>2019-04-17T14:39:35Z</time>
      </trkpt>
      <trkpt lat="45.43373" lon="5.75644">
        <ele>390.1</ele>
        <time>2019-04-17T14:39:36Z</time>
      </trkpt>
      <trkpt lat="45.43374" lon="5.75648">
        <ele>390.2</ele>
        <time>2019-04-17T14:39:37Z</time>
      </trkpt>
      <trkpt lat="45.43375" lon="5.75651">
        <ele>390.3</ele>
        <time>2019-04-17T14:39:38Z</time>
      </trkpt>
      <trkpt lat="45.43376" lon="5.75655">
        <ele>390.5</ele>
        <time>2019-04-17T14:39:39Z</time>
      </trkpt>
      <trkpt lat="45.43377" lon="5.7566">
        <ele>390.6</ele>
        <time>2019-04-17T14:39:40Z</time>
      </trkpt>
      <trkpt lat="45.43379" lon="5.75664">
        <ele>390.8</ele>
        <time>2019-04-17T14:39:41Z</time>
      </trkpt>
      <trkpt lat="45.43381" lon="5.75669">
        <ele>390.7</ele>
        <time>2019-04-17T14:39:42Z</time>
      </trkpt>
      <trkpt lat="45.43382" lon="5.75674">
        <ele>390.6</ele>
        <time>2019-04-17T14:39:43Z</time>
      </trkpt>
      <trkpt lat="45.43384" lon="5.75679">
        <ele>390.5</ele>
        <time>2019-04-17T14:39:44Z</time>
      </trkpt>
      <trkpt lat="45.43385" lon="5.75682">
        <ele>390.4</ele>
        <time>2019-04-17T14:39:45Z</time>
      </trkpt>
      <trkpt lat="45.43387" lon="5.75688">
        <ele>390.3</ele>
        <time>2019-04-17T14:39:47Z</time>
      </trkpt>
      <trkpt lat="45.43389" lon="5.75694">
        <ele>390.2</ele>
        <time>2019-04-17T14:39:49Z</time>
      </trkpt>
      <trkpt lat="45.43392" lon="5.757">
        <ele>390.1</ele>
        <time>2019-04-17T14:39:51Z</time>
      </trkpt>
      <trkpt lat="45.43394" lon="5.75704">
        <ele>390.1</ele>
        <time>2019-04-17T14:39:52Z</time>
      </trkpt>
      <trkpt lat="45.43395" lon="5.75709">
        <ele>390.1</ele>
        <time>2019-04-17T14:39:53Z</time>
      </trkpt>
      <trkpt lat="45.43397" lon="5.75714">
        <ele>390.2</ele>
        <time>2019-04-17T14:39:55Z</time>
      </trkpt>
      <trkpt lat="45.43399" lon="5.75722">
        <ele>390.2</ele>
        <time>2019-04-17T14:39:56Z</time>
      </trkpt>
      <trkpt lat="45.43401" lon="5.7573">
        <ele>390.4</ele>
        <time>2019-04-17T14:39:58Z</time>
      </trkpt>
      <trkpt lat="45.43402" lon="5.75734">
        <ele>390.5</ele>
        <time>2019-04-17T14:39:59Z</time>
      </trkpt>
      <trkpt lat="45.43402" lon="5.75738">
        <ele>390.6</ele>
        <time>2019-04-17T14:40:00Z</time>
      </trkpt>
      <trkpt lat="45.43404" lon="5.75742">
        <ele>390.7</ele>
        <time>2019-04-17T14:40:01Z</time>
      </trkpt>
      <trkpt lat="45.43404" lon="5.75746">
        <ele>390.8</ele>
        <time>2019-04-17T14:40:02Z</time>
      </trkpt>
      <trkpt lat="45.43405" lon="5.7575">
        <ele>390.9</ele>
        <time>2019-04-17T14:40:03Z</time>
      </trkpt>
      <trkpt lat="45.43407" lon="5.75754">
        <ele>391</ele>
        <time>2019-04-17T14:40:04Z</time>
      </trkpt>
      <trkpt lat="45.43408" lon="5.75759">
        <ele>391.2</ele>
        <time>2019-04-17T14:40:05Z</time>
      </trkpt>
      <trkpt lat="45.43409" lon="5.75763">
        <ele>391.3</ele>
        <time>2019-04-17T14:40:06Z</time>
      </trkpt>
      <trkpt lat="45.43411" lon="5.75768">
        <ele>391.3</ele>
        <time>2019-04-17T14:40:07Z</time>
      </trkpt>
      <trkpt lat="45.43412" lon="5.75772">
        <ele>391.4</ele>
        <time>2019-04-17T14:40:08Z</time>
      </trkpt>
      <trkpt lat="45.43412" lon="5.75776">
        <ele>391.5</ele>
        <time>2019-04-17T14:40:09Z</time>
      </trkpt>
      <trkpt lat="45.43412" lon="5.75781">
        <ele>391.6</ele>
        <time>2019-04-17T14:40:11Z</time>
      </trkpt>
      <trkpt lat="45.43412" lon="5.75787">
        <ele>391.6</ele>
        <time>2019-04-17T14:40:13Z</time>
      </trkpt>
      <trkpt lat="45.43413" lon="5.75792">
        <ele>391.7</ele>
        <time>2019-04-17T14:40:15Z</time>
      </trkpt>
      <trkpt lat="45.43415" lon="5.75798">
        <ele>391.8</ele>
        <time>2019-04-17T14:40:17Z</time>
      </trkpt>
      <trkpt lat="45.43418" lon="5.75802">
        <ele>391.8</ele>
        <time>2019-04-17T14:40:21Z</time>
      </trkpt>
      <trkpt lat="45.43421" lon="5.7581">
        <ele>391.9</ele>
        <time>2019-04-17T14:40:23Z</time>
      </trkpt>
      <trkpt lat="45.43422" lon="5.75816">
        <ele>391.9</ele>
        <time>2019-04-17T14:40:24Z</time>
      </trkpt>
      <trkpt lat="45.43417" lon="5.75811">
        <ele>391.9</ele>
        <time>2019-04-17T14:40:26Z</time>
      </trkpt>
      <trkpt lat="45.43431" lon="5.75822">
        <ele>392</ele>
        <time>2019-04-17T14:40:28Z</time>
      </trkpt>
      <trkpt lat="45.43428" lon="5.75841">
        <ele>392.1</ele>
        <time>2019-04-17T14:40:29Z</time>
      </trkpt>
      <trkpt lat="45.4343" lon="5.7585">
        <ele>392.1</ele>
        <time>2019-04-17T14:40:30Z</time>
      </trkpt>
      <trkpt lat="45.43434" lon="5.75858">
        <ele>392.3</ele>
        <time>2019-04-17T14:40:31Z</time>
      </trkpt>
      <trkpt lat="45.4344" lon="5.7586">
        <ele>392.4</ele>
        <time>2019-04-17T14:40:32Z</time>
      </trkpt>
      <trkpt lat="45.43439" lon="5.75856">
        <ele>392.4</ele>
        <time>2019-04-17T14:40:33Z</time>
      </trkpt>
      <trkpt lat="45.43436" lon="5.75849">
        <ele>392.5</ele>
        <time>2019-04-17T14:40:34Z</time>
      </trkpt>
      <trkpt lat="45.4344" lon="5.75856">
        <ele>392.6</ele>
        <time>2019-04-17T14:40:36Z</time>
      </trkpt>
      <trkpt lat="45.43445" lon="5.75863">
        <ele>392.7</ele>
        <time>2019-04-17T14:40:37Z</time>
      </trkpt>
      <trkpt lat="45.43448" lon="5.75869">
        <ele>392.8</ele>
        <time>2019-04-17T14:40:38Z</time>
      </trkpt>
      <trkpt lat="45.43455" lon="5.75884">
        <ele>393.1</ele>
        <time>2019-04-17T14:40:42Z</time>
      </trkpt>
      <trkpt lat="45.43454" lon="5.75878">
        <ele>393.2</ele>
        <time>2019-04-17T14:40:44Z</time>
      </trkpt>
      <trkpt lat="45.43463" lon="5.75915">
        <ele>393.9</ele>
        <time>2019-04-17T14:40:46Z</time>
      </trkpt>
      <trkpt lat="45.43464" lon="5.75924">
        <ele>394</ele>
        <time>2019-04-17T14:40:47Z</time>
      </trkpt>
      <trkpt lat="45.43464" lon="5.75916">
        <ele>394.1</ele>
        <time>2019-04-17T14:40:48Z</time>
      </trkpt>
      <trkpt lat="45.43465" lon="5.75931">
        <ele>394.2</ele>
        <time>2019-04-17T14:40:49Z</time>
      </trkpt>
      <trkpt lat="45.43465" lon="5.75938">
        <ele>394.3</ele>
        <time>2019-04-17T14:40:51Z</time>
      </trkpt>
      <trkpt lat="45.43466" lon="5.75945">
        <ele>394.3</ele>
        <time>2019-04-17T14:40:54Z</time>
      </trkpt>
      <trkpt lat="45.43466" lon="5.75952">
        <ele>394.4</ele>
        <time>2019-04-17T14:40:56Z</time>
      </trkpt>
      <trkpt lat="45.43469" lon="5.75956">
        <ele>394.4</ele>
        <time>2019-04-17T14:40:58Z</time>
      </trkpt>
      <trkpt lat="45.43471" lon="5.75961">
        <ele>394.5</ele>
        <time>2019-04-17T14:41:00Z</time>
      </trkpt>
      <trkpt lat="45.43474" lon="5.75966">
        <ele>394.5</ele>
        <time>2019-04-17T14:41:02Z</time>
      </trkpt>
      <trkpt lat="45.43476" lon="5.75969">
        <ele>394.6</ele>
        <time>2019-04-17T14:41:04Z</time>
      </trkpt>
      <trkpt lat="45.43477" lon="5.75973">
        <ele>394.6</ele>
        <time>2019-04-17T14:41:08Z</time>
      </trkpt>
      <trkpt lat="45.43475" lon="5.75979">
        <ele>394.3</ele>
        <time>2019-04-17T14:41:10Z</time>
      </trkpt>
      <trkpt lat="45.43474" lon="5.75985">
        <ele>394</ele>
        <time>2019-04-17T14:41:12Z</time>
      </trkpt>
      <trkpt lat="45.43472" lon="5.75992">
        <ele>393.8</ele>
        <time>2019-04-17T14:41:14Z</time>
      </trkpt>
      <trkpt lat="45.43472" lon="5.75997">
        <ele>393.7</ele>
        <time>2019-04-17T14:41:15Z</time>
      </trkpt>
      <trkpt lat="45.43472" lon="5.76002">
        <ele>393.6</ele>
        <time>2019-04-17T14:41:16Z</time>
      </trkpt>
      <trkpt lat="45.43472" lon="5.76006">
        <ele>393.6</ele>
        <time>2019-04-17T14:41:17Z</time>
      </trkpt>
      <trkpt lat="45.43474" lon="5.76013">
        <ele>393.5</ele>
        <time>2019-04-17T14:41:19Z</time>
      </trkpt>
      <trkpt lat="45.43475" lon="5.76019">
        <ele>393.5</ele>
        <time>2019-04-17T14:41:21Z</time>
      </trkpt>
      <trkpt lat="45.43476" lon="5.76024">
        <ele>393.5</ele>
        <time>2019-04-17T14:41:23Z</time>
      </trkpt>
      <trkpt lat="45.43477" lon="5.76031">
        <ele>393.5</ele>
        <time>2019-04-17T14:41:25Z</time>
      </trkpt>
      <trkpt lat="45.43478" lon="5.76035">
        <ele>393.5</ele>
        <time>2019-04-17T14:41:26Z</time>
      </trkpt>
      <trkpt lat="45.43479" lon="5.76038">
        <ele>393.5</ele>
        <time>2019-04-17T14:41:27Z</time>
      </trkpt>
      <trkpt lat="45.43479" lon="5.76042">
        <ele>393.5</ele>
        <time>2019-04-17T14:41:28Z</time>
      </trkpt>
      <trkpt lat="45.43481" lon="5.76049">
        <ele>393.5</ele>
        <time>2019-04-17T14:41:30Z</time>
      </trkpt>
      <trkpt lat="45.43483" lon="5.76054">
        <ele>393.5</ele>
        <time>2019-04-17T14:41:32Z</time>
      </trkpt>
      <trkpt lat="45.43484" lon="5.76058">
        <ele>393.5</ele>
        <time>2019-04-17T14:41:33Z</time>
      </trkpt>
      <trkpt lat="45.43486" lon="5.76062">
        <ele>393.5</ele>
        <time>2019-04-17T14:41:34Z</time>
      </trkpt>
      <trkpt lat="45.43487" lon="5.76066">
        <ele>393.5</ele>
        <time>2019-04-17T14:41:35Z</time>
      </trkpt>
      <trkpt lat="45.43489" lon="5.7607">
        <ele>393.4</ele>
        <time>2019-04-17T14:41:36Z</time>
      </trkpt>
      <trkpt lat="45.4349" lon="5.76075">
        <ele>393.4</ele>
        <time>2019-04-17T14:41:37Z</time>
      </trkpt>
      <trkpt lat="45.43491" lon="5.76079">
        <ele>393.4</ele>
        <time>2019-04-17T14:41:38Z</time>
      </trkpt>
      <trkpt lat="45.43492" lon="5.76084">
        <ele>393.4</ele>
        <time>2019-04-17T14:41:39Z</time>
      </trkpt>
      <trkpt lat="45.43493" lon="5.76087">
        <ele>393.4</ele>
        <time>2019-04-17T14:41:40Z</time>
      </trkpt>
      <trkpt lat="45.43494" lon="5.76091">
        <ele>393.4</ele>
        <time>2019-04-17T14:41:41Z</time>
      </trkpt>
      <trkpt lat="45.43495" lon="5.76097">
        <ele>393.4</ele>
        <time>2019-04-17T14:41:43Z</time>
      </trkpt>
      <trkpt lat="45.43497" lon="5.76103">
        <ele>393.4</ele>
        <time>2019-04-17T14:41:45Z</time>
      </trkpt>
      <trkpt lat="45.43499" lon="5.7611">
        <ele>393.4</ele>
        <time>2019-04-17T14:41:47Z</time>
      </trkpt>
      <trkpt lat="45.43499" lon="5.76115">
        <ele>393.4</ele>
        <time>2019-04-17T14:41:50Z</time>
      </trkpt>
      <trkpt lat="45.435" lon="5.76119">
        <ele>393.5</ele>
        <time>2019-04-17T14:41:51Z</time>
      </trkpt>
      <trkpt lat="45.43501" lon="5.76123">
        <ele>393.5</ele>
        <time>2019-04-17T14:41:52Z</time>
      </trkpt>
      <trkpt lat="45.43502" lon="5.76127">
        <ele>393.6</ele>
        <time>2019-04-17T14:41:53Z</time>
      </trkpt>
      <trkpt lat="45.43504" lon="5.76131">
        <ele>393.6</ele>
        <time>2019-04-17T14:41:54Z</time>
      </trkpt>
      <trkpt lat="45.43506" lon="5.76136">
        <ele>393.7</ele>
        <time>2019-04-17T14:41:55Z</time>
      </trkpt>
      <trkpt lat="45.43508" lon="5.7614">
        <ele>393.8</ele>
        <time>2019-04-17T14:41:56Z</time>
      </trkpt>
      <trkpt lat="45.43509" lon="5.76145">
        <ele>393.9</ele>
        <time>2019-04-17T14:41:57Z</time>
      </trkpt>
      <trkpt lat="45.43509" lon="5.76149">
        <ele>393.9</ele>
        <time>2019-04-17T14:41:58Z</time>
      </trkpt>
      <trkpt lat="45.43509" lon="5.76156">
        <ele>394</ele>
        <time>2019-04-17T14:42:00Z</time>
      </trkpt>
      <trkpt lat="45.43509" lon="5.7616">
        <ele>394.1</ele>
        <time>2019-04-17T14:42:01Z</time>
      </trkpt>
      <trkpt lat="45.4351" lon="5.76164">
        <ele>394.1</ele>
        <time>2019-04-17T14:42:02Z</time>
      </trkpt>
      <trkpt lat="45.43511" lon="5.76167">
        <ele>394.2</ele>
        <time>2019-04-17T14:42:03Z</time>
      </trkpt>
      <trkpt lat="45.43512" lon="5.76173">
        <ele>394.2</ele>
        <time>2019-04-17T14:42:05Z</time>
      </trkpt>
      <trkpt lat="45.43512" lon="5.76179">
        <ele>394.3</ele>
        <time>2019-04-17T14:42:07Z</time>
      </trkpt>
      <trkpt lat="45.43511" lon="5.76183">
        <ele>394.3</ele>
        <time>2019-04-17T14:42:08Z</time>
      </trkpt>
      <trkpt lat="45.4351" lon="5.76187">
        <ele>394.3</ele>
        <time>2019-04-17T14:42:09Z</time>
      </trkpt>
      <trkpt lat="45.43509" lon="5.76191">
        <ele>394.4</ele>
        <time>2019-04-17T14:42:10Z</time>
      </trkpt>
      <trkpt lat="45.43509" lon="5.76194">
        <ele>394.4</ele>
        <time>2019-04-17T14:42:11Z</time>
      </trkpt>
      <trkpt lat="45.43508" lon="5.76202">
        <ele>394.4</ele>
        <time>2019-04-17T14:42:13Z</time>
      </trkpt>
      <trkpt lat="45.43508" lon="5.76209">
        <ele>394.4</ele>
        <time>2019-04-17T14:42:15Z</time>
      </trkpt>
      <trkpt lat="45.43508" lon="5.76216">
        <ele>394.5</ele>
        <time>2019-04-17T14:42:17Z</time>
      </trkpt>
      <trkpt lat="45.43509" lon="5.7622">
        <ele>394.5</ele>
        <time>2019-04-17T14:42:18Z</time>
      </trkpt>
      <trkpt lat="45.4351" lon="5.76228">
        <ele>394.5</ele>
        <time>2019-04-17T14:42:20Z</time>
      </trkpt>
      <trkpt lat="45.4351" lon="5.76232">
        <ele>394.5</ele>
        <time>2019-04-17T14:42:21Z</time>
      </trkpt>
      <trkpt lat="45.43511" lon="5.76239">
        <ele>394.6</ele>
        <time>2019-04-17T14:42:23Z</time>
      </trkpt>
      <trkpt lat="45.43512" lon="5.76246">
        <ele>394.6</ele>
        <time>2019-04-17T14:42:25Z</time>
      </trkpt>
      <trkpt lat="45.43513" lon="5.7625">
        <ele>394.7</ele>
        <time>2019-04-17T14:42:26Z</time>
      </trkpt>
      <trkpt lat="45.43514" lon="5.76255">
        <ele>394.7</ele>
        <time>2019-04-17T14:42:27Z</time>
      </trkpt>
      <trkpt lat="45.43517" lon="5.76261">
        <ele>394.8</ele>
        <time>2019-04-17T14:42:29Z</time>
      </trkpt>
      <trkpt lat="45.43518" lon="5.76265">
        <ele>394.8</ele>
        <time>2019-04-17T14:42:30Z</time>
      </trkpt>
      <trkpt lat="45.4352" lon="5.7627">
        <ele>394.9</ele>
        <time>2019-04-17T14:42:31Z</time>
      </trkpt>
      <trkpt lat="45.43521" lon="5.76275">
        <ele>394.9</ele>
        <time>2019-04-17T14:42:32Z</time>
      </trkpt>
      <trkpt lat="45.43522" lon="5.7628">
        <ele>395</ele>
        <time>2019-04-17T14:42:33Z</time>
      </trkpt>
      <trkpt lat="45.43523" lon="5.76284">
        <ele>395.1</ele>
        <time>2019-04-17T14:42:34Z</time>
      </trkpt>
      <trkpt lat="45.43525" lon="5.76288">
        <ele>395.1</ele>
        <time>2019-04-17T14:42:35Z</time>
      </trkpt>
      <trkpt lat="45.43526" lon="5.76292">
        <ele>395.2</ele>
        <time>2019-04-17T14:42:36Z</time>
      </trkpt>
      <trkpt lat="45.43528" lon="5.76296">
        <ele>395.3</ele>
        <time>2019-04-17T14:42:37Z</time>
      </trkpt>
      <trkpt lat="45.43529" lon="5.763">
        <ele>395.3</ele>
        <time>2019-04-17T14:42:38Z</time>
      </trkpt>
      <trkpt lat="45.43532" lon="5.76305">
        <ele>395.4</ele>
        <time>2019-04-17T14:42:40Z</time>
      </trkpt>
      <trkpt lat="45.43534" lon="5.7631">
        <ele>395.4</ele>
        <time>2019-04-17T14:42:42Z</time>
      </trkpt>
      <trkpt lat="45.43535" lon="5.76313">
        <ele>395.5</ele>
        <time>2019-04-17T14:42:43Z</time>
      </trkpt>
      <trkpt lat="45.43536" lon="5.76317">
        <ele>395.5</ele>
        <time>2019-04-17T14:42:44Z</time>
      </trkpt>
      <trkpt lat="45.43538" lon="5.7632">
        <ele>395.6</ele>
        <time>2019-04-17T14:42:45Z</time>
      </trkpt>
      <trkpt lat="45.4354" lon="5.76323">
        <ele>395.6</ele>
        <time>2019-04-17T14:42:46Z</time>
      </trkpt>
      <trkpt lat="45.43542" lon="5.76328">
        <ele>395.6</ele>
        <time>2019-04-17T14:42:47Z</time>
      </trkpt>
      <trkpt lat="45.43545" lon="5.76333">
        <ele>395.7</ele>
        <time>2019-04-17T14:42:48Z</time>
      </trkpt>
      <trkpt lat="45.43547" lon="5.76336">
        <ele>395.7</ele>
        <time>2019-04-17T14:42:49Z</time>
      </trkpt>
      <trkpt lat="45.43549" lon="5.76339">
        <ele>395.7</ele>
        <time>2019-04-17T14:42:50Z</time>
      </trkpt>
      <trkpt lat="45.43552" lon="5.76345">
        <ele>395.8</ele>
        <time>2019-04-17T14:42:52Z</time>
      </trkpt>
      <trkpt lat="45.43554" lon="5.76349">
        <ele>395.8</ele>
        <time>2019-04-17T14:42:53Z</time>
      </trkpt>
      <trkpt lat="45.43556" lon="5.76352">
        <ele>395.9</ele>
        <time>2019-04-17T14:42:54Z</time>
      </trkpt>
      <trkpt lat="45.43558" lon="5.76356">
        <ele>395.9</ele>
        <time>2019-04-17T14:42:55Z</time>
      </trkpt>
      <trkpt lat="45.4356" lon="5.76361">
        <ele>395.9</ele>
        <time>2019-04-17T14:42:56Z</time>
      </trkpt>
      <trkpt lat="45.43563" lon="5.76365">
        <ele>395.9</ele>
        <time>2019-04-17T14:42:57Z</time>
      </trkpt>
      <trkpt lat="45.43565" lon="5.76369">
        <ele>395.9</ele>
        <time>2019-04-17T14:42:58Z</time>
      </trkpt>
      <trkpt lat="45.43567" lon="5.76373">
        <ele>396</ele>
        <time>2019-04-17T14:42:59Z</time>
      </trkpt>
      <trkpt lat="45.43569" lon="5.76378">
        <ele>396</ele>
        <time>2019-04-17T14:43:01Z</time>
      </trkpt>
      <trkpt lat="45.43571" lon="5.76381">
        <ele>395.9</ele>
        <time>2019-04-17T14:43:02Z</time>
      </trkpt>
      <trkpt lat="45.43573" lon="5.76385">
        <ele>395.9</ele>
        <time>2019-04-17T14:43:03Z</time>
      </trkpt>
      <trkpt lat="45.43575" lon="5.76388">
        <ele>395.9</ele>
        <time>2019-04-17T14:43:04Z</time>
      </trkpt>
      <trkpt lat="45.43577" lon="5.76392">
        <ele>395.9</ele>
        <time>2019-04-17T14:43:05Z</time>
      </trkpt>
      <trkpt lat="45.43579" lon="5.76396">
        <ele>395.9</ele>
        <time>2019-04-17T14:43:06Z</time>
      </trkpt>
      <trkpt lat="45.43582" lon="5.764">
        <ele>395.9</ele>
        <time>2019-04-17T14:43:07Z</time>
      </trkpt>
      <trkpt lat="45.43584" lon="5.76403">
        <ele>395.8</ele>
        <time>2019-04-17T14:43:09Z</time>
      </trkpt>
      <trkpt lat="45.43586" lon="5.76407">
        <ele>395.8</ele>
        <time>2019-04-17T14:43:10Z</time>
      </trkpt>
      <trkpt lat="45.4359" lon="5.76412">
        <ele>395.8</ele>
        <time>2019-04-17T14:43:11Z</time>
      </trkpt>
      <trkpt lat="45.43593" lon="5.76417">
        <ele>395.8</ele>
        <time>2019-04-17T14:43:12Z</time>
      </trkpt>
      <trkpt lat="45.43596" lon="5.76421">
        <ele>395.9</ele>
        <time>2019-04-17T14:43:13Z</time>
      </trkpt>
      <trkpt lat="45.43599" lon="5.76424">
        <ele>396</ele>
        <time>2019-04-17T14:43:14Z</time>
      </trkpt>
      <trkpt lat="45.43601" lon="5.76427">
        <ele>396.1</ele>
        <time>2019-04-17T14:43:15Z</time>
      </trkpt>
      <trkpt lat="45.43604" lon="5.7643">
        <ele>396.2</ele>
        <time>2019-04-17T14:43:17Z</time>
      </trkpt>
      <trkpt lat="45.43609" lon="5.76431">
        <ele>396.3</ele>
        <time>2019-04-17T14:43:19Z</time>
      </trkpt>
      <trkpt lat="45.43611" lon="5.76433">
        <ele>396.4</ele>
        <time>2019-04-17T14:43:20Z</time>
      </trkpt>
      <trkpt lat="45.43614" lon="5.76436">
        <ele>396.5</ele>
        <time>2019-04-17T14:43:21Z</time>
      </trkpt>
      <trkpt lat="45.43618" lon="5.7644">
        <ele>396.4</ele>
        <time>2019-04-17T14:43:22Z</time>
      </trkpt>
      <trkpt lat="45.43622" lon="5.76444">
        <ele>396.4</ele>
        <time>2019-04-17T14:43:23Z</time>
      </trkpt>
      <trkpt lat="45.43626" lon="5.76448">
        <ele>396.4</ele>
        <time>2019-04-17T14:43:24Z</time>
      </trkpt>
      <trkpt lat="45.4363" lon="5.76451">
        <ele>396.4</ele>
        <time>2019-04-17T14:43:25Z</time>
      </trkpt>
      <trkpt lat="45.43634" lon="5.76455">
        <ele>396.4</ele>
        <time>2019-04-17T14:43:26Z</time>
      </trkpt>
      <trkpt lat="45.43637" lon="5.76457">
        <ele>396.4</ele>
        <time>2019-04-17T14:43:27Z</time>
      </trkpt>
      <trkpt lat="45.4364" lon="5.7646">
        <ele>396.4</ele>
        <time>2019-04-17T14:43:28Z</time>
      </trkpt>
      <trkpt lat="45.43643" lon="5.76462">
        <ele>396.5</ele>
        <time>2019-04-17T14:43:29Z</time>
      </trkpt>
      <trkpt lat="45.43646" lon="5.76465">
        <ele>396.6</ele>
        <time>2019-04-17T14:43:30Z</time>
      </trkpt>
      <trkpt lat="45.4365" lon="5.76468">
        <ele>396.7</ele>
        <time>2019-04-17T14:43:32Z</time>
      </trkpt>
      <trkpt lat="45.43654" lon="5.76472">
        <ele>396.9</ele>
        <time>2019-04-17T14:43:34Z</time>
      </trkpt>
      <trkpt lat="45.43656" lon="5.76475">
        <ele>397</ele>
        <time>2019-04-17T14:43:35Z</time>
      </trkpt>
      <trkpt lat="45.43659" lon="5.76478">
        <ele>397.1</ele>
        <time>2019-04-17T14:43:36Z</time>
      </trkpt>
      <trkpt lat="45.43661" lon="5.76481">
        <ele>397.3</ele>
        <time>2019-04-17T14:43:37Z</time>
      </trkpt>
      <trkpt lat="45.43665" lon="5.76486">
        <ele>397.5</ele>
        <time>2019-04-17T14:43:39Z</time>
      </trkpt>
      <trkpt lat="45.43667" lon="5.76491">
        <ele>397.7</ele>
        <time>2019-04-17T14:43:41Z</time>
      </trkpt>
      <trkpt lat="45.43669" lon="5.76495">
        <ele>397.9</ele>
        <time>2019-04-17T14:43:42Z</time>
      </trkpt>
      <trkpt lat="45.43671" lon="5.76499">
        <ele>398</ele>
        <time>2019-04-17T14:43:43Z</time>
      </trkpt>
      <trkpt lat="45.43673" lon="5.76504">
        <ele>398.2</ele>
        <time>2019-04-17T14:43:44Z</time>
      </trkpt>
      <trkpt lat="45.43674" lon="5.76508">
        <ele>398.3</ele>
        <time>2019-04-17T14:43:45Z</time>
      </trkpt>
      <trkpt lat="45.43675" lon="5.76512">
        <ele>398.5</ele>
        <time>2019-04-17T14:43:46Z</time>
      </trkpt>
      <trkpt lat="45.43676" lon="5.76516">
        <ele>398.6</ele>
        <time>2019-04-17T14:43:47Z</time>
      </trkpt>
      <trkpt lat="45.43677" lon="5.76521">
        <ele>398.8</ele>
        <time>2019-04-17T14:43:48Z</time>
      </trkpt>
      <trkpt lat="45.43678" lon="5.76528">
        <ele>399</ele>
        <time>2019-04-17T14:43:50Z</time>
      </trkpt>
      <trkpt lat="45.43679" lon="5.76532">
        <ele>399.1</ele>
        <time>2019-04-17T14:43:51Z</time>
      </trkpt>
      <trkpt lat="45.43679" lon="5.76536">
        <ele>399.2</ele>
        <time>2019-04-17T14:43:52Z</time>
      </trkpt>
      <trkpt lat="45.4368" lon="5.76541">
        <ele>399.2</ele>
        <time>2019-04-17T14:43:53Z</time>
      </trkpt>
      <trkpt lat="45.4368" lon="5.76546">
        <ele>399.2</ele>
        <time>2019-04-17T14:43:54Z</time>
      </trkpt>
      <trkpt lat="45.43681" lon="5.7655">
        <ele>399.2</ele>
        <time>2019-04-17T14:43:55Z</time>
      </trkpt>
      <trkpt lat="45.43682" lon="5.76556">
        <ele>399.3</ele>
        <time>2019-04-17T14:43:57Z</time>
      </trkpt>
      <trkpt lat="45.43683" lon="5.7656">
        <ele>399.3</ele>
        <time>2019-04-17T14:43:58Z</time>
      </trkpt>
      <trkpt lat="45.43683" lon="5.76564">
        <ele>399.3</ele>
        <time>2019-04-17T14:43:59Z</time>
      </trkpt>
      <trkpt lat="45.43683" lon="5.7657">
        <ele>399.3</ele>
        <time>2019-04-17T14:44:01Z</time>
      </trkpt>
      <trkpt lat="45.43684" lon="5.76576">
        <ele>399.3</ele>
        <time>2019-04-17T14:44:03Z</time>
      </trkpt>
      <trkpt lat="45.43685" lon="5.76581">
        <ele>399.4</ele>
        <time>2019-04-17T14:44:05Z</time>
      </trkpt>
      <trkpt lat="45.43686" lon="5.76587">
        <ele>399.4</ele>
        <time>2019-04-17T14:44:07Z</time>
      </trkpt>
      <trkpt lat="45.43686" lon="5.76595">
        <ele>399.5</ele>
        <time>2019-04-17T14:44:09Z</time>
      </trkpt>
      <trkpt lat="45.43686" lon="5.76606">
        <ele>399.6</ele>
        <time>2019-04-17T14:44:11Z</time>
      </trkpt>
      <trkpt lat="45.43687" lon="5.76613">
        <ele>399.6</ele>
        <time>2019-04-17T14:44:14Z</time>
      </trkpt>
      <trkpt lat="45.43687" lon="5.76619">
        <ele>399.6</ele>
        <time>2019-04-17T14:44:15Z</time>
      </trkpt>
      <trkpt lat="45.43687" lon="5.76623">
        <ele>399.7</ele>
        <time>2019-04-17T14:44:16Z</time>
      </trkpt>
      <trkpt lat="45.43686" lon="5.76627">
        <ele>399.7</ele>
        <time>2019-04-17T14:44:17Z</time>
      </trkpt>
      <trkpt lat="45.43687" lon="5.76632">
        <ele>399.8</ele>
        <time>2019-04-17T14:44:18Z</time>
      </trkpt>
      <trkpt lat="45.43687" lon="5.76636">
        <ele>399.9</ele>
        <time>2019-04-17T14:44:19Z</time>
      </trkpt>
      <trkpt lat="45.43687" lon="5.7664">
        <ele>399.9</ele>
        <time>2019-04-17T14:44:20Z</time>
      </trkpt>
      <trkpt lat="45.43687" lon="5.76646">
        <ele>400</ele>
        <time>2019-04-17T14:44:21Z</time>
      </trkpt>
      <trkpt lat="45.43688" lon="5.7665">
        <ele>400</ele>
        <time>2019-04-17T14:44:22Z</time>
      </trkpt>
      <trkpt lat="45.43688" lon="5.76654">
        <ele>400.1</ele>
        <time>2019-04-17T14:44:23Z</time>
      </trkpt>
      <trkpt lat="45.43689" lon="5.76662">
        <ele>400.2</ele>
        <time>2019-04-17T14:44:25Z</time>
      </trkpt>
      <trkpt lat="45.43692" lon="5.76677">
        <ele>400.3</ele>
        <time>2019-04-17T14:44:29Z</time>
      </trkpt>
      <trkpt lat="45.43693" lon="5.76681">
        <ele>400.3</ele>
        <time>2019-04-17T14:44:30Z</time>
      </trkpt>
      <trkpt lat="45.43693" lon="5.76688">
        <ele>400.4</ele>
        <time>2019-04-17T14:44:32Z</time>
      </trkpt>
      <trkpt lat="45.43695" lon="5.76692">
        <ele>400.4</ele>
        <time>2019-04-17T14:44:33Z</time>
      </trkpt>
      <trkpt lat="45.43695" lon="5.76696">
        <ele>400.5</ele>
        <time>2019-04-17T14:44:34Z</time>
      </trkpt>
      <trkpt lat="45.43696" lon="5.76702">
        <ele>400.5</ele>
        <time>2019-04-17T14:44:36Z</time>
      </trkpt>
      <trkpt lat="45.43697" lon="5.76708">
        <ele>400.6</ele>
        <time>2019-04-17T14:44:38Z</time>
      </trkpt>
      <trkpt lat="45.43698" lon="5.76714">
        <ele>400.6</ele>
        <time>2019-04-17T14:44:40Z</time>
      </trkpt>
      <trkpt lat="45.43699" lon="5.76718">
        <ele>400.7</ele>
        <time>2019-04-17T14:44:41Z</time>
      </trkpt>
      <trkpt lat="45.437" lon="5.76722">
        <ele>400.7</ele>
        <time>2019-04-17T14:44:42Z</time>
      </trkpt>
      <trkpt lat="45.43701" lon="5.76727">
        <ele>400.7</ele>
        <time>2019-04-17T14:44:43Z</time>
      </trkpt>
      <trkpt lat="45.43702" lon="5.76731">
        <ele>400.7</ele>
        <time>2019-04-17T14:44:44Z</time>
      </trkpt>
      <trkpt lat="45.43703" lon="5.76735">
        <ele>400.8</ele>
        <time>2019-04-17T14:44:45Z</time>
      </trkpt>
      <trkpt lat="45.43704" lon="5.7674">
        <ele>400.8</ele>
        <time>2019-04-17T14:44:46Z</time>
      </trkpt>
      <trkpt lat="45.43704" lon="5.76745">
        <ele>400.9</ele>
        <time>2019-04-17T14:44:47Z</time>
      </trkpt>
      <trkpt lat="45.43704" lon="5.76749">
        <ele>400.9</ele>
        <time>2019-04-17T14:44:48Z</time>
      </trkpt>
      <trkpt lat="45.43704" lon="5.76755">
        <ele>400.9</ele>
        <time>2019-04-17T14:44:50Z</time>
      </trkpt>
      <trkpt lat="45.43705" lon="5.76762">
        <ele>400.9</ele>
        <time>2019-04-17T14:44:52Z</time>
      </trkpt>
      <trkpt lat="45.43705" lon="5.7677">
        <ele>401</ele>
        <time>2019-04-17T14:44:54Z</time>
      </trkpt>
      <trkpt lat="45.43705" lon="5.76775">
        <ele>401</ele>
        <time>2019-04-17T14:44:55Z</time>
      </trkpt>
      <trkpt lat="45.43705" lon="5.76779">
        <ele>401</ele>
        <time>2019-04-17T14:44:56Z</time>
      </trkpt>
      <trkpt lat="45.43706" lon="5.76784">
        <ele>401.1</ele>
        <time>2019-04-17T14:44:57Z</time>
      </trkpt>
      <trkpt lat="45.43706" lon="5.76789">
        <ele>401.1</ele>
        <time>2019-04-17T14:44:58Z</time>
      </trkpt>
      <trkpt lat="45.43707" lon="5.76793">
        <ele>401.2</ele>
        <time>2019-04-17T14:44:59Z</time>
      </trkpt>
      <trkpt lat="45.43707" lon="5.76797">
        <ele>401.2</ele>
        <time>2019-04-17T14:45:00Z</time>
      </trkpt>
      <trkpt lat="45.43707" lon="5.76801">
        <ele>401.3</ele>
        <time>2019-04-17T14:45:01Z</time>
      </trkpt>
      <trkpt lat="45.43708" lon="5.76809">
        <ele>401.4</ele>
        <time>2019-04-17T14:45:03Z</time>
      </trkpt>
      <trkpt lat="45.43709" lon="5.76816">
        <ele>401.5</ele>
        <time>2019-04-17T14:45:05Z</time>
      </trkpt>
      <trkpt lat="45.4371" lon="5.76819">
        <ele>401.5</ele>
        <time>2019-04-17T14:45:06Z</time>
      </trkpt>
      <trkpt lat="45.43709" lon="5.76824">
        <ele>401.6</ele>
        <time>2019-04-17T14:45:07Z</time>
      </trkpt>
      <trkpt lat="45.43709" lon="5.76829">
        <ele>401.6</ele>
        <time>2019-04-17T14:45:08Z</time>
      </trkpt>
      <trkpt lat="45.43709" lon="5.76834">
        <ele>401.7</ele>
        <time>2019-04-17T14:45:09Z</time>
      </trkpt>
      <trkpt lat="45.4371" lon="5.76838">
        <ele>401.7</ele>
        <time>2019-04-17T14:45:10Z</time>
      </trkpt>
      <trkpt lat="45.43711" lon="5.76845">
        <ele>401.8</ele>
        <time>2019-04-17T14:45:12Z</time>
      </trkpt>
      <trkpt lat="45.43711" lon="5.7685">
        <ele>401.8</ele>
        <time>2019-04-17T14:45:13Z</time>
      </trkpt>
      <trkpt lat="45.43712" lon="5.76856">
        <ele>401.9</ele>
        <time>2019-04-17T14:45:14Z</time>
      </trkpt>
      <trkpt lat="45.43712" lon="5.76862">
        <ele>402</ele>
        <time>2019-04-17T14:45:15Z</time>
      </trkpt>
      <trkpt lat="45.43712" lon="5.76868">
        <ele>402.1</ele>
        <time>2019-04-17T14:45:16Z</time>
      </trkpt>
      <trkpt lat="45.43712" lon="5.76873">
        <ele>402.1</ele>
        <time>2019-04-17T14:45:17Z</time>
      </trkpt>
      <trkpt lat="45.43712" lon="5.76878">
        <ele>402.2</ele>
        <time>2019-04-17T14:45:18Z</time>
      </trkpt>
      <trkpt lat="45.43713" lon="5.76882">
        <ele>402.4</ele>
        <time>2019-04-17T14:45:19Z</time>
      </trkpt>
      <trkpt lat="45.43713" lon="5.76887">
        <ele>402.5</ele>
        <time>2019-04-17T14:45:20Z</time>
      </trkpt>
      <trkpt lat="45.43714" lon="5.76891">
        <ele>402.6</ele>
        <time>2019-04-17T14:45:21Z</time>
      </trkpt>
      <trkpt lat="45.43714" lon="5.76895">
        <ele>402.7</ele>
        <time>2019-04-17T14:45:22Z</time>
      </trkpt>
      <trkpt lat="45.43714" lon="5.76899">
        <ele>402.8</ele>
        <time>2019-04-17T14:45:23Z</time>
      </trkpt>
      <trkpt lat="45.43715" lon="5.76903">
        <ele>403</ele>
        <time>2019-04-17T14:45:24Z</time>
      </trkpt>
      <trkpt lat="45.43715" lon="5.7691">
        <ele>403.2</ele>
        <time>2019-04-17T14:45:26Z</time>
      </trkpt>
      <trkpt lat="45.43716" lon="5.76915">
        <ele>403.4</ele>
        <time>2019-04-17T14:45:27Z</time>
      </trkpt>
      <trkpt lat="45.43716" lon="5.76919">
        <ele>403.5</ele>
        <time>2019-04-17T14:45:28Z</time>
      </trkpt>
      <trkpt lat="45.43716" lon="5.76923">
        <ele>403.6</ele>
        <time>2019-04-17T14:45:29Z</time>
      </trkpt>
      <trkpt lat="45.43717" lon="5.76927">
        <ele>403.7</ele>
        <time>2019-04-17T14:45:30Z</time>
      </trkpt>
      <trkpt lat="45.43718" lon="5.76931">
        <ele>403.8</ele>
        <time>2019-04-17T14:45:31Z</time>
      </trkpt>
      <trkpt lat="45.43721" lon="5.76936">
        <ele>403.9</ele>
        <time>2019-04-17T14:45:32Z</time>
      </trkpt>
      <trkpt lat="45.43723" lon="5.7694">
        <ele>403.9</ele>
        <time>2019-04-17T14:45:33Z</time>
      </trkpt>
      <trkpt lat="45.43725" lon="5.76947">
        <ele>404</ele>
        <time>2019-04-17T14:45:35Z</time>
      </trkpt>
      <trkpt lat="45.43727" lon="5.76951">
        <ele>404.1</ele>
        <time>2019-04-17T14:45:36Z</time>
      </trkpt>
      <trkpt lat="45.43728" lon="5.76954">
        <ele>404.1</ele>
        <time>2019-04-17T14:45:37Z</time>
      </trkpt>
      <trkpt lat="45.43732" lon="5.76959">
        <ele>404.3</ele>
        <time>2019-04-17T14:45:39Z</time>
      </trkpt>
      <trkpt lat="45.43734" lon="5.76965">
        <ele>404.3</ele>
        <time>2019-04-17T14:45:41Z</time>
      </trkpt>
      <trkpt lat="45.43736" lon="5.76969">
        <ele>404.4</ele>
        <time>2019-04-17T14:45:43Z</time>
      </trkpt>
      <trkpt lat="45.43738" lon="5.76972">
        <ele>404.4</ele>
        <time>2019-04-17T14:45:55Z</time>
      </trkpt>
      <trkpt lat="45.43741" lon="5.76974">
        <ele>404.4</ele>
        <time>2019-04-17T14:45:57Z</time>
      </trkpt>
      <trkpt lat="45.43744" lon="5.76976">
        <ele>404.5</ele>
        <time>2019-04-17T14:45:59Z</time>
      </trkpt>
      <trkpt lat="45.43747" lon="5.76978">
        <ele>404.5</ele>
        <time>2019-04-17T14:46:01Z</time>
      </trkpt>
      <trkpt lat="45.43751" lon="5.76981">
        <ele>404.5</ele>
        <time>2019-04-17T14:46:03Z</time>
      </trkpt>
      <trkpt lat="45.43754" lon="5.76983">
        <ele>404.5</ele>
        <time>2019-04-17T14:46:05Z</time>
      </trkpt>
      <trkpt lat="45.43756" lon="5.76987">
        <ele>404.5</ele>
        <time>2019-04-17T14:46:07Z</time>
      </trkpt>
      <trkpt lat="45.43761" lon="5.7699">
        <ele>404.5</ele>
        <time>2019-04-17T14:46:09Z</time>
      </trkpt>
      <trkpt lat="45.43764" lon="5.76992">
        <ele>404.5</ele>
        <time>2019-04-17T14:46:10Z</time>
      </trkpt>
      <trkpt lat="45.43768" lon="5.76994">
        <ele>404.4</ele>
        <time>2019-04-17T14:46:11Z</time>
      </trkpt>
      <trkpt lat="45.4377" lon="5.76996">
        <ele>404.4</ele>
        <time>2019-04-17T14:46:12Z</time>
      </trkpt>
      <trkpt lat="45.43773" lon="5.76998">
        <ele>404.4</ele>
        <time>2019-04-17T14:46:13Z</time>
      </trkpt>
      <trkpt lat="45.43776" lon="5.77">
        <ele>404.4</ele>
        <time>2019-04-17T14:46:14Z</time>
      </trkpt>
      <trkpt lat="45.43779" lon="5.77003">
        <ele>404.4</ele>
        <time>2019-04-17T14:46:15Z</time>
      </trkpt>
      <trkpt lat="45.43782" lon="5.77007">
        <ele>404.4</ele>
        <time>2019-04-17T14:46:17Z</time>
      </trkpt>
      <trkpt lat="45.43787" lon="5.77012">
        <ele>404.4</ele>
        <time>2019-04-17T14:46:19Z</time>
      </trkpt>
      <trkpt lat="45.4379" lon="5.77015">
        <ele>404.4</ele>
        <time>2019-04-17T14:46:20Z</time>
      </trkpt>
      <trkpt lat="45.43793" lon="5.77018">
        <ele>404.4</ele>
        <time>2019-04-17T14:46:21Z</time>
      </trkpt>
      <trkpt lat="45.43796" lon="5.7702">
        <ele>404.5</ele>
        <time>2019-04-17T14:46:22Z</time>
      </trkpt>
      <trkpt lat="45.43799" lon="5.77022">
        <ele>404.5</ele>
        <time>2019-04-17T14:46:23Z</time>
      </trkpt>
      <trkpt lat="45.43802" lon="5.77024">
        <ele>404.5</ele>
        <time>2019-04-17T14:46:24Z</time>
      </trkpt>
      <trkpt lat="45.43805" lon="5.77026">
        <ele>404.5</ele>
        <time>2019-04-17T14:46:25Z</time>
      </trkpt>
      <trkpt lat="45.43809" lon="5.7703">
        <ele>404.6</ele>
        <time>2019-04-17T14:46:27Z</time>
      </trkpt>
      <trkpt lat="45.43814" lon="5.77034">
        <ele>404.6</ele>
        <time>2019-04-17T14:46:29Z</time>
      </trkpt>
      <trkpt lat="45.43816" lon="5.77038">
        <ele>404.7</ele>
        <time>2019-04-17T14:46:30Z</time>
      </trkpt>
      <trkpt lat="45.43819" lon="5.77042">
        <ele>404.7</ele>
        <time>2019-04-17T14:46:31Z</time>
      </trkpt>
      <trkpt lat="45.43821" lon="5.77047">
        <ele>404.8</ele>
        <time>2019-04-17T14:46:33Z</time>
      </trkpt>
      <trkpt lat="45.43822" lon="5.77052">
        <ele>404.8</ele>
        <time>2019-04-17T14:46:34Z</time>
      </trkpt>
      <trkpt lat="45.43824" lon="5.77056">
        <ele>404.7</ele>
        <time>2019-04-17T14:46:35Z</time>
      </trkpt>
      <trkpt lat="45.43825" lon="5.7706">
        <ele>404.7</ele>
        <time>2019-04-17T14:46:36Z</time>
      </trkpt>
      <trkpt lat="45.43827" lon="5.77065">
        <ele>404.6</ele>
        <time>2019-04-17T14:46:37Z</time>
      </trkpt>
      <trkpt lat="45.43828" lon="5.77069">
        <ele>404.6</ele>
        <time>2019-04-17T14:46:38Z</time>
      </trkpt>
      <trkpt lat="45.43829" lon="5.77073">
        <ele>404.5</ele>
        <time>2019-04-17T14:46:39Z</time>
      </trkpt>
      <trkpt lat="45.4383" lon="5.77077">
        <ele>404.5</ele>
        <time>2019-04-17T14:46:40Z</time>
      </trkpt>
      <trkpt lat="45.43831" lon="5.77082">
        <ele>404.5</ele>
        <time>2019-04-17T14:46:41Z</time>
      </trkpt>
      <trkpt lat="45.43833" lon="5.77087">
        <ele>404.4</ele>
        <time>2019-04-17T14:46:42Z</time>
      </trkpt>
      <trkpt lat="45.43835" lon="5.77093">
        <ele>404.3</ele>
        <time>2019-04-17T14:46:43Z</time>
      </trkpt>
      <trkpt lat="45.43836" lon="5.77097">
        <ele>404.3</ele>
        <time>2019-04-17T14:46:44Z</time>
      </trkpt>
      <trkpt lat="45.43837" lon="5.77103">
        <ele>404.3</ele>
        <time>2019-04-17T14:46:45Z</time>
      </trkpt>
      <trkpt lat="45.43838" lon="5.77109">
        <ele>404.2</ele>
        <time>2019-04-17T14:46:46Z</time>
      </trkpt>
      <trkpt lat="45.43839" lon="5.77114">
        <ele>404.2</ele>
        <time>2019-04-17T14:46:47Z</time>
      </trkpt>
      <trkpt lat="45.4384" lon="5.77119">
        <ele>404.2</ele>
        <time>2019-04-17T14:46:48Z</time>
      </trkpt>
      <trkpt lat="45.43841" lon="5.77123">
        <ele>404.1</ele>
        <time>2019-04-17T14:46:49Z</time>
      </trkpt>
      <trkpt lat="45.43842" lon="5.77129">
        <ele>404.1</ele>
        <time>2019-04-17T14:46:51Z</time>
      </trkpt>
      <trkpt lat="45.43844" lon="5.77136">
        <ele>404.1</ele>
        <time>2019-04-17T14:46:53Z</time>
      </trkpt>
      <trkpt lat="45.43844" lon="5.7714">
        <ele>404.1</ele>
        <time>2019-04-17T14:46:54Z</time>
      </trkpt>
      <trkpt lat="45.43845" lon="5.77145">
        <ele>404.1</ele>
        <time>2019-04-17T14:46:55Z</time>
      </trkpt>
      <trkpt lat="45.43845" lon="5.7715">
        <ele>404.3</ele>
        <time>2019-04-17T14:46:57Z</time>
      </trkpt>
      <trkpt lat="45.43846" lon="5.77158">
        <ele>404.5</ele>
        <time>2019-04-17T14:46:59Z</time>
      </trkpt>
      <trkpt lat="45.43846" lon="5.77163">
        <ele>404.7</ele>
        <time>2019-04-17T14:47:00Z</time>
      </trkpt>
      <trkpt lat="45.43846" lon="5.77168">
        <ele>404.9</ele>
        <time>2019-04-17T14:47:01Z</time>
      </trkpt>
      <trkpt lat="45.43847" lon="5.77173">
        <ele>405.2</ele>
        <time>2019-04-17T14:47:02Z</time>
      </trkpt>
      <trkpt lat="45.43847" lon="5.77181">
        <ele>405.5</ele>
        <time>2019-04-17T14:47:03Z</time>
      </trkpt>
      <trkpt lat="45.43847" lon="5.77185">
        <ele>405.6</ele>
        <time>2019-04-17T14:47:04Z</time>
      </trkpt>
      <trkpt lat="45.43846" lon="5.77192">
        <ele>405.9</ele>
        <time>2019-04-17T14:47:06Z</time>
      </trkpt>
      <trkpt lat="45.43846" lon="5.77197">
        <ele>406</ele>
        <time>2019-04-17T14:47:07Z</time>
      </trkpt>
      <trkpt lat="45.43846" lon="5.77203">
        <ele>406.2</ele>
        <time>2019-04-17T14:47:09Z</time>
      </trkpt>
      <trkpt lat="45.43845" lon="5.7721">
        <ele>406.4</ele>
        <time>2019-04-17T14:47:11Z</time>
      </trkpt>
      <trkpt lat="45.43845" lon="5.77216">
        <ele>406.5</ele>
        <time>2019-04-17T14:47:12Z</time>
      </trkpt>
      <trkpt lat="45.43843" lon="5.77222">
        <ele>406.6</ele>
        <time>2019-04-17T14:47:13Z</time>
      </trkpt>
      <trkpt lat="45.43844" lon="5.7723">
        <ele>406.7</ele>
        <time>2019-04-17T14:47:15Z</time>
      </trkpt>
      <trkpt lat="45.43844" lon="5.77235">
        <ele>406.8</ele>
        <time>2019-04-17T14:47:16Z</time>
      </trkpt>
      <trkpt lat="45.43841" lon="5.77244">
        <ele>406.9</ele>
        <time>2019-04-17T14:47:18Z</time>
      </trkpt>
      <trkpt lat="45.43841" lon="5.77248">
        <ele>406.9</ele>
        <time>2019-04-17T14:47:19Z</time>
      </trkpt>
      <trkpt lat="45.43841" lon="5.77252">
        <ele>407</ele>
        <time>2019-04-17T14:47:20Z</time>
      </trkpt>
      <trkpt lat="45.43842" lon="5.7726">
        <ele>407.1</ele>
        <time>2019-04-17T14:47:22Z</time>
      </trkpt>
      <trkpt lat="45.43842" lon="5.77264">
        <ele>407.1</ele>
        <time>2019-04-17T14:47:23Z</time>
      </trkpt>
      <trkpt lat="45.43841" lon="5.7727">
        <ele>407.2</ele>
        <time>2019-04-17T14:47:25Z</time>
      </trkpt>
      <trkpt lat="45.43843" lon="5.77277">
        <ele>407.2</ele>
        <time>2019-04-17T14:47:27Z</time>
      </trkpt>
      <trkpt lat="45.43844" lon="5.7728">
        <ele>407.3</ele>
        <time>2019-04-17T14:47:28Z</time>
      </trkpt>
      <trkpt lat="45.43845" lon="5.77284">
        <ele>407.3</ele>
        <time>2019-04-17T14:47:29Z</time>
      </trkpt>
      <trkpt lat="45.43849" lon="5.77287">
        <ele>407.3</ele>
        <time>2019-04-17T14:47:31Z</time>
      </trkpt>
      <trkpt lat="45.43852" lon="5.77289">
        <ele>407.4</ele>
        <time>2019-04-17T14:47:32Z</time>
      </trkpt>
      <trkpt lat="45.43854" lon="5.77293">
        <ele>407.4</ele>
        <time>2019-04-17T14:47:33Z</time>
      </trkpt>
      <trkpt lat="45.43857" lon="5.77297">
        <ele>407.4</ele>
        <time>2019-04-17T14:47:34Z</time>
      </trkpt>
      <trkpt lat="45.43858" lon="5.77301">
        <ele>407.4</ele>
        <time>2019-04-17T14:47:35Z</time>
      </trkpt>
      <trkpt lat="45.43862" lon="5.77306">
        <ele>407.4</ele>
        <time>2019-04-17T14:47:37Z</time>
      </trkpt>
      <trkpt lat="45.43866" lon="5.77311">
        <ele>407.3</ele>
        <time>2019-04-17T14:47:39Z</time>
      </trkpt>
      <trkpt lat="45.43869" lon="5.77313">
        <ele>407.3</ele>
        <time>2019-04-17T14:47:40Z</time>
      </trkpt>
      <trkpt lat="45.43871" lon="5.77316">
        <ele>407.3</ele>
        <time>2019-04-17T14:47:41Z</time>
      </trkpt>
      <trkpt lat="45.43875" lon="5.7732">
        <ele>407.3</ele>
        <time>2019-04-17T14:47:43Z</time>
      </trkpt>
      <trkpt lat="45.43877" lon="5.77323">
        <ele>407.3</ele>
        <time>2019-04-17T14:47:45Z</time>
      </trkpt>
      <trkpt lat="45.43879" lon="5.77329">
        <ele>407.3</ele>
        <time>2019-04-17T14:47:47Z</time>
      </trkpt>
      <trkpt lat="45.43879" lon="5.77337">
        <ele>407.7</ele>
        <time>2019-04-17T14:47:49Z</time>
      </trkpt>
      <trkpt lat="45.43878" lon="5.77343">
        <ele>408</ele>
        <time>2019-04-17T14:47:51Z</time>
      </trkpt>
      <trkpt lat="45.43878" lon="5.7735">
        <ele>408.3</ele>
        <time>2019-04-17T14:47:53Z</time>
      </trkpt>
      <trkpt lat="45.43878" lon="5.77356">
        <ele>408.8</ele>
        <time>2019-04-17T14:47:55Z</time>
      </trkpt>
      <trkpt lat="45.4388" lon="5.7736">
        <ele>408.8</ele>
        <time>2019-04-17T14:47:56Z</time>
      </trkpt>
      <trkpt lat="45.4388" lon="5.77367">
        <ele>408.9</ele>
        <time>2019-04-17T14:47:58Z</time>
      </trkpt>
      <trkpt lat="45.43879" lon="5.77374">
        <ele>408.9</ele>
        <time>2019-04-17T14:48:00Z</time>
      </trkpt>
      <trkpt lat="45.43877" lon="5.77381">
        <ele>409.3</ele>
        <time>2019-04-17T14:48:02Z</time>
      </trkpt>
      <trkpt lat="45.43875" lon="5.77388">
        <ele>409.4</ele>
        <time>2019-04-17T14:48:04Z</time>
      </trkpt>
      <trkpt lat="45.43874" lon="5.77392">
        <ele>409.5</ele>
        <time>2019-04-17T14:48:05Z</time>
      </trkpt>
      <trkpt lat="45.43873" lon="5.77397">
        <ele>409.6</ele>
        <time>2019-04-17T14:48:06Z</time>
      </trkpt>
      <trkpt lat="45.43872" lon="5.774">
        <ele>409.7</ele>
        <time>2019-04-17T14:48:07Z</time>
      </trkpt>
      <trkpt lat="45.4387" lon="5.77404">
        <ele>409.8</ele>
        <time>2019-04-17T14:48:08Z</time>
      </trkpt>
      <trkpt lat="45.43869" lon="5.77407">
        <ele>409.8</ele>
        <time>2019-04-17T14:48:09Z</time>
      </trkpt>
      <trkpt lat="45.43864" lon="5.77413">
        <ele>410</ele>
        <time>2019-04-17T14:48:10Z</time>
      </trkpt>
      <trkpt lat="45.43863" lon="5.77417">
        <ele>410.1</ele>
        <time>2019-04-17T14:48:11Z</time>
      </trkpt>
      <trkpt lat="45.43865" lon="5.7742">
        <ele>410.2</ele>
        <time>2019-04-17T14:48:12Z</time>
      </trkpt>
      <trkpt lat="45.43863" lon="5.77425">
        <ele>410.3</ele>
        <time>2019-04-17T14:48:14Z</time>
      </trkpt>
      <trkpt lat="45.43861" lon="5.77428">
        <ele>410.3</ele>
        <time>2019-04-17T14:48:17Z</time>
      </trkpt>
      <trkpt lat="45.43857" lon="5.77429">
        <ele>410.3</ele>
        <time>2019-04-17T14:48:19Z</time>
      </trkpt>
      <trkpt lat="45.43852" lon="5.77429">
        <ele>410.3</ele>
        <time>2019-04-17T14:48:21Z</time>
      </trkpt>
      <trkpt lat="45.43847" lon="5.77427">
        <ele>410.3</ele>
        <time>2019-04-17T14:48:22Z</time>
      </trkpt>
      <trkpt lat="45.43843" lon="5.77424">
        <ele>410.3</ele>
        <time>2019-04-17T14:48:23Z</time>
      </trkpt>
      <trkpt lat="45.43841" lon="5.77421">
        <ele>410.3</ele>
        <time>2019-04-17T14:48:25Z</time>
      </trkpt>
      <trkpt lat="45.43838" lon="5.77421">
        <ele>410.3</ele>
        <time>2019-04-17T14:48:27Z</time>
      </trkpt>
      <trkpt lat="45.43835" lon="5.77423">
        <ele>410.3</ele>
        <time>2019-04-17T14:48:29Z</time>
      </trkpt>
      <trkpt lat="45.4383" lon="5.77423">
        <ele>410.3</ele>
        <time>2019-04-17T14:48:31Z</time>
      </trkpt>
      <trkpt lat="45.43826" lon="5.7742">
        <ele>410.3</ele>
        <time>2019-04-17T14:48:33Z</time>
      </trkpt>
      <trkpt lat="45.43822" lon="5.77418">
        <ele>410.2</ele>
        <time>2019-04-17T14:48:35Z</time>
      </trkpt>
      <trkpt lat="45.43819" lon="5.77417">
        <ele>410.2</ele>
        <time>2019-04-17T14:48:37Z</time>
      </trkpt>
      <trkpt lat="45.43816" lon="5.77415">
        <ele>410.2</ele>
        <time>2019-04-17T14:48:41Z</time>
      </trkpt>
      <trkpt lat="45.43815" lon="5.77411">
        <ele>410.2</ele>
        <time>2019-04-17T14:48:47Z</time>
      </trkpt>
      <trkpt lat="45.43815" lon="5.77407">
        <ele>410.2</ele>
        <time>2019-04-17T14:48:51Z</time>
      </trkpt>
      <trkpt lat="45.43813" lon="5.77403">
        <ele>410.2</ele>
        <time>2019-04-17T14:48:54Z</time>
      </trkpt>
      <trkpt lat="45.43814" lon="5.77399">
        <ele>410.2</ele>
        <time>2019-04-17T14:48:58Z</time>
      </trkpt>
      <trkpt lat="45.43813" lon="5.77395">
        <ele>410.2</ele>
        <time>2019-04-17T14:49:02Z</time>
      </trkpt>
      <trkpt lat="45.43813" lon="5.77391">
        <ele>410.2</ele>
        <time>2019-04-17T14:49:09Z</time>
      </trkpt>
      <trkpt lat="45.43815" lon="5.77388">
        <ele>410.2</ele>
        <time>2019-04-17T14:49:21Z</time>
      </trkpt>
      <trkpt lat="45.43815" lon="5.77385">
        <ele>410.2</ele>
        <time>2019-04-17T14:49:41Z</time>
      </trkpt>
      <trkpt lat="45.43815" lon="5.77381">
        <ele>410.2</ele>
        <time>2019-04-17T14:49:51Z</time>
      </trkpt>
      <trkpt lat="45.43818" lon="5.77382">
        <ele>410.2</ele>
        <time>2019-04-17T14:50:02Z</time>
      </trkpt>
      <trkpt lat="45.43818" lon="5.77386">
        <ele>410.2</ele>
        <time>2019-04-17T14:50:06Z</time>
      </trkpt>
      <trkpt lat="45.43816" lon="5.7739">
        <ele>410.2</ele>
        <time>2019-04-17T14:50:09Z</time>
      </trkpt>
      <trkpt lat="45.43819" lon="5.77391">
        <ele>410.2</ele>
        <time>2019-04-17T14:50:13Z</time>
      </trkpt>
      <trkpt lat="45.43821" lon="5.77394">
        <ele>410.2</ele>
        <time>2019-04-17T14:50:20Z</time>
      </trkpt>
      <trkpt lat="45.43817" lon="5.77392">
        <ele>410.2</ele>
        <time>2019-04-17T14:52:01Z</time>
      </trkpt>
    </trkseg>
  </trk>
</gpx>